<?xml version="1.0" encoding="UTF-8" standalone="no" ?>
<gpx xmlns="http://www.topografix.com/GPX/1/1" xmlns:xsi="http://www.w3.org/2001/XMLSchema-instance" xsi:schemaLocation="http://www.topografix.com/GPX/1/1 http://www.topografix.com/GPX/1/1/gpx.xsd" version="1.1" creator="VisuGPX - https://www.visugpx.com">
  <metadata>
    <name>ST_RAD 29km  1500m</name>
    <desc><![CDATA[29km  -1000m]]></desc>
  </metadata>
  <trk>
    <name><![CDATA[st RA 28km+++]]></name>
    <trkseg>
      <trkpt lat="44.33591" lon="2.62914">
        <ele>647.1044922</ele>
        <time>2014-08-10T06:11:19Z</time>
      </trkpt>
      <trkpt lat="44.3359" lon="2.62917">
        <ele>649.9885254</ele>
        <time>2014-08-10T06:11:31Z</time>
      </trkpt>
      <trkpt lat="44.33586" lon="2.62917">
        <ele>650.949707</ele>
        <time>2014-08-10T06:11:35Z</time>
      </trkpt>
      <trkpt lat="44.33584" lon="2.62918">
        <ele>650.949707</ele>
        <time>2014-08-10T06:11:37Z</time>
      </trkpt>
      <trkpt lat="44.33575" lon="2.62922">
        <ele>649.9885254</ele>
        <time>2014-08-10T06:11:46Z</time>
      </trkpt>
      <trkpt lat="44.33571" lon="2.62925">
        <ele>649.5078125</ele>
        <time>2014-08-10T06:11:51Z</time>
      </trkpt>
      <trkpt lat="44.33568" lon="2.62934">
        <ele>649.5078125</ele>
        <time>2014-08-10T06:11:58Z</time>
      </trkpt>
      <trkpt lat="44.33566" lon="2.62947">
        <ele>648.065918</ele>
        <time>2014-08-10T06:12:07Z</time>
      </trkpt>
      <trkpt lat="44.33568" lon="2.62961">
        <ele>647.1044922</ele>
        <time>2014-08-10T06:12:13Z</time>
      </trkpt>
      <trkpt lat="44.3357" lon="2.62986">
        <ele>646.6240234</ele>
        <time>2014-08-10T06:12:22Z</time>
      </trkpt>
      <trkpt lat="44.33571" lon="2.63009">
        <ele>647.1044922</ele>
        <time>2014-08-10T06:12:30Z</time>
      </trkpt>
      <trkpt lat="44.33572" lon="2.63022">
        <ele>646.1433105</ele>
        <time>2014-08-10T06:12:35Z</time>
      </trkpt>
      <trkpt lat="44.33567" lon="2.63036">
        <ele>644.7011719</ele>
        <time>2014-08-10T06:12:41Z</time>
      </trkpt>
      <trkpt lat="44.33562" lon="2.63046">
        <ele>642.7788086</ele>
        <time>2014-08-10T06:12:45Z</time>
      </trkpt>
      <trkpt lat="44.33561" lon="2.63059">
        <ele>641.8173828</ele>
        <time>2014-08-10T06:12:49Z</time>
      </trkpt>
      <trkpt lat="44.33559" lon="2.63076">
        <ele>640.3754883</ele>
        <time>2014-08-10T06:12:54Z</time>
      </trkpt>
      <trkpt lat="44.33558" lon="2.63084">
        <ele>640.3754883</ele>
        <time>2014-08-10T06:12:56Z</time>
      </trkpt>
      <trkpt lat="44.33555" lon="2.63104">
        <ele>638.9335938</ele>
        <time>2014-08-10T06:13:02Z</time>
      </trkpt>
      <trkpt lat="44.33552" lon="2.63117">
        <ele>638.4528809</ele>
        <time>2014-08-10T06:13:06Z</time>
      </trkpt>
      <trkpt lat="44.33545" lon="2.63135">
        <ele>637.972168</ele>
        <time>2014-08-10T06:13:12Z</time>
      </trkpt>
      <trkpt lat="44.33539" lon="2.6315">
        <ele>637.4914551</ele>
        <time>2014-08-10T06:13:17Z</time>
      </trkpt>
      <trkpt lat="44.33534" lon="2.63165">
        <ele>637.4914551</ele>
        <time>2014-08-10T06:13:22Z</time>
      </trkpt>
      <trkpt lat="44.33532" lon="2.63183">
        <ele>637.0107422</ele>
        <time>2014-08-10T06:13:27Z</time>
      </trkpt>
      <trkpt lat="44.33527" lon="2.63204">
        <ele>637.4914551</ele>
        <time>2014-08-10T06:13:33Z</time>
      </trkpt>
      <trkpt lat="44.33524" lon="2.63222">
        <ele>636.0495605</ele>
        <time>2014-08-10T06:13:38Z</time>
      </trkpt>
      <trkpt lat="44.33521" lon="2.63236">
        <ele>635.0881348</ele>
        <time>2014-08-10T06:13:42Z</time>
      </trkpt>
      <trkpt lat="44.33515" lon="2.63251">
        <ele>634.126709</ele>
        <time>2014-08-10T06:13:47Z</time>
      </trkpt>
      <trkpt lat="44.3351" lon="2.63266">
        <ele>631.2429199</ele>
        <time>2014-08-10T06:13:52Z</time>
      </trkpt>
      <trkpt lat="44.33505" lon="2.63281">
        <ele>630.2814941</ele>
        <time>2014-08-10T06:13:57Z</time>
      </trkpt>
      <trkpt lat="44.33502" lon="2.63302">
        <ele>629.3200684</ele>
        <time>2014-08-10T06:14:03Z</time>
      </trkpt>
      <trkpt lat="44.33497" lon="2.63326">
        <ele>629.3200684</ele>
        <time>2014-08-10T06:14:10Z</time>
      </trkpt>
      <trkpt lat="44.33494" lon="2.63341">
        <ele>629.3200684</ele>
        <time>2014-08-10T06:14:14Z</time>
      </trkpt>
      <trkpt lat="44.3349" lon="2.63362">
        <ele>629.3200684</ele>
        <time>2014-08-10T06:14:20Z</time>
      </trkpt>
      <trkpt lat="44.33489" lon="2.63379">
        <ele>629.3200684</ele>
        <time>2014-08-10T06:14:25Z</time>
      </trkpt>
      <trkpt lat="44.33486" lon="2.63398">
        <ele>630.2814941</ele>
        <time>2014-08-10T06:14:30Z</time>
      </trkpt>
      <trkpt lat="44.33483" lon="2.63412">
        <ele>629.3200684</ele>
        <time>2014-08-10T06:14:35Z</time>
      </trkpt>
      <trkpt lat="44.33482" lon="2.63421">
        <ele>628.8395996</ele>
        <time>2014-08-10T06:14:39Z</time>
      </trkpt>
      <trkpt lat="44.33481" lon="2.63422">
        <ele>628.8395996</ele>
        <time>2014-08-10T06:14:40Z</time>
      </trkpt>
      <trkpt lat="44.33481" lon="2.63427">
        <ele>627.8781738</ele>
        <time>2014-08-10T06:14:46Z</time>
      </trkpt>
      <trkpt lat="44.33478" lon="2.63441">
        <ele>626.9169922</ele>
        <time>2014-08-10T06:14:51Z</time>
      </trkpt>
      <trkpt lat="44.33471" lon="2.63459">
        <ele>628.3588867</ele>
        <time>2014-08-10T06:14:57Z</time>
      </trkpt>
      <trkpt lat="44.33468" lon="2.63471">
        <ele>627.8781738</ele>
        <time>2014-08-10T06:15:01Z</time>
      </trkpt>
      <trkpt lat="44.33461" lon="2.63493">
        <ele>628.3588867</ele>
        <time>2014-08-10T06:15:08Z</time>
      </trkpt>
      <trkpt lat="44.33454" lon="2.63515">
        <ele>628.3588867</ele>
        <time>2014-08-10T06:15:15Z</time>
      </trkpt>
      <trkpt lat="44.33451" lon="2.63536">
        <ele>628.8395996</ele>
        <time>2014-08-10T06:15:21Z</time>
      </trkpt>
      <trkpt lat="44.3345" lon="2.63551">
        <ele>628.3588867</ele>
        <time>2014-08-10T06:15:25Z</time>
      </trkpt>
      <trkpt lat="44.33447" lon="2.63569">
        <ele>627.8781738</ele>
        <time>2014-08-10T06:15:30Z</time>
      </trkpt>
      <trkpt lat="44.33439" lon="2.63585">
        <ele>627.8781738</ele>
        <time>2014-08-10T06:15:36Z</time>
      </trkpt>
      <trkpt lat="44.33428" lon="2.63595">
        <ele>627.8781738</ele>
        <time>2014-08-10T06:15:42Z</time>
      </trkpt>
      <trkpt lat="44.33418" lon="2.63606">
        <ele>628.8395996</ele>
        <time>2014-08-10T06:15:48Z</time>
      </trkpt>
      <trkpt lat="44.33407" lon="2.63618">
        <ele>630.2814941</ele>
        <time>2014-08-10T06:15:55Z</time>
      </trkpt>
      <trkpt lat="44.33399" lon="2.63629">
        <ele>632.2041016</ele>
        <time>2014-08-10T06:16:01Z</time>
      </trkpt>
      <trkpt lat="44.33393" lon="2.63637">
        <ele>633.6459961</ele>
        <time>2014-08-10T06:16:06Z</time>
      </trkpt>
      <trkpt lat="44.33388" lon="2.63647">
        <ele>636.0495605</ele>
        <time>2014-08-10T06:16:11Z</time>
      </trkpt>
      <trkpt lat="44.33381" lon="2.63658">
        <ele>637.4914551</ele>
        <time>2014-08-10T06:16:17Z</time>
      </trkpt>
      <trkpt lat="44.33371" lon="2.63675">
        <ele>641.3366699</ele>
        <time>2014-08-10T06:16:26Z</time>
      </trkpt>
      <trkpt lat="44.33362" lon="2.63693">
        <ele>643.2592773</ele>
        <time>2014-08-10T06:16:34Z</time>
      </trkpt>
      <trkpt lat="44.33358" lon="2.63704">
        <ele>644.2207031</ele>
        <time>2014-08-10T06:16:39Z</time>
      </trkpt>
      <trkpt lat="44.33355" lon="2.6372">
        <ele>647.5852051</ele>
        <time>2014-08-10T06:16:46Z</time>
      </trkpt>
      <trkpt lat="44.33352" lon="2.63735">
        <ele>649.9885254</ele>
        <time>2014-08-10T06:16:52Z</time>
      </trkpt>
      <trkpt lat="44.33347" lon="2.63751">
        <ele>650.949707</ele>
        <time>2014-08-10T06:16:59Z</time>
      </trkpt>
      <trkpt lat="44.33343" lon="2.63766">
        <ele>651.4304199</ele>
        <time>2014-08-10T06:17:05Z</time>
      </trkpt>
      <trkpt lat="44.33339" lon="2.63783">
        <ele>653.3532715</ele>
        <time>2014-08-10T06:17:12Z</time>
      </trkpt>
      <trkpt lat="44.33333" lon="2.63799">
        <ele>653.8339844</ele>
        <time>2014-08-10T06:17:19Z</time>
      </trkpt>
      <trkpt lat="44.33328" lon="2.63815">
        <ele>653.3532715</ele>
        <time>2014-08-10T06:17:26Z</time>
      </trkpt>
      <trkpt lat="44.33324" lon="2.63828">
        <ele>653.3532715</ele>
        <time>2014-08-10T06:17:32Z</time>
      </trkpt>
      <trkpt lat="44.3332" lon="2.63845">
        <ele>654.795166</ele>
        <time>2014-08-10T06:17:38Z</time>
      </trkpt>
      <trkpt lat="44.33317" lon="2.63859">
        <ele>656.2370605</ele>
        <time>2014-08-10T06:17:43Z</time>
      </trkpt>
      <trkpt lat="44.33313" lon="2.63874">
        <ele>657.6791992</ele>
        <time>2014-08-10T06:17:49Z</time>
      </trkpt>
      <trkpt lat="44.3331" lon="2.63885">
        <ele>657.6791992</ele>
        <time>2014-08-10T06:17:53Z</time>
      </trkpt>
      <trkpt lat="44.33306" lon="2.639">
        <ele>658.6403809</ele>
        <time>2014-08-10T06:17:59Z</time>
      </trkpt>
      <trkpt lat="44.33302" lon="2.63916">
        <ele>660.0822754</ele>
        <time>2014-08-10T06:18:05Z</time>
      </trkpt>
      <trkpt lat="44.33299" lon="2.63934">
        <ele>661.5244141</ele>
        <time>2014-08-10T06:18:11Z</time>
      </trkpt>
      <trkpt lat="44.33299" lon="2.6394">
        <ele>662.4855957</ele>
        <time>2014-08-10T06:18:15Z</time>
      </trkpt>
      <trkpt lat="44.33298" lon="2.63945">
        <ele>662.4855957</ele>
        <time>2014-08-10T06:18:20Z</time>
      </trkpt>
      <trkpt lat="44.33297" lon="2.63961">
        <ele>662.9663086</ele>
        <time>2014-08-10T06:18:25Z</time>
      </trkpt>
      <trkpt lat="44.33295" lon="2.63977">
        <ele>662.9663086</ele>
        <time>2014-08-10T06:18:30Z</time>
      </trkpt>
      <trkpt lat="44.33292" lon="2.63995">
        <ele>662.9663086</ele>
        <time>2014-08-10T06:18:36Z</time>
      </trkpt>
      <trkpt lat="44.33288" lon="2.64013">
        <ele>663.9274902</ele>
        <time>2014-08-10T06:18:42Z</time>
      </trkpt>
      <trkpt lat="44.33283" lon="2.64031">
        <ele>663.9274902</ele>
        <time>2014-08-10T06:18:48Z</time>
      </trkpt>
      <trkpt lat="44.3328" lon="2.6405">
        <ele>664.4082031</ele>
        <time>2014-08-10T06:18:54Z</time>
      </trkpt>
      <trkpt lat="44.3328" lon="2.64071">
        <ele>665.3696289</ele>
        <time>2014-08-10T06:19:00Z</time>
      </trkpt>
      <trkpt lat="44.33277" lon="2.64093">
        <ele>665.8503418</ele>
        <time>2014-08-10T06:19:07Z</time>
      </trkpt>
      <trkpt lat="44.33273" lon="2.64112">
        <ele>665.3696289</ele>
        <time>2014-08-10T06:19:13Z</time>
      </trkpt>
      <trkpt lat="44.33269" lon="2.64127">
        <ele>665.3696289</ele>
        <time>2014-08-10T06:19:18Z</time>
      </trkpt>
      <trkpt lat="44.33266" lon="2.64143">
        <ele>664.888916</ele>
        <time>2014-08-10T06:19:25Z</time>
      </trkpt>
      <trkpt lat="44.33264" lon="2.64145">
        <ele>665.8503418</ele>
        <time>2014-08-10T06:19:33Z</time>
      </trkpt>
      <trkpt lat="44.33261" lon="2.64162">
        <ele>665.8503418</ele>
        <time>2014-08-10T06:19:38Z</time>
      </trkpt>
      <trkpt lat="44.33257" lon="2.64181">
        <ele>665.3696289</ele>
        <time>2014-08-10T06:19:44Z</time>
      </trkpt>
      <trkpt lat="44.33252" lon="2.64196">
        <ele>666.3308105</ele>
        <time>2014-08-10T06:19:49Z</time>
      </trkpt>
      <trkpt lat="44.33246" lon="2.64211">
        <ele>665.8503418</ele>
        <time>2014-08-10T06:19:54Z</time>
      </trkpt>
      <trkpt lat="44.33238" lon="2.64232">
        <ele>667.7727051</ele>
        <time>2014-08-10T06:20:01Z</time>
      </trkpt>
      <trkpt lat="44.33232" lon="2.64249">
        <ele>668.2536621</ele>
        <time>2014-08-10T06:20:06Z</time>
      </trkpt>
      <trkpt lat="44.33225" lon="2.64265">
        <ele>668.2536621</ele>
        <time>2014-08-10T06:20:11Z</time>
      </trkpt>
      <trkpt lat="44.33217" lon="2.64285">
        <ele>669.6958008</ele>
        <time>2014-08-10T06:20:17Z</time>
      </trkpt>
      <trkpt lat="44.33211" lon="2.643">
        <ele>671.1376953</ele>
        <time>2014-08-10T06:20:22Z</time>
      </trkpt>
      <trkpt lat="44.33203" lon="2.64318">
        <ele>672.098877</ele>
        <time>2014-08-10T06:20:28Z</time>
      </trkpt>
      <trkpt lat="44.33194" lon="2.64336">
        <ele>672.5795898</ele>
        <time>2014-08-10T06:20:34Z</time>
      </trkpt>
      <trkpt lat="44.33186" lon="2.64358">
        <ele>672.5795898</ele>
        <time>2014-08-10T06:20:41Z</time>
      </trkpt>
      <trkpt lat="44.3318" lon="2.64376">
        <ele>673.0603027</ele>
        <time>2014-08-10T06:20:47Z</time>
      </trkpt>
      <trkpt lat="44.33173" lon="2.64399">
        <ele>673.5410156</ele>
        <time>2014-08-10T06:20:54Z</time>
      </trkpt>
      <trkpt lat="44.33168" lon="2.64418">
        <ele>673.0603027</ele>
        <time>2014-08-10T06:21:00Z</time>
      </trkpt>
      <trkpt lat="44.33163" lon="2.64443">
        <ele>672.5795898</ele>
        <time>2014-08-10T06:21:07Z</time>
      </trkpt>
      <trkpt lat="44.33159" lon="2.6446">
        <ele>672.5795898</ele>
        <time>2014-08-10T06:21:12Z</time>
      </trkpt>
      <trkpt lat="44.33153" lon="2.64479">
        <ele>672.098877</ele>
        <time>2014-08-10T06:21:18Z</time>
      </trkpt>
      <trkpt lat="44.33144" lon="2.64499">
        <ele>673.0603027</ele>
        <time>2014-08-10T06:21:25Z</time>
      </trkpt>
      <trkpt lat="44.33137" lon="2.64515">
        <ele>675.4633789</ele>
        <time>2014-08-10T06:21:31Z</time>
      </trkpt>
      <trkpt lat="44.33131" lon="2.64529">
        <ele>676.9055176</ele>
        <time>2014-08-10T06:21:36Z</time>
      </trkpt>
      <trkpt lat="44.33125" lon="2.64547">
        <ele>676.9055176</ele>
        <time>2014-08-10T06:21:42Z</time>
      </trkpt>
      <trkpt lat="44.33117" lon="2.64567">
        <ele>676.9055176</ele>
        <time>2014-08-10T06:21:49Z</time>
      </trkpt>
      <trkpt lat="44.33109" lon="2.64581">
        <ele>675.9440918</ele>
        <time>2014-08-10T06:21:54Z</time>
      </trkpt>
      <trkpt lat="44.33105" lon="2.64596">
        <ele>675.9440918</ele>
        <time>2014-08-10T06:21:59Z</time>
      </trkpt>
      <trkpt lat="44.33104" lon="2.64612">
        <ele>675.4633789</ele>
        <time>2014-08-10T06:22:04Z</time>
      </trkpt>
      <trkpt lat="44.33103" lon="2.64629">
        <ele>674.9829102</ele>
        <time>2014-08-10T06:22:09Z</time>
      </trkpt>
      <trkpt lat="44.331" lon="2.64644">
        <ele>674.5021973</ele>
        <time>2014-08-10T06:22:13Z</time>
      </trkpt>
      <trkpt lat="44.33097" lon="2.64664">
        <ele>674.5021973</ele>
        <time>2014-08-10T06:22:19Z</time>
      </trkpt>
      <trkpt lat="44.33094" lon="2.64681">
        <ele>673.0603027</ele>
        <time>2014-08-10T06:22:24Z</time>
      </trkpt>
      <trkpt lat="44.33092" lon="2.64694">
        <ele>672.098877</ele>
        <time>2014-08-10T06:22:28Z</time>
      </trkpt>
      <trkpt lat="44.33089" lon="2.64711">
        <ele>671.1376953</ele>
        <time>2014-08-10T06:22:33Z</time>
      </trkpt>
      <trkpt lat="44.33084" lon="2.64731">
        <ele>671.1376953</ele>
        <time>2014-08-10T06:22:39Z</time>
      </trkpt>
      <trkpt lat="44.33077" lon="2.64752">
        <ele>668.734375</ele>
        <time>2014-08-10T06:22:45Z</time>
      </trkpt>
      <trkpt lat="44.33075" lon="2.64774">
        <ele>666.8115234</ele>
        <time>2014-08-10T06:22:51Z</time>
      </trkpt>
      <trkpt lat="44.33072" lon="2.64795">
        <ele>665.8503418</ele>
        <time>2014-08-10T06:22:57Z</time>
      </trkpt>
      <trkpt lat="44.33071" lon="2.64815">
        <ele>665.3696289</ele>
        <time>2014-08-10T06:23:02Z</time>
      </trkpt>
      <trkpt lat="44.3307" lon="2.64832">
        <ele>662.9663086</ele>
        <time>2014-08-10T06:23:07Z</time>
      </trkpt>
      <trkpt lat="44.33064" lon="2.64852">
        <ele>661.0437012</ele>
        <time>2014-08-10T06:23:13Z</time>
      </trkpt>
      <trkpt lat="44.3306" lon="2.64869">
        <ele>659.6018066</ele>
        <time>2014-08-10T06:23:18Z</time>
      </trkpt>
      <trkpt lat="44.33056" lon="2.64894">
        <ele>656.7177734</ele>
        <time>2014-08-10T06:23:25Z</time>
      </trkpt>
      <trkpt lat="44.33056" lon="2.64911">
        <ele>654.795166</ele>
        <time>2014-08-10T06:23:30Z</time>
      </trkpt>
      <trkpt lat="44.33055" lon="2.64929">
        <ele>653.3532715</ele>
        <time>2014-08-10T06:23:35Z</time>
      </trkpt>
      <trkpt lat="44.33052" lon="2.64948">
        <ele>652.8725586</ele>
        <time>2014-08-10T06:23:40Z</time>
      </trkpt>
      <trkpt lat="44.3305" lon="2.64968">
        <ele>651.9111328</ele>
        <time>2014-08-10T06:23:46Z</time>
      </trkpt>
      <trkpt lat="44.33049" lon="2.64985">
        <ele>651.4304199</ele>
        <time>2014-08-10T06:23:51Z</time>
      </trkpt>
      <trkpt lat="44.33048" lon="2.65001">
        <ele>652.3918457</ele>
        <time>2014-08-10T06:23:56Z</time>
      </trkpt>
      <trkpt lat="44.33048" lon="2.65005">
        <ele>652.3918457</ele>
        <time>2014-08-10T06:23:57Z</time>
      </trkpt>
      <trkpt lat="44.33046" lon="2.65017">
        <ele>651.4304199</ele>
        <time>2014-08-10T06:24:01Z</time>
      </trkpt>
      <trkpt lat="44.33041" lon="2.65036">
        <ele>650.4692383</ele>
        <time>2014-08-10T06:24:07Z</time>
      </trkpt>
      <trkpt lat="44.33036" lon="2.65051">
        <ele>649.5078125</ele>
        <time>2014-08-10T06:24:12Z</time>
      </trkpt>
      <trkpt lat="44.33035" lon="2.65055">
        <ele>649.9885254</ele>
        <time>2014-08-10T06:24:19Z</time>
      </trkpt>
      <trkpt lat="44.33027" lon="2.65072">
        <ele>651.4304199</ele>
        <time>2014-08-10T06:24:27Z</time>
      </trkpt>
      <trkpt lat="44.33019" lon="2.65085">
        <ele>652.3918457</ele>
        <time>2014-08-10T06:24:33Z</time>
      </trkpt>
      <trkpt lat="44.33009" lon="2.65092">
        <ele>652.3918457</ele>
        <time>2014-08-10T06:24:38Z</time>
      </trkpt>
      <trkpt lat="44.33001" lon="2.65094">
        <ele>652.3918457</ele>
        <time>2014-08-10T06:24:42Z</time>
      </trkpt>
      <trkpt lat="44.32992" lon="2.65104">
        <ele>654.795166</ele>
        <time>2014-08-10T06:24:47Z</time>
      </trkpt>
      <trkpt lat="44.32982" lon="2.65118">
        <ele>657.1984863</ele>
        <time>2014-08-10T06:24:54Z</time>
      </trkpt>
      <trkpt lat="44.32975" lon="2.65128">
        <ele>659.1210938</ele>
        <time>2014-08-10T06:24:59Z</time>
      </trkpt>
      <trkpt lat="44.32965" lon="2.65141">
        <ele>661.5244141</ele>
        <time>2014-08-10T06:25:05Z</time>
      </trkpt>
      <trkpt lat="44.32958" lon="2.65153">
        <ele>662.9663086</ele>
        <time>2014-08-10T06:25:10Z</time>
      </trkpt>
      <trkpt lat="44.3295" lon="2.65162">
        <ele>662.005127</ele>
        <time>2014-08-10T06:25:15Z</time>
      </trkpt>
      <trkpt lat="44.32939" lon="2.65164">
        <ele>662.005127</ele>
        <time>2014-08-10T06:25:20Z</time>
      </trkpt>
      <trkpt lat="44.32932" lon="2.6517">
        <ele>662.9663086</ele>
        <time>2014-08-10T06:25:24Z</time>
      </trkpt>
      <trkpt lat="44.32923" lon="2.65186">
        <ele>662.9663086</ele>
        <time>2014-08-10T06:25:31Z</time>
      </trkpt>
      <trkpt lat="44.32914" lon="2.65202">
        <ele>662.9663086</ele>
        <time>2014-08-10T06:25:38Z</time>
      </trkpt>
      <trkpt lat="44.32913" lon="2.65204">
        <ele>662.4855957</ele>
        <time>2014-08-10T06:25:39Z</time>
      </trkpt>
      <trkpt lat="44.32908" lon="2.65217">
        <ele>662.4855957</ele>
        <time>2014-08-10T06:25:45Z</time>
      </trkpt>
      <trkpt lat="44.32905" lon="2.65222">
        <ele>662.4855957</ele>
        <time>2014-08-10T06:25:47Z</time>
      </trkpt>
      <trkpt lat="44.32898" lon="2.65239">
        <ele>662.9663086</ele>
        <time>2014-08-10T06:25:53Z</time>
      </trkpt>
      <trkpt lat="44.32893" lon="2.65255">
        <ele>662.9663086</ele>
        <time>2014-08-10T06:25:58Z</time>
      </trkpt>
      <trkpt lat="44.32889" lon="2.65275">
        <ele>664.888916</ele>
        <time>2014-08-10T06:26:04Z</time>
      </trkpt>
      <trkpt lat="44.32888" lon="2.65287">
        <ele>665.8503418</ele>
        <time>2014-08-10T06:26:08Z</time>
      </trkpt>
      <trkpt lat="44.32886" lon="2.65308">
        <ele>667.7727051</ele>
        <time>2014-08-10T06:26:15Z</time>
      </trkpt>
      <trkpt lat="44.32884" lon="2.65324">
        <ele>668.2536621</ele>
        <time>2014-08-10T06:26:20Z</time>
      </trkpt>
      <trkpt lat="44.32883" lon="2.65337">
        <ele>669.6958008</ele>
        <time>2014-08-10T06:26:24Z</time>
      </trkpt>
      <trkpt lat="44.32881" lon="2.65357">
        <ele>670.1762695</ele>
        <time>2014-08-10T06:26:30Z</time>
      </trkpt>
      <trkpt lat="44.3288" lon="2.65373">
        <ele>670.1762695</ele>
        <time>2014-08-10T06:26:35Z</time>
      </trkpt>
      <trkpt lat="44.32879" lon="2.65394">
        <ele>671.6181641</ele>
        <time>2014-08-10T06:26:41Z</time>
      </trkpt>
      <trkpt lat="44.32881" lon="2.65414">
        <ele>672.5795898</ele>
        <time>2014-08-10T06:26:47Z</time>
      </trkpt>
      <trkpt lat="44.32884" lon="2.65433">
        <ele>673.0603027</ele>
        <time>2014-08-10T06:26:53Z</time>
      </trkpt>
      <trkpt lat="44.32892" lon="2.65452">
        <ele>672.5795898</ele>
        <time>2014-08-10T06:27:00Z</time>
      </trkpt>
      <trkpt lat="44.32904" lon="2.65461">
        <ele>672.5795898</ele>
        <time>2014-08-10T06:27:06Z</time>
      </trkpt>
      <trkpt lat="44.32915" lon="2.65475">
        <ele>672.5795898</ele>
        <time>2014-08-10T06:27:13Z</time>
      </trkpt>
      <trkpt lat="44.32923" lon="2.6549">
        <ele>673.5410156</ele>
        <time>2014-08-10T06:27:19Z</time>
      </trkpt>
      <trkpt lat="44.32925" lon="2.65504">
        <ele>674.5021973</ele>
        <time>2014-08-10T06:27:24Z</time>
      </trkpt>
      <trkpt lat="44.32922" lon="2.65522">
        <ele>674.9829102</ele>
        <time>2014-08-10T06:27:30Z</time>
      </trkpt>
      <trkpt lat="44.32919" lon="2.65539">
        <ele>675.4633789</ele>
        <time>2014-08-10T06:27:36Z</time>
      </trkpt>
      <trkpt lat="44.32915" lon="2.65556">
        <ele>676.4248047</ele>
        <time>2014-08-10T06:27:42Z</time>
      </trkpt>
      <trkpt lat="44.32911" lon="2.65575">
        <ele>679.3085938</ele>
        <time>2014-08-10T06:27:48Z</time>
      </trkpt>
      <trkpt lat="44.32907" lon="2.65589">
        <ele>681.2314453</ele>
        <time>2014-08-10T06:27:53Z</time>
      </trkpt>
      <trkpt lat="44.32901" lon="2.65602">
        <ele>682.6733398</ele>
        <time>2014-08-10T06:27:58Z</time>
      </trkpt>
      <trkpt lat="44.32892" lon="2.65613">
        <ele>682.6733398</ele>
        <time>2014-08-10T06:28:03Z</time>
      </trkpt>
      <trkpt lat="44.32885" lon="2.65623">
        <ele>683.1538086</ele>
        <time>2014-08-10T06:28:08Z</time>
      </trkpt>
      <trkpt lat="44.32886" lon="2.65637">
        <ele>684.1154785</ele>
        <time>2014-08-10T06:28:13Z</time>
      </trkpt>
      <trkpt lat="44.3289" lon="2.65653">
        <ele>685.0769043</ele>
        <time>2014-08-10T06:28:19Z</time>
      </trkpt>
      <trkpt lat="44.32893" lon="2.65663">
        <ele>686.5187988</ele>
        <time>2014-08-10T06:28:23Z</time>
      </trkpt>
      <trkpt lat="44.32896" lon="2.65678">
        <ele>688.9221191</ele>
        <time>2014-08-10T06:28:29Z</time>
      </trkpt>
      <trkpt lat="44.32903" lon="2.65692">
        <ele>689.4025879</ele>
        <time>2014-08-10T06:28:35Z</time>
      </trkpt>
      <trkpt lat="44.3291" lon="2.65705">
        <ele>689.4025879</ele>
        <time>2014-08-10T06:28:41Z</time>
      </trkpt>
      <trkpt lat="44.32912" lon="2.65707">
        <ele>690.3640137</ele>
        <time>2014-08-10T06:28:42Z</time>
      </trkpt>
      <trkpt lat="44.32922" lon="2.65722">
        <ele>690.3640137</ele>
        <time>2014-08-10T06:28:49Z</time>
      </trkpt>
      <trkpt lat="44.32931" lon="2.65729">
        <ele>692.767334</ele>
        <time>2014-08-10T06:28:54Z</time>
      </trkpt>
      <trkpt lat="44.32943" lon="2.65734">
        <ele>695.1704102</ele>
        <time>2014-08-10T06:29:00Z</time>
      </trkpt>
      <trkpt lat="44.32956" lon="2.65739">
        <ele>695.651123</ele>
        <time>2014-08-10T06:29:06Z</time>
      </trkpt>
      <trkpt lat="44.32967" lon="2.65744">
        <ele>695.651123</ele>
        <time>2014-08-10T06:29:11Z</time>
      </trkpt>
      <trkpt lat="44.32981" lon="2.65751">
        <ele>695.1704102</ele>
        <time>2014-08-10T06:29:18Z</time>
      </trkpt>
      <trkpt lat="44.32993" lon="2.65757">
        <ele>695.1704102</ele>
        <time>2014-08-10T06:29:23Z</time>
      </trkpt>
      <trkpt lat="44.33005" lon="2.65766">
        <ele>694.2092285</ele>
        <time>2014-08-10T06:29:29Z</time>
      </trkpt>
      <trkpt lat="44.33015" lon="2.65771">
        <ele>693.2478027</ele>
        <time>2014-08-10T06:29:33Z</time>
      </trkpt>
      <trkpt lat="44.33025" lon="2.65778">
        <ele>693.7285156</ele>
        <time>2014-08-10T06:29:38Z</time>
      </trkpt>
      <trkpt lat="44.33038" lon="2.65774">
        <ele>695.1704102</ele>
        <time>2014-08-10T06:29:43Z</time>
      </trkpt>
      <trkpt lat="44.33044" lon="2.6577">
        <ele>694.2092285</ele>
        <time>2014-08-10T06:29:46Z</time>
      </trkpt>
      <trkpt lat="44.33047" lon="2.65775">
        <ele>694.2092285</ele>
        <time>2014-08-10T06:29:50Z</time>
      </trkpt>
      <trkpt lat="44.33046" lon="2.65789">
        <ele>694.6896973</ele>
        <time>2014-08-10T06:29:55Z</time>
      </trkpt>
      <trkpt lat="44.33047" lon="2.65803">
        <ele>694.6896973</ele>
        <time>2014-08-10T06:30:00Z</time>
      </trkpt>
      <trkpt lat="44.33051" lon="2.65821">
        <ele>695.651123</ele>
        <time>2014-08-10T06:30:06Z</time>
      </trkpt>
      <trkpt lat="44.33054" lon="2.65831">
        <ele>696.6125488</ele>
        <time>2014-08-10T06:30:11Z</time>
      </trkpt>
      <trkpt lat="44.33059" lon="2.65842">
        <ele>698.5349121</ele>
        <time>2014-08-10T06:30:17Z</time>
      </trkpt>
      <trkpt lat="44.33066" lon="2.65856">
        <ele>700.9384766</ele>
        <time>2014-08-10T06:30:25Z</time>
      </trkpt>
      <trkpt lat="44.3307" lon="2.65865">
        <ele>702.861084</ele>
        <time>2014-08-10T06:30:31Z</time>
      </trkpt>
      <trkpt lat="44.33072" lon="2.65874">
        <ele>703.8225098</ele>
        <time>2014-08-10T06:30:36Z</time>
      </trkpt>
      <trkpt lat="44.33074" lon="2.65885">
        <ele>703.3417969</ele>
        <time>2014-08-10T06:30:42Z</time>
      </trkpt>
      <trkpt lat="44.33075" lon="2.65887">
        <ele>703.3417969</ele>
        <time>2014-08-10T06:30:43Z</time>
      </trkpt>
      <trkpt lat="44.33077" lon="2.65901">
        <ele>705.7451172</ele>
        <time>2014-08-10T06:30:51Z</time>
      </trkpt>
      <trkpt lat="44.33077" lon="2.65903">
        <ele>705.7451172</ele>
        <time>2014-08-10T06:30:52Z</time>
      </trkpt>
      <trkpt lat="44.33077" lon="2.65917">
        <ele>709.1096191</ele>
        <time>2014-08-10T06:30:58Z</time>
      </trkpt>
      <trkpt lat="44.33078" lon="2.65919">
        <ele>709.1096191</ele>
        <time>2014-08-10T06:30:59Z</time>
      </trkpt>
      <trkpt lat="44.33081" lon="2.6593">
        <ele>710.0708008</ele>
        <time>2014-08-10T06:31:04Z</time>
      </trkpt>
      <trkpt lat="44.33085" lon="2.65935">
        <ele>709.590332</ele>
        <time>2014-08-10T06:31:08Z</time>
      </trkpt>
      <trkpt lat="44.33093" lon="2.65939">
        <ele>711.0322266</ele>
        <time>2014-08-10T06:31:14Z</time>
      </trkpt>
      <trkpt lat="44.331" lon="2.65943">
        <ele>713.9160156</ele>
        <time>2014-08-10T06:31:20Z</time>
      </trkpt>
      <trkpt lat="44.33103" lon="2.65944">
        <ele>714.3967285</ele>
        <time>2014-08-10T06:31:22Z</time>
      </trkpt>
      <trkpt lat="44.33116" lon="2.65945">
        <ele>715.8388672</ele>
        <time>2014-08-10T06:31:30Z</time>
      </trkpt>
      <trkpt lat="44.33125" lon="2.65945">
        <ele>717.2810059</ele>
        <time>2014-08-10T06:31:36Z</time>
      </trkpt>
      <trkpt lat="44.33134" lon="2.65948">
        <ele>717.2810059</ele>
        <time>2014-08-10T06:31:42Z</time>
      </trkpt>
      <trkpt lat="44.33143" lon="2.65952">
        <ele>717.7614746</ele>
        <time>2014-08-10T06:31:48Z</time>
      </trkpt>
      <trkpt lat="44.33151" lon="2.65958">
        <ele>718.2421875</ele>
        <time>2014-08-10T06:31:54Z</time>
      </trkpt>
      <trkpt lat="44.33155" lon="2.65966">
        <ele>720.1647949</ele>
        <time>2014-08-10T06:31:59Z</time>
      </trkpt>
      <trkpt lat="44.3316" lon="2.6598">
        <ele>721.1262207</ele>
        <time>2014-08-10T06:32:06Z</time>
      </trkpt>
      <trkpt lat="44.33158" lon="2.6599">
        <ele>723.529541</ele>
        <time>2014-08-10T06:32:12Z</time>
      </trkpt>
      <trkpt lat="44.33152" lon="2.65998">
        <ele>724.4907227</ele>
        <time>2014-08-10T06:32:17Z</time>
      </trkpt>
      <trkpt lat="44.33143" lon="2.66012">
        <ele>725.4519043</ele>
        <time>2014-08-10T06:32:26Z</time>
      </trkpt>
      <trkpt lat="44.33135" lon="2.6602">
        <ele>725.9326172</ele>
        <time>2014-08-10T06:32:32Z</time>
      </trkpt>
      <trkpt lat="44.33128" lon="2.6603">
        <ele>724.9714355</ele>
        <time>2014-08-10T06:32:37Z</time>
      </trkpt>
      <trkpt lat="44.33119" lon="2.66036">
        <ele>724.4907227</ele>
        <time>2014-08-10T06:32:42Z</time>
      </trkpt>
      <trkpt lat="44.33108" lon="2.66043">
        <ele>724.4907227</ele>
        <time>2014-08-10T06:32:48Z</time>
      </trkpt>
      <trkpt lat="44.33098" lon="2.66049">
        <ele>724.9714355</ele>
        <time>2014-08-10T06:32:53Z</time>
      </trkpt>
      <trkpt lat="44.33091" lon="2.66053">
        <ele>724.9714355</ele>
        <time>2014-08-10T06:32:57Z</time>
      </trkpt>
      <trkpt lat="44.33078" lon="2.66061">
        <ele>724.9714355</ele>
        <time>2014-08-10T06:33:04Z</time>
      </trkpt>
      <trkpt lat="44.33068" lon="2.66068">
        <ele>724.0100098</ele>
        <time>2014-08-10T06:33:09Z</time>
      </trkpt>
      <trkpt lat="44.33061" lon="2.66077">
        <ele>726.894043</ele>
        <time>2014-08-10T06:33:14Z</time>
      </trkpt>
      <trkpt lat="44.33054" lon="2.66083">
        <ele>727.8552246</ele>
        <time>2014-08-10T06:33:17Z</time>
      </trkpt>
      <trkpt lat="44.33038" lon="2.66098">
        <ele>727.8552246</ele>
        <time>2014-08-10T06:33:25Z</time>
      </trkpt>
      <trkpt lat="44.33025" lon="2.66107">
        <ele>727.3747559</ele>
        <time>2014-08-10T06:33:31Z</time>
      </trkpt>
      <trkpt lat="44.33016" lon="2.66113">
        <ele>727.3747559</ele>
        <time>2014-08-10T06:33:36Z</time>
      </trkpt>
      <trkpt lat="44.33006" lon="2.66114">
        <ele>727.3747559</ele>
        <time>2014-08-10T06:33:41Z</time>
      </trkpt>
      <trkpt lat="44.32993" lon="2.6611">
        <ele>726.894043</ele>
        <time>2014-08-10T06:33:47Z</time>
      </trkpt>
      <trkpt lat="44.32976" lon="2.6611">
        <ele>727.8552246</ele>
        <time>2014-08-10T06:33:54Z</time>
      </trkpt>
      <trkpt lat="44.32966" lon="2.6611">
        <ele>727.3747559</ele>
        <time>2014-08-10T06:33:59Z</time>
      </trkpt>
      <trkpt lat="44.32952" lon="2.66112">
        <ele>729.777832</ele>
        <time>2014-08-10T06:34:05Z</time>
      </trkpt>
      <trkpt lat="44.32941" lon="2.66114">
        <ele>730.2585449</ele>
        <time>2014-08-10T06:34:10Z</time>
      </trkpt>
      <trkpt lat="44.32929" lon="2.66117">
        <ele>730.7392578</ele>
        <time>2014-08-10T06:34:16Z</time>
      </trkpt>
      <trkpt lat="44.32919" lon="2.66118">
        <ele>730.7392578</ele>
        <time>2014-08-10T06:34:21Z</time>
      </trkpt>
      <trkpt lat="44.32909" lon="2.66119">
        <ele>729.2971191</ele>
        <time>2014-08-10T06:34:26Z</time>
      </trkpt>
      <trkpt lat="44.32898" lon="2.66122">
        <ele>727.8552246</ele>
        <time>2014-08-10T06:34:31Z</time>
      </trkpt>
      <trkpt lat="44.32885" lon="2.66124">
        <ele>727.8552246</ele>
        <time>2014-08-10T06:34:37Z</time>
      </trkpt>
      <trkpt lat="44.32868" lon="2.66131">
        <ele>729.2971191</ele>
        <time>2014-08-10T06:34:45Z</time>
      </trkpt>
      <trkpt lat="44.32856" lon="2.66138">
        <ele>728.8166504</ele>
        <time>2014-08-10T06:34:50Z</time>
      </trkpt>
      <trkpt lat="44.32847" lon="2.66144">
        <ele>729.2971191</ele>
        <time>2014-08-10T06:34:55Z</time>
      </trkpt>
      <trkpt lat="44.32833" lon="2.66154">
        <ele>729.2971191</ele>
        <time>2014-08-10T06:35:02Z</time>
      </trkpt>
      <trkpt lat="44.32825" lon="2.66166">
        <ele>731.2199707</ele>
        <time>2014-08-10T06:35:07Z</time>
      </trkpt>
      <trkpt lat="44.32815" lon="2.6618">
        <ele>732.6621094</ele>
        <time>2014-08-10T06:35:12Z</time>
      </trkpt>
      <trkpt lat="44.32809" lon="2.66198">
        <ele>736.987793</ele>
        <time>2014-08-10T06:35:18Z</time>
      </trkpt>
      <trkpt lat="44.32805" lon="2.66215">
        <ele>739.3911133</ele>
        <time>2014-08-10T06:35:23Z</time>
      </trkpt>
      <trkpt lat="44.32799" lon="2.66237">
        <ele>742.2751465</ele>
        <time>2014-08-10T06:35:29Z</time>
      </trkpt>
      <trkpt lat="44.32794" lon="2.66251">
        <ele>741.7944336</ele>
        <time>2014-08-10T06:35:33Z</time>
      </trkpt>
      <trkpt lat="44.32794" lon="2.66262">
        <ele>741.7944336</ele>
        <time>2014-08-10T06:35:36Z</time>
      </trkpt>
      <trkpt lat="44.32796" lon="2.66275">
        <ele>743.2363281</ele>
        <time>2014-08-10T06:35:41Z</time>
      </trkpt>
      <trkpt lat="44.32801" lon="2.6629">
        <ele>744.1977539</ele>
        <time>2014-08-10T06:35:47Z</time>
      </trkpt>
      <trkpt lat="44.32802" lon="2.66291">
        <ele>744.1977539</ele>
        <time>2014-08-10T06:35:51Z</time>
      </trkpt>
      <trkpt lat="44.32805" lon="2.66294">
        <ele>745.1589355</ele>
        <time>2014-08-10T06:35:54Z</time>
      </trkpt>
      <trkpt lat="44.32814" lon="2.66297">
        <ele>745.6396484</ele>
        <time>2014-08-10T06:35:58Z</time>
      </trkpt>
      <trkpt lat="44.32826" lon="2.66294">
        <ele>746.6010742</ele>
        <time>2014-08-10T06:36:04Z</time>
      </trkpt>
      <trkpt lat="44.32836" lon="2.66288">
        <ele>748.0432129</ele>
        <time>2014-08-10T06:36:09Z</time>
      </trkpt>
      <trkpt lat="44.3285" lon="2.66288">
        <ele>749.4851074</ele>
        <time>2014-08-10T06:36:16Z</time>
      </trkpt>
      <trkpt lat="44.3286" lon="2.66295">
        <ele>750.4465332</ele>
        <time>2014-08-10T06:36:21Z</time>
      </trkpt>
      <trkpt lat="44.32871" lon="2.66305">
        <ele>751.4077148</ele>
        <time>2014-08-10T06:36:27Z</time>
      </trkpt>
      <trkpt lat="44.3288" lon="2.66314">
        <ele>751.8884277</ele>
        <time>2014-08-10T06:36:32Z</time>
      </trkpt>
      <trkpt lat="44.3289" lon="2.66326">
        <ele>752.3688965</ele>
        <time>2014-08-10T06:36:38Z</time>
      </trkpt>
      <trkpt lat="44.32902" lon="2.66335">
        <ele>753.8110352</ele>
        <time>2014-08-10T06:36:45Z</time>
      </trkpt>
      <trkpt lat="44.32906" lon="2.66337">
        <ele>754.291748</ele>
        <time>2014-08-10T06:36:47Z</time>
      </trkpt>
      <trkpt lat="44.32917" lon="2.66342">
        <ele>754.7722168</ele>
        <time>2014-08-10T06:36:53Z</time>
      </trkpt>
      <trkpt lat="44.32928" lon="2.6635">
        <ele>755.2529297</ele>
        <time>2014-08-10T06:36:59Z</time>
      </trkpt>
      <trkpt lat="44.32933" lon="2.66366">
        <ele>756.2141113</ele>
        <time>2014-08-10T06:37:05Z</time>
      </trkpt>
      <trkpt lat="44.32931" lon="2.66381">
        <ele>757.1755371</ele>
        <time>2014-08-10T06:37:10Z</time>
      </trkpt>
      <trkpt lat="44.32926" lon="2.66395">
        <ele>757.65625</ele>
        <time>2014-08-10T06:37:15Z</time>
      </trkpt>
      <trkpt lat="44.32919" lon="2.66409">
        <ele>758.6174316</ele>
        <time>2014-08-10T06:37:21Z</time>
      </trkpt>
      <trkpt lat="44.32913" lon="2.66422">
        <ele>758.6174316</ele>
        <time>2014-08-10T06:37:27Z</time>
      </trkpt>
      <trkpt lat="44.32905" lon="2.66432">
        <ele>758.1369629</ele>
        <time>2014-08-10T06:37:32Z</time>
      </trkpt>
      <trkpt lat="44.32894" lon="2.6644">
        <ele>757.65625</ele>
        <time>2014-08-10T06:37:38Z</time>
      </trkpt>
      <trkpt lat="44.32882" lon="2.66445">
        <ele>758.6174316</ele>
        <time>2014-08-10T06:37:44Z</time>
      </trkpt>
      <trkpt lat="44.32873" lon="2.66446">
        <ele>758.6174316</ele>
        <time>2014-08-10T06:37:49Z</time>
      </trkpt>
      <trkpt lat="44.32863" lon="2.66446">
        <ele>758.6174316</ele>
        <time>2014-08-10T06:37:54Z</time>
      </trkpt>
      <trkpt lat="44.32853" lon="2.66447">
        <ele>760.0593262</ele>
        <time>2014-08-10T06:37:59Z</time>
      </trkpt>
      <trkpt lat="44.32843" lon="2.66456">
        <ele>761.5014648</ele>
        <time>2014-08-10T06:38:05Z</time>
      </trkpt>
      <trkpt lat="44.32833" lon="2.66465">
        <ele>762.9433594</ele>
        <time>2014-08-10T06:38:11Z</time>
      </trkpt>
      <trkpt lat="44.32822" lon="2.66468">
        <ele>764.8662109</ele>
        <time>2014-08-10T06:38:16Z</time>
      </trkpt>
      <trkpt lat="44.32813" lon="2.66474">
        <ele>763.4240723</ele>
        <time>2014-08-10T06:38:21Z</time>
      </trkpt>
      <trkpt lat="44.32802" lon="2.66479">
        <ele>762.9433594</ele>
        <time>2014-08-10T06:38:27Z</time>
      </trkpt>
      <trkpt lat="44.328" lon="2.6648">
        <ele>762.9433594</ele>
        <time>2014-08-10T06:38:28Z</time>
      </trkpt>
      <trkpt lat="44.32796" lon="2.66481">
        <ele>763.4240723</ele>
        <time>2014-08-10T06:38:30Z</time>
      </trkpt>
      <trkpt lat="44.32782" lon="2.66487">
        <ele>765.3469238</ele>
        <time>2014-08-10T06:38:37Z</time>
      </trkpt>
      <trkpt lat="44.32769" lon="2.66495">
        <ele>765.8276367</ele>
        <time>2014-08-10T06:38:43Z</time>
      </trkpt>
      <trkpt lat="44.32758" lon="2.66504">
        <ele>766.7888184</ele>
        <time>2014-08-10T06:38:48Z</time>
      </trkpt>
      <trkpt lat="44.32745" lon="2.66514">
        <ele>767.75</ele>
        <time>2014-08-10T06:38:54Z</time>
      </trkpt>
      <trkpt lat="44.32735" lon="2.66521">
        <ele>768.7114258</ele>
        <time>2014-08-10T06:38:59Z</time>
      </trkpt>
      <trkpt lat="44.32726" lon="2.66527">
        <ele>768.7114258</ele>
        <time>2014-08-10T06:39:04Z</time>
      </trkpt>
      <trkpt lat="44.32712" lon="2.66536">
        <ele>766.7888184</ele>
        <time>2014-08-10T06:39:10Z</time>
      </trkpt>
      <trkpt lat="44.32701" lon="2.66541">
        <ele>765.8276367</ele>
        <time>2014-08-10T06:39:15Z</time>
      </trkpt>
      <trkpt lat="44.3269" lon="2.66549">
        <ele>764.8662109</ele>
        <time>2014-08-10T06:39:20Z</time>
      </trkpt>
      <trkpt lat="44.32683" lon="2.66555">
        <ele>764.8662109</ele>
        <time>2014-08-10T06:39:24Z</time>
      </trkpt>
      <trkpt lat="44.32675" lon="2.66564">
        <ele>768.2307129</ele>
        <time>2014-08-10T06:39:29Z</time>
      </trkpt>
      <trkpt lat="44.32667" lon="2.6658">
        <ele>774.479248</ele>
        <time>2014-08-10T06:39:35Z</time>
      </trkpt>
      <trkpt lat="44.32662" lon="2.66596">
        <ele>778.3244629</ele>
        <time>2014-08-10T06:39:41Z</time>
      </trkpt>
      <trkpt lat="44.32655" lon="2.66615">
        <ele>780.7280273</ele>
        <time>2014-08-10T06:39:47Z</time>
      </trkpt>
      <trkpt lat="44.32648" lon="2.66635">
        <ele>784.0925293</ele>
        <time>2014-08-10T06:39:54Z</time>
      </trkpt>
      <trkpt lat="44.32644" lon="2.6665">
        <ele>785.5344238</ele>
        <time>2014-08-10T06:39:59Z</time>
      </trkpt>
      <trkpt lat="44.32645" lon="2.66668">
        <ele>785.5344238</ele>
        <time>2014-08-10T06:40:04Z</time>
      </trkpt>
      <trkpt lat="44.32645" lon="2.66687">
        <ele>785.0539551</ele>
        <time>2014-08-10T06:40:10Z</time>
      </trkpt>
      <trkpt lat="44.32641" lon="2.66702">
        <ele>785.0539551</ele>
        <time>2014-08-10T06:40:15Z</time>
      </trkpt>
      <trkpt lat="44.32637" lon="2.66714">
        <ele>784.0925293</ele>
        <time>2014-08-10T06:40:19Z</time>
      </trkpt>
      <trkpt lat="44.32635" lon="2.66725">
        <ele>782.1699219</ele>
        <time>2014-08-10T06:40:23Z</time>
      </trkpt>
      <trkpt lat="44.32633" lon="2.66739">
        <ele>781.689209</ele>
        <time>2014-08-10T06:40:28Z</time>
      </trkpt>
      <trkpt lat="44.32631" lon="2.66755">
        <ele>781.689209</ele>
        <time>2014-08-10T06:40:33Z</time>
      </trkpt>
      <trkpt lat="44.32628" lon="2.66771">
        <ele>782.6506348</ele>
        <time>2014-08-10T06:40:38Z</time>
      </trkpt>
      <trkpt lat="44.32627" lon="2.66781">
        <ele>784.0925293</ele>
        <time>2014-08-10T06:40:43Z</time>
      </trkpt>
      <trkpt lat="44.32631" lon="2.66797">
        <ele>786.9763184</ele>
        <time>2014-08-10T06:40:51Z</time>
      </trkpt>
      <trkpt lat="44.32635" lon="2.6681">
        <ele>790.8215332</ele>
        <time>2014-08-10T06:40:58Z</time>
      </trkpt>
      <trkpt lat="44.32641" lon="2.66822">
        <ele>793.2248535</ele>
        <time>2014-08-10T06:41:05Z</time>
      </trkpt>
      <trkpt lat="44.3265" lon="2.66833">
        <ele>793.7055664</ele>
        <time>2014-08-10T06:41:13Z</time>
      </trkpt>
      <trkpt lat="44.32657" lon="2.66837">
        <ele>794.1862793</ele>
        <time>2014-08-10T06:41:18Z</time>
      </trkpt>
      <trkpt lat="44.3266" lon="2.66839">
        <ele>794.666748</ele>
        <time>2014-08-10T06:41:20Z</time>
      </trkpt>
      <trkpt lat="44.32672" lon="2.66841">
        <ele>793.2248535</ele>
        <time>2014-08-10T06:41:25Z</time>
      </trkpt>
      <trkpt lat="44.32685" lon="2.66843">
        <ele>791.782959</ele>
        <time>2014-08-10T06:41:30Z</time>
      </trkpt>
      <trkpt lat="44.32695" lon="2.66847">
        <ele>790.8215332</ele>
        <time>2014-08-10T06:41:34Z</time>
      </trkpt>
      <trkpt lat="44.32707" lon="2.66845">
        <ele>790.3410645</ele>
        <time>2014-08-10T06:41:39Z</time>
      </trkpt>
      <trkpt lat="44.32713" lon="2.66846">
        <ele>790.3410645</ele>
        <time>2014-08-10T06:41:41Z</time>
      </trkpt>
      <trkpt lat="44.32729" lon="2.66849">
        <ele>790.3410645</ele>
        <time>2014-08-10T06:41:47Z</time>
      </trkpt>
      <trkpt lat="44.32742" lon="2.66848">
        <ele>791.3022461</ele>
        <time>2014-08-10T06:41:52Z</time>
      </trkpt>
      <trkpt lat="44.32758" lon="2.66847">
        <ele>791.3022461</ele>
        <time>2014-08-10T06:41:58Z</time>
      </trkpt>
      <trkpt lat="44.32771" lon="2.66845">
        <ele>790.8215332</ele>
        <time>2014-08-10T06:42:03Z</time>
      </trkpt>
      <trkpt lat="44.32781" lon="2.66844">
        <ele>791.3022461</ele>
        <time>2014-08-10T06:42:07Z</time>
      </trkpt>
      <trkpt lat="44.32792" lon="2.6684">
        <ele>790.8215332</ele>
        <time>2014-08-10T06:42:11Z</time>
      </trkpt>
      <trkpt lat="44.32808" lon="2.66839">
        <ele>789.8603516</ele>
        <time>2014-08-10T06:42:17Z</time>
      </trkpt>
      <trkpt lat="44.32819" lon="2.66837">
        <ele>789.8603516</ele>
        <time>2014-08-10T06:42:21Z</time>
      </trkpt>
      <trkpt lat="44.3283" lon="2.66836">
        <ele>790.3410645</ele>
        <time>2014-08-10T06:42:25Z</time>
      </trkpt>
      <trkpt lat="44.32843" lon="2.66837">
        <ele>789.8603516</ele>
        <time>2014-08-10T06:42:30Z</time>
      </trkpt>
      <trkpt lat="44.32853" lon="2.66841">
        <ele>789.3796387</ele>
        <time>2014-08-10T06:42:34Z</time>
      </trkpt>
      <trkpt lat="44.3287" lon="2.66841">
        <ele>788.418457</ele>
        <time>2014-08-10T06:42:40Z</time>
      </trkpt>
      <trkpt lat="44.32879" lon="2.66841">
        <ele>790.3410645</ele>
        <time>2014-08-10T06:42:44Z</time>
      </trkpt>
      <trkpt lat="44.32891" lon="2.66842">
        <ele>792.7443848</ele>
        <time>2014-08-10T06:42:49Z</time>
      </trkpt>
      <trkpt lat="44.32904" lon="2.66843">
        <ele>792.7443848</ele>
        <time>2014-08-10T06:42:54Z</time>
      </trkpt>
      <trkpt lat="44.32906" lon="2.66844">
        <ele>792.2636719</ele>
        <time>2014-08-10T06:42:55Z</time>
      </trkpt>
      <trkpt lat="44.32915" lon="2.66841">
        <ele>791.3022461</ele>
        <time>2014-08-10T06:42:59Z</time>
      </trkpt>
      <trkpt lat="44.3293" lon="2.66832">
        <ele>792.7443848</ele>
        <time>2014-08-10T06:43:05Z</time>
      </trkpt>
      <trkpt lat="44.32937" lon="2.66826">
        <ele>792.7443848</ele>
        <time>2014-08-10T06:43:09Z</time>
      </trkpt>
      <trkpt lat="44.32938" lon="2.66824">
        <ele>792.2636719</ele>
        <time>2014-08-10T06:43:16Z</time>
      </trkpt>
      <trkpt lat="44.32941" lon="2.66825">
        <ele>789.8603516</ele>
        <time>2014-08-10T06:43:23Z</time>
      </trkpt>
      <trkpt lat="44.32941" lon="2.66825">
        <ele>789.8603516</ele>
        <time>2014-08-10T06:43:31Z</time>
      </trkpt>
      <trkpt lat="44.32942" lon="2.66826">
        <ele>788.8991699</ele>
        <time>2014-08-10T06:43:39Z</time>
      </trkpt>
      <trkpt lat="44.32943" lon="2.66827">
        <ele>788.8991699</ele>
        <time>2014-08-10T06:43:56Z</time>
      </trkpt>
      <trkpt lat="44.32948" lon="2.66825">
        <ele>787.4570313</ele>
        <time>2014-08-10T06:44:03Z</time>
      </trkpt>
      <trkpt lat="44.3296" lon="2.66815">
        <ele>786.9763184</ele>
        <time>2014-08-10T06:44:08Z</time>
      </trkpt>
      <trkpt lat="44.32971" lon="2.66804">
        <ele>786.0151367</ele>
        <time>2014-08-10T06:44:13Z</time>
      </trkpt>
      <trkpt lat="44.32983" lon="2.66797">
        <ele>785.0539551</ele>
        <time>2014-08-10T06:44:18Z</time>
      </trkpt>
      <trkpt lat="44.32997" lon="2.66794">
        <ele>780.7280273</ele>
        <time>2014-08-10T06:44:23Z</time>
      </trkpt>
      <trkpt lat="44.3301" lon="2.66794">
        <ele>774.9599609</ele>
        <time>2014-08-10T06:44:27Z</time>
      </trkpt>
      <trkpt lat="44.33023" lon="2.66793">
        <ele>771.5952148</ele>
        <time>2014-08-10T06:44:31Z</time>
      </trkpt>
      <trkpt lat="44.33035" lon="2.66787">
        <ele>770.1533203</ele>
        <time>2014-08-10T06:44:35Z</time>
      </trkpt>
      <trkpt lat="44.33046" lon="2.66779">
        <ele>768.7114258</ele>
        <time>2014-08-10T06:44:39Z</time>
      </trkpt>
      <trkpt lat="44.33059" lon="2.66769">
        <ele>768.2307129</ele>
        <time>2014-08-10T06:44:44Z</time>
      </trkpt>
      <trkpt lat="44.33069" lon="2.66764">
        <ele>767.2695313</ele>
        <time>2014-08-10T06:44:48Z</time>
      </trkpt>
      <trkpt lat="44.33078" lon="2.66764">
        <ele>766.3081055</ele>
        <time>2014-08-10T06:44:51Z</time>
      </trkpt>
      <trkpt lat="44.33092" lon="2.66767">
        <ele>762.9433594</ele>
        <time>2014-08-10T06:44:56Z</time>
      </trkpt>
      <trkpt lat="44.33106" lon="2.66767">
        <ele>761.5014648</ele>
        <time>2014-08-10T06:45:01Z</time>
      </trkpt>
      <trkpt lat="44.33115" lon="2.66766">
        <ele>761.5014648</ele>
        <time>2014-08-10T06:45:05Z</time>
      </trkpt>
      <trkpt lat="44.33129" lon="2.66759">
        <ele>762.9433594</ele>
        <time>2014-08-10T06:45:10Z</time>
      </trkpt>
      <trkpt lat="44.3314" lon="2.66754">
        <ele>766.3081055</ele>
        <time>2014-08-10T06:45:14Z</time>
      </trkpt>
      <trkpt lat="44.33143" lon="2.66754">
        <ele>765.3469238</ele>
        <time>2014-08-10T06:45:15Z</time>
      </trkpt>
      <trkpt lat="44.33156" lon="2.6677">
        <ele>758.1369629</ele>
        <time>2014-08-10T06:45:21Z</time>
      </trkpt>
      <trkpt lat="44.3316" lon="2.66779">
        <ele>754.7722168</ele>
        <time>2014-08-10T06:45:24Z</time>
      </trkpt>
      <trkpt lat="44.33167" lon="2.66802">
        <ele>748.0432129</ele>
        <time>2014-08-10T06:45:30Z</time>
      </trkpt>
      <trkpt lat="44.33176" lon="2.66817">
        <ele>742.7558594</ele>
        <time>2014-08-10T06:45:35Z</time>
      </trkpt>
      <trkpt lat="44.33184" lon="2.66828">
        <ele>735.0654297</ele>
        <time>2014-08-10T06:45:39Z</time>
      </trkpt>
      <trkpt lat="44.33191" lon="2.66845">
        <ele>725.4519043</ele>
        <time>2014-08-10T06:45:45Z</time>
      </trkpt>
      <trkpt lat="44.33193" lon="2.66847">
        <ele>724.0100098</ele>
        <time>2014-08-10T06:45:46Z</time>
      </trkpt>
      <trkpt lat="44.33196" lon="2.66852">
        <ele>723.0488281</ele>
        <time>2014-08-10T06:45:48Z</time>
      </trkpt>
      <trkpt lat="44.33203" lon="2.66862">
        <ele>720.1647949</ele>
        <time>2014-08-10T06:45:53Z</time>
      </trkpt>
      <trkpt lat="44.3321" lon="2.66864">
        <ele>719.2036133</ele>
        <time>2014-08-10T06:45:58Z</time>
      </trkpt>
      <trkpt lat="44.33221" lon="2.6687">
        <ele>712.954834</ele>
        <time>2014-08-10T06:46:03Z</time>
      </trkpt>
      <trkpt lat="44.33232" lon="2.66877">
        <ele>709.590332</ele>
        <time>2014-08-10T06:46:09Z</time>
      </trkpt>
      <trkpt lat="44.33243" lon="2.66882">
        <ele>707.6677246</ele>
        <time>2014-08-10T06:46:14Z</time>
      </trkpt>
      <trkpt lat="44.33258" lon="2.66886">
        <ele>704.3032227</ele>
        <time>2014-08-10T06:46:21Z</time>
      </trkpt>
      <trkpt lat="44.33266" lon="2.66889">
        <ele>701.4191895</ele>
        <time>2014-08-10T06:46:24Z</time>
      </trkpt>
      <trkpt lat="44.33271" lon="2.66896">
        <ele>702.3803711</ele>
        <time>2014-08-10T06:46:31Z</time>
      </trkpt>
      <trkpt lat="44.33277" lon="2.66898">
        <ele>703.8225098</ele>
        <time>2014-08-10T06:46:36Z</time>
      </trkpt>
      <trkpt lat="44.33283" lon="2.66901">
        <ele>702.3803711</ele>
        <time>2014-08-10T06:46:43Z</time>
      </trkpt>
      <trkpt lat="44.33286" lon="2.66902">
        <ele>701.4191895</ele>
        <time>2014-08-10T06:46:45Z</time>
      </trkpt>
      <trkpt lat="44.33291" lon="2.66907">
        <ele>705.2644043</ele>
        <time>2014-08-10T06:46:53Z</time>
      </trkpt>
      <trkpt lat="44.33296" lon="2.66908">
        <ele>705.2644043</ele>
        <time>2014-08-10T06:46:57Z</time>
      </trkpt>
      <trkpt lat="44.33299" lon="2.66916">
        <ele>702.861084</ele>
        <time>2014-08-10T06:47:03Z</time>
      </trkpt>
      <trkpt lat="44.33301" lon="2.66919">
        <ele>702.861084</ele>
        <time>2014-08-10T06:47:07Z</time>
      </trkpt>
      <trkpt lat="44.33305" lon="2.66917">
        <ele>707.1870117</ele>
        <time>2014-08-10T06:47:14Z</time>
      </trkpt>
      <trkpt lat="44.33306" lon="2.66914">
        <ele>710.5515137</ele>
        <time>2014-08-10T06:47:19Z</time>
      </trkpt>
      <trkpt lat="44.33311" lon="2.66917">
        <ele>708.6289063</ele>
        <time>2014-08-10T06:47:25Z</time>
      </trkpt>
      <trkpt lat="44.33315" lon="2.6692">
        <ele>706.2255859</ele>
        <time>2014-08-10T06:47:28Z</time>
      </trkpt>
      <trkpt lat="44.33326" lon="2.66926">
        <ele>705.7451172</ele>
        <time>2014-08-10T06:47:33Z</time>
      </trkpt>
      <trkpt lat="44.3333" lon="2.66931">
        <ele>702.861084</ele>
        <time>2014-08-10T06:47:37Z</time>
      </trkpt>
      <trkpt lat="44.33331" lon="2.66934">
        <ele>701.4191895</ele>
        <time>2014-08-10T06:47:39Z</time>
      </trkpt>
      <trkpt lat="44.33336" lon="2.66936">
        <ele>694.2092285</ele>
        <time>2014-08-10T06:47:44Z</time>
      </trkpt>
      <trkpt lat="44.33338" lon="2.66937">
        <ele>692.2866211</ele>
        <time>2014-08-10T06:47:45Z</time>
      </trkpt>
      <trkpt lat="44.33343" lon="2.66947">
        <ele>679.3085938</ele>
        <time>2014-08-10T06:47:52Z</time>
      </trkpt>
      <trkpt lat="44.33344" lon="2.66949">
        <ele>677.8666992</ele>
        <time>2014-08-10T06:47:53Z</time>
      </trkpt>
      <trkpt lat="44.33346" lon="2.66959">
        <ele>668.2536621</ele>
        <time>2014-08-10T06:47:58Z</time>
      </trkpt>
      <trkpt lat="44.33345" lon="2.66963">
        <ele>658.1599121</ele>
        <time>2014-08-10T06:48:04Z</time>
      </trkpt>
      <trkpt lat="44.33342" lon="2.66967">
        <ele>655.2758789</ele>
        <time>2014-08-10T06:48:11Z</time>
      </trkpt>
      <trkpt lat="44.33343" lon="2.66976">
        <ele>659.6018066</ele>
        <time>2014-08-10T06:48:19Z</time>
      </trkpt>
      <trkpt lat="44.33345" lon="2.66986">
        <ele>659.1210938</ele>
        <time>2014-08-10T06:48:24Z</time>
      </trkpt>
      <trkpt lat="44.33346" lon="2.66989">
        <ele>659.6018066</ele>
        <time>2014-08-10T06:48:26Z</time>
      </trkpt>
      <trkpt lat="44.33347" lon="2.66998">
        <ele>659.1210938</ele>
        <time>2014-08-10T06:48:30Z</time>
      </trkpt>
      <trkpt lat="44.33351" lon="2.6701">
        <ele>655.2758789</ele>
        <time>2014-08-10T06:48:36Z</time>
      </trkpt>
      <trkpt lat="44.33353" lon="2.67011">
        <ele>656.2370605</ele>
        <time>2014-08-10T06:48:37Z</time>
      </trkpt>
      <trkpt lat="44.33357" lon="2.67018">
        <ele>652.8725586</ele>
        <time>2014-08-10T06:48:42Z</time>
      </trkpt>
      <trkpt lat="44.33356" lon="2.67025">
        <ele>649.5078125</ele>
        <time>2014-08-10T06:48:47Z</time>
      </trkpt>
      <trkpt lat="44.33357" lon="2.67028">
        <ele>647.1044922</ele>
        <time>2014-08-10T06:48:50Z</time>
      </trkpt>
      <trkpt lat="44.33358" lon="2.67038">
        <ele>644.2207031</ele>
        <time>2014-08-10T06:48:55Z</time>
      </trkpt>
      <trkpt lat="44.33358" lon="2.67039">
        <ele>642.2980957</ele>
        <time>2014-08-10T06:48:56Z</time>
      </trkpt>
      <trkpt lat="44.3336" lon="2.67051">
        <ele>636.0495605</ele>
        <time>2014-08-10T06:49:01Z</time>
      </trkpt>
      <trkpt lat="44.33354" lon="2.67064">
        <ele>629.3200684</ele>
        <time>2014-08-10T06:49:06Z</time>
      </trkpt>
      <trkpt lat="44.33345" lon="2.6707">
        <ele>624.032959</ele>
        <time>2014-08-10T06:49:11Z</time>
      </trkpt>
      <trkpt lat="44.33338" lon="2.67074">
        <ele>620.1877441</ele>
        <time>2014-08-10T06:49:15Z</time>
      </trkpt>
      <trkpt lat="44.33333" lon="2.67079">
        <ele>612.9777832</ele>
        <time>2014-08-10T06:49:20Z</time>
      </trkpt>
      <trkpt lat="44.33331" lon="2.67089">
        <ele>611.0551758</ele>
        <time>2014-08-10T06:49:28Z</time>
      </trkpt>
      <trkpt lat="44.3333" lon="2.67095">
        <ele>614.4196777</ele>
        <time>2014-08-10T06:49:32Z</time>
      </trkpt>
      <trkpt lat="44.33332" lon="2.67094">
        <ele>616.822998</ele>
        <time>2014-08-10T06:49:34Z</time>
      </trkpt>
      <trkpt lat="44.33337" lon="2.67097">
        <ele>625.4748535</ele>
        <time>2014-08-10T06:49:38Z</time>
      </trkpt>
      <trkpt lat="44.33345" lon="2.671">
        <ele>637.972168</ele>
        <time>2014-08-10T06:49:43Z</time>
      </trkpt>
      <trkpt lat="44.33351" lon="2.67097">
        <ele>645.1818848</ele>
        <time>2014-08-10T06:49:46Z</time>
      </trkpt>
      <trkpt lat="44.3336" lon="2.67098">
        <ele>651.4304199</ele>
        <time>2014-08-10T06:49:51Z</time>
      </trkpt>
      <trkpt lat="44.33371" lon="2.67106">
        <ele>652.3918457</ele>
        <time>2014-08-10T06:49:56Z</time>
      </trkpt>
      <trkpt lat="44.33378" lon="2.67116">
        <ele>651.9111328</ele>
        <time>2014-08-10T06:50:00Z</time>
      </trkpt>
      <trkpt lat="44.3338" lon="2.67118">
        <ele>649.9885254</ele>
        <time>2014-08-10T06:50:01Z</time>
      </trkpt>
      <trkpt lat="44.33388" lon="2.67128">
        <ele>648.065918</ele>
        <time>2014-08-10T06:50:06Z</time>
      </trkpt>
      <trkpt lat="44.33397" lon="2.67136">
        <ele>645.6625977</ele>
        <time>2014-08-10T06:50:11Z</time>
      </trkpt>
      <trkpt lat="44.334" lon="2.67138">
        <ele>645.6625977</ele>
        <time>2014-08-10T06:50:13Z</time>
      </trkpt>
      <trkpt lat="44.33405" lon="2.67137">
        <ele>646.1433105</ele>
        <time>2014-08-10T06:50:18Z</time>
      </trkpt>
      <trkpt lat="44.33409" lon="2.67139">
        <ele>644.2207031</ele>
        <time>2014-08-10T06:50:22Z</time>
      </trkpt>
      <trkpt lat="44.33415" lon="2.67144">
        <ele>643.2592773</ele>
        <time>2014-08-10T06:50:27Z</time>
      </trkpt>
      <trkpt lat="44.33418" lon="2.67146">
        <ele>645.1818848</ele>
        <time>2014-08-10T06:50:29Z</time>
      </trkpt>
      <trkpt lat="44.33423" lon="2.67148">
        <ele>646.1433105</ele>
        <time>2014-08-10T06:50:33Z</time>
      </trkpt>
      <trkpt lat="44.33427" lon="2.67155">
        <ele>649.9885254</ele>
        <time>2014-08-10T06:50:40Z</time>
      </trkpt>
      <trkpt lat="44.3343" lon="2.67156">
        <ele>650.949707</ele>
        <time>2014-08-10T06:50:42Z</time>
      </trkpt>
      <trkpt lat="44.33433" lon="2.67162">
        <ele>652.3918457</ele>
        <time>2014-08-10T06:50:49Z</time>
      </trkpt>
      <trkpt lat="44.33439" lon="2.67165">
        <ele>655.2758789</ele>
        <time>2014-08-10T06:50:55Z</time>
      </trkpt>
      <trkpt lat="44.33444" lon="2.67172">
        <ele>657.1984863</ele>
        <time>2014-08-10T06:51:01Z</time>
      </trkpt>
      <trkpt lat="44.33448" lon="2.67185">
        <ele>660.0822754</ele>
        <time>2014-08-10T06:51:08Z</time>
      </trkpt>
      <trkpt lat="44.33448" lon="2.67197">
        <ele>661.5244141</ele>
        <time>2014-08-10T06:51:14Z</time>
      </trkpt>
      <trkpt lat="44.3345" lon="2.67212">
        <ele>658.1599121</ele>
        <time>2014-08-10T06:51:20Z</time>
      </trkpt>
      <trkpt lat="44.3345" lon="2.67218">
        <ele>656.2370605</ele>
        <time>2014-08-10T06:51:23Z</time>
      </trkpt>
      <trkpt lat="44.33445" lon="2.67208">
        <ele>654.795166</ele>
        <time>2014-08-10T06:51:28Z</time>
      </trkpt>
      <trkpt lat="44.33441" lon="2.67205">
        <ele>654.3146973</ele>
        <time>2014-08-10T06:51:30Z</time>
      </trkpt>
      <trkpt lat="44.33434" lon="2.67207">
        <ele>656.2370605</ele>
        <time>2014-08-10T06:51:34Z</time>
      </trkpt>
      <trkpt lat="44.33439" lon="2.67204">
        <ele>658.1599121</ele>
        <time>2014-08-10T06:51:39Z</time>
      </trkpt>
      <trkpt lat="44.33447" lon="2.67213">
        <ele>656.2370605</ele>
        <time>2014-08-10T06:51:44Z</time>
      </trkpt>
      <trkpt lat="44.3345" lon="2.67227">
        <ele>654.3146973</ele>
        <time>2014-08-10T06:51:49Z</time>
      </trkpt>
      <trkpt lat="44.33451" lon="2.67229">
        <ele>653.8339844</ele>
        <time>2014-08-10T06:51:50Z</time>
      </trkpt>
      <trkpt lat="44.33454" lon="2.67244">
        <ele>653.8339844</ele>
        <time>2014-08-10T06:51:56Z</time>
      </trkpt>
      <trkpt lat="44.33455" lon="2.67258">
        <ele>656.7177734</ele>
        <time>2014-08-10T06:52:01Z</time>
      </trkpt>
      <trkpt lat="44.33459" lon="2.67269">
        <ele>657.1984863</ele>
        <time>2014-08-10T06:52:06Z</time>
      </trkpt>
      <trkpt lat="44.33459" lon="2.67271">
        <ele>658.6403809</ele>
        <time>2014-08-10T06:52:07Z</time>
      </trkpt>
      <trkpt lat="44.33464" lon="2.67266">
        <ele>666.8115234</ele>
        <time>2014-08-10T06:52:11Z</time>
      </trkpt>
      <trkpt lat="44.33463" lon="2.67255">
        <ele>676.9055176</ele>
        <time>2014-08-10T06:52:14Z</time>
      </trkpt>
      <trkpt lat="44.33459" lon="2.67236">
        <ele>686.9992676</ele>
        <time>2014-08-10T06:52:20Z</time>
      </trkpt>
      <trkpt lat="44.33459" lon="2.67222">
        <ele>689.8833008</ele>
        <time>2014-08-10T06:52:25Z</time>
      </trkpt>
      <trkpt lat="44.33461" lon="2.67209">
        <ele>686.0380859</ele>
        <time>2014-08-10T06:52:31Z</time>
      </trkpt>
      <trkpt lat="44.33462" lon="2.67195">
        <ele>678.3474121</ele>
        <time>2014-08-10T06:52:37Z</time>
      </trkpt>
      <trkpt lat="44.33463" lon="2.67185">
        <ele>674.5021973</ele>
        <time>2014-08-10T06:52:41Z</time>
      </trkpt>
      <trkpt lat="44.33464" lon="2.67172">
        <ele>669.2150879</ele>
        <time>2014-08-10T06:52:47Z</time>
      </trkpt>
      <trkpt lat="44.33463" lon="2.67166">
        <ele>670.6569824</ele>
        <time>2014-08-10T06:52:51Z</time>
      </trkpt>
      <trkpt lat="44.33464" lon="2.67163">
        <ele>672.5795898</ele>
        <time>2014-08-10T06:52:57Z</time>
      </trkpt>
      <trkpt lat="44.3346" lon="2.67146">
        <ele>672.5795898</ele>
        <time>2014-08-10T06:53:03Z</time>
      </trkpt>
      <trkpt lat="44.33458" lon="2.67133">
        <ele>671.1376953</ele>
        <time>2014-08-10T06:53:09Z</time>
      </trkpt>
      <trkpt lat="44.33456" lon="2.6712">
        <ele>672.5795898</ele>
        <time>2014-08-10T06:53:14Z</time>
      </trkpt>
      <trkpt lat="44.33456" lon="2.6711">
        <ele>673.0603027</ele>
        <time>2014-08-10T06:53:18Z</time>
      </trkpt>
      <trkpt lat="44.3346" lon="2.67097">
        <ele>674.0214844</ele>
        <time>2014-08-10T06:53:23Z</time>
      </trkpt>
      <trkpt lat="44.33466" lon="2.67087">
        <ele>674.5021973</ele>
        <time>2014-08-10T06:53:28Z</time>
      </trkpt>
      <trkpt lat="44.33474" lon="2.67076">
        <ele>677.3862305</ele>
        <time>2014-08-10T06:53:33Z</time>
      </trkpt>
      <trkpt lat="44.33487" lon="2.67067">
        <ele>681.7119141</ele>
        <time>2014-08-10T06:53:40Z</time>
      </trkpt>
      <trkpt lat="44.33498" lon="2.6707">
        <ele>681.2314453</ele>
        <time>2014-08-10T06:53:45Z</time>
      </trkpt>
      <trkpt lat="44.33503" lon="2.67085">
        <ele>679.3085938</ele>
        <time>2014-08-10T06:53:51Z</time>
      </trkpt>
      <trkpt lat="44.33505" lon="2.67086">
        <ele>679.7893066</ele>
        <time>2014-08-10T06:53:52Z</time>
      </trkpt>
      <trkpt lat="44.33508" lon="2.67087">
        <ele>679.3085938</ele>
        <time>2014-08-10T06:53:56Z</time>
      </trkpt>
      <trkpt lat="44.33517" lon="2.6709">
        <ele>679.3085938</ele>
        <time>2014-08-10T06:54:02Z</time>
      </trkpt>
      <trkpt lat="44.33524" lon="2.67093">
        <ele>681.2314453</ele>
        <time>2014-08-10T06:54:06Z</time>
      </trkpt>
      <trkpt lat="44.33538" lon="2.67088">
        <ele>683.6345215</ele>
        <time>2014-08-10T06:54:12Z</time>
      </trkpt>
      <trkpt lat="44.33551" lon="2.67083">
        <ele>688.4414063</ele>
        <time>2014-08-10T06:54:17Z</time>
      </trkpt>
      <trkpt lat="44.33565" lon="2.67079">
        <ele>695.1704102</ele>
        <time>2014-08-10T06:54:22Z</time>
      </trkpt>
      <trkpt lat="44.33576" lon="2.67086">
        <ele>696.6125488</ele>
        <time>2014-08-10T06:54:27Z</time>
      </trkpt>
      <trkpt lat="44.33578" lon="2.67088">
        <ele>696.1318359</ele>
        <time>2014-08-10T06:54:28Z</time>
      </trkpt>
      <trkpt lat="44.33592" lon="2.67096">
        <ele>693.7285156</ele>
        <time>2014-08-10T06:54:34Z</time>
      </trkpt>
      <trkpt lat="44.33601" lon="2.67103">
        <ele>691.3251953</ele>
        <time>2014-08-10T06:54:38Z</time>
      </trkpt>
      <trkpt lat="44.3361" lon="2.6711">
        <ele>691.8059082</ele>
        <time>2014-08-10T06:54:44Z</time>
      </trkpt>
      <trkpt lat="44.3362" lon="2.67119">
        <ele>688.9221191</ele>
        <time>2014-08-10T06:54:49Z</time>
      </trkpt>
      <trkpt lat="44.33629" lon="2.67127">
        <ele>683.1538086</ele>
        <time>2014-08-10T06:54:54Z</time>
      </trkpt>
      <trkpt lat="44.33638" lon="2.67137">
        <ele>683.1538086</ele>
        <time>2014-08-10T06:55:01Z</time>
      </trkpt>
      <trkpt lat="44.33642" lon="2.67139">
        <ele>686.9992676</ele>
        <time>2014-08-10T06:55:04Z</time>
      </trkpt>
      <trkpt lat="44.33649" lon="2.67144">
        <ele>692.2866211</ele>
        <time>2014-08-10T06:55:10Z</time>
      </trkpt>
      <trkpt lat="44.33651" lon="2.67141">
        <ele>696.6125488</ele>
        <time>2014-08-10T06:55:14Z</time>
      </trkpt>
      <trkpt lat="44.33651" lon="2.67128">
        <ele>693.2478027</ele>
        <time>2014-08-10T06:55:21Z</time>
      </trkpt>
      <trkpt lat="44.33657" lon="2.6712">
        <ele>688.4414063</ele>
        <time>2014-08-10T06:55:30Z</time>
      </trkpt>
      <trkpt lat="44.33659" lon="2.67114">
        <ele>689.4025879</ele>
        <time>2014-08-10T06:55:36Z</time>
      </trkpt>
      <trkpt lat="44.33661" lon="2.67104">
        <ele>695.651123</ele>
        <time>2014-08-10T06:55:46Z</time>
      </trkpt>
      <trkpt lat="44.33662" lon="2.67099">
        <ele>696.1318359</ele>
        <time>2014-08-10T06:55:51Z</time>
      </trkpt>
      <trkpt lat="44.33664" lon="2.67096">
        <ele>700.9384766</ele>
        <time>2014-08-10T06:55:57Z</time>
      </trkpt>
      <trkpt lat="44.33671" lon="2.671">
        <ele>699.4963379</ele>
        <time>2014-08-10T06:56:04Z</time>
      </trkpt>
      <trkpt lat="44.33672" lon="2.671">
        <ele>699.4963379</ele>
        <time>2014-08-10T06:56:05Z</time>
      </trkpt>
      <trkpt lat="44.33681" lon="2.67105">
        <ele>702.3803711</ele>
        <time>2014-08-10T06:56:13Z</time>
      </trkpt>
      <trkpt lat="44.33685" lon="2.67103">
        <ele>703.3417969</ele>
        <time>2014-08-10T06:56:18Z</time>
      </trkpt>
      <trkpt lat="44.33689" lon="2.67102">
        <ele>701.4191895</ele>
        <time>2014-08-10T06:56:26Z</time>
      </trkpt>
      <trkpt lat="44.33691" lon="2.67095">
        <ele>703.8225098</ele>
        <time>2014-08-10T06:56:36Z</time>
      </trkpt>
      <trkpt lat="44.33693" lon="2.67093">
        <ele>706.2255859</ele>
        <time>2014-08-10T06:56:39Z</time>
      </trkpt>
      <trkpt lat="44.33697" lon="2.6709">
        <ele>710.0708008</ele>
        <time>2014-08-10T06:56:46Z</time>
      </trkpt>
      <trkpt lat="44.337" lon="2.67087">
        <ele>711.0322266</ele>
        <time>2014-08-10T06:56:51Z</time>
      </trkpt>
      <trkpt lat="44.33703" lon="2.67087">
        <ele>711.9936523</ele>
        <time>2014-08-10T06:56:57Z</time>
      </trkpt>
      <trkpt lat="44.33709" lon="2.67086">
        <ele>712.954834</ele>
        <time>2014-08-10T06:57:04Z</time>
      </trkpt>
      <trkpt lat="44.33713" lon="2.67086">
        <ele>716.3195801</ele>
        <time>2014-08-10T06:57:11Z</time>
      </trkpt>
      <trkpt lat="44.33719" lon="2.67086">
        <ele>718.7229004</ele>
        <time>2014-08-10T06:57:19Z</time>
      </trkpt>
      <trkpt lat="44.33722" lon="2.67083">
        <ele>721.1262207</ele>
        <time>2014-08-10T06:57:25Z</time>
      </trkpt>
      <trkpt lat="44.33723" lon="2.6708">
        <ele>720.6455078</ele>
        <time>2014-08-10T06:57:30Z</time>
      </trkpt>
      <trkpt lat="44.33724" lon="2.67078">
        <ele>721.1262207</ele>
        <time>2014-08-10T06:57:37Z</time>
      </trkpt>
      <trkpt lat="44.33724" lon="2.67078">
        <ele>722.0874023</ele>
        <time>2014-08-10T06:57:42Z</time>
      </trkpt>
      <trkpt lat="44.33722" lon="2.67072">
        <ele>721.6066895</ele>
        <time>2014-08-10T06:57:46Z</time>
      </trkpt>
      <trkpt lat="44.33718" lon="2.67067">
        <ele>722.0874023</ele>
        <time>2014-08-10T06:57:50Z</time>
      </trkpt>
      <trkpt lat="44.33714" lon="2.67058">
        <ele>722.0874023</ele>
        <time>2014-08-10T06:57:56Z</time>
      </trkpt>
      <trkpt lat="44.33711" lon="2.67052">
        <ele>722.0874023</ele>
        <time>2014-08-10T06:58:00Z</time>
      </trkpt>
      <trkpt lat="44.33709" lon="2.67039">
        <ele>722.0874023</ele>
        <time>2014-08-10T06:58:06Z</time>
      </trkpt>
      <trkpt lat="44.33708" lon="2.67035">
        <ele>722.0874023</ele>
        <time>2014-08-10T06:58:08Z</time>
      </trkpt>
      <trkpt lat="44.33706" lon="2.67024">
        <ele>720.1647949</ele>
        <time>2014-08-10T06:58:13Z</time>
      </trkpt>
      <trkpt lat="44.33705" lon="2.67011">
        <ele>719.2036133</ele>
        <time>2014-08-10T06:58:20Z</time>
      </trkpt>
      <trkpt lat="44.33706" lon="2.67006">
        <ele>719.2036133</ele>
        <time>2014-08-10T06:58:23Z</time>
      </trkpt>
      <trkpt lat="44.33706" lon="2.66995">
        <ele>722.0874023</ele>
        <time>2014-08-10T06:58:30Z</time>
      </trkpt>
      <trkpt lat="44.33708" lon="2.6699">
        <ele>722.5681152</ele>
        <time>2014-08-10T06:58:34Z</time>
      </trkpt>
      <trkpt lat="44.33712" lon="2.66975">
        <ele>723.0488281</ele>
        <time>2014-08-10T06:58:42Z</time>
      </trkpt>
      <trkpt lat="44.33713" lon="2.66968">
        <ele>722.5681152</ele>
        <time>2014-08-10T06:58:45Z</time>
      </trkpt>
      <trkpt lat="44.33714" lon="2.66966">
        <ele>722.5681152</ele>
        <time>2014-08-10T06:58:47Z</time>
      </trkpt>
      <trkpt lat="44.33712" lon="2.66951">
        <ele>722.0874023</ele>
        <time>2014-08-10T06:58:54Z</time>
      </trkpt>
      <trkpt lat="44.33714" lon="2.6694">
        <ele>721.6066895</ele>
        <time>2014-08-10T06:58:59Z</time>
      </trkpt>
      <trkpt lat="44.3372" lon="2.66936">
        <ele>722.0874023</ele>
        <time>2014-08-10T06:59:03Z</time>
      </trkpt>
      <trkpt lat="44.33728" lon="2.66927">
        <ele>723.0488281</ele>
        <time>2014-08-10T06:59:10Z</time>
      </trkpt>
      <trkpt lat="44.33737" lon="2.6692">
        <ele>724.0100098</ele>
        <time>2014-08-10T06:59:18Z</time>
      </trkpt>
      <trkpt lat="44.33744" lon="2.66915">
        <ele>725.4519043</ele>
        <time>2014-08-10T06:59:24Z</time>
      </trkpt>
      <trkpt lat="44.33748" lon="2.66913">
        <ele>725.9326172</ele>
        <time>2014-08-10T06:59:28Z</time>
      </trkpt>
      <trkpt lat="44.33756" lon="2.66906">
        <ele>727.3747559</ele>
        <time>2014-08-10T06:59:35Z</time>
      </trkpt>
      <trkpt lat="44.3376" lon="2.66906">
        <ele>727.8552246</ele>
        <time>2014-08-10T06:59:38Z</time>
      </trkpt>
      <trkpt lat="44.33764" lon="2.66911">
        <ele>729.777832</ele>
        <time>2014-08-10T06:59:45Z</time>
      </trkpt>
      <trkpt lat="44.33767" lon="2.66917">
        <ele>730.7392578</ele>
        <time>2014-08-10T06:59:51Z</time>
      </trkpt>
      <trkpt lat="44.3377" lon="2.66923">
        <ele>732.1813965</ele>
        <time>2014-08-10T06:59:57Z</time>
      </trkpt>
      <trkpt lat="44.33774" lon="2.6693">
        <ele>733.1425781</ele>
        <time>2014-08-10T07:00:04Z</time>
      </trkpt>
      <trkpt lat="44.33778" lon="2.66935">
        <ele>735.5458984</ele>
        <time>2014-08-10T07:00:11Z</time>
      </trkpt>
      <trkpt lat="44.33782" lon="2.66939">
        <ele>737.4685059</ele>
        <time>2014-08-10T07:00:18Z</time>
      </trkpt>
      <trkpt lat="44.33787" lon="2.66945">
        <ele>738.4299316</ele>
        <time>2014-08-10T07:00:25Z</time>
      </trkpt>
      <trkpt lat="44.33793" lon="2.66949">
        <ele>740.8330078</ele>
        <time>2014-08-10T07:00:32Z</time>
      </trkpt>
      <trkpt lat="44.33797" lon="2.66954">
        <ele>741.7944336</ele>
        <time>2014-08-10T07:00:38Z</time>
      </trkpt>
      <trkpt lat="44.33801" lon="2.66959">
        <ele>742.2751465</ele>
        <time>2014-08-10T07:00:44Z</time>
      </trkpt>
      <trkpt lat="44.33805" lon="2.66966">
        <ele>743.717041</ele>
        <time>2014-08-10T07:00:51Z</time>
      </trkpt>
      <trkpt lat="44.33811" lon="2.66971">
        <ele>745.1589355</ele>
        <time>2014-08-10T07:00:58Z</time>
      </trkpt>
      <trkpt lat="44.33812" lon="2.66974">
        <ele>745.1589355</ele>
        <time>2014-08-10T07:01:00Z</time>
      </trkpt>
      <trkpt lat="44.33818" lon="2.66977">
        <ele>746.6010742</ele>
        <time>2014-08-10T07:01:07Z</time>
      </trkpt>
      <trkpt lat="44.33823" lon="2.6697">
        <ele>749.4851074</ele>
        <time>2014-08-10T07:01:14Z</time>
      </trkpt>
      <trkpt lat="44.33829" lon="2.66956">
        <ele>750.4465332</ele>
        <time>2014-08-10T07:01:20Z</time>
      </trkpt>
      <trkpt lat="44.33837" lon="2.66946">
        <ele>750.4465332</ele>
        <time>2014-08-10T07:01:25Z</time>
      </trkpt>
      <trkpt lat="44.33847" lon="2.66941">
        <ele>750.4465332</ele>
        <time>2014-08-10T07:01:30Z</time>
      </trkpt>
      <trkpt lat="44.33862" lon="2.66937">
        <ele>751.4077148</ele>
        <time>2014-08-10T07:01:36Z</time>
      </trkpt>
      <trkpt lat="44.33864" lon="2.66938">
        <ele>750.927002</ele>
        <time>2014-08-10T07:01:37Z</time>
      </trkpt>
      <trkpt lat="44.33871" lon="2.66934">
        <ele>749.9658203</ele>
        <time>2014-08-10T07:01:42Z</time>
      </trkpt>
      <trkpt lat="44.33877" lon="2.66937">
        <ele>749.4851074</ele>
        <time>2014-08-10T07:01:45Z</time>
      </trkpt>
      <trkpt lat="44.33885" lon="2.6694">
        <ele>749.4851074</ele>
        <time>2014-08-10T07:01:48Z</time>
      </trkpt>
      <trkpt lat="44.33895" lon="2.66946">
        <ele>750.4465332</ele>
        <time>2014-08-10T07:01:52Z</time>
      </trkpt>
      <trkpt lat="44.33906" lon="2.66958">
        <ele>749.4851074</ele>
        <time>2014-08-10T07:01:58Z</time>
      </trkpt>
      <trkpt lat="44.33908" lon="2.66961">
        <ele>749.4851074</ele>
        <time>2014-08-10T07:01:59Z</time>
      </trkpt>
      <trkpt lat="44.33909" lon="2.66977">
        <ele>748.0432129</ele>
        <time>2014-08-10T07:02:04Z</time>
      </trkpt>
      <trkpt lat="44.33904" lon="2.66993">
        <ele>745.6396484</ele>
        <time>2014-08-10T07:02:10Z</time>
      </trkpt>
      <trkpt lat="44.33901" lon="2.6701">
        <ele>744.6782227</ele>
        <time>2014-08-10T07:02:16Z</time>
      </trkpt>
      <trkpt lat="44.33901" lon="2.67025">
        <ele>743.2363281</ele>
        <time>2014-08-10T07:02:22Z</time>
      </trkpt>
      <trkpt lat="44.339" lon="2.67041">
        <ele>743.2363281</ele>
        <time>2014-08-10T07:02:28Z</time>
      </trkpt>
      <trkpt lat="44.33902" lon="2.67053">
        <ele>743.2363281</ele>
        <time>2014-08-10T07:02:33Z</time>
      </trkpt>
      <trkpt lat="44.33909" lon="2.67064">
        <ele>743.2363281</ele>
        <time>2014-08-10T07:02:38Z</time>
      </trkpt>
      <trkpt lat="44.33919" lon="2.67075">
        <ele>745.1589355</ele>
        <time>2014-08-10T07:02:44Z</time>
      </trkpt>
      <trkpt lat="44.33927" lon="2.67084">
        <ele>747.081543</ele>
        <time>2014-08-10T07:02:49Z</time>
      </trkpt>
      <trkpt lat="44.33931" lon="2.67091">
        <ele>749.0043945</ele>
        <time>2014-08-10T07:02:53Z</time>
      </trkpt>
      <trkpt lat="44.33937" lon="2.671">
        <ele>750.4465332</ele>
        <time>2014-08-10T07:02:59Z</time>
      </trkpt>
      <trkpt lat="44.33941" lon="2.67109">
        <ele>752.8496094</ele>
        <time>2014-08-10T07:03:05Z</time>
      </trkpt>
      <trkpt lat="44.33942" lon="2.67112">
        <ele>753.3303223</ele>
        <time>2014-08-10T07:03:07Z</time>
      </trkpt>
      <trkpt lat="44.33949" lon="2.67121">
        <ele>754.7722168</ele>
        <time>2014-08-10T07:03:14Z</time>
      </trkpt>
      <trkpt lat="44.33953" lon="2.67125">
        <ele>755.2529297</ele>
        <time>2014-08-10T07:03:19Z</time>
      </trkpt>
      <trkpt lat="44.33961" lon="2.67133">
        <ele>755.2529297</ele>
        <time>2014-08-10T07:03:27Z</time>
      </trkpt>
      <trkpt lat="44.33967" lon="2.67141">
        <ele>755.7336426</ele>
        <time>2014-08-10T07:03:33Z</time>
      </trkpt>
      <trkpt lat="44.33971" lon="2.67145">
        <ele>756.2141113</ele>
        <time>2014-08-10T07:03:38Z</time>
      </trkpt>
      <trkpt lat="44.33974" lon="2.67149">
        <ele>757.1755371</ele>
        <time>2014-08-10T07:03:42Z</time>
      </trkpt>
      <trkpt lat="44.3398" lon="2.67157">
        <ele>759.5788574</ele>
        <time>2014-08-10T07:03:49Z</time>
      </trkpt>
      <trkpt lat="44.33985" lon="2.67164">
        <ele>761.5014648</ele>
        <time>2014-08-10T07:03:55Z</time>
      </trkpt>
      <trkpt lat="44.33991" lon="2.67173">
        <ele>763.904541</ele>
        <time>2014-08-10T07:04:02Z</time>
      </trkpt>
      <trkpt lat="44.33996" lon="2.67181">
        <ele>765.3469238</ele>
        <time>2014-08-10T07:04:09Z</time>
      </trkpt>
      <trkpt lat="44.34002" lon="2.6719">
        <ele>767.75</ele>
        <time>2014-08-10T07:04:16Z</time>
      </trkpt>
      <trkpt lat="44.34008" lon="2.67197">
        <ele>769.6728516</ele>
        <time>2014-08-10T07:04:22Z</time>
      </trkpt>
      <trkpt lat="44.34014" lon="2.67204">
        <ele>772.0759277</ele>
        <time>2014-08-10T07:04:29Z</time>
      </trkpt>
      <trkpt lat="44.34022" lon="2.67211">
        <ele>773.9985352</ele>
        <time>2014-08-10T07:04:37Z</time>
      </trkpt>
      <trkpt lat="44.34024" lon="2.67213">
        <ele>774.9599609</ele>
        <time>2014-08-10T07:04:39Z</time>
      </trkpt>
      <trkpt lat="44.34029" lon="2.6722">
        <ele>776.4018555</ele>
        <time>2014-08-10T07:04:45Z</time>
      </trkpt>
      <trkpt lat="44.34035" lon="2.67232">
        <ele>777.3632813</ele>
        <time>2014-08-10T07:04:52Z</time>
      </trkpt>
      <trkpt lat="44.34039" lon="2.67238">
        <ele>777.84375</ele>
        <time>2014-08-10T07:04:57Z</time>
      </trkpt>
      <trkpt lat="44.34047" lon="2.67251">
        <ele>778.3244629</ele>
        <time>2014-08-10T07:05:06Z</time>
      </trkpt>
      <trkpt lat="44.34052" lon="2.67259">
        <ele>779.7663574</ele>
        <time>2014-08-10T07:05:12Z</time>
      </trkpt>
      <trkpt lat="44.34055" lon="2.67264">
        <ele>781.2087402</ele>
        <time>2014-08-10T07:05:15Z</time>
      </trkpt>
      <trkpt lat="44.34065" lon="2.67263">
        <ele>782.6506348</ele>
        <time>2014-08-10T07:05:22Z</time>
      </trkpt>
      <trkpt lat="44.34075" lon="2.67252">
        <ele>782.6506348</ele>
        <time>2014-08-10T07:05:27Z</time>
      </trkpt>
      <trkpt lat="44.3409" lon="2.67236">
        <ele>781.689209</ele>
        <time>2014-08-10T07:05:34Z</time>
      </trkpt>
      <trkpt lat="44.34101" lon="2.67222">
        <ele>780.2473145</ele>
        <time>2014-08-10T07:05:39Z</time>
      </trkpt>
      <trkpt lat="44.34114" lon="2.67205">
        <ele>779.2856445</ele>
        <time>2014-08-10T07:05:45Z</time>
      </trkpt>
      <trkpt lat="44.34122" lon="2.67193">
        <ele>778.8051758</ele>
        <time>2014-08-10T07:05:49Z</time>
      </trkpt>
      <trkpt lat="44.34132" lon="2.67182">
        <ele>777.84375</ele>
        <time>2014-08-10T07:05:54Z</time>
      </trkpt>
      <trkpt lat="44.34146" lon="2.67167">
        <ele>774.9599609</ele>
        <time>2014-08-10T07:06:00Z</time>
      </trkpt>
      <trkpt lat="44.34156" lon="2.67157">
        <ele>773.5180664</ele>
        <time>2014-08-10T07:06:05Z</time>
      </trkpt>
      <trkpt lat="44.34168" lon="2.67146">
        <ele>771.1147461</ele>
        <time>2014-08-10T07:06:10Z</time>
      </trkpt>
      <trkpt lat="44.34182" lon="2.67136">
        <ele>770.6340332</ele>
        <time>2014-08-10T07:06:15Z</time>
      </trkpt>
      <trkpt lat="44.34195" lon="2.67129">
        <ele>768.7114258</ele>
        <time>2014-08-10T07:06:20Z</time>
      </trkpt>
      <trkpt lat="44.34209" lon="2.67121">
        <ele>765.3469238</ele>
        <time>2014-08-10T07:06:25Z</time>
      </trkpt>
      <trkpt lat="44.34222" lon="2.67116">
        <ele>763.904541</ele>
        <time>2014-08-10T07:06:30Z</time>
      </trkpt>
      <trkpt lat="44.34237" lon="2.67105">
        <ele>762.9433594</ele>
        <time>2014-08-10T07:06:36Z</time>
      </trkpt>
      <trkpt lat="44.34248" lon="2.67094">
        <ele>762.9433594</ele>
        <time>2014-08-10T07:06:41Z</time>
      </trkpt>
      <trkpt lat="44.34259" lon="2.67082">
        <ele>761.9821777</ele>
        <time>2014-08-10T07:06:46Z</time>
      </trkpt>
      <trkpt lat="44.3427" lon="2.6707">
        <ele>760.0593262</ele>
        <time>2014-08-10T07:06:51Z</time>
      </trkpt>
      <trkpt lat="44.34279" lon="2.67055">
        <ele>757.65625</ele>
        <time>2014-08-10T07:06:56Z</time>
      </trkpt>
      <trkpt lat="44.34284" lon="2.67043">
        <ele>754.7722168</ele>
        <time>2014-08-10T07:07:00Z</time>
      </trkpt>
      <trkpt lat="44.34293" lon="2.6702">
        <ele>751.8884277</ele>
        <time>2014-08-10T07:07:07Z</time>
      </trkpt>
      <trkpt lat="44.34299" lon="2.67002">
        <ele>751.4077148</ele>
        <time>2014-08-10T07:07:12Z</time>
      </trkpt>
      <trkpt lat="44.34308" lon="2.66988">
        <ele>748.5236816</ele>
        <time>2014-08-10T07:07:17Z</time>
      </trkpt>
      <trkpt lat="44.34321" lon="2.66975">
        <ele>744.1977539</ele>
        <time>2014-08-10T07:07:23Z</time>
      </trkpt>
      <trkpt lat="44.34332" lon="2.66964">
        <ele>741.3137207</ele>
        <time>2014-08-10T07:07:28Z</time>
      </trkpt>
      <trkpt lat="44.34343" lon="2.6695">
        <ele>738.4299316</ele>
        <time>2014-08-10T07:07:34Z</time>
      </trkpt>
      <trkpt lat="44.34358" lon="2.66934">
        <ele>735.5458984</ele>
        <time>2014-08-10T07:07:41Z</time>
      </trkpt>
      <trkpt lat="44.34368" lon="2.66922">
        <ele>733.1425781</ele>
        <time>2014-08-10T07:07:46Z</time>
      </trkpt>
      <trkpt lat="44.34378" lon="2.66914">
        <ele>731.2199707</ele>
        <time>2014-08-10T07:07:50Z</time>
      </trkpt>
      <trkpt lat="44.34392" lon="2.669">
        <ele>729.777832</ele>
        <time>2014-08-10T07:07:56Z</time>
      </trkpt>
      <trkpt lat="44.344" lon="2.66892">
        <ele>728.3359375</ele>
        <time>2014-08-10T07:08:00Z</time>
      </trkpt>
      <trkpt lat="44.34414" lon="2.66886">
        <ele>726.4133301</ele>
        <time>2014-08-10T07:08:05Z</time>
      </trkpt>
      <trkpt lat="44.34421" lon="2.6688">
        <ele>724.4907227</ele>
        <time>2014-08-10T07:08:08Z</time>
      </trkpt>
      <trkpt lat="44.34429" lon="2.66862">
        <ele>721.6066895</ele>
        <time>2014-08-10T07:08:13Z</time>
      </trkpt>
      <trkpt lat="44.34441" lon="2.66843">
        <ele>718.2421875</ele>
        <time>2014-08-10T07:08:19Z</time>
      </trkpt>
      <trkpt lat="44.34449" lon="2.66826">
        <ele>715.3581543</ele>
        <time>2014-08-10T07:08:24Z</time>
      </trkpt>
      <trkpt lat="44.34454" lon="2.66811">
        <ele>713.4355469</ele>
        <time>2014-08-10T07:08:28Z</time>
      </trkpt>
      <trkpt lat="44.34467" lon="2.66792">
        <ele>710.5515137</ele>
        <time>2014-08-10T07:08:34Z</time>
      </trkpt>
      <trkpt lat="44.34477" lon="2.66773">
        <ele>713.9160156</ele>
        <time>2014-08-10T07:08:39Z</time>
      </trkpt>
      <trkpt lat="44.34489" lon="2.66759">
        <ele>712.4741211</ele>
        <time>2014-08-10T07:08:44Z</time>
      </trkpt>
      <trkpt lat="44.34501" lon="2.66746">
        <ele>710.0708008</ele>
        <time>2014-08-10T07:08:49Z</time>
      </trkpt>
      <trkpt lat="44.34511" lon="2.66738">
        <ele>708.1484375</ele>
        <time>2014-08-10T07:08:53Z</time>
      </trkpt>
      <trkpt lat="44.34521" lon="2.66728">
        <ele>706.7062988</ele>
        <time>2014-08-10T07:08:57Z</time>
      </trkpt>
      <trkpt lat="44.34533" lon="2.66717">
        <ele>704.7836914</ele>
        <time>2014-08-10T07:09:02Z</time>
      </trkpt>
      <trkpt lat="44.34544" lon="2.66709">
        <ele>702.3803711</ele>
        <time>2014-08-10T07:09:06Z</time>
      </trkpt>
      <trkpt lat="44.34556" lon="2.66706">
        <ele>702.3803711</ele>
        <time>2014-08-10T07:09:10Z</time>
      </trkpt>
      <trkpt lat="44.34568" lon="2.66718">
        <ele>700.9384766</ele>
        <time>2014-08-10T07:09:15Z</time>
      </trkpt>
      <trkpt lat="44.34579" lon="2.66733">
        <ele>698.5349121</ele>
        <time>2014-08-10T07:09:20Z</time>
      </trkpt>
      <trkpt lat="44.34583" lon="2.6675">
        <ele>697.5737305</ele>
        <time>2014-08-10T07:09:24Z</time>
      </trkpt>
      <trkpt lat="44.34583" lon="2.66771">
        <ele>695.1704102</ele>
        <time>2014-08-10T07:09:29Z</time>
      </trkpt>
      <trkpt lat="44.34583" lon="2.66795">
        <ele>693.7285156</ele>
        <time>2014-08-10T07:09:34Z</time>
      </trkpt>
      <trkpt lat="44.34583" lon="2.66815">
        <ele>692.767334</ele>
        <time>2014-08-10T07:09:39Z</time>
      </trkpt>
      <trkpt lat="44.34582" lon="2.66833">
        <ele>691.3251953</ele>
        <time>2014-08-10T07:09:43Z</time>
      </trkpt>
      <trkpt lat="44.34581" lon="2.66849">
        <ele>689.8833008</ele>
        <time>2014-08-10T07:09:47Z</time>
      </trkpt>
      <trkpt lat="44.34581" lon="2.66876">
        <ele>687.4799805</ele>
        <time>2014-08-10T07:09:54Z</time>
      </trkpt>
      <trkpt lat="44.34578" lon="2.66889">
        <ele>686.9992676</ele>
        <time>2014-08-10T07:09:57Z</time>
      </trkpt>
      <trkpt lat="44.34575" lon="2.66911">
        <ele>685.557373</ele>
        <time>2014-08-10T07:10:03Z</time>
      </trkpt>
      <trkpt lat="44.3457" lon="2.66929">
        <ele>685.0769043</ele>
        <time>2014-08-10T07:10:08Z</time>
      </trkpt>
      <trkpt lat="44.34566" lon="2.66948">
        <ele>686.5187988</ele>
        <time>2014-08-10T07:10:13Z</time>
      </trkpt>
      <trkpt lat="44.34565" lon="2.66961">
        <ele>685.557373</ele>
        <time>2014-08-10T07:10:17Z</time>
      </trkpt>
      <trkpt lat="44.34563" lon="2.66978">
        <ele>684.5961914</ele>
        <time>2014-08-10T07:10:22Z</time>
      </trkpt>
      <trkpt lat="44.34563" lon="2.66995">
        <ele>682.6733398</ele>
        <time>2014-08-10T07:10:27Z</time>
      </trkpt>
      <trkpt lat="44.34561" lon="2.67012">
        <ele>680.7507324</ele>
        <time>2014-08-10T07:10:31Z</time>
      </trkpt>
      <trkpt lat="44.34561" lon="2.67031">
        <ele>677.8666992</ele>
        <time>2014-08-10T07:10:36Z</time>
      </trkpt>
      <trkpt lat="44.34557" lon="2.67051">
        <ele>674.9829102</ele>
        <time>2014-08-10T07:10:41Z</time>
      </trkpt>
      <trkpt lat="44.34553" lon="2.67071">
        <ele>674.0214844</ele>
        <time>2014-08-10T07:10:46Z</time>
      </trkpt>
      <trkpt lat="44.34555" lon="2.67091">
        <ele>672.5795898</ele>
        <time>2014-08-10T07:10:51Z</time>
      </trkpt>
      <trkpt lat="44.34556" lon="2.67093">
        <ele>672.098877</ele>
        <time>2014-08-10T07:10:52Z</time>
      </trkpt>
      <trkpt lat="44.34572" lon="2.67092">
        <ele>670.6569824</ele>
        <time>2014-08-10T07:10:57Z</time>
      </trkpt>
      <trkpt lat="44.34591" lon="2.67092">
        <ele>670.1762695</ele>
        <time>2014-08-10T07:11:03Z</time>
      </trkpt>
      <trkpt lat="44.34603" lon="2.67091">
        <ele>668.2536621</ele>
        <time>2014-08-10T07:11:07Z</time>
      </trkpt>
      <trkpt lat="44.34622" lon="2.67086">
        <ele>666.8115234</ele>
        <time>2014-08-10T07:11:13Z</time>
      </trkpt>
      <trkpt lat="44.34628" lon="2.67084">
        <ele>666.8115234</ele>
        <time>2014-08-10T07:11:15Z</time>
      </trkpt>
      <trkpt lat="44.34642" lon="2.67077">
        <ele>665.3696289</ele>
        <time>2014-08-10T07:11:20Z</time>
      </trkpt>
      <trkpt lat="44.34645" lon="2.67075">
        <ele>664.888916</ele>
        <time>2014-08-10T07:11:21Z</time>
      </trkpt>
      <trkpt lat="44.34657" lon="2.67069">
        <ele>663.9274902</ele>
        <time>2014-08-10T07:11:25Z</time>
      </trkpt>
      <trkpt lat="44.34671" lon="2.67061">
        <ele>660.0822754</ele>
        <time>2014-08-10T07:11:30Z</time>
      </trkpt>
      <trkpt lat="44.34679" lon="2.67056">
        <ele>657.1984863</ele>
        <time>2014-08-10T07:11:33Z</time>
      </trkpt>
      <trkpt lat="44.34689" lon="2.67047">
        <ele>653.3532715</ele>
        <time>2014-08-10T07:11:37Z</time>
      </trkpt>
      <trkpt lat="44.34698" lon="2.67038">
        <ele>650.949707</ele>
        <time>2014-08-10T07:11:41Z</time>
      </trkpt>
      <trkpt lat="44.34702" lon="2.67033">
        <ele>650.4692383</ele>
        <time>2014-08-10T07:11:43Z</time>
      </trkpt>
      <trkpt lat="44.34716" lon="2.67021">
        <ele>647.5852051</ele>
        <time>2014-08-10T07:11:49Z</time>
      </trkpt>
      <trkpt lat="44.34723" lon="2.67011">
        <ele>644.2207031</ele>
        <time>2014-08-10T07:11:53Z</time>
      </trkpt>
      <trkpt lat="44.34734" lon="2.67007">
        <ele>643.7399902</ele>
        <time>2014-08-10T07:11:57Z</time>
      </trkpt>
      <trkpt lat="44.34752" lon="2.6701">
        <ele>641.3366699</ele>
        <time>2014-08-10T07:12:04Z</time>
      </trkpt>
      <trkpt lat="44.34765" lon="2.67018">
        <ele>639.4140625</ele>
        <time>2014-08-10T07:12:09Z</time>
      </trkpt>
      <trkpt lat="44.34776" lon="2.67025">
        <ele>637.0107422</ele>
        <time>2014-08-10T07:12:13Z</time>
      </trkpt>
      <trkpt lat="44.34789" lon="2.67036">
        <ele>635.5686035</ele>
        <time>2014-08-10T07:12:18Z</time>
      </trkpt>
      <trkpt lat="44.34798" lon="2.67041">
        <ele>634.6074219</ele>
        <time>2014-08-10T07:12:22Z</time>
      </trkpt>
      <trkpt lat="44.34813" lon="2.67052">
        <ele>633.1652832</ele>
        <time>2014-08-10T07:12:27Z</time>
      </trkpt>
      <trkpt lat="44.34823" lon="2.67057">
        <ele>632.2041016</ele>
        <time>2014-08-10T07:12:31Z</time>
      </trkpt>
      <trkpt lat="44.34836" lon="2.67055">
        <ele>631.2429199</ele>
        <time>2014-08-10T07:12:36Z</time>
      </trkpt>
      <trkpt lat="44.34848" lon="2.6705">
        <ele>629.8007813</ele>
        <time>2014-08-10T07:12:40Z</time>
      </trkpt>
      <trkpt lat="44.3486" lon="2.67044">
        <ele>628.8395996</ele>
        <time>2014-08-10T07:12:44Z</time>
      </trkpt>
      <trkpt lat="44.34871" lon="2.67038">
        <ele>627.3977051</ele>
        <time>2014-08-10T07:12:48Z</time>
      </trkpt>
      <trkpt lat="44.34882" lon="2.67029">
        <ele>626.4362793</ele>
        <time>2014-08-10T07:12:52Z</time>
      </trkpt>
      <trkpt lat="44.34887" lon="2.67025">
        <ele>625.9555664</ele>
        <time>2014-08-10T07:12:54Z</time>
      </trkpt>
      <trkpt lat="44.34896" lon="2.67015">
        <ele>624.032959</ele>
        <time>2014-08-10T07:12:58Z</time>
      </trkpt>
      <trkpt lat="44.34904" lon="2.67005">
        <ele>621.6296387</ele>
        <time>2014-08-10T07:13:02Z</time>
      </trkpt>
      <trkpt lat="44.34915" lon="2.66986">
        <ele>619.2263184</ele>
        <time>2014-08-10T07:13:08Z</time>
      </trkpt>
      <trkpt lat="44.34924" lon="2.66975">
        <ele>617.7841797</ele>
        <time>2014-08-10T07:13:12Z</time>
      </trkpt>
      <trkpt lat="44.34933" lon="2.66965">
        <ele>618.2648926</ele>
        <time>2014-08-10T07:13:16Z</time>
      </trkpt>
      <trkpt lat="44.34946" lon="2.66958">
        <ele>618.2648926</ele>
        <time>2014-08-10T07:13:21Z</time>
      </trkpt>
      <trkpt lat="44.34953" lon="2.66951">
        <ele>616.822998</ele>
        <time>2014-08-10T07:13:25Z</time>
      </trkpt>
      <trkpt lat="44.34965" lon="2.66954">
        <ele>613.9389648</ele>
        <time>2014-08-10T07:13:29Z</time>
      </trkpt>
      <trkpt lat="44.34977" lon="2.66969">
        <ele>611.5358887</ele>
        <time>2014-08-10T07:13:34Z</time>
      </trkpt>
      <trkpt lat="44.34986" lon="2.66985">
        <ele>608.6518555</ele>
        <time>2014-08-10T07:13:39Z</time>
      </trkpt>
      <trkpt lat="44.34995" lon="2.67005">
        <ele>606.729248</ele>
        <time>2014-08-10T07:13:45Z</time>
      </trkpt>
      <trkpt lat="44.34999" lon="2.67021">
        <ele>605.2873535</ele>
        <time>2014-08-10T07:13:50Z</time>
      </trkpt>
      <trkpt lat="44.35004" lon="2.6704">
        <ele>604.3261719</ele>
        <time>2014-08-10T07:13:55Z</time>
      </trkpt>
      <trkpt lat="44.35008" lon="2.67059">
        <ele>603.364502</ele>
        <time>2014-08-10T07:14:00Z</time>
      </trkpt>
      <trkpt lat="44.3501" lon="2.67076">
        <ele>600.9611816</ele>
        <time>2014-08-10T07:14:04Z</time>
      </trkpt>
      <trkpt lat="44.3501" lon="2.67103">
        <ele>599.0385742</ele>
        <time>2014-08-10T07:14:10Z</time>
      </trkpt>
      <trkpt lat="44.3501" lon="2.67122">
        <ele>597.5966797</ele>
        <time>2014-08-10T07:14:15Z</time>
      </trkpt>
      <trkpt lat="44.35011" lon="2.67146">
        <ele>596.1547852</ele>
        <time>2014-08-10T07:14:21Z</time>
      </trkpt>
      <trkpt lat="44.35012" lon="2.67159">
        <ele>595.1933594</ele>
        <time>2014-08-10T07:14:25Z</time>
      </trkpt>
      <trkpt lat="44.3501" lon="2.6718">
        <ele>594.2321777</ele>
        <time>2014-08-10T07:14:30Z</time>
      </trkpt>
      <trkpt lat="44.35008" lon="2.67194">
        <ele>593.270752</ele>
        <time>2014-08-10T07:14:34Z</time>
      </trkpt>
      <trkpt lat="44.35008" lon="2.67206">
        <ele>591.8288574</ele>
        <time>2014-08-10T07:14:37Z</time>
      </trkpt>
      <trkpt lat="44.34999" lon="2.67223">
        <ele>591.3481445</ele>
        <time>2014-08-10T07:14:43Z</time>
      </trkpt>
      <trkpt lat="44.34989" lon="2.67228">
        <ele>591.3481445</ele>
        <time>2014-08-10T07:14:47Z</time>
      </trkpt>
      <trkpt lat="44.34979" lon="2.67233">
        <ele>592.3095703</ele>
        <time>2014-08-10T07:14:51Z</time>
      </trkpt>
      <trkpt lat="44.3497" lon="2.67235">
        <ele>592.7902832</ele>
        <time>2014-08-10T07:14:55Z</time>
      </trkpt>
      <trkpt lat="44.34961" lon="2.67237">
        <ele>592.3095703</ele>
        <time>2014-08-10T07:14:59Z</time>
      </trkpt>
      <trkpt lat="44.3495" lon="2.67241">
        <ele>592.3095703</ele>
        <time>2014-08-10T07:15:04Z</time>
      </trkpt>
      <trkpt lat="44.34944" lon="2.67243">
        <ele>592.3095703</ele>
        <time>2014-08-10T07:15:07Z</time>
      </trkpt>
      <trkpt lat="44.34932" lon="2.67246">
        <ele>590.8674316</ele>
        <time>2014-08-10T07:15:13Z</time>
      </trkpt>
      <trkpt lat="44.34921" lon="2.6725">
        <ele>590.8674316</ele>
        <time>2014-08-10T07:15:18Z</time>
      </trkpt>
      <trkpt lat="44.34909" lon="2.67255">
        <ele>592.3095703</ele>
        <time>2014-08-10T07:15:24Z</time>
      </trkpt>
      <trkpt lat="44.34898" lon="2.67258">
        <ele>594.2321777</ele>
        <time>2014-08-10T07:15:29Z</time>
      </trkpt>
      <trkpt lat="44.34885" lon="2.67259">
        <ele>595.6740723</ele>
        <time>2014-08-10T07:15:35Z</time>
      </trkpt>
      <trkpt lat="44.34874" lon="2.67258">
        <ele>597.1159668</ele>
        <time>2014-08-10T07:15:40Z</time>
      </trkpt>
      <trkpt lat="44.3486" lon="2.67267">
        <ele>599.0385742</ele>
        <time>2014-08-10T07:15:47Z</time>
      </trkpt>
      <trkpt lat="44.34848" lon="2.67277">
        <ele>599.0385742</ele>
        <time>2014-08-10T07:15:53Z</time>
      </trkpt>
      <trkpt lat="44.34837" lon="2.67286">
        <ele>599.5192871</ele>
        <time>2014-08-10T07:15:58Z</time>
      </trkpt>
      <trkpt lat="44.3483" lon="2.67292">
        <ele>600.4807129</ele>
        <time>2014-08-10T07:16:01Z</time>
      </trkpt>
      <trkpt lat="44.34819" lon="2.67298">
        <ele>601.4418945</ele>
        <time>2014-08-10T07:16:06Z</time>
      </trkpt>
      <trkpt lat="44.34813" lon="2.67302">
        <ele>601.9226074</ele>
        <time>2014-08-10T07:16:09Z</time>
      </trkpt>
      <trkpt lat="44.348" lon="2.67317">
        <ele>603.8452148</ele>
        <time>2014-08-10T07:16:16Z</time>
      </trkpt>
      <trkpt lat="44.34788" lon="2.67326">
        <ele>606.729248</ele>
        <time>2014-08-10T07:16:22Z</time>
      </trkpt>
      <trkpt lat="44.34784" lon="2.67329">
        <ele>607.2099609</ele>
        <time>2014-08-10T07:16:24Z</time>
      </trkpt>
      <trkpt lat="44.34777" lon="2.67334">
        <ele>607.2099609</ele>
        <time>2014-08-10T07:16:27Z</time>
      </trkpt>
      <trkpt lat="44.34767" lon="2.67338">
        <ele>606.2485352</ele>
        <time>2014-08-10T07:16:31Z</time>
      </trkpt>
      <trkpt lat="44.34754" lon="2.67343">
        <ele>606.729248</ele>
        <time>2014-08-10T07:16:37Z</time>
      </trkpt>
      <trkpt lat="44.34742" lon="2.67349">
        <ele>607.2099609</ele>
        <time>2014-08-10T07:16:42Z</time>
      </trkpt>
      <trkpt lat="44.34737" lon="2.67351">
        <ele>608.1713867</ele>
        <time>2014-08-10T07:16:44Z</time>
      </trkpt>
      <trkpt lat="44.34725" lon="2.67356">
        <ele>610.09375</ele>
        <time>2014-08-10T07:16:49Z</time>
      </trkpt>
      <trkpt lat="44.34718" lon="2.67361">
        <ele>611.5358887</ele>
        <time>2014-08-10T07:16:52Z</time>
      </trkpt>
      <trkpt lat="44.34705" lon="2.67369">
        <ele>612.0166016</ele>
        <time>2014-08-10T07:16:58Z</time>
      </trkpt>
      <trkpt lat="44.34695" lon="2.67374">
        <ele>615.8618164</ele>
        <time>2014-08-10T07:17:03Z</time>
      </trkpt>
      <trkpt lat="44.34675" lon="2.67382">
        <ele>626.4362793</ele>
        <time>2014-08-10T07:17:10Z</time>
      </trkpt>
      <trkpt lat="44.34663" lon="2.67388">
        <ele>630.762207</ele>
        <time>2014-08-10T07:17:14Z</time>
      </trkpt>
      <trkpt lat="44.34654" lon="2.67391">
        <ele>629.8007813</ele>
        <time>2014-08-10T07:17:18Z</time>
      </trkpt>
      <trkpt lat="44.34642" lon="2.67397">
        <ele>629.8007813</ele>
        <time>2014-08-10T07:17:23Z</time>
      </trkpt>
      <trkpt lat="44.34631" lon="2.67397">
        <ele>628.3588867</ele>
        <time>2014-08-10T07:17:28Z</time>
      </trkpt>
      <trkpt lat="44.34619" lon="2.674">
        <ele>629.8007813</ele>
        <time>2014-08-10T07:17:34Z</time>
      </trkpt>
      <trkpt lat="44.34614" lon="2.67404">
        <ele>630.2814941</ele>
        <time>2014-08-10T07:17:38Z</time>
      </trkpt>
      <trkpt lat="44.34614" lon="2.67405">
        <ele>629.3200684</ele>
        <time>2014-08-10T07:17:40Z</time>
      </trkpt>
      <trkpt lat="44.34624" lon="2.67421">
        <ele>620.1877441</ele>
        <time>2014-08-10T07:17:46Z</time>
      </trkpt>
      <trkpt lat="44.34632" lon="2.67432">
        <ele>617.7841797</ele>
        <time>2014-08-10T07:17:51Z</time>
      </trkpt>
      <trkpt lat="44.34639" lon="2.67435">
        <ele>617.3037109</ele>
        <time>2014-08-10T07:17:55Z</time>
      </trkpt>
      <trkpt lat="44.34649" lon="2.67435">
        <ele>617.3037109</ele>
        <time>2014-08-10T07:18:00Z</time>
      </trkpt>
      <trkpt lat="44.3466" lon="2.67438">
        <ele>615.3811035</ele>
        <time>2014-08-10T07:18:06Z</time>
      </trkpt>
      <trkpt lat="44.34676" lon="2.67434">
        <ele>612.9777832</ele>
        <time>2014-08-10T07:18:12Z</time>
      </trkpt>
      <trkpt lat="44.3469" lon="2.67431">
        <ele>612.9777832</ele>
        <time>2014-08-10T07:18:17Z</time>
      </trkpt>
      <trkpt lat="44.34703" lon="2.67429">
        <ele>614.4196777</ele>
        <time>2014-08-10T07:18:22Z</time>
      </trkpt>
      <trkpt lat="44.34715" lon="2.67431">
        <ele>612.4970703</ele>
        <time>2014-08-10T07:18:27Z</time>
      </trkpt>
      <trkpt lat="44.34724" lon="2.67435">
        <ele>612.0166016</ele>
        <time>2014-08-10T07:18:32Z</time>
      </trkpt>
      <trkpt lat="44.3474" lon="2.67439">
        <ele>611.5358887</ele>
        <time>2014-08-10T07:18:38Z</time>
      </trkpt>
      <trkpt lat="44.34742" lon="2.67439">
        <ele>611.5358887</ele>
        <time>2014-08-10T07:18:39Z</time>
      </trkpt>
      <trkpt lat="44.34755" lon="2.67447">
        <ele>612.0166016</ele>
        <time>2014-08-10T07:18:44Z</time>
      </trkpt>
      <trkpt lat="44.34757" lon="2.67449">
        <ele>612.0166016</ele>
        <time>2014-08-10T07:18:45Z</time>
      </trkpt>
      <trkpt lat="44.3477" lon="2.67458">
        <ele>612.4970703</ele>
        <time>2014-08-10T07:18:52Z</time>
      </trkpt>
      <trkpt lat="44.34771" lon="2.6746">
        <ele>612.0166016</ele>
        <time>2014-08-10T07:18:54Z</time>
      </trkpt>
      <trkpt lat="44.34777" lon="2.67464">
        <ele>614.4196777</ele>
        <time>2014-08-10T07:19:01Z</time>
      </trkpt>
      <trkpt lat="44.34786" lon="2.67465">
        <ele>615.8618164</ele>
        <time>2014-08-10T07:19:08Z</time>
      </trkpt>
      <trkpt lat="44.34795" lon="2.67463">
        <ele>616.3422852</ele>
        <time>2014-08-10T07:19:14Z</time>
      </trkpt>
      <trkpt lat="44.34806" lon="2.67459">
        <ele>615.8618164</ele>
        <time>2014-08-10T07:19:23Z</time>
      </trkpt>
      <trkpt lat="44.34815" lon="2.67458">
        <ele>615.8618164</ele>
        <time>2014-08-10T07:19:29Z</time>
      </trkpt>
      <trkpt lat="44.34821" lon="2.67466">
        <ele>615.3811035</ele>
        <time>2014-08-10T07:19:34Z</time>
      </trkpt>
      <trkpt lat="44.34827" lon="2.67474">
        <ele>616.822998</ele>
        <time>2014-08-10T07:19:41Z</time>
      </trkpt>
      <trkpt lat="44.34827" lon="2.6748">
        <ele>617.3037109</ele>
        <time>2014-08-10T07:19:45Z</time>
      </trkpt>
      <trkpt lat="44.34826" lon="2.67485">
        <ele>618.2648926</ele>
        <time>2014-08-10T07:19:49Z</time>
      </trkpt>
      <trkpt lat="44.34826" lon="2.67492">
        <ele>619.2263184</ele>
        <time>2014-08-10T07:19:53Z</time>
      </trkpt>
      <trkpt lat="44.34825" lon="2.67495">
        <ele>620.1877441</ele>
        <time>2014-08-10T07:19:55Z</time>
      </trkpt>
      <trkpt lat="44.34821" lon="2.67503">
        <ele>622.1103516</ele>
        <time>2014-08-10T07:20:01Z</time>
      </trkpt>
      <trkpt lat="44.34818" lon="2.67511">
        <ele>624.5136719</ele>
        <time>2014-08-10T07:20:07Z</time>
      </trkpt>
      <trkpt lat="44.34812" lon="2.67517">
        <ele>625.9555664</ele>
        <time>2014-08-10T07:20:13Z</time>
      </trkpt>
      <trkpt lat="44.34805" lon="2.67516">
        <ele>627.8781738</ele>
        <time>2014-08-10T07:20:19Z</time>
      </trkpt>
      <trkpt lat="44.34804" lon="2.67516">
        <ele>627.8781738</ele>
        <time>2014-08-10T07:20:20Z</time>
      </trkpt>
      <trkpt lat="44.34794" lon="2.67519">
        <ele>631.7233887</ele>
        <time>2014-08-10T07:20:29Z</time>
      </trkpt>
      <trkpt lat="44.34786" lon="2.67526">
        <ele>633.6459961</ele>
        <time>2014-08-10T07:20:36Z</time>
      </trkpt>
      <trkpt lat="44.34781" lon="2.67534">
        <ele>635.5686035</ele>
        <time>2014-08-10T07:20:43Z</time>
      </trkpt>
      <trkpt lat="44.34778" lon="2.6754">
        <ele>637.4914551</ele>
        <time>2014-08-10T07:20:49Z</time>
      </trkpt>
      <trkpt lat="44.34779" lon="2.67549">
        <ele>639.4140625</ele>
        <time>2014-08-10T07:20:55Z</time>
      </trkpt>
      <trkpt lat="44.34779" lon="2.67557">
        <ele>640.855957</ele>
        <time>2014-08-10T07:21:00Z</time>
      </trkpt>
      <trkpt lat="44.34779" lon="2.67567">
        <ele>643.2592773</ele>
        <time>2014-08-10T07:21:07Z</time>
      </trkpt>
      <trkpt lat="44.34776" lon="2.67578">
        <ele>644.2207031</ele>
        <time>2014-08-10T07:21:14Z</time>
      </trkpt>
      <trkpt lat="44.34774" lon="2.67587">
        <ele>643.7399902</ele>
        <time>2014-08-10T07:21:20Z</time>
      </trkpt>
      <trkpt lat="44.34773" lon="2.6759">
        <ele>644.7011719</ele>
        <time>2014-08-10T07:21:22Z</time>
      </trkpt>
      <trkpt lat="44.3477" lon="2.67594">
        <ele>644.7011719</ele>
        <time>2014-08-10T07:21:26Z</time>
      </trkpt>
      <trkpt lat="44.34766" lon="2.67599">
        <ele>646.6240234</ele>
        <time>2014-08-10T07:21:31Z</time>
      </trkpt>
      <trkpt lat="44.34761" lon="2.67606">
        <ele>647.1044922</ele>
        <time>2014-08-10T07:21:38Z</time>
      </trkpt>
      <trkpt lat="44.34756" lon="2.67608">
        <ele>647.1044922</ele>
        <time>2014-08-10T07:21:42Z</time>
      </trkpt>
      <trkpt lat="44.34755" lon="2.67608">
        <ele>647.1044922</ele>
        <time>2014-08-10T07:21:44Z</time>
      </trkpt>
      <trkpt lat="44.34751" lon="2.6761">
        <ele>645.6625977</ele>
        <time>2014-08-10T07:21:48Z</time>
      </trkpt>
      <trkpt lat="44.34746" lon="2.67613">
        <ele>643.7399902</ele>
        <time>2014-08-10T07:21:54Z</time>
      </trkpt>
      <trkpt lat="44.3474" lon="2.67617">
        <ele>643.7399902</ele>
        <time>2014-08-10T07:22:02Z</time>
      </trkpt>
      <trkpt lat="44.34737" lon="2.67619">
        <ele>645.1818848</ele>
        <time>2014-08-10T07:22:05Z</time>
      </trkpt>
      <trkpt lat="44.34732" lon="2.67623">
        <ele>646.6240234</ele>
        <time>2014-08-10T07:22:11Z</time>
      </trkpt>
      <trkpt lat="44.34725" lon="2.6763">
        <ele>648.5463867</ele>
        <time>2014-08-10T07:22:18Z</time>
      </trkpt>
      <trkpt lat="44.34722" lon="2.67633">
        <ele>649.0270996</ele>
        <time>2014-08-10T07:22:22Z</time>
      </trkpt>
      <trkpt lat="44.34716" lon="2.67642">
        <ele>650.949707</ele>
        <time>2014-08-10T07:22:29Z</time>
      </trkpt>
      <trkpt lat="44.34715" lon="2.67645">
        <ele>651.4304199</ele>
        <time>2014-08-10T07:22:31Z</time>
      </trkpt>
      <trkpt lat="44.3471" lon="2.67653">
        <ele>652.8725586</ele>
        <time>2014-08-10T07:22:38Z</time>
      </trkpt>
      <trkpt lat="44.34705" lon="2.67664">
        <ele>657.6791992</ele>
        <time>2014-08-10T07:22:44Z</time>
      </trkpt>
      <trkpt lat="44.34703" lon="2.6767">
        <ele>660.0822754</ele>
        <time>2014-08-10T07:22:48Z</time>
      </trkpt>
      <trkpt lat="44.347" lon="2.67676">
        <ele>662.9663086</ele>
        <time>2014-08-10T07:22:54Z</time>
      </trkpt>
      <trkpt lat="44.34696" lon="2.67684">
        <ele>665.8503418</ele>
        <time>2014-08-10T07:23:01Z</time>
      </trkpt>
      <trkpt lat="44.34693" lon="2.6769">
        <ele>666.8115234</ele>
        <time>2014-08-10T07:23:07Z</time>
      </trkpt>
      <trkpt lat="44.34689" lon="2.677">
        <ele>667.7727051</ele>
        <time>2014-08-10T07:23:13Z</time>
      </trkpt>
      <trkpt lat="44.34686" lon="2.67705">
        <ele>669.2150879</ele>
        <time>2014-08-10T07:23:17Z</time>
      </trkpt>
      <trkpt lat="44.34682" lon="2.67714">
        <ele>670.1762695</ele>
        <time>2014-08-10T07:23:23Z</time>
      </trkpt>
      <trkpt lat="44.34681" lon="2.67716">
        <ele>670.1762695</ele>
        <time>2014-08-10T07:23:24Z</time>
      </trkpt>
      <trkpt lat="44.34678" lon="2.67724">
        <ele>671.6181641</ele>
        <time>2014-08-10T07:23:29Z</time>
      </trkpt>
      <trkpt lat="44.34674" lon="2.67734">
        <ele>672.5795898</ele>
        <time>2014-08-10T07:23:35Z</time>
      </trkpt>
      <trkpt lat="44.34667" lon="2.67746">
        <ele>675.4633789</ele>
        <time>2014-08-10T07:23:42Z</time>
      </trkpt>
      <trkpt lat="44.34662" lon="2.67754">
        <ele>677.8666992</ele>
        <time>2014-08-10T07:23:48Z</time>
      </trkpt>
      <trkpt lat="44.34661" lon="2.67757">
        <ele>677.3862305</ele>
        <time>2014-08-10T07:23:50Z</time>
      </trkpt>
      <trkpt lat="44.34655" lon="2.67768">
        <ele>677.3862305</ele>
        <time>2014-08-10T07:23:58Z</time>
      </trkpt>
      <trkpt lat="44.34652" lon="2.67775">
        <ele>677.8666992</ele>
        <time>2014-08-10T07:24:02Z</time>
      </trkpt>
      <trkpt lat="44.34648" lon="2.67783">
        <ele>678.828125</ele>
        <time>2014-08-10T07:24:08Z</time>
      </trkpt>
      <trkpt lat="44.34643" lon="2.6779">
        <ele>681.2314453</ele>
        <time>2014-08-10T07:24:14Z</time>
      </trkpt>
      <trkpt lat="44.34642" lon="2.67791">
        <ele>681.7119141</ele>
        <time>2014-08-10T07:24:15Z</time>
      </trkpt>
      <trkpt lat="44.34636" lon="2.67801">
        <ele>683.6345215</ele>
        <time>2014-08-10T07:24:24Z</time>
      </trkpt>
      <trkpt lat="44.34633" lon="2.6781">
        <ele>684.5961914</ele>
        <time>2014-08-10T07:24:29Z</time>
      </trkpt>
      <trkpt lat="44.34629" lon="2.67819">
        <ele>686.5187988</ele>
        <time>2014-08-10T07:24:34Z</time>
      </trkpt>
      <trkpt lat="44.34625" lon="2.6783">
        <ele>687.4799805</ele>
        <time>2014-08-10T07:24:40Z</time>
      </trkpt>
      <trkpt lat="44.3462" lon="2.6784">
        <ele>688.9221191</ele>
        <time>2014-08-10T07:24:47Z</time>
      </trkpt>
      <trkpt lat="44.34616" lon="2.6785">
        <ele>689.4025879</ele>
        <time>2014-08-10T07:24:54Z</time>
      </trkpt>
      <trkpt lat="44.34611" lon="2.67859">
        <ele>689.8833008</ele>
        <time>2014-08-10T07:25:01Z</time>
      </trkpt>
      <trkpt lat="44.34605" lon="2.67866">
        <ele>690.3640137</ele>
        <time>2014-08-10T07:25:07Z</time>
      </trkpt>
      <trkpt lat="44.34598" lon="2.67876">
        <ele>690.3640137</ele>
        <time>2014-08-10T07:25:14Z</time>
      </trkpt>
      <trkpt lat="44.34595" lon="2.67882">
        <ele>689.8833008</ele>
        <time>2014-08-10T07:25:18Z</time>
      </trkpt>
      <trkpt lat="44.34589" lon="2.67891">
        <ele>691.3251953</ele>
        <time>2014-08-10T07:25:25Z</time>
      </trkpt>
      <trkpt lat="44.34585" lon="2.67899">
        <ele>694.6896973</ele>
        <time>2014-08-10T07:25:32Z</time>
      </trkpt>
      <trkpt lat="44.3458" lon="2.67906">
        <ele>696.6125488</ele>
        <time>2014-08-10T07:25:37Z</time>
      </trkpt>
      <trkpt lat="44.34575" lon="2.67915">
        <ele>698.5349121</ele>
        <time>2014-08-10T07:25:43Z</time>
      </trkpt>
      <trkpt lat="44.34574" lon="2.67917">
        <ele>698.5349121</ele>
        <time>2014-08-10T07:25:45Z</time>
      </trkpt>
      <trkpt lat="44.3457" lon="2.67924">
        <ele>698.0544434</ele>
        <time>2014-08-10T07:25:49Z</time>
      </trkpt>
      <trkpt lat="44.34569" lon="2.67926">
        <ele>698.0544434</ele>
        <time>2014-08-10T07:25:51Z</time>
      </trkpt>
      <trkpt lat="44.34565" lon="2.67936">
        <ele>699.9770508</ele>
        <time>2014-08-10T07:25:57Z</time>
      </trkpt>
      <trkpt lat="44.34562" lon="2.67943">
        <ele>700.9384766</ele>
        <time>2014-08-10T07:26:02Z</time>
      </trkpt>
      <trkpt lat="44.34559" lon="2.67948">
        <ele>701.8999023</ele>
        <time>2014-08-10T07:26:05Z</time>
      </trkpt>
      <trkpt lat="44.34557" lon="2.67953">
        <ele>702.3803711</ele>
        <time>2014-08-10T07:26:08Z</time>
      </trkpt>
      <trkpt lat="44.34555" lon="2.67958">
        <ele>703.3417969</ele>
        <time>2014-08-10T07:26:11Z</time>
      </trkpt>
      <trkpt lat="44.3455" lon="2.67968">
        <ele>704.3032227</ele>
        <time>2014-08-10T07:26:17Z</time>
      </trkpt>
      <trkpt lat="44.34548" lon="2.67971">
        <ele>704.7836914</ele>
        <time>2014-08-10T07:26:19Z</time>
      </trkpt>
      <trkpt lat="44.34546" lon="2.67974">
        <ele>706.2255859</ele>
        <time>2014-08-10T07:26:21Z</time>
      </trkpt>
      <trkpt lat="44.34542" lon="2.67983">
        <ele>706.2255859</ele>
        <time>2014-08-10T07:26:27Z</time>
      </trkpt>
      <trkpt lat="44.34537" lon="2.67992">
        <ele>707.1870117</ele>
        <time>2014-08-10T07:26:34Z</time>
      </trkpt>
      <trkpt lat="44.34534" lon="2.67998">
        <ele>708.6289063</ele>
        <time>2014-08-10T07:26:38Z</time>
      </trkpt>
      <trkpt lat="44.34528" lon="2.68008">
        <ele>710.5515137</ele>
        <time>2014-08-10T07:26:45Z</time>
      </trkpt>
      <trkpt lat="44.34523" lon="2.68018">
        <ele>711.5129395</ele>
        <time>2014-08-10T07:26:52Z</time>
      </trkpt>
      <trkpt lat="44.34521" lon="2.68024">
        <ele>712.4741211</ele>
        <time>2014-08-10T07:26:55Z</time>
      </trkpt>
      <trkpt lat="44.34518" lon="2.68029">
        <ele>712.954834</ele>
        <time>2014-08-10T07:26:59Z</time>
      </trkpt>
      <trkpt lat="44.34517" lon="2.68032">
        <ele>712.954834</ele>
        <time>2014-08-10T07:27:01Z</time>
      </trkpt>
      <trkpt lat="44.34515" lon="2.68038">
        <ele>712.4741211</ele>
        <time>2014-08-10T07:27:05Z</time>
      </trkpt>
      <trkpt lat="44.34509" lon="2.68053">
        <ele>712.954834</ele>
        <time>2014-08-10T07:27:14Z</time>
      </trkpt>
      <trkpt lat="44.34504" lon="2.68065">
        <ele>712.954834</ele>
        <time>2014-08-10T07:27:21Z</time>
      </trkpt>
      <trkpt lat="44.34503" lon="2.68069">
        <ele>713.9160156</ele>
        <time>2014-08-10T07:27:23Z</time>
      </trkpt>
      <trkpt lat="44.34499" lon="2.68078">
        <ele>715.3581543</ele>
        <time>2014-08-10T07:27:27Z</time>
      </trkpt>
      <trkpt lat="44.34496" lon="2.68086">
        <ele>717.2810059</ele>
        <time>2014-08-10T07:27:32Z</time>
      </trkpt>
      <trkpt lat="44.3449" lon="2.68096">
        <ele>719.2036133</ele>
        <time>2014-08-10T07:27:39Z</time>
      </trkpt>
      <trkpt lat="44.34484" lon="2.68105">
        <ele>718.7229004</ele>
        <time>2014-08-10T07:27:46Z</time>
      </trkpt>
      <trkpt lat="44.3448" lon="2.68115">
        <ele>717.2810059</ele>
        <time>2014-08-10T07:27:52Z</time>
      </trkpt>
      <trkpt lat="44.34477" lon="2.68118">
        <ele>717.2810059</ele>
        <time>2014-08-10T07:27:54Z</time>
      </trkpt>
      <trkpt lat="44.34473" lon="2.68122">
        <ele>718.7229004</ele>
        <time>2014-08-10T07:27:58Z</time>
      </trkpt>
      <trkpt lat="44.34465" lon="2.68126">
        <ele>722.5681152</ele>
        <time>2014-08-10T07:28:03Z</time>
      </trkpt>
      <trkpt lat="44.34457" lon="2.68132">
        <ele>724.0100098</ele>
        <time>2014-08-10T07:28:09Z</time>
      </trkpt>
      <trkpt lat="44.34449" lon="2.6814">
        <ele>724.4907227</ele>
        <time>2014-08-10T07:28:15Z</time>
      </trkpt>
      <trkpt lat="44.34441" lon="2.68149">
        <ele>725.4519043</ele>
        <time>2014-08-10T07:28:21Z</time>
      </trkpt>
      <trkpt lat="44.3444" lon="2.68151">
        <ele>725.4519043</ele>
        <time>2014-08-10T07:28:22Z</time>
      </trkpt>
      <trkpt lat="44.34432" lon="2.68159">
        <ele>726.4133301</ele>
        <time>2014-08-10T07:28:29Z</time>
      </trkpt>
      <trkpt lat="44.34423" lon="2.68168">
        <ele>727.8552246</ele>
        <time>2014-08-10T07:28:37Z</time>
      </trkpt>
      <trkpt lat="44.34417" lon="2.68176">
        <ele>727.3747559</ele>
        <time>2014-08-10T07:28:43Z</time>
      </trkpt>
      <trkpt lat="44.3441" lon="2.68184">
        <ele>728.3359375</ele>
        <time>2014-08-10T07:28:49Z</time>
      </trkpt>
      <trkpt lat="44.34407" lon="2.68189">
        <ele>728.8166504</ele>
        <time>2014-08-10T07:28:52Z</time>
      </trkpt>
      <trkpt lat="44.34402" lon="2.68198">
        <ele>730.7392578</ele>
        <time>2014-08-10T07:28:57Z</time>
      </trkpt>
      <trkpt lat="44.344" lon="2.68201">
        <ele>730.7392578</ele>
        <time>2014-08-10T07:28:59Z</time>
      </trkpt>
      <trkpt lat="44.34395" lon="2.68212">
        <ele>729.2971191</ele>
        <time>2014-08-10T07:29:05Z</time>
      </trkpt>
      <trkpt lat="44.34393" lon="2.68215">
        <ele>728.8166504</ele>
        <time>2014-08-10T07:29:07Z</time>
      </trkpt>
      <trkpt lat="44.34389" lon="2.68224">
        <ele>729.2971191</ele>
        <time>2014-08-10T07:29:13Z</time>
      </trkpt>
      <trkpt lat="44.34388" lon="2.68226">
        <ele>728.8166504</ele>
        <time>2014-08-10T07:29:15Z</time>
      </trkpt>
      <trkpt lat="44.34384" lon="2.68232">
        <ele>730.7392578</ele>
        <time>2014-08-10T07:29:19Z</time>
      </trkpt>
      <trkpt lat="44.3438" lon="2.68234">
        <ele>732.1813965</ele>
        <time>2014-08-10T07:29:22Z</time>
      </trkpt>
      <trkpt lat="44.34374" lon="2.68242">
        <ele>734.1040039</ele>
        <time>2014-08-10T07:29:28Z</time>
      </trkpt>
      <trkpt lat="44.3437" lon="2.68247">
        <ele>735.0654297</ele>
        <time>2014-08-10T07:29:31Z</time>
      </trkpt>
      <trkpt lat="44.34362" lon="2.68258">
        <ele>735.0654297</ele>
        <time>2014-08-10T07:29:39Z</time>
      </trkpt>
      <trkpt lat="44.34354" lon="2.68267">
        <ele>736.0266113</ele>
        <time>2014-08-10T07:29:47Z</time>
      </trkpt>
      <trkpt lat="44.34346" lon="2.68277">
        <ele>737.9492188</ele>
        <time>2014-08-10T07:29:55Z</time>
      </trkpt>
      <trkpt lat="44.34338" lon="2.68288">
        <ele>739.3911133</ele>
        <time>2014-08-10T07:30:03Z</time>
      </trkpt>
      <trkpt lat="44.3433" lon="2.68297">
        <ele>742.2751465</ele>
        <time>2014-08-10T07:30:11Z</time>
      </trkpt>
      <trkpt lat="44.34322" lon="2.68307">
        <ele>744.1977539</ele>
        <time>2014-08-10T07:30:19Z</time>
      </trkpt>
      <trkpt lat="44.34321" lon="2.68308">
        <ele>744.6782227</ele>
        <time>2014-08-10T07:30:20Z</time>
      </trkpt>
      <trkpt lat="44.34314" lon="2.68315">
        <ele>745.6396484</ele>
        <time>2014-08-10T07:30:27Z</time>
      </trkpt>
      <trkpt lat="44.34304" lon="2.68326">
        <ele>747.081543</ele>
        <time>2014-08-10T07:30:36Z</time>
      </trkpt>
      <trkpt lat="44.34295" lon="2.68338">
        <ele>748.5236816</ele>
        <time>2014-08-10T07:30:45Z</time>
      </trkpt>
      <trkpt lat="44.34289" lon="2.68347">
        <ele>749.9658203</ele>
        <time>2014-08-10T07:30:52Z</time>
      </trkpt>
      <trkpt lat="44.34282" lon="2.68356">
        <ele>750.927002</ele>
        <time>2014-08-10T07:30:59Z</time>
      </trkpt>
      <trkpt lat="44.34275" lon="2.68366">
        <ele>752.8496094</ele>
        <time>2014-08-10T07:31:07Z</time>
      </trkpt>
      <trkpt lat="44.34269" lon="2.68375">
        <ele>753.8110352</ele>
        <time>2014-08-10T07:31:14Z</time>
      </trkpt>
      <trkpt lat="44.34264" lon="2.68382">
        <ele>755.2529297</ele>
        <time>2014-08-10T07:31:20Z</time>
      </trkpt>
      <trkpt lat="44.34262" lon="2.68384">
        <ele>755.2529297</ele>
        <time>2014-08-10T07:31:26Z</time>
      </trkpt>
      <trkpt lat="44.34261" lon="2.68385">
        <ele>754.291748</ele>
        <time>2014-08-10T07:31:34Z</time>
      </trkpt>
      <trkpt lat="44.34262" lon="2.68385">
        <ele>753.8110352</ele>
        <time>2014-08-10T07:31:35Z</time>
      </trkpt>
      <trkpt lat="44.34269" lon="2.68375">
        <ele>752.8496094</ele>
        <time>2014-08-10T07:31:42Z</time>
      </trkpt>
      <trkpt lat="44.34274" lon="2.68368">
        <ele>752.3688965</ele>
        <time>2014-08-10T07:31:46Z</time>
      </trkpt>
      <trkpt lat="44.34277" lon="2.68361">
        <ele>751.4077148</ele>
        <time>2014-08-10T07:31:50Z</time>
      </trkpt>
      <trkpt lat="44.34286" lon="2.6835">
        <ele>749.0043945</ele>
        <time>2014-08-10T07:31:58Z</time>
      </trkpt>
      <trkpt lat="44.3429" lon="2.68342">
        <ele>748.5236816</ele>
        <time>2014-08-10T07:32:03Z</time>
      </trkpt>
      <trkpt lat="44.34293" lon="2.6834">
        <ele>748.0432129</ele>
        <time>2014-08-10T07:32:05Z</time>
      </trkpt>
      <trkpt lat="44.34303" lon="2.68328">
        <ele>745.6396484</ele>
        <time>2014-08-10T07:32:14Z</time>
      </trkpt>
      <trkpt lat="44.34315" lon="2.68313">
        <ele>743.717041</ele>
        <time>2014-08-10T07:32:21Z</time>
      </trkpt>
      <trkpt lat="44.34328" lon="2.68298">
        <ele>742.2751465</ele>
        <time>2014-08-10T07:32:28Z</time>
      </trkpt>
      <trkpt lat="44.34338" lon="2.68288">
        <ele>740.3525391</ele>
        <time>2014-08-10T07:32:33Z</time>
      </trkpt>
      <trkpt lat="44.34345" lon="2.68279">
        <ele>737.9492188</ele>
        <time>2014-08-10T07:32:37Z</time>
      </trkpt>
      <trkpt lat="44.34354" lon="2.68268">
        <ele>736.0266113</ele>
        <time>2014-08-10T07:32:42Z</time>
      </trkpt>
      <trkpt lat="44.34362" lon="2.68257">
        <ele>734.5847168</ele>
        <time>2014-08-10T07:32:46Z</time>
      </trkpt>
      <trkpt lat="44.34371" lon="2.68244">
        <ele>731.7004395</ele>
        <time>2014-08-10T07:32:52Z</time>
      </trkpt>
      <trkpt lat="44.34381" lon="2.68233">
        <ele>730.7392578</ele>
        <time>2014-08-10T07:32:58Z</time>
      </trkpt>
      <trkpt lat="44.34388" lon="2.68223">
        <ele>729.2971191</ele>
        <time>2014-08-10T07:33:03Z</time>
      </trkpt>
      <trkpt lat="44.34395" lon="2.68212">
        <ele>726.894043</ele>
        <time>2014-08-10T07:33:08Z</time>
      </trkpt>
      <trkpt lat="44.344" lon="2.68207">
        <ele>725.4519043</ele>
        <time>2014-08-10T07:33:11Z</time>
      </trkpt>
      <trkpt lat="44.3441" lon="2.68193">
        <ele>723.529541</ele>
        <time>2014-08-10T07:33:18Z</time>
      </trkpt>
      <trkpt lat="44.34418" lon="2.68183">
        <ele>721.6066895</ele>
        <time>2014-08-10T07:33:24Z</time>
      </trkpt>
      <trkpt lat="44.34423" lon="2.68174">
        <ele>723.529541</ele>
        <time>2014-08-10T07:33:29Z</time>
      </trkpt>
      <trkpt lat="44.34434" lon="2.68165">
        <ele>722.5681152</ele>
        <time>2014-08-10T07:33:36Z</time>
      </trkpt>
      <trkpt lat="44.34437" lon="2.6816">
        <ele>724.9714355</ele>
        <time>2014-08-10T07:33:41Z</time>
      </trkpt>
      <trkpt lat="44.34433" lon="2.68163">
        <ele>725.9326172</ele>
        <time>2014-08-10T07:33:47Z</time>
      </trkpt>
      <trkpt lat="44.34432" lon="2.68164">
        <ele>725.9326172</ele>
        <time>2014-08-10T07:33:56Z</time>
      </trkpt>
      <trkpt lat="44.34431" lon="2.68165">
        <ele>725.4519043</ele>
        <time>2014-08-10T07:34:05Z</time>
      </trkpt>
      <trkpt lat="44.34426" lon="2.6817">
        <ele>725.4519043</ele>
        <time>2014-08-10T07:34:11Z</time>
      </trkpt>
      <trkpt lat="44.34423" lon="2.68172">
        <ele>725.9326172</ele>
        <time>2014-08-10T07:34:14Z</time>
      </trkpt>
      <trkpt lat="44.34415" lon="2.6818">
        <ele>727.3747559</ele>
        <time>2014-08-10T07:34:21Z</time>
      </trkpt>
      <trkpt lat="44.34408" lon="2.68187">
        <ele>729.777832</ele>
        <time>2014-08-10T07:34:27Z</time>
      </trkpt>
      <trkpt lat="44.34403" lon="2.68196">
        <ele>732.1813965</ele>
        <time>2014-08-10T07:34:33Z</time>
      </trkpt>
      <trkpt lat="44.344" lon="2.68202">
        <ele>733.1425781</ele>
        <time>2014-08-10T07:34:37Z</time>
      </trkpt>
      <trkpt lat="44.34395" lon="2.68212">
        <ele>733.1425781</ele>
        <time>2014-08-10T07:34:43Z</time>
      </trkpt>
      <trkpt lat="44.34389" lon="2.68219">
        <ele>734.1040039</ele>
        <time>2014-08-10T07:34:49Z</time>
      </trkpt>
      <trkpt lat="44.34384" lon="2.68228">
        <ele>735.0654297</ele>
        <time>2014-08-10T07:34:55Z</time>
      </trkpt>
      <trkpt lat="44.34381" lon="2.68234">
        <ele>734.5847168</ele>
        <time>2014-08-10T07:34:59Z</time>
      </trkpt>
      <trkpt lat="44.34372" lon="2.68244">
        <ele>737.4685059</ele>
        <time>2014-08-10T07:35:07Z</time>
      </trkpt>
      <trkpt lat="44.34367" lon="2.68249">
        <ele>738.9106445</ele>
        <time>2014-08-10T07:35:11Z</time>
      </trkpt>
      <trkpt lat="44.34359" lon="2.6826">
        <ele>741.3137207</ele>
        <time>2014-08-10T07:35:18Z</time>
      </trkpt>
      <trkpt lat="44.3435" lon="2.68272">
        <ele>743.717041</ele>
        <time>2014-08-10T07:35:26Z</time>
      </trkpt>
      <trkpt lat="44.3434" lon="2.68285">
        <ele>744.6782227</ele>
        <time>2014-08-10T07:35:35Z</time>
      </trkpt>
      <trkpt lat="44.34331" lon="2.68293">
        <ele>745.6396484</ele>
        <time>2014-08-10T07:35:43Z</time>
      </trkpt>
      <trkpt lat="44.34324" lon="2.68301">
        <ele>746.1203613</ele>
        <time>2014-08-10T07:35:49Z</time>
      </trkpt>
      <trkpt lat="44.34315" lon="2.68312">
        <ele>747.081543</ele>
        <time>2014-08-10T07:35:57Z</time>
      </trkpt>
      <trkpt lat="44.34306" lon="2.68322">
        <ele>749.4851074</ele>
        <time>2014-08-10T07:36:05Z</time>
      </trkpt>
      <trkpt lat="44.34301" lon="2.68328">
        <ele>749.9658203</ele>
        <time>2014-08-10T07:36:10Z</time>
      </trkpt>
      <trkpt lat="44.34295" lon="2.68337">
        <ele>750.927002</ele>
        <time>2014-08-10T07:36:16Z</time>
      </trkpt>
      <trkpt lat="44.34284" lon="2.6835">
        <ele>752.3688965</ele>
        <time>2014-08-10T07:36:26Z</time>
      </trkpt>
      <trkpt lat="44.34275" lon="2.68363">
        <ele>752.8496094</ele>
        <time>2014-08-10T07:36:35Z</time>
      </trkpt>
      <trkpt lat="44.3427" lon="2.68371">
        <ele>754.291748</ele>
        <time>2014-08-10T07:36:41Z</time>
      </trkpt>
      <trkpt lat="44.34267" lon="2.68375">
        <ele>754.7722168</ele>
        <time>2014-08-10T07:36:44Z</time>
      </trkpt>
      <trkpt lat="44.34261" lon="2.68384">
        <ele>755.2529297</ele>
        <time>2014-08-10T07:36:51Z</time>
      </trkpt>
      <trkpt lat="44.34253" lon="2.68395">
        <ele>756.6948242</ele>
        <time>2014-08-10T07:36:59Z</time>
      </trkpt>
      <trkpt lat="44.34243" lon="2.68409">
        <ele>758.1369629</ele>
        <time>2014-08-10T07:37:09Z</time>
      </trkpt>
      <trkpt lat="44.34236" lon="2.68417">
        <ele>758.6174316</ele>
        <time>2014-08-10T07:37:15Z</time>
      </trkpt>
      <trkpt lat="44.34229" lon="2.68425">
        <ele>761.020752</ele>
        <time>2014-08-10T07:37:22Z</time>
      </trkpt>
      <trkpt lat="44.34223" lon="2.68431">
        <ele>761.5014648</ele>
        <time>2014-08-10T07:37:28Z</time>
      </trkpt>
      <trkpt lat="44.34217" lon="2.68438">
        <ele>761.9821777</ele>
        <time>2014-08-10T07:37:34Z</time>
      </trkpt>
      <trkpt lat="44.3421" lon="2.68448">
        <ele>762.9433594</ele>
        <time>2014-08-10T07:37:41Z</time>
      </trkpt>
      <trkpt lat="44.34201" lon="2.68461">
        <ele>763.904541</ele>
        <time>2014-08-10T07:37:50Z</time>
      </trkpt>
      <trkpt lat="44.34192" lon="2.68474">
        <ele>765.8276367</ele>
        <time>2014-08-10T07:37:59Z</time>
      </trkpt>
      <trkpt lat="44.34184" lon="2.68485">
        <ele>766.7888184</ele>
        <time>2014-08-10T07:38:07Z</time>
      </trkpt>
      <trkpt lat="44.34179" lon="2.68495">
        <ele>767.2695313</ele>
        <time>2014-08-10T07:38:14Z</time>
      </trkpt>
      <trkpt lat="44.34173" lon="2.68502">
        <ele>768.2307129</ele>
        <time>2014-08-10T07:38:20Z</time>
      </trkpt>
      <trkpt lat="44.34172" lon="2.68503">
        <ele>768.2307129</ele>
        <time>2014-08-10T07:38:21Z</time>
      </trkpt>
      <trkpt lat="44.34165" lon="2.68508">
        <ele>767.75</ele>
        <time>2014-08-10T07:38:26Z</time>
      </trkpt>
      <trkpt lat="44.34164" lon="2.68509">
        <ele>767.75</ele>
        <time>2014-08-10T07:38:27Z</time>
      </trkpt>
      <trkpt lat="44.34163" lon="2.68511">
        <ele>767.2695313</ele>
        <time>2014-08-10T07:38:29Z</time>
      </trkpt>
      <trkpt lat="44.34162" lon="2.68513">
        <ele>767.2695313</ele>
        <time>2014-08-10T07:38:37Z</time>
      </trkpt>
      <trkpt lat="44.34161" lon="2.68512">
        <ele>768.2307129</ele>
        <time>2014-08-10T07:38:42Z</time>
      </trkpt>
      <trkpt lat="44.3416" lon="2.68512">
        <ele>768.2307129</ele>
        <time>2014-08-10T07:38:44Z</time>
      </trkpt>
      <trkpt lat="44.34154" lon="2.68517">
        <ele>769.1921387</ele>
        <time>2014-08-10T07:38:50Z</time>
      </trkpt>
      <trkpt lat="44.34148" lon="2.68526">
        <ele>766.3081055</ele>
        <time>2014-08-10T07:38:57Z</time>
      </trkpt>
      <trkpt lat="44.34142" lon="2.68536">
        <ele>765.8276367</ele>
        <time>2014-08-10T07:39:02Z</time>
      </trkpt>
      <trkpt lat="44.34135" lon="2.68545">
        <ele>766.3081055</ele>
        <time>2014-08-10T07:39:07Z</time>
      </trkpt>
      <trkpt lat="44.34132" lon="2.68549">
        <ele>765.8276367</ele>
        <time>2014-08-10T07:39:09Z</time>
      </trkpt>
      <trkpt lat="44.3413" lon="2.68552">
        <ele>765.8276367</ele>
        <time>2014-08-10T07:39:11Z</time>
      </trkpt>
      <trkpt lat="44.34124" lon="2.68563">
        <ele>766.7888184</ele>
        <time>2014-08-10T07:39:17Z</time>
      </trkpt>
      <trkpt lat="44.34116" lon="2.68574">
        <ele>766.7888184</ele>
        <time>2014-08-10T07:39:23Z</time>
      </trkpt>
      <trkpt lat="44.34107" lon="2.68588">
        <ele>767.75</ele>
        <time>2014-08-10T07:39:29Z</time>
      </trkpt>
      <trkpt lat="44.34097" lon="2.68601">
        <ele>767.75</ele>
        <time>2014-08-10T07:39:35Z</time>
      </trkpt>
      <trkpt lat="44.34088" lon="2.68615">
        <ele>768.2307129</ele>
        <time>2014-08-10T07:39:41Z</time>
      </trkpt>
      <trkpt lat="44.34078" lon="2.68628">
        <ele>768.7114258</ele>
        <time>2014-08-10T07:39:47Z</time>
      </trkpt>
      <trkpt lat="44.34073" lon="2.68633">
        <ele>769.1921387</ele>
        <time>2014-08-10T07:39:50Z</time>
      </trkpt>
      <trkpt lat="44.3406" lon="2.68646">
        <ele>767.75</ele>
        <time>2014-08-10T07:39:58Z</time>
      </trkpt>
      <trkpt lat="44.34051" lon="2.68656">
        <ele>767.75</ele>
        <time>2014-08-10T07:40:03Z</time>
      </trkpt>
      <trkpt lat="44.34041" lon="2.68667">
        <ele>766.3081055</ele>
        <time>2014-08-10T07:40:08Z</time>
      </trkpt>
      <trkpt lat="44.34027" lon="2.68677">
        <ele>765.3469238</ele>
        <time>2014-08-10T07:40:14Z</time>
      </trkpt>
      <trkpt lat="44.34009" lon="2.68686">
        <ele>765.8276367</ele>
        <time>2014-08-10T07:40:21Z</time>
      </trkpt>
      <trkpt lat="44.33994" lon="2.68691">
        <ele>765.8276367</ele>
        <time>2014-08-10T07:40:27Z</time>
      </trkpt>
      <trkpt lat="44.33978" lon="2.68698">
        <ele>764.385498</ele>
        <time>2014-08-10T07:40:33Z</time>
      </trkpt>
      <trkpt lat="44.33969" lon="2.68699">
        <ele>763.904541</ele>
        <time>2014-08-10T07:40:37Z</time>
      </trkpt>
      <trkpt lat="44.33957" lon="2.68701">
        <ele>763.904541</ele>
        <time>2014-08-10T07:40:42Z</time>
      </trkpt>
      <trkpt lat="44.33944" lon="2.68704">
        <ele>764.385498</ele>
        <time>2014-08-10T07:40:48Z</time>
      </trkpt>
      <trkpt lat="44.33932" lon="2.68703">
        <ele>764.8662109</ele>
        <time>2014-08-10T07:40:53Z</time>
      </trkpt>
      <trkpt lat="44.33922" lon="2.68703">
        <ele>765.8276367</ele>
        <time>2014-08-10T07:40:58Z</time>
      </trkpt>
      <trkpt lat="44.33905" lon="2.68702">
        <ele>766.7888184</ele>
        <time>2014-08-10T07:41:06Z</time>
      </trkpt>
      <trkpt lat="44.33895" lon="2.68704">
        <ele>768.2307129</ele>
        <time>2014-08-10T07:41:11Z</time>
      </trkpt>
      <trkpt lat="44.33882" lon="2.68707">
        <ele>769.6728516</ele>
        <time>2014-08-10T07:41:17Z</time>
      </trkpt>
      <trkpt lat="44.33871" lon="2.6871">
        <ele>773.0373535</ele>
        <time>2014-08-10T07:41:24Z</time>
      </trkpt>
      <trkpt lat="44.33865" lon="2.68711">
        <ele>775.9211426</ele>
        <time>2014-08-10T07:41:29Z</time>
      </trkpt>
      <trkpt lat="44.33862" lon="2.68713">
        <ele>776.8825684</ele>
        <time>2014-08-10T07:41:31Z</time>
      </trkpt>
      <trkpt lat="44.33855" lon="2.68714">
        <ele>777.84375</ele>
        <time>2014-08-10T07:41:36Z</time>
      </trkpt>
      <trkpt lat="44.33846" lon="2.68717">
        <ele>779.7663574</ele>
        <time>2014-08-10T07:41:43Z</time>
      </trkpt>
      <trkpt lat="44.33836" lon="2.68722">
        <ele>780.2473145</ele>
        <time>2014-08-10T07:41:50Z</time>
      </trkpt>
      <trkpt lat="44.3383" lon="2.68725">
        <ele>781.2087402</ele>
        <time>2014-08-10T07:41:55Z</time>
      </trkpt>
      <trkpt lat="44.33821" lon="2.68728">
        <ele>783.6118164</ele>
        <time>2014-08-10T07:42:02Z</time>
      </trkpt>
      <trkpt lat="44.33813" lon="2.6873">
        <ele>784.0925293</ele>
        <time>2014-08-10T07:42:08Z</time>
      </trkpt>
      <trkpt lat="44.33805" lon="2.68734">
        <ele>784.5732422</ele>
        <time>2014-08-10T07:42:14Z</time>
      </trkpt>
      <trkpt lat="44.33797" lon="2.6874">
        <ele>785.0539551</ele>
        <time>2014-08-10T07:42:21Z</time>
      </trkpt>
      <trkpt lat="44.33786" lon="2.68746">
        <ele>785.5344238</ele>
        <time>2014-08-10T07:42:29Z</time>
      </trkpt>
      <trkpt lat="44.3378" lon="2.68753">
        <ele>785.0539551</ele>
        <time>2014-08-10T07:42:35Z</time>
      </trkpt>
      <trkpt lat="44.33771" lon="2.68759">
        <ele>786.9763184</ele>
        <time>2014-08-10T07:42:43Z</time>
      </trkpt>
      <trkpt lat="44.33763" lon="2.68763">
        <ele>789.3796387</ele>
        <time>2014-08-10T07:42:49Z</time>
      </trkpt>
      <trkpt lat="44.33759" lon="2.68767">
        <ele>790.3410645</ele>
        <time>2014-08-10T07:42:53Z</time>
      </trkpt>
      <trkpt lat="44.33751" lon="2.68773">
        <ele>791.3022461</ele>
        <time>2014-08-10T07:43:00Z</time>
      </trkpt>
      <trkpt lat="44.33744" lon="2.6878">
        <ele>793.2248535</ele>
        <time>2014-08-10T07:43:07Z</time>
      </trkpt>
      <trkpt lat="44.33738" lon="2.68784">
        <ele>794.1862793</ele>
        <time>2014-08-10T07:43:12Z</time>
      </trkpt>
      <trkpt lat="44.33731" lon="2.6879">
        <ele>796.5898438</ele>
        <time>2014-08-10T07:43:19Z</time>
      </trkpt>
      <trkpt lat="44.33724" lon="2.68795">
        <ele>797.5510254</ele>
        <time>2014-08-10T07:43:25Z</time>
      </trkpt>
      <trkpt lat="44.33717" lon="2.688">
        <ele>798.9929199</ele>
        <time>2014-08-10T07:43:31Z</time>
      </trkpt>
      <trkpt lat="44.33709" lon="2.68805">
        <ele>800.4350586</ele>
        <time>2014-08-10T07:43:38Z</time>
      </trkpt>
      <trkpt lat="44.33701" lon="2.68808">
        <ele>800.9155273</ele>
        <time>2014-08-10T07:43:44Z</time>
      </trkpt>
      <trkpt lat="44.33692" lon="2.68804">
        <ele>800.4350586</ele>
        <time>2014-08-10T07:43:50Z</time>
      </trkpt>
      <trkpt lat="44.33687" lon="2.688">
        <ele>800.9155273</ele>
        <time>2014-08-10T07:43:53Z</time>
      </trkpt>
      <trkpt lat="44.33677" lon="2.68786">
        <ele>802.3574219</ele>
        <time>2014-08-10T07:43:59Z</time>
      </trkpt>
      <trkpt lat="44.33667" lon="2.68773">
        <ele>804.2802734</ele>
        <time>2014-08-10T07:44:04Z</time>
      </trkpt>
      <trkpt lat="44.33658" lon="2.68762">
        <ele>805.722168</ele>
        <time>2014-08-10T07:44:09Z</time>
      </trkpt>
      <trkpt lat="44.3365" lon="2.68749">
        <ele>805.2414551</ele>
        <time>2014-08-10T07:44:15Z</time>
      </trkpt>
      <trkpt lat="44.33646" lon="2.68742">
        <ele>806.2026367</ele>
        <time>2014-08-10T07:44:20Z</time>
      </trkpt>
      <trkpt lat="44.33641" lon="2.68733">
        <ele>806.2026367</ele>
        <time>2014-08-10T07:44:26Z</time>
      </trkpt>
      <trkpt lat="44.33638" lon="2.68724">
        <ele>808.1254883</ele>
        <time>2014-08-10T07:44:32Z</time>
      </trkpt>
      <trkpt lat="44.33635" lon="2.68716">
        <ele>810.5285645</ele>
        <time>2014-08-10T07:44:36Z</time>
      </trkpt>
      <trkpt lat="44.33632" lon="2.68713">
        <ele>811.0092773</ele>
        <time>2014-08-10T07:44:38Z</time>
      </trkpt>
      <trkpt lat="44.33628" lon="2.68703">
        <ele>813.4128418</ele>
        <time>2014-08-10T07:44:44Z</time>
      </trkpt>
      <trkpt lat="44.33627" lon="2.68702">
        <ele>813.8933105</ele>
        <time>2014-08-10T07:44:45Z</time>
      </trkpt>
      <trkpt lat="44.33621" lon="2.68691">
        <ele>814.3740234</ele>
        <time>2014-08-10T07:44:52Z</time>
      </trkpt>
      <trkpt lat="44.33615" lon="2.68682">
        <ele>813.4128418</ele>
        <time>2014-08-10T07:44:59Z</time>
      </trkpt>
      <trkpt lat="44.33611" lon="2.68677">
        <ele>812.9321289</ele>
        <time>2014-08-10T07:45:02Z</time>
      </trkpt>
      <trkpt lat="44.33609" lon="2.68669">
        <ele>814.3740234</ele>
        <time>2014-08-10T07:45:06Z</time>
      </trkpt>
      <trkpt lat="44.33605" lon="2.6866">
        <ele>815.3354492</ele>
        <time>2014-08-10T07:45:11Z</time>
      </trkpt>
      <trkpt lat="44.33601" lon="2.68652">
        <ele>814.3740234</ele>
        <time>2014-08-10T07:45:17Z</time>
      </trkpt>
      <trkpt lat="44.33595" lon="2.68643">
        <ele>816.7773438</ele>
        <time>2014-08-10T07:45:22Z</time>
      </trkpt>
      <trkpt lat="44.33592" lon="2.68635">
        <ele>817.7385254</ele>
        <time>2014-08-10T07:45:27Z</time>
      </trkpt>
      <trkpt lat="44.33585" lon="2.68629">
        <ele>818.2192383</ele>
        <time>2014-08-10T07:45:31Z</time>
      </trkpt>
      <trkpt lat="44.33583" lon="2.68623">
        <ele>818.6999512</ele>
        <time>2014-08-10T07:45:33Z</time>
      </trkpt>
      <trkpt lat="44.33573" lon="2.68611">
        <ele>821.1032715</ele>
        <time>2014-08-10T07:45:38Z</time>
      </trkpt>
      <trkpt lat="44.33563" lon="2.68601">
        <ele>822.0644531</ele>
        <time>2014-08-10T07:45:43Z</time>
      </trkpt>
      <trkpt lat="44.33558" lon="2.68599">
        <ele>822.0644531</ele>
        <time>2014-08-10T07:45:45Z</time>
      </trkpt>
      <trkpt lat="44.33547" lon="2.68595">
        <ele>821.5837402</ele>
        <time>2014-08-10T07:45:50Z</time>
      </trkpt>
      <trkpt lat="44.33533" lon="2.68592">
        <ele>819.1806641</ele>
        <time>2014-08-10T07:45:56Z</time>
      </trkpt>
      <trkpt lat="44.33524" lon="2.68592">
        <ele>817.7385254</ele>
        <time>2014-08-10T07:46:00Z</time>
      </trkpt>
      <trkpt lat="44.3351" lon="2.68591">
        <ele>816.7773438</ele>
        <time>2014-08-10T07:46:06Z</time>
      </trkpt>
      <trkpt lat="44.33506" lon="2.68593">
        <ele>815.3354492</ele>
        <time>2014-08-10T07:46:08Z</time>
      </trkpt>
      <trkpt lat="44.33495" lon="2.68596">
        <ele>812.9321289</ele>
        <time>2014-08-10T07:46:13Z</time>
      </trkpt>
      <trkpt lat="44.33484" lon="2.686">
        <ele>811.9707031</ele>
        <time>2014-08-10T07:46:18Z</time>
      </trkpt>
      <trkpt lat="44.33474" lon="2.68611">
        <ele>811.0092773</ele>
        <time>2014-08-10T07:46:24Z</time>
      </trkpt>
      <trkpt lat="44.33469" lon="2.68621">
        <ele>813.4128418</ele>
        <time>2014-08-10T07:46:29Z</time>
      </trkpt>
      <trkpt lat="44.33466" lon="2.68641">
        <ele>815.8161621</ele>
        <time>2014-08-10T07:46:35Z</time>
      </trkpt>
      <trkpt lat="44.33466" lon="2.6866">
        <ele>817.7385254</ele>
        <time>2014-08-10T07:46:41Z</time>
      </trkpt>
      <trkpt lat="44.33466" lon="2.68673">
        <ele>819.661377</ele>
        <time>2014-08-10T07:46:46Z</time>
      </trkpt>
      <trkpt lat="44.33463" lon="2.68688">
        <ele>819.661377</ele>
        <time>2014-08-10T07:46:51Z</time>
      </trkpt>
      <trkpt lat="44.33458" lon="2.68708">
        <ele>820.1418457</ele>
        <time>2014-08-10T07:46:58Z</time>
      </trkpt>
      <trkpt lat="44.33457" lon="2.68714">
        <ele>820.6225586</ele>
        <time>2014-08-10T07:47:00Z</time>
      </trkpt>
      <trkpt lat="44.33457" lon="2.68729">
        <ele>821.5837402</ele>
        <time>2014-08-10T07:47:05Z</time>
      </trkpt>
      <trkpt lat="44.33458" lon="2.68744">
        <ele>823.0258789</ele>
        <time>2014-08-10T07:47:10Z</time>
      </trkpt>
      <trkpt lat="44.33459" lon="2.68752">
        <ele>823.0258789</ele>
        <time>2014-08-10T07:47:12Z</time>
      </trkpt>
      <trkpt lat="44.3346" lon="2.68772">
        <ele>823.9870605</ele>
        <time>2014-08-10T07:47:19Z</time>
      </trkpt>
      <trkpt lat="44.33461" lon="2.68791">
        <ele>825.909668</ele>
        <time>2014-08-10T07:47:25Z</time>
      </trkpt>
      <trkpt lat="44.3346" lon="2.68801">
        <ele>825.909668</ele>
        <time>2014-08-10T07:47:29Z</time>
      </trkpt>
      <trkpt lat="44.33461" lon="2.6881">
        <ele>826.3903809</ele>
        <time>2014-08-10T07:47:32Z</time>
      </trkpt>
      <trkpt lat="44.33463" lon="2.68825">
        <ele>827.3518066</ele>
        <time>2014-08-10T07:47:37Z</time>
      </trkpt>
      <trkpt lat="44.33464" lon="2.68844">
        <ele>828.3132324</ele>
        <time>2014-08-10T07:47:43Z</time>
      </trkpt>
      <trkpt lat="44.33465" lon="2.6886">
        <ele>828.7939453</ele>
        <time>2014-08-10T07:47:48Z</time>
      </trkpt>
      <trkpt lat="44.33466" lon="2.6888">
        <ele>829.2744141</ele>
        <time>2014-08-10T07:47:54Z</time>
      </trkpt>
      <trkpt lat="44.33467" lon="2.68896">
        <ele>829.755127</ele>
        <time>2014-08-10T07:47:59Z</time>
      </trkpt>
      <trkpt lat="44.33468" lon="2.68911">
        <ele>829.2744141</ele>
        <time>2014-08-10T07:48:04Z</time>
      </trkpt>
      <trkpt lat="44.33469" lon="2.68927">
        <ele>828.7939453</ele>
        <time>2014-08-10T07:48:09Z</time>
      </trkpt>
      <trkpt lat="44.33469" lon="2.68943">
        <ele>828.3132324</ele>
        <time>2014-08-10T07:48:14Z</time>
      </trkpt>
      <trkpt lat="44.33469" lon="2.68963">
        <ele>826.8710938</ele>
        <time>2014-08-10T07:48:20Z</time>
      </trkpt>
      <trkpt lat="44.33469" lon="2.68976">
        <ele>826.3903809</ele>
        <time>2014-08-10T07:48:24Z</time>
      </trkpt>
      <trkpt lat="44.33468" lon="2.68989">
        <ele>826.3903809</ele>
        <time>2014-08-10T07:48:28Z</time>
      </trkpt>
      <trkpt lat="44.33468" lon="2.69007">
        <ele>825.909668</ele>
        <time>2014-08-10T07:48:33Z</time>
      </trkpt>
      <trkpt lat="44.33466" lon="2.69023">
        <ele>826.8710938</ele>
        <time>2014-08-10T07:48:38Z</time>
      </trkpt>
      <trkpt lat="44.3347" lon="2.69043">
        <ele>826.3903809</ele>
        <time>2014-08-10T07:48:44Z</time>
      </trkpt>
      <trkpt lat="44.33473" lon="2.6906">
        <ele>825.909668</ele>
        <time>2014-08-10T07:48:49Z</time>
      </trkpt>
      <trkpt lat="44.33477" lon="2.69077">
        <ele>825.4289551</ele>
        <time>2014-08-10T07:48:54Z</time>
      </trkpt>
      <trkpt lat="44.33481" lon="2.69097">
        <ele>824.4677734</ele>
        <time>2014-08-10T07:49:00Z</time>
      </trkpt>
      <trkpt lat="44.33485" lon="2.69117">
        <ele>824.9484863</ele>
        <time>2014-08-10T07:49:06Z</time>
      </trkpt>
      <trkpt lat="44.33487" lon="2.69133">
        <ele>825.4289551</ele>
        <time>2014-08-10T07:49:11Z</time>
      </trkpt>
      <trkpt lat="44.33491" lon="2.69152">
        <ele>826.3903809</ele>
        <time>2014-08-10T07:49:17Z</time>
      </trkpt>
      <trkpt lat="44.33493" lon="2.69171">
        <ele>827.3518066</ele>
        <time>2014-08-10T07:49:23Z</time>
      </trkpt>
      <trkpt lat="44.33495" lon="2.6919">
        <ele>827.3518066</ele>
        <time>2014-08-10T07:49:29Z</time>
      </trkpt>
      <trkpt lat="44.33496" lon="2.69208">
        <ele>827.3518066</ele>
        <time>2014-08-10T07:49:35Z</time>
      </trkpt>
      <trkpt lat="44.33498" lon="2.69223">
        <ele>826.8710938</ele>
        <time>2014-08-10T07:49:40Z</time>
      </trkpt>
      <trkpt lat="44.33499" lon="2.69239">
        <ele>827.3518066</ele>
        <time>2014-08-10T07:49:45Z</time>
      </trkpt>
      <trkpt lat="44.33501" lon="2.6926">
        <ele>826.8710938</ele>
        <time>2014-08-10T07:49:51Z</time>
      </trkpt>
      <trkpt lat="44.33501" lon="2.6928">
        <ele>825.909668</ele>
        <time>2014-08-10T07:49:57Z</time>
      </trkpt>
      <trkpt lat="44.33503" lon="2.69293">
        <ele>825.4289551</ele>
        <time>2014-08-10T07:50:01Z</time>
      </trkpt>
      <trkpt lat="44.33504" lon="2.69311">
        <ele>825.909668</ele>
        <time>2014-08-10T07:50:06Z</time>
      </trkpt>
      <trkpt lat="44.33505" lon="2.6933">
        <ele>825.909668</ele>
        <time>2014-08-10T07:50:11Z</time>
      </trkpt>
      <trkpt lat="44.33506" lon="2.69345">
        <ele>825.4289551</ele>
        <time>2014-08-10T07:50:15Z</time>
      </trkpt>
      <trkpt lat="44.33508" lon="2.69361">
        <ele>825.4289551</ele>
        <time>2014-08-10T07:50:20Z</time>
      </trkpt>
      <trkpt lat="44.33509" lon="2.69379">
        <ele>824.9484863</ele>
        <time>2014-08-10T07:50:25Z</time>
      </trkpt>
      <trkpt lat="44.33509" lon="2.6939">
        <ele>824.4677734</ele>
        <time>2014-08-10T07:50:28Z</time>
      </trkpt>
      <trkpt lat="44.33511" lon="2.69408">
        <ele>823.5065918</ele>
        <time>2014-08-10T07:50:33Z</time>
      </trkpt>
      <trkpt lat="44.33508" lon="2.69429">
        <ele>822.545166</ele>
        <time>2014-08-10T07:50:39Z</time>
      </trkpt>
      <trkpt lat="44.33508" lon="2.69443">
        <ele>822.0644531</ele>
        <time>2014-08-10T07:50:44Z</time>
      </trkpt>
      <trkpt lat="44.33507" lon="2.69452">
        <ele>822.0644531</ele>
        <time>2014-08-10T07:50:51Z</time>
      </trkpt>
      <trkpt lat="44.33506" lon="2.69464">
        <ele>821.5837402</ele>
        <time>2014-08-10T07:50:55Z</time>
      </trkpt>
      <trkpt lat="44.33504" lon="2.6947">
        <ele>821.5837402</ele>
        <time>2014-08-10T07:50:57Z</time>
      </trkpt>
      <trkpt lat="44.335" lon="2.69488">
        <ele>820.1418457</ele>
        <time>2014-08-10T07:51:02Z</time>
      </trkpt>
      <trkpt lat="44.33498" lon="2.6949">
        <ele>820.1418457</ele>
        <time>2014-08-10T07:51:10Z</time>
      </trkpt>
      <trkpt lat="44.33496" lon="2.69495">
        <ele>821.1032715</ele>
        <time>2014-08-10T07:51:18Z</time>
      </trkpt>
      <trkpt lat="44.3349" lon="2.69505">
        <ele>820.1418457</ele>
        <time>2014-08-10T07:51:24Z</time>
      </trkpt>
      <trkpt lat="44.33487" lon="2.69516">
        <ele>820.1418457</ele>
        <time>2014-08-10T07:51:29Z</time>
      </trkpt>
      <trkpt lat="44.33492" lon="2.69524">
        <ele>819.661377</ele>
        <time>2014-08-10T07:51:32Z</time>
      </trkpt>
      <trkpt lat="44.33507" lon="2.69537">
        <ele>820.1418457</ele>
        <time>2014-08-10T07:51:38Z</time>
      </trkpt>
      <trkpt lat="44.33518" lon="2.69544">
        <ele>821.1032715</ele>
        <time>2014-08-10T07:51:43Z</time>
      </trkpt>
      <trkpt lat="44.33531" lon="2.69553">
        <ele>822.545166</ele>
        <time>2014-08-10T07:51:48Z</time>
      </trkpt>
      <trkpt lat="44.33544" lon="2.69567">
        <ele>819.661377</ele>
        <time>2014-08-10T07:51:54Z</time>
      </trkpt>
      <trkpt lat="44.33555" lon="2.69575">
        <ele>816.2966309</ele>
        <time>2014-08-10T07:51:59Z</time>
      </trkpt>
      <trkpt lat="44.33568" lon="2.69575">
        <ele>815.3354492</ele>
        <time>2014-08-10T07:52:03Z</time>
      </trkpt>
      <trkpt lat="44.3358" lon="2.69571">
        <ele>814.3740234</ele>
        <time>2014-08-10T07:52:07Z</time>
      </trkpt>
      <trkpt lat="44.33592" lon="2.69568">
        <ele>811.9707031</ele>
        <time>2014-08-10T07:52:12Z</time>
      </trkpt>
      <trkpt lat="44.33596" lon="2.69566">
        <ele>811.0092773</ele>
        <time>2014-08-10T07:52:14Z</time>
      </trkpt>
      <trkpt lat="44.33605" lon="2.69564">
        <ele>811.9707031</ele>
        <time>2014-08-10T07:52:19Z</time>
      </trkpt>
      <trkpt lat="44.3362" lon="2.69561">
        <ele>814.3740234</ele>
        <time>2014-08-10T07:52:25Z</time>
      </trkpt>
      <trkpt lat="44.33631" lon="2.69563">
        <ele>815.3354492</ele>
        <time>2014-08-10T07:52:29Z</time>
      </trkpt>
      <trkpt lat="44.33642" lon="2.69569">
        <ele>815.8161621</ele>
        <time>2014-08-10T07:52:33Z</time>
      </trkpt>
      <trkpt lat="44.33654" lon="2.69573">
        <ele>817.2580566</ele>
        <time>2014-08-10T07:52:36Z</time>
      </trkpt>
      <trkpt lat="44.33668" lon="2.6958">
        <ele>813.4128418</ele>
        <time>2014-08-10T07:52:41Z</time>
      </trkpt>
      <trkpt lat="44.33682" lon="2.6958">
        <ele>811.9707031</ele>
        <time>2014-08-10T07:52:47Z</time>
      </trkpt>
      <trkpt lat="44.33687" lon="2.69579">
        <ele>811.0092773</ele>
        <time>2014-08-10T07:52:49Z</time>
      </trkpt>
      <trkpt lat="44.33698" lon="2.69573">
        <ele>807.6447754</ele>
        <time>2014-08-10T07:52:53Z</time>
      </trkpt>
      <trkpt lat="44.33709" lon="2.6957">
        <ele>804.7607422</ele>
        <time>2014-08-10T07:52:58Z</time>
      </trkpt>
      <trkpt lat="44.33719" lon="2.69566">
        <ele>803.7995605</ele>
        <time>2014-08-10T07:53:03Z</time>
      </trkpt>
      <trkpt lat="44.33736" lon="2.69559">
        <ele>800.4350586</ele>
        <time>2014-08-10T07:53:09Z</time>
      </trkpt>
      <trkpt lat="44.33751" lon="2.69555">
        <ele>798.0317383</ele>
        <time>2014-08-10T07:53:15Z</time>
      </trkpt>
      <trkpt lat="44.33763" lon="2.69553">
        <ele>791.3022461</ele>
        <time>2014-08-10T07:53:20Z</time>
      </trkpt>
      <trkpt lat="44.33776" lon="2.69553">
        <ele>790.8215332</ele>
        <time>2014-08-10T07:53:24Z</time>
      </trkpt>
      <trkpt lat="44.33785" lon="2.69551">
        <ele>791.3022461</ele>
        <time>2014-08-10T07:53:27Z</time>
      </trkpt>
      <trkpt lat="44.33798" lon="2.69559">
        <ele>787.9377441</ele>
        <time>2014-08-10T07:53:33Z</time>
      </trkpt>
      <trkpt lat="44.338" lon="2.69561">
        <ele>786.9763184</ele>
        <time>2014-08-10T07:53:34Z</time>
      </trkpt>
      <trkpt lat="44.33817" lon="2.69577">
        <ele>783.6118164</ele>
        <time>2014-08-10T07:53:41Z</time>
      </trkpt>
      <trkpt lat="44.33823" lon="2.69585">
        <ele>781.689209</ele>
        <time>2014-08-10T07:53:44Z</time>
      </trkpt>
      <trkpt lat="44.33833" lon="2.69593">
        <ele>779.2856445</ele>
        <time>2014-08-10T07:53:49Z</time>
      </trkpt>
      <trkpt lat="44.33847" lon="2.69594">
        <ele>781.2087402</ele>
        <time>2014-08-10T07:53:53Z</time>
      </trkpt>
      <trkpt lat="44.33862" lon="2.69598">
        <ele>777.84375</ele>
        <time>2014-08-10T07:53:58Z</time>
      </trkpt>
      <trkpt lat="44.33872" lon="2.696">
        <ele>775.9211426</ele>
        <time>2014-08-10T07:54:02Z</time>
      </trkpt>
      <trkpt lat="44.3389" lon="2.69595">
        <ele>772.5566406</ele>
        <time>2014-08-10T07:54:08Z</time>
      </trkpt>
      <trkpt lat="44.33901" lon="2.69584">
        <ele>770.1533203</ele>
        <time>2014-08-10T07:54:13Z</time>
      </trkpt>
      <trkpt lat="44.3391" lon="2.69569">
        <ele>767.75</ele>
        <time>2014-08-10T07:54:17Z</time>
      </trkpt>
      <trkpt lat="44.33917" lon="2.69557">
        <ele>764.8662109</ele>
        <time>2014-08-10T07:54:21Z</time>
      </trkpt>
      <trkpt lat="44.33922" lon="2.69543">
        <ele>760.5400391</ele>
        <time>2014-08-10T07:54:26Z</time>
      </trkpt>
      <trkpt lat="44.33927" lon="2.69522">
        <ele>756.2141113</ele>
        <time>2014-08-10T07:54:31Z</time>
      </trkpt>
      <trkpt lat="44.33923" lon="2.69499">
        <ele>757.1755371</ele>
        <time>2014-08-10T07:54:36Z</time>
      </trkpt>
      <trkpt lat="44.33914" lon="2.69479">
        <ele>757.65625</ele>
        <time>2014-08-10T07:54:41Z</time>
      </trkpt>
      <trkpt lat="44.3391" lon="2.69461">
        <ele>757.65625</ele>
        <time>2014-08-10T07:54:45Z</time>
      </trkpt>
      <trkpt lat="44.33904" lon="2.69436">
        <ele>757.65625</ele>
        <time>2014-08-10T07:54:50Z</time>
      </trkpt>
      <trkpt lat="44.33897" lon="2.69422">
        <ele>758.1369629</ele>
        <time>2014-08-10T07:54:54Z</time>
      </trkpt>
      <trkpt lat="44.33899" lon="2.69405">
        <ele>759.5788574</ele>
        <time>2014-08-10T07:54:58Z</time>
      </trkpt>
      <trkpt lat="44.33902" lon="2.69401">
        <ele>760.5400391</ele>
        <time>2014-08-10T07:54:59Z</time>
      </trkpt>
      <trkpt lat="44.33916" lon="2.69389">
        <ele>759.5788574</ele>
        <time>2014-08-10T07:55:04Z</time>
      </trkpt>
      <trkpt lat="44.3393" lon="2.69384">
        <ele>760.0593262</ele>
        <time>2014-08-10T07:55:09Z</time>
      </trkpt>
      <trkpt lat="44.33943" lon="2.69382">
        <ele>759.5788574</ele>
        <time>2014-08-10T07:55:13Z</time>
      </trkpt>
      <trkpt lat="44.33952" lon="2.6938">
        <ele>757.65625</ele>
        <time>2014-08-10T07:55:17Z</time>
      </trkpt>
      <trkpt lat="44.33965" lon="2.69383">
        <ele>752.8496094</ele>
        <time>2014-08-10T07:55:23Z</time>
      </trkpt>
      <trkpt lat="44.33979" lon="2.69381">
        <ele>752.8496094</ele>
        <time>2014-08-10T07:55:27Z</time>
      </trkpt>
      <trkpt lat="44.34004" lon="2.69366">
        <ele>751.4077148</ele>
        <time>2014-08-10T07:55:35Z</time>
      </trkpt>
      <trkpt lat="44.34018" lon="2.69357">
        <ele>749.4851074</ele>
        <time>2014-08-10T07:55:40Z</time>
      </trkpt>
      <trkpt lat="44.34029" lon="2.69343">
        <ele>745.1589355</ele>
        <time>2014-08-10T07:55:45Z</time>
      </trkpt>
      <trkpt lat="44.34037" lon="2.69331">
        <ele>742.7558594</ele>
        <time>2014-08-10T07:55:49Z</time>
      </trkpt>
      <trkpt lat="44.34047" lon="2.69321">
        <ele>739.8718262</ele>
        <time>2014-08-10T07:55:53Z</time>
      </trkpt>
      <trkpt lat="44.34049" lon="2.69318">
        <ele>738.4299316</ele>
        <time>2014-08-10T07:55:54Z</time>
      </trkpt>
      <trkpt lat="44.34056" lon="2.69304">
        <ele>733.623291</ele>
        <time>2014-08-10T07:55:59Z</time>
      </trkpt>
      <trkpt lat="44.34059" lon="2.69292">
        <ele>730.2585449</ele>
        <time>2014-08-10T07:56:03Z</time>
      </trkpt>
      <trkpt lat="44.34067" lon="2.6927">
        <ele>724.9714355</ele>
        <time>2014-08-10T07:56:09Z</time>
      </trkpt>
      <trkpt lat="44.34068" lon="2.69249">
        <ele>721.6066895</ele>
        <time>2014-08-10T07:56:15Z</time>
      </trkpt>
      <trkpt lat="44.34071" lon="2.69227">
        <ele>718.2421875</ele>
        <time>2014-08-10T07:56:21Z</time>
      </trkpt>
      <trkpt lat="44.3407" lon="2.69203">
        <ele>717.2810059</ele>
        <time>2014-08-10T07:56:27Z</time>
      </trkpt>
      <trkpt lat="44.34067" lon="2.69189">
        <ele>717.2810059</ele>
        <time>2014-08-10T07:56:31Z</time>
      </trkpt>
      <trkpt lat="44.34066" lon="2.69173">
        <ele>719.2036133</ele>
        <time>2014-08-10T07:56:35Z</time>
      </trkpt>
      <trkpt lat="44.3407" lon="2.69161">
        <ele>720.1647949</ele>
        <time>2014-08-10T07:56:40Z</time>
      </trkpt>
      <trkpt lat="44.34075" lon="2.69157">
        <ele>721.6066895</ele>
        <time>2014-08-10T07:56:46Z</time>
      </trkpt>
      <trkpt lat="44.34078" lon="2.69155">
        <ele>723.0488281</ele>
        <time>2014-08-10T07:56:59Z</time>
      </trkpt>
      <trkpt lat="44.34081" lon="2.69157">
        <ele>719.2036133</ele>
        <time>2014-08-10T07:57:12Z</time>
      </trkpt>
      <trkpt lat="44.34084" lon="2.69164">
        <ele>719.6843262</ele>
        <time>2014-08-10T07:57:18Z</time>
      </trkpt>
      <trkpt lat="44.34085" lon="2.69165">
        <ele>719.6843262</ele>
        <time>2014-08-10T07:57:19Z</time>
      </trkpt>
      <trkpt lat="44.34089" lon="2.69183">
        <ele>719.2036133</ele>
        <time>2014-08-10T07:57:25Z</time>
      </trkpt>
      <trkpt lat="44.34095" lon="2.69201">
        <ele>719.2036133</ele>
        <time>2014-08-10T07:57:30Z</time>
      </trkpt>
      <trkpt lat="44.34096" lon="2.69214">
        <ele>719.2036133</ele>
        <time>2014-08-10T07:57:34Z</time>
      </trkpt>
      <trkpt lat="44.34095" lon="2.69221">
        <ele>717.7614746</ele>
        <time>2014-08-10T07:57:36Z</time>
      </trkpt>
      <trkpt lat="44.34094" lon="2.69246">
        <ele>715.3581543</ele>
        <time>2014-08-10T07:57:42Z</time>
      </trkpt>
      <trkpt lat="44.34096" lon="2.69264">
        <ele>713.9160156</ele>
        <time>2014-08-10T07:57:47Z</time>
      </trkpt>
      <trkpt lat="44.34098" lon="2.69286">
        <ele>714.8774414</ele>
        <time>2014-08-10T07:57:52Z</time>
      </trkpt>
      <trkpt lat="44.34099" lon="2.69306">
        <ele>715.3581543</ele>
        <time>2014-08-10T07:57:57Z</time>
      </trkpt>
      <trkpt lat="44.34101" lon="2.69322">
        <ele>715.3581543</ele>
        <time>2014-08-10T07:58:02Z</time>
      </trkpt>
      <trkpt lat="44.34103" lon="2.69336">
        <ele>714.8774414</ele>
        <time>2014-08-10T07:58:06Z</time>
      </trkpt>
      <trkpt lat="44.341" lon="2.69355">
        <ele>711.9936523</ele>
        <time>2014-08-10T07:58:11Z</time>
      </trkpt>
      <trkpt lat="44.34101" lon="2.69359">
        <ele>712.4741211</ele>
        <time>2014-08-10T07:58:12Z</time>
      </trkpt>
      <trkpt lat="44.34102" lon="2.69378">
        <ele>709.590332</ele>
        <time>2014-08-10T07:58:17Z</time>
      </trkpt>
      <trkpt lat="44.34103" lon="2.69382">
        <ele>709.1096191</ele>
        <time>2014-08-10T07:58:18Z</time>
      </trkpt>
      <trkpt lat="44.34106" lon="2.69401">
        <ele>704.7836914</ele>
        <time>2014-08-10T07:58:23Z</time>
      </trkpt>
      <trkpt lat="44.3411" lon="2.69419">
        <ele>701.8999023</ele>
        <time>2014-08-10T07:58:28Z</time>
      </trkpt>
      <trkpt lat="44.34117" lon="2.6943">
        <ele>699.4963379</ele>
        <time>2014-08-10T07:58:33Z</time>
      </trkpt>
      <trkpt lat="44.34121" lon="2.69439">
        <ele>699.4963379</ele>
        <time>2014-08-10T07:58:36Z</time>
      </trkpt>
      <trkpt lat="44.34113" lon="2.69443">
        <ele>697.5737305</ele>
        <time>2014-08-10T07:58:40Z</time>
      </trkpt>
      <trkpt lat="44.34105" lon="2.69442">
        <ele>697.0930176</ele>
        <time>2014-08-10T07:58:43Z</time>
      </trkpt>
      <trkpt lat="44.34092" lon="2.69457">
        <ele>698.0544434</ele>
        <time>2014-08-10T07:58:49Z</time>
      </trkpt>
      <trkpt lat="44.34086" lon="2.69471">
        <ele>699.4963379</ele>
        <time>2014-08-10T07:58:53Z</time>
      </trkpt>
      <trkpt lat="44.34084" lon="2.69475">
        <ele>699.4963379</ele>
        <time>2014-08-10T07:58:54Z</time>
      </trkpt>
      <trkpt lat="44.34082" lon="2.69494">
        <ele>699.9770508</ele>
        <time>2014-08-10T07:58:59Z</time>
      </trkpt>
      <trkpt lat="44.34084" lon="2.69514">
        <ele>699.9770508</ele>
        <time>2014-08-10T07:59:04Z</time>
      </trkpt>
      <trkpt lat="44.34085" lon="2.6952">
        <ele>699.9770508</ele>
        <time>2014-08-10T07:59:06Z</time>
      </trkpt>
      <trkpt lat="44.34093" lon="2.69539">
        <ele>700.9384766</ele>
        <time>2014-08-10T07:59:12Z</time>
      </trkpt>
      <trkpt lat="44.34102" lon="2.69553">
        <ele>703.3417969</ele>
        <time>2014-08-10T07:59:17Z</time>
      </trkpt>
      <trkpt lat="44.34112" lon="2.6957">
        <ele>705.2644043</ele>
        <time>2014-08-10T07:59:22Z</time>
      </trkpt>
      <trkpt lat="44.34118" lon="2.69589">
        <ele>704.3032227</ele>
        <time>2014-08-10T07:59:27Z</time>
      </trkpt>
      <trkpt lat="44.34125" lon="2.69599">
        <ele>703.3417969</ele>
        <time>2014-08-10T07:59:31Z</time>
      </trkpt>
      <trkpt lat="44.34131" lon="2.69616">
        <ele>702.3803711</ele>
        <time>2014-08-10T07:59:36Z</time>
      </trkpt>
      <trkpt lat="44.34137" lon="2.69634">
        <ele>698.0544434</ele>
        <time>2014-08-10T07:59:41Z</time>
      </trkpt>
      <trkpt lat="44.34142" lon="2.69654">
        <ele>694.2092285</ele>
        <time>2014-08-10T07:59:46Z</time>
      </trkpt>
      <trkpt lat="44.34144" lon="2.6967">
        <ele>692.2866211</ele>
        <time>2014-08-10T07:59:50Z</time>
      </trkpt>
      <trkpt lat="44.34144" lon="2.69689">
        <ele>689.4025879</ele>
        <time>2014-08-10T07:59:55Z</time>
      </trkpt>
      <trkpt lat="44.34137" lon="2.69706">
        <ele>688.4414063</ele>
        <time>2014-08-10T08:00:00Z</time>
      </trkpt>
      <trkpt lat="44.3413" lon="2.69721">
        <ele>688.9221191</ele>
        <time>2014-08-10T08:00:05Z</time>
      </trkpt>
      <trkpt lat="44.34127" lon="2.69734">
        <ele>691.8059082</ele>
        <time>2014-08-10T08:00:09Z</time>
      </trkpt>
      <trkpt lat="44.34121" lon="2.69754">
        <ele>693.7285156</ele>
        <time>2014-08-10T08:00:15Z</time>
      </trkpt>
      <trkpt lat="44.34117" lon="2.69772">
        <ele>696.6125488</ele>
        <time>2014-08-10T08:00:20Z</time>
      </trkpt>
      <trkpt lat="44.34115" lon="2.69784">
        <ele>699.4963379</ele>
        <time>2014-08-10T08:00:24Z</time>
      </trkpt>
      <trkpt lat="44.34103" lon="2.69797">
        <ele>696.1318359</ele>
        <time>2014-08-10T08:00:29Z</time>
      </trkpt>
      <trkpt lat="44.34097" lon="2.69811">
        <ele>693.2478027</ele>
        <time>2014-08-10T08:00:33Z</time>
      </trkpt>
      <trkpt lat="44.34094" lon="2.6982">
        <ele>693.2478027</ele>
        <time>2014-08-10T08:00:36Z</time>
      </trkpt>
      <trkpt lat="44.34093" lon="2.69827">
        <ele>693.2478027</ele>
        <time>2014-08-10T08:00:38Z</time>
      </trkpt>
      <trkpt lat="44.34084" lon="2.69845">
        <ele>691.8059082</ele>
        <time>2014-08-10T08:00:43Z</time>
      </trkpt>
      <trkpt lat="44.34074" lon="2.69862">
        <ele>685.0769043</ele>
        <time>2014-08-10T08:00:48Z</time>
      </trkpt>
      <trkpt lat="44.34069" lon="2.69885">
        <ele>678.828125</ele>
        <time>2014-08-10T08:00:54Z</time>
      </trkpt>
      <trkpt lat="44.34063" lon="2.69898">
        <ele>672.098877</ele>
        <time>2014-08-10T08:00:58Z</time>
      </trkpt>
      <trkpt lat="44.34055" lon="2.69909">
        <ele>668.734375</ele>
        <time>2014-08-10T08:01:02Z</time>
      </trkpt>
      <trkpt lat="44.34042" lon="2.69919">
        <ele>666.8115234</ele>
        <time>2014-08-10T08:01:07Z</time>
      </trkpt>
      <trkpt lat="44.34028" lon="2.69922">
        <ele>671.1376953</ele>
        <time>2014-08-10T08:01:12Z</time>
      </trkpt>
      <trkpt lat="44.34016" lon="2.69918">
        <ele>675.4633789</ele>
        <time>2014-08-10T08:01:16Z</time>
      </trkpt>
      <trkpt lat="44.33997" lon="2.69912">
        <ele>683.1538086</ele>
        <time>2014-08-10T08:01:22Z</time>
      </trkpt>
      <trkpt lat="44.33989" lon="2.69909">
        <ele>685.557373</ele>
        <time>2014-08-10T08:01:27Z</time>
      </trkpt>
      <trkpt lat="44.33982" lon="2.69905">
        <ele>685.0769043</ele>
        <time>2014-08-10T08:01:33Z</time>
      </trkpt>
      <trkpt lat="44.33978" lon="2.69903">
        <ele>686.5187988</ele>
        <time>2014-08-10T08:01:37Z</time>
      </trkpt>
      <trkpt lat="44.33972" lon="2.69907">
        <ele>686.5187988</ele>
        <time>2014-08-10T08:01:43Z</time>
      </trkpt>
      <trkpt lat="44.33973" lon="2.69913">
        <ele>686.0380859</ele>
        <time>2014-08-10T08:01:47Z</time>
      </trkpt>
      <trkpt lat="44.33974" lon="2.69915">
        <ele>685.557373</ele>
        <time>2014-08-10T08:01:48Z</time>
      </trkpt>
      <trkpt lat="44.33975" lon="2.69919">
        <ele>685.557373</ele>
        <time>2014-08-10T08:01:54Z</time>
      </trkpt>
      <trkpt lat="44.33978" lon="2.69924">
        <ele>684.5961914</ele>
        <time>2014-08-10T08:01:58Z</time>
      </trkpt>
      <trkpt lat="44.33986" lon="2.6993">
        <ele>686.5187988</ele>
        <time>2014-08-10T08:02:03Z</time>
      </trkpt>
      <trkpt lat="44.33987" lon="2.69932">
        <ele>686.9992676</ele>
        <time>2014-08-10T08:02:04Z</time>
      </trkpt>
      <trkpt lat="44.33998" lon="2.69934">
        <ele>693.7285156</ele>
        <time>2014-08-10T08:02:09Z</time>
      </trkpt>
      <trkpt lat="44.3401" lon="2.69934">
        <ele>703.8225098</ele>
        <time>2014-08-10T08:02:14Z</time>
      </trkpt>
      <trkpt lat="44.34012" lon="2.69935">
        <ele>705.2644043</ele>
        <time>2014-08-10T08:02:15Z</time>
      </trkpt>
      <trkpt lat="44.34023" lon="2.69938">
        <ele>709.590332</ele>
        <time>2014-08-10T08:02:20Z</time>
      </trkpt>
      <trkpt lat="44.34033" lon="2.6994">
        <ele>715.3581543</ele>
        <time>2014-08-10T08:02:24Z</time>
      </trkpt>
      <trkpt lat="44.34038" lon="2.69942">
        <ele>717.2810059</ele>
        <time>2014-08-10T08:02:27Z</time>
      </trkpt>
      <trkpt lat="44.34046" lon="2.69945">
        <ele>715.8388672</ele>
        <time>2014-08-10T08:02:33Z</time>
      </trkpt>
      <trkpt lat="44.34055" lon="2.69948">
        <ele>714.8774414</ele>
        <time>2014-08-10T08:02:37Z</time>
      </trkpt>
      <trkpt lat="44.34063" lon="2.69951">
        <ele>713.9160156</ele>
        <time>2014-08-10T08:02:42Z</time>
      </trkpt>
      <trkpt lat="44.34075" lon="2.69954">
        <ele>714.8774414</ele>
        <time>2014-08-10T08:02:47Z</time>
      </trkpt>
      <trkpt lat="44.34086" lon="2.69955">
        <ele>716.3195801</ele>
        <time>2014-08-10T08:02:52Z</time>
      </trkpt>
      <trkpt lat="44.34094" lon="2.6996">
        <ele>713.4355469</ele>
        <time>2014-08-10T08:02:57Z</time>
      </trkpt>
      <trkpt lat="44.34104" lon="2.69962">
        <ele>710.5515137</ele>
        <time>2014-08-10T08:03:02Z</time>
      </trkpt>
      <trkpt lat="44.34107" lon="2.69963">
        <ele>709.590332</ele>
        <time>2014-08-10T08:03:04Z</time>
      </trkpt>
      <trkpt lat="44.34119" lon="2.69964">
        <ele>706.2255859</ele>
        <time>2014-08-10T08:03:11Z</time>
      </trkpt>
      <trkpt lat="44.34129" lon="2.69963">
        <ele>703.3417969</ele>
        <time>2014-08-10T08:03:15Z</time>
      </trkpt>
      <trkpt lat="44.34142" lon="2.69964">
        <ele>700.4580078</ele>
        <time>2014-08-10T08:03:21Z</time>
      </trkpt>
      <trkpt lat="44.34149" lon="2.69964">
        <ele>700.4580078</ele>
        <time>2014-08-10T08:03:25Z</time>
      </trkpt>
      <trkpt lat="44.34159" lon="2.69966">
        <ele>701.4191895</ele>
        <time>2014-08-10T08:03:30Z</time>
      </trkpt>
      <trkpt lat="44.3417" lon="2.69975">
        <ele>702.3803711</ele>
        <time>2014-08-10T08:03:35Z</time>
      </trkpt>
      <trkpt lat="44.34176" lon="2.69988">
        <ele>705.2644043</ele>
        <time>2014-08-10T08:03:39Z</time>
      </trkpt>
      <trkpt lat="44.34175" lon="2.70011">
        <ele>705.2644043</ele>
        <time>2014-08-10T08:03:45Z</time>
      </trkpt>
      <trkpt lat="44.34172" lon="2.70025">
        <ele>705.7451172</ele>
        <time>2014-08-10T08:03:49Z</time>
      </trkpt>
      <trkpt lat="44.3417" lon="2.70041">
        <ele>708.6289063</ele>
        <time>2014-08-10T08:03:53Z</time>
      </trkpt>
      <trkpt lat="44.34168" lon="2.70058">
        <ele>711.0322266</ele>
        <time>2014-08-10T08:03:59Z</time>
      </trkpt>
      <trkpt lat="44.34167" lon="2.70069">
        <ele>712.4741211</ele>
        <time>2014-08-10T08:04:03Z</time>
      </trkpt>
      <trkpt lat="44.34164" lon="2.70084">
        <ele>713.9160156</ele>
        <time>2014-08-10T08:04:09Z</time>
      </trkpt>
      <trkpt lat="44.34161" lon="2.70098">
        <ele>715.8388672</ele>
        <time>2014-08-10T08:04:13Z</time>
      </trkpt>
      <trkpt lat="44.34153" lon="2.70116">
        <ele>716.3195801</ele>
        <time>2014-08-10T08:04:19Z</time>
      </trkpt>
      <trkpt lat="44.3415" lon="2.70129">
        <ele>716.800293</ele>
        <time>2014-08-10T08:04:23Z</time>
      </trkpt>
      <trkpt lat="44.34144" lon="2.7014">
        <ele>717.7614746</ele>
        <time>2014-08-10T08:04:28Z</time>
      </trkpt>
      <trkpt lat="44.3414" lon="2.70154">
        <ele>720.1647949</ele>
        <time>2014-08-10T08:04:33Z</time>
      </trkpt>
      <trkpt lat="44.34137" lon="2.70164">
        <ele>720.6455078</ele>
        <time>2014-08-10T08:04:37Z</time>
      </trkpt>
      <trkpt lat="44.34132" lon="2.70172">
        <ele>720.6455078</ele>
        <time>2014-08-10T08:04:41Z</time>
      </trkpt>
      <trkpt lat="44.34127" lon="2.70188">
        <ele>722.0874023</ele>
        <time>2014-08-10T08:04:46Z</time>
      </trkpt>
      <trkpt lat="44.3412" lon="2.70201">
        <ele>721.6066895</ele>
        <time>2014-08-10T08:04:52Z</time>
      </trkpt>
      <trkpt lat="44.34115" lon="2.70216">
        <ele>721.6066895</ele>
        <time>2014-08-10T08:04:58Z</time>
      </trkpt>
      <trkpt lat="44.34112" lon="2.70229">
        <ele>722.5681152</ele>
        <time>2014-08-10T08:05:02Z</time>
      </trkpt>
      <trkpt lat="44.34108" lon="2.70242">
        <ele>724.4907227</ele>
        <time>2014-08-10T08:05:07Z</time>
      </trkpt>
      <trkpt lat="44.34104" lon="2.70253">
        <ele>724.0100098</ele>
        <time>2014-08-10T08:05:11Z</time>
      </trkpt>
      <trkpt lat="44.34094" lon="2.70266">
        <ele>720.6455078</ele>
        <time>2014-08-10T08:05:17Z</time>
      </trkpt>
      <trkpt lat="44.34087" lon="2.70277">
        <ele>722.0874023</ele>
        <time>2014-08-10T08:05:22Z</time>
      </trkpt>
      <trkpt lat="44.34083" lon="2.70284">
        <ele>722.5681152</ele>
        <time>2014-08-10T08:05:26Z</time>
      </trkpt>
      <trkpt lat="44.34076" lon="2.7029">
        <ele>720.6455078</ele>
        <time>2014-08-10T08:05:29Z</time>
      </trkpt>
      <trkpt lat="44.3406" lon="2.70297">
        <ele>718.2421875</ele>
        <time>2014-08-10T08:05:34Z</time>
      </trkpt>
      <trkpt lat="44.34053" lon="2.70299">
        <ele>719.2036133</ele>
        <time>2014-08-10T08:05:36Z</time>
      </trkpt>
      <trkpt lat="44.34033" lon="2.70305">
        <ele>720.1647949</ele>
        <time>2014-08-10T08:05:43Z</time>
      </trkpt>
      <trkpt lat="44.3402" lon="2.70306">
        <ele>721.1262207</ele>
        <time>2014-08-10T08:05:48Z</time>
      </trkpt>
      <trkpt lat="44.34009" lon="2.70313">
        <ele>720.6455078</ele>
        <time>2014-08-10T08:05:53Z</time>
      </trkpt>
      <trkpt lat="44.33997" lon="2.7032">
        <ele>723.529541</ele>
        <time>2014-08-10T08:05:58Z</time>
      </trkpt>
      <trkpt lat="44.33984" lon="2.70326">
        <ele>728.3359375</ele>
        <time>2014-08-10T08:06:04Z</time>
      </trkpt>
      <trkpt lat="44.33982" lon="2.70326">
        <ele>730.2585449</ele>
        <time>2014-08-10T08:06:06Z</time>
      </trkpt>
      <trkpt lat="44.33972" lon="2.7033">
        <ele>733.623291</ele>
        <time>2014-08-10T08:06:11Z</time>
      </trkpt>
      <trkpt lat="44.33963" lon="2.70331">
        <ele>734.1040039</ele>
        <time>2014-08-10T08:06:14Z</time>
      </trkpt>
      <trkpt lat="44.33949" lon="2.70333">
        <ele>738.9106445</ele>
        <time>2014-08-10T08:06:20Z</time>
      </trkpt>
      <trkpt lat="44.33944" lon="2.70345">
        <ele>742.2751465</ele>
        <time>2014-08-10T08:06:26Z</time>
      </trkpt>
      <trkpt lat="44.3394" lon="2.70348">
        <ele>737.9492188</ele>
        <time>2014-08-10T08:06:29Z</time>
      </trkpt>
      <trkpt lat="44.33939" lon="2.70353">
        <ele>730.2585449</ele>
        <time>2014-08-10T08:06:33Z</time>
      </trkpt>
      <trkpt lat="44.33938" lon="2.70354">
        <ele>724.9714355</ele>
        <time>2014-08-10T08:06:37Z</time>
      </trkpt>
      <trkpt lat="44.33943" lon="2.70362">
        <ele>721.1262207</ele>
        <time>2014-08-10T08:06:43Z</time>
      </trkpt>
      <trkpt lat="44.33951" lon="2.70375">
        <ele>717.7614746</ele>
        <time>2014-08-10T08:06:48Z</time>
      </trkpt>
      <trkpt lat="44.33958" lon="2.70386">
        <ele>716.800293</ele>
        <time>2014-08-10T08:06:52Z</time>
      </trkpt>
      <trkpt lat="44.33969" lon="2.70409">
        <ele>716.3195801</ele>
        <time>2014-08-10T08:06:59Z</time>
      </trkpt>
      <trkpt lat="44.33973" lon="2.70424">
        <ele>716.800293</ele>
        <time>2014-08-10T08:07:04Z</time>
      </trkpt>
      <trkpt lat="44.33973" lon="2.70439">
        <ele>718.7229004</ele>
        <time>2014-08-10T08:07:09Z</time>
      </trkpt>
      <trkpt lat="44.33972" lon="2.70455">
        <ele>722.0874023</ele>
        <time>2014-08-10T08:07:14Z</time>
      </trkpt>
      <trkpt lat="44.3397" lon="2.70475">
        <ele>723.529541</ele>
        <time>2014-08-10T08:07:20Z</time>
      </trkpt>
      <trkpt lat="44.33968" lon="2.7049">
        <ele>725.4519043</ele>
        <time>2014-08-10T08:07:25Z</time>
      </trkpt>
      <trkpt lat="44.33969" lon="2.70509">
        <ele>729.777832</ele>
        <time>2014-08-10T08:07:31Z</time>
      </trkpt>
      <trkpt lat="44.33968" lon="2.7052">
        <ele>733.623291</ele>
        <time>2014-08-10T08:07:35Z</time>
      </trkpt>
      <trkpt lat="44.33965" lon="2.70533">
        <ele>739.8718262</ele>
        <time>2014-08-10T08:07:40Z</time>
      </trkpt>
      <trkpt lat="44.33963" lon="2.70547">
        <ele>746.6010742</ele>
        <time>2014-08-10T08:07:46Z</time>
      </trkpt>
      <trkpt lat="44.33958" lon="2.70561">
        <ele>757.1755371</ele>
        <time>2014-08-10T08:07:52Z</time>
      </trkpt>
      <trkpt lat="44.33953" lon="2.70573">
        <ele>769.6728516</ele>
        <time>2014-08-10T08:07:56Z</time>
      </trkpt>
      <trkpt lat="44.3395" lon="2.70584">
        <ele>771.5952148</ele>
        <time>2014-08-10T08:08:01Z</time>
      </trkpt>
      <trkpt lat="44.33944" lon="2.70589">
        <ele>766.7888184</ele>
        <time>2014-08-10T08:08:05Z</time>
      </trkpt>
      <trkpt lat="44.33945" lon="2.70596">
        <ele>760.5400391</ele>
        <time>2014-08-10T08:08:10Z</time>
      </trkpt>
      <trkpt lat="44.33949" lon="2.70599">
        <ele>759.0981445</ele>
        <time>2014-08-10T08:08:14Z</time>
      </trkpt>
      <trkpt lat="44.33957" lon="2.70608">
        <ele>755.2529297</ele>
        <time>2014-08-10T08:08:21Z</time>
      </trkpt>
      <trkpt lat="44.33962" lon="2.70616">
        <ele>752.8496094</ele>
        <time>2014-08-10T08:08:26Z</time>
      </trkpt>
      <trkpt lat="44.33968" lon="2.70627">
        <ele>751.4077148</ele>
        <time>2014-08-10T08:08:31Z</time>
      </trkpt>
      <trkpt lat="44.33973" lon="2.70645">
        <ele>747.081543</ele>
        <time>2014-08-10T08:08:38Z</time>
      </trkpt>
      <trkpt lat="44.33975" lon="2.70657">
        <ele>744.6782227</ele>
        <time>2014-08-10T08:08:42Z</time>
      </trkpt>
      <trkpt lat="44.33975" lon="2.70668">
        <ele>742.2751465</ele>
        <time>2014-08-10T08:08:46Z</time>
      </trkpt>
      <trkpt lat="44.33976" lon="2.70678">
        <ele>741.3137207</ele>
        <time>2014-08-10T08:08:49Z</time>
      </trkpt>
      <trkpt lat="44.33976" lon="2.70692">
        <ele>741.3137207</ele>
        <time>2014-08-10T08:08:54Z</time>
      </trkpt>
      <trkpt lat="44.33977" lon="2.70707">
        <ele>739.8718262</ele>
        <time>2014-08-10T08:08:59Z</time>
      </trkpt>
      <trkpt lat="44.33975" lon="2.70719">
        <ele>739.3911133</ele>
        <time>2014-08-10T08:09:03Z</time>
      </trkpt>
      <trkpt lat="44.33976" lon="2.70735">
        <ele>741.3137207</ele>
        <time>2014-08-10T08:09:08Z</time>
      </trkpt>
      <trkpt lat="44.33977" lon="2.70756">
        <ele>744.6782227</ele>
        <time>2014-08-10T08:09:14Z</time>
      </trkpt>
      <trkpt lat="44.33976" lon="2.70771">
        <ele>745.6396484</ele>
        <time>2014-08-10T08:09:19Z</time>
      </trkpt>
      <trkpt lat="44.33976" lon="2.70791">
        <ele>747.081543</ele>
        <time>2014-08-10T08:09:25Z</time>
      </trkpt>
      <trkpt lat="44.33972" lon="2.70805">
        <ele>746.6010742</ele>
        <time>2014-08-10T08:09:29Z</time>
      </trkpt>
      <trkpt lat="44.33973" lon="2.70822">
        <ele>750.4465332</ele>
        <time>2014-08-10T08:09:34Z</time>
      </trkpt>
      <trkpt lat="44.3397" lon="2.70836">
        <ele>752.3688965</ele>
        <time>2014-08-10T08:09:39Z</time>
      </trkpt>
      <trkpt lat="44.33969" lon="2.7085">
        <ele>754.291748</ele>
        <time>2014-08-10T08:09:43Z</time>
      </trkpt>
      <trkpt lat="44.33964" lon="2.7086">
        <ele>755.7336426</ele>
        <time>2014-08-10T08:09:47Z</time>
      </trkpt>
      <trkpt lat="44.33962" lon="2.70879">
        <ele>760.5400391</ele>
        <time>2014-08-10T08:09:54Z</time>
      </trkpt>
      <trkpt lat="44.33948" lon="2.70884">
        <ele>757.65625</ele>
        <time>2014-08-10T08:10:00Z</time>
      </trkpt>
      <trkpt lat="44.33933" lon="2.70879">
        <ele>754.291748</ele>
        <time>2014-08-10T08:10:05Z</time>
      </trkpt>
      <trkpt lat="44.33922" lon="2.70862">
        <ele>752.8496094</ele>
        <time>2014-08-10T08:10:10Z</time>
      </trkpt>
      <trkpt lat="44.33916" lon="2.70851">
        <ele>753.8110352</ele>
        <time>2014-08-10T08:10:12Z</time>
      </trkpt>
      <trkpt lat="44.33907" lon="2.70829">
        <ele>757.65625</ele>
        <time>2014-08-10T08:10:17Z</time>
      </trkpt>
      <trkpt lat="44.33916" lon="2.70818">
        <ele>758.6174316</ele>
        <time>2014-08-10T08:10:22Z</time>
      </trkpt>
      <trkpt lat="44.33918" lon="2.70809">
        <ele>758.1369629</ele>
        <time>2014-08-10T08:10:26Z</time>
      </trkpt>
      <trkpt lat="44.33923" lon="2.7079">
        <ele>758.6174316</ele>
        <time>2014-08-10T08:10:32Z</time>
      </trkpt>
      <trkpt lat="44.33926" lon="2.7078">
        <ele>756.6948242</ele>
        <time>2014-08-10T08:10:36Z</time>
      </trkpt>
      <trkpt lat="44.33926" lon="2.70776">
        <ele>756.6948242</ele>
        <time>2014-08-10T08:10:37Z</time>
      </trkpt>
      <trkpt lat="44.33924" lon="2.70759">
        <ele>757.1755371</ele>
        <time>2014-08-10T08:10:42Z</time>
      </trkpt>
      <trkpt lat="44.3392" lon="2.70752">
        <ele>757.65625</ele>
        <time>2014-08-10T08:10:44Z</time>
      </trkpt>
      <trkpt lat="44.33917" lon="2.70748">
        <ele>758.6174316</ele>
        <time>2014-08-10T08:10:46Z</time>
      </trkpt>
      <trkpt lat="44.33908" lon="2.70748">
        <ele>756.6948242</ele>
        <time>2014-08-10T08:10:51Z</time>
      </trkpt>
      <trkpt lat="44.33905" lon="2.70748">
        <ele>754.7722168</ele>
        <time>2014-08-10T08:10:57Z</time>
      </trkpt>
      <trkpt lat="44.33902" lon="2.70745">
        <ele>751.4077148</ele>
        <time>2014-08-10T08:11:02Z</time>
      </trkpt>
      <trkpt lat="44.33901" lon="2.70748">
        <ele>755.2529297</ele>
        <time>2014-08-10T08:11:11Z</time>
      </trkpt>
      <trkpt lat="44.33903" lon="2.70749">
        <ele>757.65625</ele>
        <time>2014-08-10T08:11:18Z</time>
      </trkpt>
      <trkpt lat="44.33881" lon="2.7075">
        <ele>759.5788574</ele>
        <time>2014-08-10T08:11:32Z</time>
      </trkpt>
      <trkpt lat="44.33872" lon="2.70751">
        <ele>761.5014648</ele>
        <time>2014-08-10T08:11:40Z</time>
      </trkpt>
      <trkpt lat="44.33869" lon="2.70752">
        <ele>761.9821777</ele>
        <time>2014-08-10T08:11:47Z</time>
      </trkpt>
      <trkpt lat="44.33843" lon="2.70742">
        <ele>781.2087402</ele>
        <time>2014-08-10T08:12:26Z</time>
      </trkpt>
      <trkpt lat="44.33836" lon="2.70739">
        <ele>790.3410645</ele>
        <time>2014-08-10T08:12:47Z</time>
      </trkpt>
      <trkpt lat="44.33828" lon="2.70738">
        <ele>787.9377441</ele>
        <time>2014-08-10T08:12:53Z</time>
      </trkpt>
      <trkpt lat="44.33825" lon="2.70738">
        <ele>788.418457</ele>
        <time>2014-08-10T08:12:56Z</time>
      </trkpt>
      <trkpt lat="44.33821" lon="2.70738">
        <ele>786.9763184</ele>
        <time>2014-08-10T08:12:59Z</time>
      </trkpt>
      <trkpt lat="44.33813" lon="2.70739">
        <ele>786.9763184</ele>
        <time>2014-08-10T08:13:06Z</time>
      </trkpt>
      <trkpt lat="44.33792" lon="2.70736">
        <ele>806.2026367</ele>
        <time>2014-08-10T08:13:48Z</time>
      </trkpt>
      <trkpt lat="44.33775" lon="2.7074">
        <ele>807.6447754</ele>
        <time>2014-08-10T08:14:14Z</time>
      </trkpt>
      <trkpt lat="44.33769" lon="2.70739">
        <ele>809.0866699</ele>
        <time>2014-08-10T08:14:19Z</time>
      </trkpt>
      <trkpt lat="44.33765" lon="2.70738">
        <ele>809.0866699</ele>
        <time>2014-08-10T08:14:25Z</time>
      </trkpt>
      <trkpt lat="44.33763" lon="2.70737">
        <ele>810.5285645</ele>
        <time>2014-08-10T08:14:32Z</time>
      </trkpt>
      <trkpt lat="44.33756" lon="2.70737">
        <ele>813.4128418</ele>
        <time>2014-08-10T08:14:41Z</time>
      </trkpt>
      <trkpt lat="44.33754" lon="2.70736">
        <ele>811.9707031</ele>
        <time>2014-08-10T08:14:47Z</time>
      </trkpt>
      <trkpt lat="44.33745" lon="2.70734">
        <ele>813.4128418</ele>
        <time>2014-08-10T08:14:55Z</time>
      </trkpt>
      <trkpt lat="44.33737" lon="2.70736">
        <ele>814.8547363</ele>
        <time>2014-08-10T08:15:05Z</time>
      </trkpt>
      <trkpt lat="44.33734" lon="2.70736">
        <ele>822.545166</ele>
        <time>2014-08-10T08:15:16Z</time>
      </trkpt>
      <trkpt lat="44.33729" lon="2.70734">
        <ele>826.8710938</ele>
        <time>2014-08-10T08:15:22Z</time>
      </trkpt>
      <trkpt lat="44.33723" lon="2.70738">
        <ele>832.6391602</ele>
        <time>2014-08-10T08:15:32Z</time>
      </trkpt>
      <trkpt lat="44.33719" lon="2.70738">
        <ele>828.7939453</ele>
        <time>2014-08-10T08:15:38Z</time>
      </trkpt>
      <trkpt lat="44.33714" lon="2.70736">
        <ele>829.2744141</ele>
        <time>2014-08-10T08:15:44Z</time>
      </trkpt>
      <trkpt lat="44.33709" lon="2.70738">
        <ele>824.9484863</ele>
        <time>2014-08-10T08:15:53Z</time>
      </trkpt>
      <trkpt lat="44.33703" lon="2.70737">
        <ele>825.4289551</ele>
        <time>2014-08-10T08:15:59Z</time>
      </trkpt>
      <trkpt lat="44.33697" lon="2.70738">
        <ele>826.8710938</ele>
        <time>2014-08-10T08:16:06Z</time>
      </trkpt>
      <trkpt lat="44.33692" lon="2.70737">
        <ele>829.755127</ele>
        <time>2014-08-10T08:16:14Z</time>
      </trkpt>
      <trkpt lat="44.33688" lon="2.70738">
        <ele>834.0810547</ele>
        <time>2014-08-10T08:16:21Z</time>
      </trkpt>
      <trkpt lat="44.33683" lon="2.70736">
        <ele>837.4455566</ele>
        <time>2014-08-10T08:16:28Z</time>
      </trkpt>
      <trkpt lat="44.33677" lon="2.70735">
        <ele>840.3295898</ele>
        <time>2014-08-10T08:16:35Z</time>
      </trkpt>
      <trkpt lat="44.33674" lon="2.70734">
        <ele>840.8100586</ele>
        <time>2014-08-10T08:16:42Z</time>
      </trkpt>
      <trkpt lat="44.33668" lon="2.70732">
        <ele>841.7714844</ele>
        <time>2014-08-10T08:16:49Z</time>
      </trkpt>
      <trkpt lat="44.33661" lon="2.7073">
        <ele>846.5783691</ele>
        <time>2014-08-10T08:16:56Z</time>
      </trkpt>
      <trkpt lat="44.33657" lon="2.7073">
        <ele>847.5395508</ele>
        <time>2014-08-10T08:17:00Z</time>
      </trkpt>
      <trkpt lat="44.33653" lon="2.70737">
        <ele>853.307373</ele>
        <time>2014-08-10T08:17:08Z</time>
      </trkpt>
      <trkpt lat="44.33654" lon="2.70743">
        <ele>852.8266602</ele>
        <time>2014-08-10T08:17:12Z</time>
      </trkpt>
      <trkpt lat="44.33653" lon="2.70751">
        <ele>854.2687988</ele>
        <time>2014-08-10T08:17:16Z</time>
      </trkpt>
      <trkpt lat="44.33648" lon="2.70771">
        <ele>854.2687988</ele>
        <time>2014-08-10T08:17:26Z</time>
      </trkpt>
      <trkpt lat="44.33646" lon="2.70787">
        <ele>855.2299805</ele>
        <time>2014-08-10T08:17:31Z</time>
      </trkpt>
      <trkpt lat="44.33643" lon="2.70798">
        <ele>856.1911621</ele>
        <time>2014-08-10T08:17:35Z</time>
      </trkpt>
      <trkpt lat="44.3364" lon="2.70812">
        <ele>856.1911621</ele>
        <time>2014-08-10T08:17:40Z</time>
      </trkpt>
      <trkpt lat="44.33637" lon="2.70824">
        <ele>857.6333008</ele>
        <time>2014-08-10T08:17:45Z</time>
      </trkpt>
      <trkpt lat="44.33635" lon="2.70839">
        <ele>858.1140137</ele>
        <time>2014-08-10T08:17:50Z</time>
      </trkpt>
      <trkpt lat="44.3363" lon="2.7085">
        <ele>858.5944824</ele>
        <time>2014-08-10T08:17:56Z</time>
      </trkpt>
      <trkpt lat="44.33624" lon="2.7086">
        <ele>857.6333008</ele>
        <time>2014-08-10T08:18:02Z</time>
      </trkpt>
      <trkpt lat="44.33617" lon="2.70872">
        <ele>858.5944824</ele>
        <time>2014-08-10T08:18:08Z</time>
      </trkpt>
      <trkpt lat="44.33615" lon="2.70874">
        <ele>858.1140137</ele>
        <time>2014-08-10T08:18:09Z</time>
      </trkpt>
      <trkpt lat="44.33604" lon="2.70886">
        <ele>857.6333008</ele>
        <time>2014-08-10T08:18:16Z</time>
      </trkpt>
      <trkpt lat="44.33594" lon="2.70894">
        <ele>857.1525879</ele>
        <time>2014-08-10T08:18:21Z</time>
      </trkpt>
      <trkpt lat="44.33584" lon="2.709">
        <ele>856.671875</ele>
        <time>2014-08-10T08:18:25Z</time>
      </trkpt>
      <trkpt lat="44.33572" lon="2.70908">
        <ele>857.6333008</ele>
        <time>2014-08-10T08:18:30Z</time>
      </trkpt>
      <trkpt lat="44.33567" lon="2.70911">
        <ele>857.6333008</ele>
        <time>2014-08-10T08:18:33Z</time>
      </trkpt>
      <trkpt lat="44.33561" lon="2.70918">
        <ele>857.6333008</ele>
        <time>2014-08-10T08:18:40Z</time>
      </trkpt>
      <trkpt lat="44.33557" lon="2.70921">
        <ele>858.1140137</ele>
        <time>2014-08-10T08:18:45Z</time>
      </trkpt>
      <trkpt lat="44.33549" lon="2.70927">
        <ele>858.1140137</ele>
        <time>2014-08-10T08:18:52Z</time>
      </trkpt>
      <trkpt lat="44.33542" lon="2.70932">
        <ele>858.5944824</ele>
        <time>2014-08-10T08:18:58Z</time>
      </trkpt>
      <trkpt lat="44.33532" lon="2.70936">
        <ele>859.0751953</ele>
        <time>2014-08-10T08:19:06Z</time>
      </trkpt>
      <trkpt lat="44.33528" lon="2.70937">
        <ele>859.5559082</ele>
        <time>2014-08-10T08:19:11Z</time>
      </trkpt>
      <trkpt lat="44.33526" lon="2.70928">
        <ele>860.0366211</ele>
        <time>2014-08-10T08:19:17Z</time>
      </trkpt>
      <trkpt lat="44.33522" lon="2.70916">
        <ele>860.517334</ele>
        <time>2014-08-10T08:19:21Z</time>
      </trkpt>
      <trkpt lat="44.33518" lon="2.709">
        <ele>862.4399414</ele>
        <time>2014-08-10T08:19:26Z</time>
      </trkpt>
      <trkpt lat="44.33516" lon="2.70887">
        <ele>863.4013672</ele>
        <time>2014-08-10T08:19:30Z</time>
      </trkpt>
      <trkpt lat="44.33513" lon="2.70875">
        <ele>864.3625488</ele>
        <time>2014-08-10T08:19:34Z</time>
      </trkpt>
      <trkpt lat="44.33509" lon="2.70855">
        <ele>863.8818359</ele>
        <time>2014-08-10T08:19:40Z</time>
      </trkpt>
      <trkpt lat="44.33506" lon="2.70838">
        <ele>863.4013672</ele>
        <time>2014-08-10T08:19:45Z</time>
      </trkpt>
      <trkpt lat="44.33502" lon="2.7082">
        <ele>863.8818359</ele>
        <time>2014-08-10T08:19:50Z</time>
      </trkpt>
      <trkpt lat="44.33496" lon="2.70804">
        <ele>863.8818359</ele>
        <time>2014-08-10T08:19:55Z</time>
      </trkpt>
      <trkpt lat="44.33492" lon="2.7079">
        <ele>864.3625488</ele>
        <time>2014-08-10T08:19:59Z</time>
      </trkpt>
      <trkpt lat="44.3349" lon="2.70777">
        <ele>863.4013672</ele>
        <time>2014-08-10T08:20:03Z</time>
      </trkpt>
      <trkpt lat="44.33486" lon="2.70756">
        <ele>862.9206543</ele>
        <time>2014-08-10T08:20:09Z</time>
      </trkpt>
      <trkpt lat="44.33482" lon="2.70738">
        <ele>861.9594727</ele>
        <time>2014-08-10T08:20:14Z</time>
      </trkpt>
      <trkpt lat="44.33476" lon="2.70719">
        <ele>861.4787598</ele>
        <time>2014-08-10T08:20:20Z</time>
      </trkpt>
      <trkpt lat="44.33472" lon="2.70706">
        <ele>860.517334</ele>
        <time>2014-08-10T08:20:24Z</time>
      </trkpt>
      <trkpt lat="44.33467" lon="2.7069">
        <ele>860.9980469</ele>
        <time>2014-08-10T08:20:29Z</time>
      </trkpt>
      <trkpt lat="44.33461" lon="2.70675">
        <ele>861.4787598</ele>
        <time>2014-08-10T08:20:34Z</time>
      </trkpt>
      <trkpt lat="44.33451" lon="2.7065">
        <ele>862.9206543</ele>
        <time>2014-08-10T08:20:42Z</time>
      </trkpt>
      <trkpt lat="44.33445" lon="2.70637">
        <ele>863.4013672</ele>
        <time>2014-08-10T08:20:47Z</time>
      </trkpt>
      <trkpt lat="44.33439" lon="2.70626">
        <ele>863.8818359</ele>
        <time>2014-08-10T08:20:51Z</time>
      </trkpt>
      <trkpt lat="44.33431" lon="2.70607">
        <ele>864.3625488</ele>
        <time>2014-08-10T08:20:58Z</time>
      </trkpt>
      <trkpt lat="44.33427" lon="2.70601">
        <ele>865.3239746</ele>
        <time>2014-08-10T08:21:03Z</time>
      </trkpt>
      <trkpt lat="44.33421" lon="2.70587">
        <ele>864.8432617</ele>
        <time>2014-08-10T08:21:08Z</time>
      </trkpt>
      <trkpt lat="44.33417" lon="2.70572">
        <ele>864.3625488</ele>
        <time>2014-08-10T08:21:13Z</time>
      </trkpt>
      <trkpt lat="44.33411" lon="2.70555">
        <ele>862.9206543</ele>
        <time>2014-08-10T08:21:19Z</time>
      </trkpt>
      <trkpt lat="44.33406" lon="2.70538">
        <ele>862.9206543</ele>
        <time>2014-08-10T08:21:24Z</time>
      </trkpt>
      <trkpt lat="44.334" lon="2.70517">
        <ele>862.9206543</ele>
        <time>2014-08-10T08:21:30Z</time>
      </trkpt>
      <trkpt lat="44.33395" lon="2.705">
        <ele>863.4013672</ele>
        <time>2014-08-10T08:21:35Z</time>
      </trkpt>
      <trkpt lat="44.33388" lon="2.70478">
        <ele>864.3625488</ele>
        <time>2014-08-10T08:21:41Z</time>
      </trkpt>
      <trkpt lat="44.33384" lon="2.70452">
        <ele>863.4013672</ele>
        <time>2014-08-10T08:21:48Z</time>
      </trkpt>
      <trkpt lat="44.33379" lon="2.70429">
        <ele>863.4013672</ele>
        <time>2014-08-10T08:21:54Z</time>
      </trkpt>
      <trkpt lat="44.33376" lon="2.70406">
        <ele>862.9206543</ele>
        <time>2014-08-10T08:22:00Z</time>
      </trkpt>
      <trkpt lat="44.33373" lon="2.70383">
        <ele>862.9206543</ele>
        <time>2014-08-10T08:22:06Z</time>
      </trkpt>
      <trkpt lat="44.33371" lon="2.70361">
        <ele>861.4787598</ele>
        <time>2014-08-10T08:22:12Z</time>
      </trkpt>
      <trkpt lat="44.3337" lon="2.70346">
        <ele>860.0366211</ele>
        <time>2014-08-10T08:22:16Z</time>
      </trkpt>
      <trkpt lat="44.3337" lon="2.70342">
        <ele>860.0366211</ele>
        <time>2014-08-10T08:22:17Z</time>
      </trkpt>
      <trkpt lat="44.33367" lon="2.70327">
        <ele>859.5559082</ele>
        <time>2014-08-10T08:22:22Z</time>
      </trkpt>
      <trkpt lat="44.33366" lon="2.70324">
        <ele>859.0751953</ele>
        <time>2014-08-10T08:22:23Z</time>
      </trkpt>
      <trkpt lat="44.33362" lon="2.70301">
        <ele>857.1525879</ele>
        <time>2014-08-10T08:22:29Z</time>
      </trkpt>
      <trkpt lat="44.33357" lon="2.70275">
        <ele>855.2299805</ele>
        <time>2014-08-10T08:22:36Z</time>
      </trkpt>
      <trkpt lat="44.33353" lon="2.70254">
        <ele>853.7880859</ele>
        <time>2014-08-10T08:22:42Z</time>
      </trkpt>
      <trkpt lat="44.33352" lon="2.70233">
        <ele>851.8654785</ele>
        <time>2014-08-10T08:22:48Z</time>
      </trkpt>
      <trkpt lat="44.33351" lon="2.70209">
        <ele>850.423584</ele>
        <time>2014-08-10T08:22:54Z</time>
      </trkpt>
      <trkpt lat="44.3335" lon="2.70187">
        <ele>849.4621582</ele>
        <time>2014-08-10T08:23:00Z</time>
      </trkpt>
      <trkpt lat="44.3335" lon="2.70172">
        <ele>848.9814453</ele>
        <time>2014-08-10T08:23:04Z</time>
      </trkpt>
      <trkpt lat="44.33348" lon="2.70148">
        <ele>848.9814453</ele>
        <time>2014-08-10T08:23:10Z</time>
      </trkpt>
      <trkpt lat="44.33346" lon="2.70133">
        <ele>848.0202637</ele>
        <time>2014-08-10T08:23:14Z</time>
      </trkpt>
      <trkpt lat="44.33345" lon="2.70109">
        <ele>847.0588379</ele>
        <time>2014-08-10T08:23:20Z</time>
      </trkpt>
      <trkpt lat="44.33345" lon="2.7009">
        <ele>846.5783691</ele>
        <time>2014-08-10T08:23:25Z</time>
      </trkpt>
      <trkpt lat="44.33345" lon="2.70075">
        <ele>845.1362305</ele>
        <time>2014-08-10T08:23:29Z</time>
      </trkpt>
      <trkpt lat="44.33345" lon="2.7006">
        <ele>843.2133789</ele>
        <time>2014-08-10T08:23:33Z</time>
      </trkpt>
      <trkpt lat="44.33346" lon="2.70042">
        <ele>842.2521973</ele>
        <time>2014-08-10T08:23:38Z</time>
      </trkpt>
      <trkpt lat="44.33352" lon="2.70024">
        <ele>838.4069824</ele>
        <time>2014-08-10T08:23:43Z</time>
      </trkpt>
      <trkpt lat="44.33356" lon="2.70006">
        <ele>836.0036621</ele>
        <time>2014-08-10T08:23:48Z</time>
      </trkpt>
      <trkpt lat="44.33359" lon="2.69989">
        <ele>834.0810547</ele>
        <time>2014-08-10T08:23:53Z</time>
      </trkpt>
      <trkpt lat="44.33364" lon="2.69969">
        <ele>834.5617676</ele>
        <time>2014-08-10T08:23:59Z</time>
      </trkpt>
      <trkpt lat="44.33368" lon="2.69949">
        <ele>834.0810547</ele>
        <time>2014-08-10T08:24:04Z</time>
      </trkpt>
      <trkpt lat="44.33371" lon="2.69939">
        <ele>832.6391602</ele>
        <time>2014-08-10T08:24:07Z</time>
      </trkpt>
      <trkpt lat="44.33376" lon="2.69912">
        <ele>832.6391602</ele>
        <time>2014-08-10T08:24:14Z</time>
      </trkpt>
      <trkpt lat="44.33379" lon="2.69897">
        <ele>833.1196289</ele>
        <time>2014-08-10T08:24:18Z</time>
      </trkpt>
      <trkpt lat="44.3338" lon="2.69884">
        <ele>833.1196289</ele>
        <time>2014-08-10T08:24:22Z</time>
      </trkpt>
      <trkpt lat="44.33382" lon="2.69865">
        <ele>833.1196289</ele>
        <time>2014-08-10T08:24:27Z</time>
      </trkpt>
      <trkpt lat="44.33382" lon="2.69848">
        <ele>834.0810547</ele>
        <time>2014-08-10T08:24:31Z</time>
      </trkpt>
      <trkpt lat="44.33385" lon="2.69827">
        <ele>834.0810547</ele>
        <time>2014-08-10T08:24:36Z</time>
      </trkpt>
      <trkpt lat="44.33385" lon="2.6981">
        <ele>832.6391602</ele>
        <time>2014-08-10T08:24:40Z</time>
      </trkpt>
      <trkpt lat="44.33385" lon="2.69806">
        <ele>832.6391602</ele>
        <time>2014-08-10T08:24:41Z</time>
      </trkpt>
      <trkpt lat="44.33386" lon="2.69785">
        <ele>829.755127</ele>
        <time>2014-08-10T08:24:47Z</time>
      </trkpt>
      <trkpt lat="44.33386" lon="2.6977">
        <ele>828.3132324</ele>
        <time>2014-08-10T08:24:51Z</time>
      </trkpt>
      <trkpt lat="44.33386" lon="2.69751">
        <ele>828.3132324</ele>
        <time>2014-08-10T08:24:56Z</time>
      </trkpt>
      <trkpt lat="44.33386" lon="2.69747">
        <ele>828.3132324</ele>
        <time>2014-08-10T08:24:57Z</time>
      </trkpt>
      <trkpt lat="44.3339" lon="2.69717">
        <ele>824.9484863</ele>
        <time>2014-08-10T08:25:04Z</time>
      </trkpt>
      <trkpt lat="44.33397" lon="2.69693">
        <ele>819.1806641</ele>
        <time>2014-08-10T08:25:10Z</time>
      </trkpt>
      <trkpt lat="44.33398" lon="2.6969">
        <ele>818.6999512</ele>
        <time>2014-08-10T08:25:11Z</time>
      </trkpt>
      <trkpt lat="44.33403" lon="2.69678">
        <ele>816.2966309</ele>
        <time>2014-08-10T08:25:15Z</time>
      </trkpt>
      <trkpt lat="44.33406" lon="2.69671">
        <ele>815.8161621</ele>
        <time>2014-08-10T08:25:17Z</time>
      </trkpt>
      <trkpt lat="44.33414" lon="2.69653">
        <ele>814.8547363</ele>
        <time>2014-08-10T08:25:22Z</time>
      </trkpt>
      <trkpt lat="44.33421" lon="2.69637">
        <ele>814.3740234</ele>
        <time>2014-08-10T08:25:27Z</time>
      </trkpt>
      <trkpt lat="44.33431" lon="2.69621">
        <ele>813.4128418</ele>
        <time>2014-08-10T08:25:32Z</time>
      </trkpt>
      <trkpt lat="44.33437" lon="2.69609">
        <ele>812.451416</ele>
        <time>2014-08-10T08:25:36Z</time>
      </trkpt>
      <trkpt lat="44.33445" lon="2.69594">
        <ele>811.9707031</ele>
        <time>2014-08-10T08:25:41Z</time>
      </trkpt>
      <trkpt lat="44.33452" lon="2.69578">
        <ele>811.0092773</ele>
        <time>2014-08-10T08:25:46Z</time>
      </trkpt>
      <trkpt lat="44.33457" lon="2.69569">
        <ele>809.5673828</ele>
        <time>2014-08-10T08:25:49Z</time>
      </trkpt>
      <trkpt lat="44.33467" lon="2.69556">
        <ele>808.1254883</ele>
        <time>2014-08-10T08:25:54Z</time>
      </trkpt>
      <trkpt lat="44.33474" lon="2.69543">
        <ele>807.1640625</ele>
        <time>2014-08-10T08:25:58Z</time>
      </trkpt>
      <trkpt lat="44.3348" lon="2.69529">
        <ele>806.6833496</ele>
        <time>2014-08-10T08:26:02Z</time>
      </trkpt>
      <trkpt lat="44.33489" lon="2.69512">
        <ele>807.1640625</ele>
        <time>2014-08-10T08:26:08Z</time>
      </trkpt>
      <trkpt lat="44.33498" lon="2.69499">
        <ele>808.605957</ele>
        <time>2014-08-10T08:26:13Z</time>
      </trkpt>
      <trkpt lat="44.33505" lon="2.69489">
        <ele>809.5673828</ele>
        <time>2014-08-10T08:26:17Z</time>
      </trkpt>
      <trkpt lat="44.33507" lon="2.69481">
        <ele>811.0092773</ele>
        <time>2014-08-10T08:26:20Z</time>
      </trkpt>
      <trkpt lat="44.33507" lon="2.69467">
        <ele>814.3740234</ele>
        <time>2014-08-10T08:26:25Z</time>
      </trkpt>
      <trkpt lat="44.33507" lon="2.69446">
        <ele>822.0644531</ele>
        <time>2014-08-10T08:26:32Z</time>
      </trkpt>
      <trkpt lat="44.33508" lon="2.69435">
        <ele>823.9870605</ele>
        <time>2014-08-10T08:26:36Z</time>
      </trkpt>
      <trkpt lat="44.33508" lon="2.69416">
        <ele>826.3903809</ele>
        <time>2014-08-10T08:26:42Z</time>
      </trkpt>
      <trkpt lat="44.33508" lon="2.69399">
        <ele>828.3132324</ele>
        <time>2014-08-10T08:26:47Z</time>
      </trkpt>
      <trkpt lat="44.33506" lon="2.69384">
        <ele>831.1972656</ele>
        <time>2014-08-10T08:26:52Z</time>
      </trkpt>
      <trkpt lat="44.33504" lon="2.69365">
        <ele>834.0810547</ele>
        <time>2014-08-10T08:26:58Z</time>
      </trkpt>
      <trkpt lat="44.33503" lon="2.69341">
        <ele>835.0424805</ele>
        <time>2014-08-10T08:27:05Z</time>
      </trkpt>
      <trkpt lat="44.33502" lon="2.69322">
        <ele>835.5229492</ele>
        <time>2014-08-10T08:27:11Z</time>
      </trkpt>
      <trkpt lat="44.33501" lon="2.69303">
        <ele>835.5229492</ele>
        <time>2014-08-10T08:27:17Z</time>
      </trkpt>
      <trkpt lat="44.335" lon="2.69283">
        <ele>836.9648438</ele>
        <time>2014-08-10T08:27:23Z</time>
      </trkpt>
      <trkpt lat="44.335" lon="2.69271">
        <ele>836.484375</ele>
        <time>2014-08-10T08:27:27Z</time>
      </trkpt>
      <trkpt lat="44.33499" lon="2.69255">
        <ele>836.0036621</ele>
        <time>2014-08-10T08:27:32Z</time>
      </trkpt>
      <trkpt lat="44.33499" lon="2.69243">
        <ele>835.0424805</ele>
        <time>2014-08-10T08:27:36Z</time>
      </trkpt>
      <trkpt lat="44.335" lon="2.69228">
        <ele>833.1196289</ele>
        <time>2014-08-10T08:27:41Z</time>
      </trkpt>
      <trkpt lat="44.33499" lon="2.69215">
        <ele>831.6777344</ele>
        <time>2014-08-10T08:27:45Z</time>
      </trkpt>
      <trkpt lat="44.33498" lon="2.69199">
        <ele>831.1972656</ele>
        <time>2014-08-10T08:27:50Z</time>
      </trkpt>
      <trkpt lat="44.33495" lon="2.69181">
        <ele>831.1972656</ele>
        <time>2014-08-10T08:27:55Z</time>
      </trkpt>
      <trkpt lat="44.33493" lon="2.69162">
        <ele>831.6777344</ele>
        <time>2014-08-10T08:28:00Z</time>
      </trkpt>
      <trkpt lat="44.3349" lon="2.69147">
        <ele>831.1972656</ele>
        <time>2014-08-10T08:28:04Z</time>
      </trkpt>
      <trkpt lat="44.33488" lon="2.69132">
        <ele>830.2358398</ele>
        <time>2014-08-10T08:28:08Z</time>
      </trkpt>
      <trkpt lat="44.33483" lon="2.69109">
        <ele>830.2358398</ele>
        <time>2014-08-10T08:28:14Z</time>
      </trkpt>
      <trkpt lat="44.3348" lon="2.69094">
        <ele>830.7165527</ele>
        <time>2014-08-10T08:28:18Z</time>
      </trkpt>
      <trkpt lat="44.33471" lon="2.69069">
        <ele>830.2358398</ele>
        <time>2014-08-10T08:28:26Z</time>
      </trkpt>
      <trkpt lat="44.33468" lon="2.69057">
        <ele>829.2744141</ele>
        <time>2014-08-10T08:28:30Z</time>
      </trkpt>
      <trkpt lat="44.33466" lon="2.69044">
        <ele>827.8322754</ele>
        <time>2014-08-10T08:28:35Z</time>
      </trkpt>
      <trkpt lat="44.33462" lon="2.69028">
        <ele>824.9484863</ele>
        <time>2014-08-10T08:28:40Z</time>
      </trkpt>
      <trkpt lat="44.33455" lon="2.69009">
        <ele>824.4677734</ele>
        <time>2014-08-10T08:28:46Z</time>
      </trkpt>
      <trkpt lat="44.3345" lon="2.68994">
        <ele>824.9484863</ele>
        <time>2014-08-10T08:28:51Z</time>
      </trkpt>
      <trkpt lat="44.33441" lon="2.68979">
        <ele>826.8710938</ele>
        <time>2014-08-10T08:28:56Z</time>
      </trkpt>
      <trkpt lat="44.33429" lon="2.68961">
        <ele>829.2744141</ele>
        <time>2014-08-10T08:29:03Z</time>
      </trkpt>
      <trkpt lat="44.33422" lon="2.68947">
        <ele>829.755127</ele>
        <time>2014-08-10T08:29:08Z</time>
      </trkpt>
      <trkpt lat="44.33414" lon="2.68933">
        <ele>829.2744141</ele>
        <time>2014-08-10T08:29:13Z</time>
      </trkpt>
      <trkpt lat="44.33407" lon="2.68919">
        <ele>829.2744141</ele>
        <time>2014-08-10T08:29:18Z</time>
      </trkpt>
      <trkpt lat="44.33401" lon="2.68908">
        <ele>828.7939453</ele>
        <time>2014-08-10T08:29:22Z</time>
      </trkpt>
      <trkpt lat="44.33394" lon="2.68893">
        <ele>828.7939453</ele>
        <time>2014-08-10T08:29:27Z</time>
      </trkpt>
      <trkpt lat="44.33387" lon="2.68876">
        <ele>827.8322754</ele>
        <time>2014-08-10T08:29:32Z</time>
      </trkpt>
      <trkpt lat="44.33379" lon="2.68857">
        <ele>827.3518066</ele>
        <time>2014-08-10T08:29:38Z</time>
      </trkpt>
      <trkpt lat="44.33371" lon="2.68839">
        <ele>825.909668</ele>
        <time>2014-08-10T08:29:44Z</time>
      </trkpt>
      <trkpt lat="44.33365" lon="2.68823">
        <ele>825.909668</ele>
        <time>2014-08-10T08:29:49Z</time>
      </trkpt>
      <trkpt lat="44.3336" lon="2.68807">
        <ele>824.9484863</ele>
        <time>2014-08-10T08:29:54Z</time>
      </trkpt>
      <trkpt lat="44.33354" lon="2.68791">
        <ele>823.9870605</ele>
        <time>2014-08-10T08:29:59Z</time>
      </trkpt>
      <trkpt lat="44.33347" lon="2.68774">
        <ele>823.0258789</ele>
        <time>2014-08-10T08:30:05Z</time>
      </trkpt>
      <trkpt lat="44.33342" lon="2.68761">
        <ele>822.0644531</ele>
        <time>2014-08-10T08:30:09Z</time>
      </trkpt>
      <trkpt lat="44.33333" lon="2.68744">
        <ele>823.5065918</ele>
        <time>2014-08-10T08:30:15Z</time>
      </trkpt>
      <trkpt lat="44.33325" lon="2.68728">
        <ele>824.4677734</ele>
        <time>2014-08-10T08:30:20Z</time>
      </trkpt>
      <trkpt lat="44.33316" lon="2.68712">
        <ele>825.4289551</ele>
        <time>2014-08-10T08:30:25Z</time>
      </trkpt>
      <trkpt lat="44.33314" lon="2.68701">
        <ele>825.4289551</ele>
        <time>2014-08-10T08:30:28Z</time>
      </trkpt>
      <trkpt lat="44.33302" lon="2.6868">
        <ele>824.9484863</ele>
        <time>2014-08-10T08:30:35Z</time>
      </trkpt>
      <trkpt lat="44.33294" lon="2.68665">
        <ele>824.9484863</ele>
        <time>2014-08-10T08:30:40Z</time>
      </trkpt>
      <trkpt lat="44.33285" lon="2.68652">
        <ele>824.9484863</ele>
        <time>2014-08-10T08:30:45Z</time>
      </trkpt>
      <trkpt lat="44.33279" lon="2.68643">
        <ele>824.4677734</ele>
        <time>2014-08-10T08:30:49Z</time>
      </trkpt>
      <trkpt lat="44.33276" lon="2.68636">
        <ele>822.0644531</ele>
        <time>2014-08-10T08:30:54Z</time>
      </trkpt>
      <trkpt lat="44.33273" lon="2.68631">
        <ele>821.5837402</ele>
        <time>2014-08-10T08:30:58Z</time>
      </trkpt>
      <trkpt lat="44.33269" lon="2.68623">
        <ele>821.1032715</ele>
        <time>2014-08-10T08:31:06Z</time>
      </trkpt>
      <trkpt lat="44.33261" lon="2.6861">
        <ele>820.1418457</ele>
        <time>2014-08-10T08:31:15Z</time>
      </trkpt>
      <trkpt lat="44.33249" lon="2.68596">
        <ele>818.6999512</ele>
        <time>2014-08-10T08:31:26Z</time>
      </trkpt>
      <trkpt lat="44.33243" lon="2.6859">
        <ele>817.7385254</ele>
        <time>2014-08-10T08:31:32Z</time>
      </trkpt>
      <trkpt lat="44.33235" lon="2.68583">
        <ele>816.2966309</ele>
        <time>2014-08-10T08:31:39Z</time>
      </trkpt>
      <trkpt lat="44.33227" lon="2.68576">
        <ele>815.3354492</ele>
        <time>2014-08-10T08:31:46Z</time>
      </trkpt>
      <trkpt lat="44.33217" lon="2.68567">
        <ele>814.3740234</ele>
        <time>2014-08-10T08:31:55Z</time>
      </trkpt>
      <trkpt lat="44.33214" lon="2.68562">
        <ele>813.8933105</ele>
        <time>2014-08-10T08:32:01Z</time>
      </trkpt>
      <trkpt lat="44.3321" lon="2.68558">
        <ele>813.4128418</ele>
        <time>2014-08-10T08:32:12Z</time>
      </trkpt>
      <trkpt lat="44.33208" lon="2.68555">
        <ele>813.4128418</ele>
        <time>2014-08-10T08:32:20Z</time>
      </trkpt>
      <trkpt lat="44.33208" lon="2.68555">
        <ele>812.9321289</ele>
        <time>2014-08-10T08:32:28Z</time>
      </trkpt>
      <trkpt lat="44.33208" lon="2.68555">
        <ele>812.9321289</ele>
        <time>2014-08-10T08:32:39Z</time>
      </trkpt>
      <trkpt lat="44.33207" lon="2.68553">
        <ele>812.9321289</ele>
        <time>2014-08-10T08:32:47Z</time>
      </trkpt>
      <trkpt lat="44.33201" lon="2.68544">
        <ele>811.9707031</ele>
        <time>2014-08-10T08:32:54Z</time>
      </trkpt>
      <trkpt lat="44.33192" lon="2.68533">
        <ele>812.451416</ele>
        <time>2014-08-10T08:33:00Z</time>
      </trkpt>
      <trkpt lat="44.33177" lon="2.68514">
        <ele>811.0092773</ele>
        <time>2014-08-10T08:33:08Z</time>
      </trkpt>
      <trkpt lat="44.33168" lon="2.685">
        <ele>810.0478516</ele>
        <time>2014-08-10T08:33:13Z</time>
      </trkpt>
      <trkpt lat="44.33156" lon="2.68486">
        <ele>810.5285645</ele>
        <time>2014-08-10T08:33:19Z</time>
      </trkpt>
      <trkpt lat="44.33143" lon="2.68473">
        <ele>809.0866699</ele>
        <time>2014-08-10T08:33:25Z</time>
      </trkpt>
      <trkpt lat="44.3314" lon="2.68472">
        <ele>809.0866699</ele>
        <time>2014-08-10T08:33:26Z</time>
      </trkpt>
      <trkpt lat="44.33128" lon="2.68461">
        <ele>808.605957</ele>
        <time>2014-08-10T08:33:31Z</time>
      </trkpt>
      <trkpt lat="44.33121" lon="2.68451">
        <ele>807.1640625</ele>
        <time>2014-08-10T08:33:35Z</time>
      </trkpt>
      <trkpt lat="44.33119" lon="2.68449">
        <ele>807.1640625</ele>
        <time>2014-08-10T08:33:36Z</time>
      </trkpt>
      <trkpt lat="44.33108" lon="2.68435">
        <ele>806.2026367</ele>
        <time>2014-08-10T08:33:42Z</time>
      </trkpt>
      <trkpt lat="44.33097" lon="2.68423">
        <ele>805.722168</ele>
        <time>2014-08-10T08:33:47Z</time>
      </trkpt>
      <trkpt lat="44.33089" lon="2.68411">
        <ele>806.2026367</ele>
        <time>2014-08-10T08:33:51Z</time>
      </trkpt>
      <trkpt lat="44.33082" lon="2.68397">
        <ele>806.2026367</ele>
        <time>2014-08-10T08:33:55Z</time>
      </trkpt>
      <trkpt lat="44.33075" lon="2.68384">
        <ele>805.722168</ele>
        <time>2014-08-10T08:33:59Z</time>
      </trkpt>
      <trkpt lat="44.33067" lon="2.68367">
        <ele>804.7607422</ele>
        <time>2014-08-10T08:34:04Z</time>
      </trkpt>
      <trkpt lat="44.33059" lon="2.68355">
        <ele>803.7995605</ele>
        <time>2014-08-10T08:34:08Z</time>
      </trkpt>
      <trkpt lat="44.33049" lon="2.6833">
        <ele>803.3188477</ele>
        <time>2014-08-10T08:34:14Z</time>
      </trkpt>
      <trkpt lat="44.33047" lon="2.68305">
        <ele>802.8381348</ele>
        <time>2014-08-10T08:34:19Z</time>
      </trkpt>
      <trkpt lat="44.33047" lon="2.68281">
        <ele>802.8381348</ele>
        <time>2014-08-10T08:34:24Z</time>
      </trkpt>
      <trkpt lat="44.33052" lon="2.68263">
        <ele>802.3574219</ele>
        <time>2014-08-10T08:34:28Z</time>
      </trkpt>
      <trkpt lat="44.33065" lon="2.68246">
        <ele>799.4736328</ele>
        <time>2014-08-10T08:34:33Z</time>
      </trkpt>
      <trkpt lat="44.33081" lon="2.68236">
        <ele>796.1091309</ele>
        <time>2014-08-10T08:34:38Z</time>
      </trkpt>
      <trkpt lat="44.33093" lon="2.68229">
        <ele>793.2248535</ele>
        <time>2014-08-10T08:34:42Z</time>
      </trkpt>
      <trkpt lat="44.33096" lon="2.68226">
        <ele>792.7443848</ele>
        <time>2014-08-10T08:34:43Z</time>
      </trkpt>
      <trkpt lat="44.33095" lon="2.68204">
        <ele>793.7055664</ele>
        <time>2014-08-10T08:34:48Z</time>
      </trkpt>
      <trkpt lat="44.33089" lon="2.68186">
        <ele>795.1474609</ele>
        <time>2014-08-10T08:34:52Z</time>
      </trkpt>
      <trkpt lat="44.33084" lon="2.68171">
        <ele>796.1091309</ele>
        <time>2014-08-10T08:34:56Z</time>
      </trkpt>
      <trkpt lat="44.33076" lon="2.68151">
        <ele>796.5898438</ele>
        <time>2014-08-10T08:35:01Z</time>
      </trkpt>
      <trkpt lat="44.3307" lon="2.68137">
        <ele>796.5898438</ele>
        <time>2014-08-10T08:35:05Z</time>
      </trkpt>
      <trkpt lat="44.33064" lon="2.68122">
        <ele>797.0703125</ele>
        <time>2014-08-10T08:35:09Z</time>
      </trkpt>
      <trkpt lat="44.33058" lon="2.68105">
        <ele>798.0317383</ele>
        <time>2014-08-10T08:35:14Z</time>
      </trkpt>
      <trkpt lat="44.33053" lon="2.68089">
        <ele>798.0317383</ele>
        <time>2014-08-10T08:35:19Z</time>
      </trkpt>
      <trkpt lat="44.33047" lon="2.68073">
        <ele>798.9929199</ele>
        <time>2014-08-10T08:35:24Z</time>
      </trkpt>
      <trkpt lat="44.33041" lon="2.68059">
        <ele>798.9929199</ele>
        <time>2014-08-10T08:35:29Z</time>
      </trkpt>
      <trkpt lat="44.33035" lon="2.68046">
        <ele>799.9543457</ele>
        <time>2014-08-10T08:35:34Z</time>
      </trkpt>
      <trkpt lat="44.3303" lon="2.68032">
        <ele>799.9543457</ele>
        <time>2014-08-10T08:35:38Z</time>
      </trkpt>
      <trkpt lat="44.33024" lon="2.68018">
        <ele>800.9155273</ele>
        <time>2014-08-10T08:35:43Z</time>
      </trkpt>
      <trkpt lat="44.33019" lon="2.68008">
        <ele>803.3188477</ele>
        <time>2014-08-10T08:35:47Z</time>
      </trkpt>
      <trkpt lat="44.33018" lon="2.68011">
        <ele>805.2414551</ele>
        <time>2014-08-10T08:35:53Z</time>
      </trkpt>
      <trkpt lat="44.33017" lon="2.6801">
        <ele>806.2026367</ele>
        <time>2014-08-10T08:35:59Z</time>
      </trkpt>
      <trkpt lat="44.33014" lon="2.67997">
        <ele>805.722168</ele>
        <time>2014-08-10T08:36:04Z</time>
      </trkpt>
      <trkpt lat="44.33011" lon="2.67986">
        <ele>804.7607422</ele>
        <time>2014-08-10T08:36:07Z</time>
      </trkpt>
      <trkpt lat="44.33009" lon="2.67965">
        <ele>801.8769531</ele>
        <time>2014-08-10T08:36:12Z</time>
      </trkpt>
      <trkpt lat="44.33011" lon="2.67937">
        <ele>797.5510254</ele>
        <time>2014-08-10T08:36:17Z</time>
      </trkpt>
      <trkpt lat="44.33014" lon="2.67913">
        <ele>795.1474609</ele>
        <time>2014-08-10T08:36:21Z</time>
      </trkpt>
      <trkpt lat="44.33013" lon="2.67887">
        <ele>793.7055664</ele>
        <time>2014-08-10T08:36:25Z</time>
      </trkpt>
      <trkpt lat="44.33007" lon="2.67858">
        <ele>793.2248535</ele>
        <time>2014-08-10T08:36:30Z</time>
      </trkpt>
      <trkpt lat="44.33004" lon="2.67847">
        <ele>792.7443848</ele>
        <time>2014-08-10T08:36:32Z</time>
      </trkpt>
      <trkpt lat="44.32998" lon="2.6783">
        <ele>793.2248535</ele>
        <time>2014-08-10T08:36:35Z</time>
      </trkpt>
      <trkpt lat="44.32994" lon="2.6782">
        <ele>793.7055664</ele>
        <time>2014-08-10T08:36:37Z</time>
      </trkpt>
      <trkpt lat="44.3299" lon="2.67804">
        <ele>794.1862793</ele>
        <time>2014-08-10T08:36:40Z</time>
      </trkpt>
      <trkpt lat="44.32989" lon="2.67777">
        <ele>795.1474609</ele>
        <time>2014-08-10T08:36:45Z</time>
      </trkpt>
      <trkpt lat="44.33" lon="2.67748">
        <ele>794.666748</ele>
        <time>2014-08-10T08:36:51Z</time>
      </trkpt>
      <trkpt lat="44.33012" lon="2.67735">
        <ele>794.1862793</ele>
        <time>2014-08-10T08:36:55Z</time>
      </trkpt>
      <trkpt lat="44.33022" lon="2.67725">
        <ele>793.7055664</ele>
        <time>2014-08-10T08:36:59Z</time>
      </trkpt>
      <trkpt lat="44.33034" lon="2.67711">
        <ele>793.7055664</ele>
        <time>2014-08-10T08:37:04Z</time>
      </trkpt>
      <trkpt lat="44.33044" lon="2.67693">
        <ele>789.3796387</ele>
        <time>2014-08-10T08:37:08Z</time>
      </trkpt>
      <trkpt lat="44.33051" lon="2.6767">
        <ele>786.0151367</ele>
        <time>2014-08-10T08:37:12Z</time>
      </trkpt>
      <trkpt lat="44.33056" lon="2.6766">
        <ele>785.0539551</ele>
        <time>2014-08-10T08:37:14Z</time>
      </trkpt>
      <trkpt lat="44.33066" lon="2.67644">
        <ele>782.1699219</ele>
        <time>2014-08-10T08:37:18Z</time>
      </trkpt>
      <trkpt lat="44.33086" lon="2.67628">
        <ele>779.7663574</ele>
        <time>2014-08-10T08:37:24Z</time>
      </trkpt>
      <trkpt lat="44.33093" lon="2.67622">
        <ele>776.4018555</ele>
        <time>2014-08-10T08:37:28Z</time>
      </trkpt>
      <trkpt lat="44.33095" lon="2.6762">
        <ele>775.9211426</ele>
        <time>2014-08-10T08:37:29Z</time>
      </trkpt>
      <trkpt lat="44.33098" lon="2.67619">
        <ele>773.5180664</ele>
        <time>2014-08-10T08:37:32Z</time>
      </trkpt>
      <trkpt lat="44.33103" lon="2.67617">
        <ele>776.8825684</ele>
        <time>2014-08-10T08:37:44Z</time>
      </trkpt>
      <trkpt lat="44.33103" lon="2.67616">
        <ele>781.2087402</ele>
        <time>2014-08-10T08:37:54Z</time>
      </trkpt>
      <trkpt lat="44.33099" lon="2.67622">
        <ele>786.0151367</ele>
        <time>2014-08-10T08:38:01Z</time>
      </trkpt>
      <trkpt lat="44.33098" lon="2.67624">
        <ele>786.9763184</ele>
        <time>2014-08-10T08:38:12Z</time>
      </trkpt>
      <trkpt lat="44.33115" lon="2.67608">
        <ele>776.8825684</ele>
        <time>2014-08-10T08:38:18Z</time>
      </trkpt>
      <trkpt lat="44.33138" lon="2.67591">
        <ele>767.75</ele>
        <time>2014-08-10T08:38:23Z</time>
      </trkpt>
      <trkpt lat="44.33149" lon="2.67579">
        <ele>764.8662109</ele>
        <time>2014-08-10T08:38:26Z</time>
      </trkpt>
      <trkpt lat="44.33166" lon="2.67572">
        <ele>763.4240723</ele>
        <time>2014-08-10T08:38:30Z</time>
      </trkpt>
      <trkpt lat="44.3317" lon="2.67569">
        <ele>762.4626465</ele>
        <time>2014-08-10T08:38:31Z</time>
      </trkpt>
      <trkpt lat="44.33188" lon="2.67554">
        <ele>758.6174316</ele>
        <time>2014-08-10T08:38:34Z</time>
      </trkpt>
      <trkpt lat="44.33206" lon="2.67527">
        <ele>752.8496094</ele>
        <time>2014-08-10T08:38:39Z</time>
      </trkpt>
      <trkpt lat="44.33217" lon="2.6751">
        <ele>753.3303223</ele>
        <time>2014-08-10T08:38:43Z</time>
      </trkpt>
      <trkpt lat="44.33226" lon="2.67498">
        <ele>753.8110352</ele>
        <time>2014-08-10T08:38:46Z</time>
      </trkpt>
      <trkpt lat="44.33246" lon="2.67473">
        <ele>752.3688965</ele>
        <time>2014-08-10T08:38:52Z</time>
      </trkpt>
      <trkpt lat="44.33254" lon="2.67463">
        <ele>752.3688965</ele>
        <time>2014-08-10T08:38:55Z</time>
      </trkpt>
      <trkpt lat="44.33267" lon="2.67451">
        <ele>747.081543</ele>
        <time>2014-08-10T08:39:00Z</time>
      </trkpt>
      <trkpt lat="44.33268" lon="2.67445">
        <ele>746.6010742</ele>
        <time>2014-08-10T08:39:02Z</time>
      </trkpt>
      <trkpt lat="44.33268" lon="2.67446">
        <ele>747.081543</ele>
        <time>2014-08-10T08:39:08Z</time>
      </trkpt>
      <trkpt lat="44.33275" lon="2.67446">
        <ele>751.8884277</ele>
        <time>2014-08-10T08:39:28Z</time>
      </trkpt>
      <trkpt lat="44.33276" lon="2.6744">
        <ele>749.9658203</ele>
        <time>2014-08-10T08:39:32Z</time>
      </trkpt>
      <trkpt lat="44.33277" lon="2.67433">
        <ele>746.1203613</ele>
        <time>2014-08-10T08:39:40Z</time>
      </trkpt>
      <trkpt lat="44.33277" lon="2.67431">
        <ele>746.1203613</ele>
        <time>2014-08-10T08:39:41Z</time>
      </trkpt>
      <trkpt lat="44.33282" lon="2.67425">
        <ele>746.1203613</ele>
        <time>2014-08-10T08:39:46Z</time>
      </trkpt>
      <trkpt lat="44.33291" lon="2.67415">
        <ele>742.2751465</ele>
        <time>2014-08-10T08:39:50Z</time>
      </trkpt>
      <trkpt lat="44.33306" lon="2.67393">
        <ele>732.1813965</ele>
        <time>2014-08-10T08:39:56Z</time>
      </trkpt>
      <trkpt lat="44.33312" lon="2.67382">
        <ele>728.3359375</ele>
        <time>2014-08-10T08:39:59Z</time>
      </trkpt>
      <trkpt lat="44.3332" lon="2.6736">
        <ele>721.1262207</ele>
        <time>2014-08-10T08:40:04Z</time>
      </trkpt>
      <trkpt lat="44.33324" lon="2.67349">
        <ele>721.1262207</ele>
        <time>2014-08-10T08:40:07Z</time>
      </trkpt>
      <trkpt lat="44.33327" lon="2.67324">
        <ele>723.529541</ele>
        <time>2014-08-10T08:40:12Z</time>
      </trkpt>
      <trkpt lat="44.33324" lon="2.67309">
        <ele>721.6066895</ele>
        <time>2014-08-10T08:40:16Z</time>
      </trkpt>
      <trkpt lat="44.33317" lon="2.67291">
        <ele>716.3195801</ele>
        <time>2014-08-10T08:40:21Z</time>
      </trkpt>
      <trkpt lat="44.33309" lon="2.67278">
        <ele>711.5129395</ele>
        <time>2014-08-10T08:40:26Z</time>
      </trkpt>
      <trkpt lat="44.33307" lon="2.67271">
        <ele>706.7062988</ele>
        <time>2014-08-10T08:40:28Z</time>
      </trkpt>
      <trkpt lat="44.33317" lon="2.67262">
        <ele>698.5349121</ele>
        <time>2014-08-10T08:40:33Z</time>
      </trkpt>
      <trkpt lat="44.33322" lon="2.6726">
        <ele>696.1318359</ele>
        <time>2014-08-10T08:40:35Z</time>
      </trkpt>
      <trkpt lat="44.33336" lon="2.67258">
        <ele>693.7285156</ele>
        <time>2014-08-10T08:40:40Z</time>
      </trkpt>
      <trkpt lat="44.33337" lon="2.67258">
        <ele>693.7285156</ele>
        <time>2014-08-10T08:40:41Z</time>
      </trkpt>
      <trkpt lat="44.33343" lon="2.67254">
        <ele>690.3640137</ele>
        <time>2014-08-10T08:40:45Z</time>
      </trkpt>
      <trkpt lat="44.33345" lon="2.6725">
        <ele>692.767334</ele>
        <time>2014-08-10T08:40:47Z</time>
      </trkpt>
      <trkpt lat="44.33359" lon="2.67241">
        <ele>687.4799805</ele>
        <time>2014-08-10T08:40:53Z</time>
      </trkpt>
      <trkpt lat="44.3336" lon="2.6724">
        <ele>686.0380859</ele>
        <time>2014-08-10T08:40:54Z</time>
      </trkpt>
      <trkpt lat="44.3336" lon="2.67228">
        <ele>682.6733398</ele>
        <time>2014-08-10T08:40:59Z</time>
      </trkpt>
      <trkpt lat="44.33354" lon="2.67215">
        <ele>677.3862305</ele>
        <time>2014-08-10T08:41:04Z</time>
      </trkpt>
      <trkpt lat="44.33353" lon="2.67213">
        <ele>676.9055176</ele>
        <time>2014-08-10T08:41:05Z</time>
      </trkpt>
      <trkpt lat="44.33349" lon="2.67208">
        <ele>676.4248047</ele>
        <time>2014-08-10T08:41:09Z</time>
      </trkpt>
      <trkpt lat="44.33349" lon="2.67203">
        <ele>670.6569824</ele>
        <time>2014-08-10T08:41:14Z</time>
      </trkpt>
      <trkpt lat="44.33341" lon="2.67191">
        <ele>663.4470215</ele>
        <time>2014-08-10T08:41:19Z</time>
      </trkpt>
      <trkpt lat="44.33341" lon="2.67183">
        <ele>660.5629883</ele>
        <time>2014-08-10T08:41:21Z</time>
      </trkpt>
      <trkpt lat="44.3335" lon="2.67175">
        <ele>661.0437012</ele>
        <time>2014-08-10T08:41:25Z</time>
      </trkpt>
      <trkpt lat="44.33355" lon="2.67175">
        <ele>661.5244141</ele>
        <time>2014-08-10T08:41:26Z</time>
      </trkpt>
      <trkpt lat="44.3337" lon="2.67174">
        <ele>675.4633789</ele>
        <time>2014-08-10T08:41:31Z</time>
      </trkpt>
      <trkpt lat="44.33381" lon="2.67177">
        <ele>673.0603027</ele>
        <time>2014-08-10T08:41:35Z</time>
      </trkpt>
      <trkpt lat="44.33394" lon="2.67185">
        <ele>672.5795898</ele>
        <time>2014-08-10T08:41:39Z</time>
      </trkpt>
      <trkpt lat="44.33407" lon="2.67196">
        <ele>672.098877</ele>
        <time>2014-08-10T08:41:44Z</time>
      </trkpt>
      <trkpt lat="44.33419" lon="2.67193">
        <ele>673.5410156</ele>
        <time>2014-08-10T08:41:48Z</time>
      </trkpt>
      <trkpt lat="44.33422" lon="2.67191">
        <ele>673.5410156</ele>
        <time>2014-08-10T08:41:49Z</time>
      </trkpt>
      <trkpt lat="44.3343" lon="2.67176">
        <ele>675.9440918</ele>
        <time>2014-08-10T08:41:53Z</time>
      </trkpt>
      <trkpt lat="44.33429" lon="2.67166">
        <ele>675.9440918</ele>
        <time>2014-08-10T08:41:56Z</time>
      </trkpt>
      <trkpt lat="44.33426" lon="2.6716">
        <ele>674.9829102</ele>
        <time>2014-08-10T08:41:58Z</time>
      </trkpt>
      <trkpt lat="44.33423" lon="2.67155">
        <ele>665.3696289</ele>
        <time>2014-08-10T08:42:02Z</time>
      </trkpt>
      <trkpt lat="44.33419" lon="2.6715">
        <ele>655.7565918</ele>
        <time>2014-08-10T08:42:07Z</time>
      </trkpt>
      <trkpt lat="44.33408" lon="2.6714">
        <ele>649.5078125</ele>
        <time>2014-08-10T08:42:13Z</time>
      </trkpt>
      <trkpt lat="44.33399" lon="2.67138">
        <ele>652.8725586</ele>
        <time>2014-08-10T08:42:17Z</time>
      </trkpt>
      <trkpt lat="44.33396" lon="2.67139">
        <ele>652.8725586</ele>
        <time>2014-08-10T08:42:19Z</time>
      </trkpt>
      <trkpt lat="44.33385" lon="2.67128">
        <ele>655.2758789</ele>
        <time>2014-08-10T08:42:24Z</time>
      </trkpt>
      <trkpt lat="44.33383" lon="2.67125">
        <ele>654.795166</ele>
        <time>2014-08-10T08:42:25Z</time>
      </trkpt>
      <trkpt lat="44.33376" lon="2.67116">
        <ele>650.4692383</ele>
        <time>2014-08-10T08:42:30Z</time>
      </trkpt>
      <trkpt lat="44.33375" lon="2.67115">
        <ele>649.0270996</ele>
        <time>2014-08-10T08:42:31Z</time>
      </trkpt>
      <trkpt lat="44.33358" lon="2.67107">
        <ele>645.1818848</ele>
        <time>2014-08-10T08:42:37Z</time>
      </trkpt>
      <trkpt lat="44.33352" lon="2.67105">
        <ele>646.1433105</ele>
        <time>2014-08-10T08:42:39Z</time>
      </trkpt>
      <trkpt lat="44.33343" lon="2.6711">
        <ele>641.3366699</ele>
        <time>2014-08-10T08:42:45Z</time>
      </trkpt>
      <trkpt lat="44.33336" lon="2.67114">
        <ele>639.8947754</ele>
        <time>2014-08-10T08:42:49Z</time>
      </trkpt>
      <trkpt lat="44.33333" lon="2.67111">
        <ele>642.2980957</ele>
        <time>2014-08-10T08:42:53Z</time>
      </trkpt>
      <trkpt lat="44.33335" lon="2.67106">
        <ele>640.3754883</ele>
        <time>2014-08-10T08:42:57Z</time>
      </trkpt>
      <trkpt lat="44.33339" lon="2.67098">
        <ele>639.8947754</ele>
        <time>2014-08-10T08:43:02Z</time>
      </trkpt>
      <trkpt lat="44.33339" lon="2.67097">
        <ele>641.8173828</ele>
        <time>2014-08-10T08:43:03Z</time>
      </trkpt>
      <trkpt lat="44.33347" lon="2.67089">
        <ele>638.9335938</ele>
        <time>2014-08-10T08:43:08Z</time>
      </trkpt>
      <trkpt lat="44.33351" lon="2.67076">
        <ele>646.6240234</ele>
        <time>2014-08-10T08:43:12Z</time>
      </trkpt>
      <trkpt lat="44.33354" lon="2.6706">
        <ele>651.4304199</ele>
        <time>2014-08-10T08:43:17Z</time>
      </trkpt>
      <trkpt lat="44.33354" lon="2.67058">
        <ele>652.8725586</ele>
        <time>2014-08-10T08:43:18Z</time>
      </trkpt>
      <trkpt lat="44.33347" lon="2.6704">
        <ele>675.4633789</ele>
        <time>2014-08-10T08:43:28Z</time>
      </trkpt>
      <trkpt lat="44.33352" lon="2.67019">
        <ele>657.1984863</ele>
        <time>2014-08-10T08:43:52Z</time>
      </trkpt>
      <trkpt lat="44.33348" lon="2.67005">
        <ele>656.2370605</ele>
        <time>2014-08-10T08:44:11Z</time>
      </trkpt>
      <trkpt lat="44.33348" lon="2.67001">
        <ele>657.6791992</ele>
        <time>2014-08-10T08:44:15Z</time>
      </trkpt>
      <trkpt lat="44.33349" lon="2.66997">
        <ele>658.1599121</ele>
        <time>2014-08-10T08:44:19Z</time>
      </trkpt>
      <trkpt lat="44.33341" lon="2.66969">
        <ele>665.3696289</ele>
        <time>2014-08-10T08:44:50Z</time>
      </trkpt>
      <trkpt lat="44.33341" lon="2.66965">
        <ele>666.8115234</ele>
        <time>2014-08-10T08:44:53Z</time>
      </trkpt>
      <trkpt lat="44.3334" lon="2.6696">
        <ele>669.6958008</ele>
        <time>2014-08-10T08:44:58Z</time>
      </trkpt>
      <trkpt lat="44.33338" lon="2.66933">
        <ele>679.3085938</ele>
        <time>2014-08-10T08:45:23Z</time>
      </trkpt>
      <trkpt lat="44.33332" lon="2.66923">
        <ele>682.192627</ele>
        <time>2014-08-10T08:45:31Z</time>
      </trkpt>
      <trkpt lat="44.33323" lon="2.66914">
        <ele>682.6733398</ele>
        <time>2014-08-10T08:45:37Z</time>
      </trkpt>
      <trkpt lat="44.33322" lon="2.66925">
        <ele>686.0380859</ele>
        <time>2014-08-10T08:45:49Z</time>
      </trkpt>
      <trkpt lat="44.33322" lon="2.66938">
        <ele>686.0380859</ele>
        <time>2014-08-10T08:45:53Z</time>
      </trkpt>
      <trkpt lat="44.33321" lon="2.66953">
        <ele>684.5961914</ele>
        <time>2014-08-10T08:45:58Z</time>
      </trkpt>
      <trkpt lat="44.33316" lon="2.66969">
        <ele>683.1538086</ele>
        <time>2014-08-10T08:46:04Z</time>
      </trkpt>
      <trkpt lat="44.33311" lon="2.66978">
        <ele>682.6733398</ele>
        <time>2014-08-10T08:46:08Z</time>
      </trkpt>
      <trkpt lat="44.33304" lon="2.66994">
        <ele>681.7119141</ele>
        <time>2014-08-10T08:46:14Z</time>
      </trkpt>
      <trkpt lat="44.33297" lon="2.67001">
        <ele>682.192627</ele>
        <time>2014-08-10T08:46:18Z</time>
      </trkpt>
      <trkpt lat="44.33289" lon="2.67013">
        <ele>685.557373</ele>
        <time>2014-08-10T08:46:23Z</time>
      </trkpt>
      <trkpt lat="44.33279" lon="2.67024">
        <ele>689.4025879</ele>
        <time>2014-08-10T08:46:29Z</time>
      </trkpt>
      <trkpt lat="44.33267" lon="2.67031">
        <ele>691.8059082</ele>
        <time>2014-08-10T08:46:35Z</time>
      </trkpt>
      <trkpt lat="44.33256" lon="2.67035">
        <ele>694.6896973</ele>
        <time>2014-08-10T08:46:40Z</time>
      </trkpt>
      <trkpt lat="44.3324" lon="2.67035">
        <ele>694.6896973</ele>
        <time>2014-08-10T08:46:47Z</time>
      </trkpt>
      <trkpt lat="44.33231" lon="2.67039">
        <ele>696.1318359</ele>
        <time>2014-08-10T08:46:52Z</time>
      </trkpt>
      <trkpt lat="44.33223" lon="2.67046">
        <ele>698.5349121</ele>
        <time>2014-08-10T08:46:56Z</time>
      </trkpt>
      <trkpt lat="44.33212" lon="2.67049">
        <ele>699.015625</ele>
        <time>2014-08-10T08:47:00Z</time>
      </trkpt>
      <trkpt lat="44.33201" lon="2.67051">
        <ele>696.6125488</ele>
        <time>2014-08-10T08:47:05Z</time>
      </trkpt>
      <trkpt lat="44.33191" lon="2.67053">
        <ele>693.7285156</ele>
        <time>2014-08-10T08:47:10Z</time>
      </trkpt>
      <trkpt lat="44.33182" lon="2.67055">
        <ele>693.7285156</ele>
        <time>2014-08-10T08:47:14Z</time>
      </trkpt>
      <trkpt lat="44.3317" lon="2.67058">
        <ele>691.8059082</ele>
        <time>2014-08-10T08:47:19Z</time>
      </trkpt>
      <trkpt lat="44.33157" lon="2.67058">
        <ele>691.3251953</ele>
        <time>2014-08-10T08:47:25Z</time>
      </trkpt>
      <trkpt lat="44.33148" lon="2.67055">
        <ele>691.8059082</ele>
        <time>2014-08-10T08:47:29Z</time>
      </trkpt>
      <trkpt lat="44.33142" lon="2.67046">
        <ele>691.8059082</ele>
        <time>2014-08-10T08:47:34Z</time>
      </trkpt>
      <trkpt lat="44.33131" lon="2.67037">
        <ele>692.767334</ele>
        <time>2014-08-10T08:47:40Z</time>
      </trkpt>
      <trkpt lat="44.33122" lon="2.67033">
        <ele>694.6896973</ele>
        <time>2014-08-10T08:47:45Z</time>
      </trkpt>
      <trkpt lat="44.33112" lon="2.67033">
        <ele>695.1704102</ele>
        <time>2014-08-10T08:47:50Z</time>
      </trkpt>
      <trkpt lat="44.33106" lon="2.67035">
        <ele>694.2092285</ele>
        <time>2014-08-10T08:47:53Z</time>
      </trkpt>
      <trkpt lat="44.331" lon="2.67043">
        <ele>693.2478027</ele>
        <time>2014-08-10T08:47:57Z</time>
      </trkpt>
      <trkpt lat="44.33096" lon="2.67048">
        <ele>692.767334</ele>
        <time>2014-08-10T08:47:59Z</time>
      </trkpt>
      <trkpt lat="44.33083" lon="2.67057">
        <ele>694.2092285</ele>
        <time>2014-08-10T08:48:06Z</time>
      </trkpt>
      <trkpt lat="44.33074" lon="2.67063">
        <ele>696.1318359</ele>
        <time>2014-08-10T08:48:11Z</time>
      </trkpt>
      <trkpt lat="44.33063" lon="2.67067">
        <ele>697.5737305</ele>
        <time>2014-08-10T08:48:16Z</time>
      </trkpt>
      <trkpt lat="44.33054" lon="2.67071">
        <ele>699.4963379</ele>
        <time>2014-08-10T08:48:20Z</time>
      </trkpt>
      <trkpt lat="44.33045" lon="2.67077">
        <ele>700.9384766</ele>
        <time>2014-08-10T08:48:25Z</time>
      </trkpt>
      <trkpt lat="44.33035" lon="2.67083">
        <ele>702.3803711</ele>
        <time>2014-08-10T08:48:30Z</time>
      </trkpt>
      <trkpt lat="44.33023" lon="2.67094">
        <ele>707.1870117</ele>
        <time>2014-08-10T08:48:36Z</time>
      </trkpt>
      <trkpt lat="44.33012" lon="2.67097">
        <ele>705.7451172</ele>
        <time>2014-08-10T08:48:41Z</time>
      </trkpt>
      <trkpt lat="44.33008" lon="2.67098">
        <ele>706.2255859</ele>
        <time>2014-08-10T08:48:43Z</time>
      </trkpt>
      <trkpt lat="44.32994" lon="2.67102">
        <ele>710.5515137</ele>
        <time>2014-08-10T08:48:49Z</time>
      </trkpt>
      <trkpt lat="44.3298" lon="2.67112">
        <ele>715.8388672</ele>
        <time>2014-08-10T08:48:55Z</time>
      </trkpt>
      <trkpt lat="44.32969" lon="2.6711">
        <ele>711.9936523</ele>
        <time>2014-08-10T08:48:59Z</time>
      </trkpt>
      <trkpt lat="44.32962" lon="2.67111">
        <ele>711.0322266</ele>
        <time>2014-08-10T08:49:02Z</time>
      </trkpt>
      <trkpt lat="44.32952" lon="2.67107">
        <ele>709.590332</ele>
        <time>2014-08-10T08:49:06Z</time>
      </trkpt>
      <trkpt lat="44.3294" lon="2.67102">
        <ele>710.5515137</ele>
        <time>2014-08-10T08:49:12Z</time>
      </trkpt>
      <trkpt lat="44.32929" lon="2.67103">
        <ele>712.4741211</ele>
        <time>2014-08-10T08:49:17Z</time>
      </trkpt>
      <trkpt lat="44.32917" lon="2.67105">
        <ele>711.5129395</ele>
        <time>2014-08-10T08:49:22Z</time>
      </trkpt>
      <trkpt lat="44.32909" lon="2.67103">
        <ele>711.0322266</ele>
        <time>2014-08-10T08:49:27Z</time>
      </trkpt>
      <trkpt lat="44.32903" lon="2.67099">
        <ele>711.0322266</ele>
        <time>2014-08-10T08:49:35Z</time>
      </trkpt>
      <trkpt lat="44.329" lon="2.67097">
        <ele>711.9936523</ele>
        <time>2014-08-10T08:49:39Z</time>
      </trkpt>
      <trkpt lat="44.32893" lon="2.67099">
        <ele>712.954834</ele>
        <time>2014-08-10T08:49:46Z</time>
      </trkpt>
      <trkpt lat="44.32891" lon="2.67102">
        <ele>712.4741211</ele>
        <time>2014-08-10T08:49:49Z</time>
      </trkpt>
      <trkpt lat="44.32886" lon="2.67103">
        <ele>711.0322266</ele>
        <time>2014-08-10T08:49:53Z</time>
      </trkpt>
      <trkpt lat="44.32884" lon="2.67106">
        <ele>711.5129395</ele>
        <time>2014-08-10T08:49:55Z</time>
      </trkpt>
      <trkpt lat="44.3288" lon="2.67114">
        <ele>713.9160156</ele>
        <time>2014-08-10T08:50:01Z</time>
      </trkpt>
      <trkpt lat="44.32875" lon="2.6712">
        <ele>714.8774414</ele>
        <time>2014-08-10T08:50:06Z</time>
      </trkpt>
      <trkpt lat="44.32873" lon="2.67126">
        <ele>715.3581543</ele>
        <time>2014-08-10T08:50:10Z</time>
      </trkpt>
      <trkpt lat="44.32867" lon="2.6713">
        <ele>717.2810059</ele>
        <time>2014-08-10T08:50:17Z</time>
      </trkpt>
      <trkpt lat="44.32864" lon="2.67123">
        <ele>718.7229004</ele>
        <time>2014-08-10T08:50:22Z</time>
      </trkpt>
      <trkpt lat="44.32862" lon="2.67114">
        <ele>720.6455078</ele>
        <time>2014-08-10T08:50:26Z</time>
      </trkpt>
      <trkpt lat="44.32859" lon="2.67101">
        <ele>724.9714355</ele>
        <time>2014-08-10T08:50:31Z</time>
      </trkpt>
      <trkpt lat="44.3286" lon="2.67091">
        <ele>725.4519043</ele>
        <time>2014-08-10T08:50:35Z</time>
      </trkpt>
      <trkpt lat="44.32862" lon="2.67087">
        <ele>724.9714355</ele>
        <time>2014-08-10T08:50:37Z</time>
      </trkpt>
      <trkpt lat="44.32863" lon="2.67083">
        <ele>724.0100098</ele>
        <time>2014-08-10T08:50:40Z</time>
      </trkpt>
      <trkpt lat="44.32865" lon="2.67071">
        <ele>728.8166504</ele>
        <time>2014-08-10T08:50:46Z</time>
      </trkpt>
      <trkpt lat="44.32868" lon="2.67065">
        <ele>728.8166504</ele>
        <time>2014-08-10T08:50:50Z</time>
      </trkpt>
      <trkpt lat="44.32869" lon="2.67061">
        <ele>729.2971191</ele>
        <time>2014-08-10T08:50:53Z</time>
      </trkpt>
      <trkpt lat="44.3287" lon="2.67057">
        <ele>730.7392578</ele>
        <time>2014-08-10T08:50:55Z</time>
      </trkpt>
      <trkpt lat="44.3287" lon="2.67055">
        <ele>732.1813965</ele>
        <time>2014-08-10T08:50:57Z</time>
      </trkpt>
      <trkpt lat="44.32869" lon="2.67054">
        <ele>734.5847168</ele>
        <time>2014-08-10T08:51:03Z</time>
      </trkpt>
      <trkpt lat="44.32867" lon="2.67056">
        <ele>736.0266113</ele>
        <time>2014-08-10T08:51:06Z</time>
      </trkpt>
      <trkpt lat="44.3286" lon="2.67063">
        <ele>742.2751465</ele>
        <time>2014-08-10T08:51:12Z</time>
      </trkpt>
      <trkpt lat="44.32853" lon="2.67065">
        <ele>744.6782227</ele>
        <time>2014-08-10T08:51:19Z</time>
      </trkpt>
      <trkpt lat="44.32848" lon="2.67066">
        <ele>745.6396484</ele>
        <time>2014-08-10T08:51:25Z</time>
      </trkpt>
      <trkpt lat="44.32847" lon="2.67066">
        <ele>746.6010742</ele>
        <time>2014-08-10T08:51:26Z</time>
      </trkpt>
      <trkpt lat="44.32845" lon="2.67061">
        <ele>749.9658203</ele>
        <time>2014-08-10T08:51:29Z</time>
      </trkpt>
      <trkpt lat="44.32848" lon="2.6705">
        <ele>750.927002</ele>
        <time>2014-08-10T08:51:36Z</time>
      </trkpt>
      <trkpt lat="44.32849" lon="2.67046">
        <ele>749.4851074</ele>
        <time>2014-08-10T08:51:39Z</time>
      </trkpt>
      <trkpt lat="44.32852" lon="2.67037">
        <ele>750.4465332</ele>
        <time>2014-08-10T08:51:45Z</time>
      </trkpt>
      <trkpt lat="44.32852" lon="2.67036">
        <ele>750.927002</ele>
        <time>2014-08-10T08:51:46Z</time>
      </trkpt>
      <trkpt lat="44.32856" lon="2.67023">
        <ele>749.4851074</ele>
        <time>2014-08-10T08:51:53Z</time>
      </trkpt>
      <trkpt lat="44.32855" lon="2.67021">
        <ele>749.4851074</ele>
        <time>2014-08-10T08:51:58Z</time>
      </trkpt>
      <trkpt lat="44.32853" lon="2.67022">
        <ele>751.4077148</ele>
        <time>2014-08-10T08:52:00Z</time>
      </trkpt>
      <trkpt lat="44.32846" lon="2.67025">
        <ele>751.4077148</ele>
        <time>2014-08-10T08:52:05Z</time>
      </trkpt>
      <trkpt lat="44.3284" lon="2.67028">
        <ele>752.8496094</ele>
        <time>2014-08-10T08:52:11Z</time>
      </trkpt>
      <trkpt lat="44.32833" lon="2.67029">
        <ele>753.8110352</ele>
        <time>2014-08-10T08:52:18Z</time>
      </trkpt>
      <trkpt lat="44.32828" lon="2.67029">
        <ele>755.7336426</ele>
        <time>2014-08-10T08:52:24Z</time>
      </trkpt>
      <trkpt lat="44.32824" lon="2.67025">
        <ele>757.65625</ele>
        <time>2014-08-10T08:52:29Z</time>
      </trkpt>
      <trkpt lat="44.32824" lon="2.6702">
        <ele>761.9821777</ele>
        <time>2014-08-10T08:52:33Z</time>
      </trkpt>
      <trkpt lat="44.32824" lon="2.67013">
        <ele>762.4626465</ele>
        <time>2014-08-10T08:52:37Z</time>
      </trkpt>
      <trkpt lat="44.32827" lon="2.67005">
        <ele>761.5014648</ele>
        <time>2014-08-10T08:52:41Z</time>
      </trkpt>
      <trkpt lat="44.32829" lon="2.66994">
        <ele>762.4626465</ele>
        <time>2014-08-10T08:52:48Z</time>
      </trkpt>
      <trkpt lat="44.32833" lon="2.66989">
        <ele>760.5400391</ele>
        <time>2014-08-10T08:52:53Z</time>
      </trkpt>
      <trkpt lat="44.32836" lon="2.66979">
        <ele>756.6948242</ele>
        <time>2014-08-10T08:52:59Z</time>
      </trkpt>
      <trkpt lat="44.3284" lon="2.66974">
        <ele>754.291748</ele>
        <time>2014-08-10T08:53:03Z</time>
      </trkpt>
      <trkpt lat="44.32844" lon="2.66967">
        <ele>757.65625</ele>
        <time>2014-08-10T08:53:10Z</time>
      </trkpt>
      <trkpt lat="44.3284" lon="2.66967">
        <ele>763.904541</ele>
        <time>2014-08-10T08:53:15Z</time>
      </trkpt>
      <trkpt lat="44.32831" lon="2.66967">
        <ele>768.7114258</ele>
        <time>2014-08-10T08:53:22Z</time>
      </trkpt>
      <trkpt lat="44.32827" lon="2.66968">
        <ele>769.6728516</ele>
        <time>2014-08-10T08:53:27Z</time>
      </trkpt>
      <trkpt lat="44.32821" lon="2.66968">
        <ele>771.1147461</ele>
        <time>2014-08-10T08:53:34Z</time>
      </trkpt>
      <trkpt lat="44.32814" lon="2.66969">
        <ele>774.9599609</ele>
        <time>2014-08-10T08:53:40Z</time>
      </trkpt>
      <trkpt lat="44.32806" lon="2.6697">
        <ele>777.3632813</ele>
        <time>2014-08-10T08:53:47Z</time>
      </trkpt>
      <trkpt lat="44.32803" lon="2.66969">
        <ele>779.7663574</ele>
        <time>2014-08-10T08:53:51Z</time>
      </trkpt>
      <trkpt lat="44.32802" lon="2.66969">
        <ele>780.2473145</ele>
        <time>2014-08-10T08:53:52Z</time>
      </trkpt>
      <trkpt lat="44.32797" lon="2.66962">
        <ele>779.2856445</ele>
        <time>2014-08-10T08:53:57Z</time>
      </trkpt>
      <trkpt lat="44.32797" lon="2.66959">
        <ele>779.7663574</ele>
        <time>2014-08-10T08:53:59Z</time>
      </trkpt>
      <trkpt lat="44.32796" lon="2.66951">
        <ele>782.1699219</ele>
        <time>2014-08-10T08:54:04Z</time>
      </trkpt>
      <trkpt lat="44.32803" lon="2.66941">
        <ele>782.1699219</ele>
        <time>2014-08-10T08:54:11Z</time>
      </trkpt>
      <trkpt lat="44.32809" lon="2.66935">
        <ele>782.1699219</ele>
        <time>2014-08-10T08:54:16Z</time>
      </trkpt>
      <trkpt lat="44.32812" lon="2.66928">
        <ele>781.689209</ele>
        <time>2014-08-10T08:54:20Z</time>
      </trkpt>
      <trkpt lat="44.32823" lon="2.66918">
        <ele>783.6118164</ele>
        <time>2014-08-10T08:54:28Z</time>
      </trkpt>
      <trkpt lat="44.32829" lon="2.66908">
        <ele>782.1699219</ele>
        <time>2014-08-10T08:54:35Z</time>
      </trkpt>
      <trkpt lat="44.3283" lon="2.66906">
        <ele>783.6118164</ele>
        <time>2014-08-10T08:54:37Z</time>
      </trkpt>
      <trkpt lat="44.32836" lon="2.66897">
        <ele>785.5344238</ele>
        <time>2014-08-10T08:54:43Z</time>
      </trkpt>
      <trkpt lat="44.32841" lon="2.66885">
        <ele>784.0925293</ele>
        <time>2014-08-10T08:54:50Z</time>
      </trkpt>
      <trkpt lat="44.32842" lon="2.66879">
        <ele>783.6118164</ele>
        <time>2014-08-10T08:54:53Z</time>
      </trkpt>
      <trkpt lat="44.32845" lon="2.66861">
        <ele>782.6506348</ele>
        <time>2014-08-10T08:55:01Z</time>
      </trkpt>
      <trkpt lat="44.32847" lon="2.66854">
        <ele>780.7280273</ele>
        <time>2014-08-10T08:55:04Z</time>
      </trkpt>
      <trkpt lat="44.32848" lon="2.66852">
        <ele>780.7280273</ele>
        <time>2014-08-10T08:55:05Z</time>
      </trkpt>
      <trkpt lat="44.32845" lon="2.66846">
        <ele>782.1699219</ele>
        <time>2014-08-10T08:55:09Z</time>
      </trkpt>
      <trkpt lat="44.32838" lon="2.66844">
        <ele>783.1311035</ele>
        <time>2014-08-10T08:55:12Z</time>
      </trkpt>
      <trkpt lat="44.3282" lon="2.66841">
        <ele>785.0539551</ele>
        <time>2014-08-10T08:55:19Z</time>
      </trkpt>
      <trkpt lat="44.32803" lon="2.6684">
        <ele>785.0539551</ele>
        <time>2014-08-10T08:55:25Z</time>
      </trkpt>
      <trkpt lat="44.32792" lon="2.66842">
        <ele>785.5344238</ele>
        <time>2014-08-10T08:55:30Z</time>
      </trkpt>
      <trkpt lat="44.3278" lon="2.66844">
        <ele>787.4570313</ele>
        <time>2014-08-10T08:55:35Z</time>
      </trkpt>
      <trkpt lat="44.32769" lon="2.66846">
        <ele>787.4570313</ele>
        <time>2014-08-10T08:55:40Z</time>
      </trkpt>
      <trkpt lat="44.32757" lon="2.66848">
        <ele>787.9377441</ele>
        <time>2014-08-10T08:55:45Z</time>
      </trkpt>
      <trkpt lat="44.32753" lon="2.66848">
        <ele>788.418457</ele>
        <time>2014-08-10T08:55:47Z</time>
      </trkpt>
      <trkpt lat="44.32747" lon="2.66839">
        <ele>789.3796387</ele>
        <time>2014-08-10T08:55:52Z</time>
      </trkpt>
      <trkpt lat="44.32746" lon="2.66836">
        <ele>789.3796387</ele>
        <time>2014-08-10T08:55:53Z</time>
      </trkpt>
      <trkpt lat="44.32748" lon="2.66824">
        <ele>788.8991699</ele>
        <time>2014-08-10T08:55:59Z</time>
      </trkpt>
      <trkpt lat="44.32744" lon="2.66819">
        <ele>787.9377441</ele>
        <time>2014-08-10T08:56:06Z</time>
      </trkpt>
      <trkpt lat="44.32741" lon="2.66814">
        <ele>787.9377441</ele>
        <time>2014-08-10T08:56:12Z</time>
      </trkpt>
      <trkpt lat="44.32743" lon="2.66806">
        <ele>786.0151367</ele>
        <time>2014-08-10T08:56:17Z</time>
      </trkpt>
      <trkpt lat="44.32746" lon="2.668">
        <ele>785.0539551</ele>
        <time>2014-08-10T08:56:22Z</time>
      </trkpt>
      <trkpt lat="44.32749" lon="2.66795">
        <ele>781.689209</ele>
        <time>2014-08-10T08:56:29Z</time>
      </trkpt>
      <trkpt lat="44.3275" lon="2.66792">
        <ele>781.2087402</ele>
        <time>2014-08-10T08:56:33Z</time>
      </trkpt>
      <trkpt lat="44.32752" lon="2.66786">
        <ele>780.2473145</ele>
        <time>2014-08-10T08:56:37Z</time>
      </trkpt>
      <trkpt lat="44.32753" lon="2.66781">
        <ele>780.2473145</ele>
        <time>2014-08-10T08:56:40Z</time>
      </trkpt>
      <trkpt lat="44.32757" lon="2.66772">
        <ele>780.7280273</ele>
        <time>2014-08-10T08:56:46Z</time>
      </trkpt>
      <trkpt lat="44.32757" lon="2.66764">
        <ele>780.2473145</ele>
        <time>2014-08-10T08:56:52Z</time>
      </trkpt>
      <trkpt lat="44.32757" lon="2.66758">
        <ele>782.1699219</ele>
        <time>2014-08-10T08:56:57Z</time>
      </trkpt>
      <trkpt lat="44.32757" lon="2.66756">
        <ele>782.6506348</ele>
        <time>2014-08-10T08:56:58Z</time>
      </trkpt>
      <trkpt lat="44.32756" lon="2.66749">
        <ele>783.1311035</ele>
        <time>2014-08-10T08:57:01Z</time>
      </trkpt>
      <trkpt lat="44.32755" lon="2.66737">
        <ele>784.0925293</ele>
        <time>2014-08-10T08:57:06Z</time>
      </trkpt>
      <trkpt lat="44.32757" lon="2.66732">
        <ele>785.5344238</ele>
        <time>2014-08-10T08:57:08Z</time>
      </trkpt>
      <trkpt lat="44.32768" lon="2.66722">
        <ele>784.0925293</ele>
        <time>2014-08-10T08:57:14Z</time>
      </trkpt>
      <trkpt lat="44.32779" lon="2.66715">
        <ele>785.0539551</ele>
        <time>2014-08-10T08:57:18Z</time>
      </trkpt>
      <trkpt lat="44.32791" lon="2.66712">
        <ele>786.0151367</ele>
        <time>2014-08-10T08:57:23Z</time>
      </trkpt>
      <trkpt lat="44.32793" lon="2.66711">
        <ele>787.9377441</ele>
        <time>2014-08-10T08:57:24Z</time>
      </trkpt>
      <trkpt lat="44.32804" lon="2.66706">
        <ele>792.7443848</ele>
        <time>2014-08-10T08:57:31Z</time>
      </trkpt>
      <trkpt lat="44.32812" lon="2.66705">
        <ele>800.4350586</ele>
        <time>2014-08-10T08:57:35Z</time>
      </trkpt>
      <trkpt lat="44.32822" lon="2.66701">
        <ele>810.0478516</ele>
        <time>2014-08-10T08:57:41Z</time>
      </trkpt>
      <trkpt lat="44.32829" lon="2.66692">
        <ele>809.0866699</ele>
        <time>2014-08-10T08:57:45Z</time>
      </trkpt>
      <trkpt lat="44.32839" lon="2.6668">
        <ele>805.2414551</ele>
        <time>2014-08-10T08:57:51Z</time>
      </trkpt>
      <trkpt lat="44.32848" lon="2.66666">
        <ele>797.0703125</ele>
        <time>2014-08-10T08:57:56Z</time>
      </trkpt>
      <trkpt lat="44.3286" lon="2.66656">
        <ele>798.9929199</ele>
        <time>2014-08-10T08:58:01Z</time>
      </trkpt>
      <trkpt lat="44.32863" lon="2.66655">
        <ele>799.9543457</ele>
        <time>2014-08-10T08:58:02Z</time>
      </trkpt>
      <trkpt lat="44.32879" lon="2.66647">
        <ele>797.5510254</ele>
        <time>2014-08-10T08:58:07Z</time>
      </trkpt>
      <trkpt lat="44.32883" lon="2.66643">
        <ele>798.0317383</ele>
        <time>2014-08-10T08:58:09Z</time>
      </trkpt>
      <trkpt lat="44.32887" lon="2.66639">
        <ele>797.0703125</ele>
        <time>2014-08-10T08:58:11Z</time>
      </trkpt>
      <trkpt lat="44.32903" lon="2.66635">
        <ele>799.9543457</ele>
        <time>2014-08-10T08:58:17Z</time>
      </trkpt>
      <trkpt lat="44.32908" lon="2.66633">
        <ele>798.9929199</ele>
        <time>2014-08-10T08:58:19Z</time>
      </trkpt>
      <trkpt lat="44.32919" lon="2.66631">
        <ele>796.5898438</ele>
        <time>2014-08-10T08:58:24Z</time>
      </trkpt>
      <trkpt lat="44.32928" lon="2.66628">
        <ele>795.1474609</ele>
        <time>2014-08-10T08:58:29Z</time>
      </trkpt>
      <trkpt lat="44.32937" lon="2.6662">
        <ele>796.5898438</ele>
        <time>2014-08-10T08:58:34Z</time>
      </trkpt>
      <trkpt lat="44.32949" lon="2.66614">
        <ele>796.1091309</ele>
        <time>2014-08-10T08:58:39Z</time>
      </trkpt>
      <trkpt lat="44.32959" lon="2.66607">
        <ele>791.3022461</ele>
        <time>2014-08-10T08:58:43Z</time>
      </trkpt>
      <trkpt lat="44.32977" lon="2.66601">
        <ele>785.5344238</ele>
        <time>2014-08-10T08:58:48Z</time>
      </trkpt>
      <trkpt lat="44.3299" lon="2.66593">
        <ele>774.479248</ele>
        <time>2014-08-10T08:58:53Z</time>
      </trkpt>
      <trkpt lat="44.32992" lon="2.66591">
        <ele>767.75</ele>
        <time>2014-08-10T08:58:57Z</time>
      </trkpt>
      <trkpt lat="44.32994" lon="2.66591">
        <ele>764.385498</ele>
        <time>2014-08-10T08:59:00Z</time>
      </trkpt>
      <trkpt lat="44.32999" lon="2.6659">
        <ele>752.8496094</ele>
        <time>2014-08-10T08:59:10Z</time>
      </trkpt>
      <trkpt lat="44.33013" lon="2.66586">
        <ele>747.081543</ele>
        <time>2014-08-10T08:59:16Z</time>
      </trkpt>
      <trkpt lat="44.33022" lon="2.66583">
        <ele>744.1977539</ele>
        <time>2014-08-10T08:59:19Z</time>
      </trkpt>
      <trkpt lat="44.3304" lon="2.6658">
        <ele>737.9492188</ele>
        <time>2014-08-10T08:59:25Z</time>
      </trkpt>
      <trkpt lat="44.33042" lon="2.66579">
        <ele>736.987793</ele>
        <time>2014-08-10T08:59:26Z</time>
      </trkpt>
      <trkpt lat="44.33048" lon="2.66568">
        <ele>733.623291</ele>
        <time>2014-08-10T08:59:31Z</time>
      </trkpt>
      <trkpt lat="44.33054" lon="2.66562">
        <ele>734.5847168</ele>
        <time>2014-08-10T08:59:34Z</time>
      </trkpt>
      <trkpt lat="44.3307" lon="2.6655">
        <ele>730.2585449</ele>
        <time>2014-08-10T08:59:40Z</time>
      </trkpt>
      <trkpt lat="44.33085" lon="2.66546">
        <ele>731.2199707</ele>
        <time>2014-08-10T08:59:44Z</time>
      </trkpt>
      <trkpt lat="44.33099" lon="2.66544">
        <ele>732.1813965</ele>
        <time>2014-08-10T08:59:48Z</time>
      </trkpt>
      <trkpt lat="44.33108" lon="2.66535">
        <ele>728.3359375</ele>
        <time>2014-08-10T08:59:52Z</time>
      </trkpt>
      <trkpt lat="44.33119" lon="2.66529">
        <ele>724.4907227</ele>
        <time>2014-08-10T08:59:56Z</time>
      </trkpt>
      <trkpt lat="44.33131" lon="2.66526">
        <ele>723.0488281</ele>
        <time>2014-08-10T09:00:01Z</time>
      </trkpt>
      <trkpt lat="44.33149" lon="2.6652">
        <ele>718.7229004</ele>
        <time>2014-08-10T09:00:07Z</time>
      </trkpt>
      <trkpt lat="44.3316" lon="2.66516">
        <ele>715.3581543</ele>
        <time>2014-08-10T09:00:11Z</time>
      </trkpt>
      <trkpt lat="44.33177" lon="2.66507">
        <ele>713.4355469</ele>
        <time>2014-08-10T09:00:17Z</time>
      </trkpt>
      <trkpt lat="44.33186" lon="2.66502">
        <ele>715.3581543</ele>
        <time>2014-08-10T09:00:22Z</time>
      </trkpt>
      <trkpt lat="44.33197" lon="2.66488">
        <ele>715.3581543</ele>
        <time>2014-08-10T09:00:28Z</time>
      </trkpt>
      <trkpt lat="44.33203" lon="2.66478">
        <ele>718.7229004</ele>
        <time>2014-08-10T09:00:32Z</time>
      </trkpt>
      <trkpt lat="44.33211" lon="2.66469">
        <ele>723.0488281</ele>
        <time>2014-08-10T09:00:36Z</time>
      </trkpt>
      <trkpt lat="44.33224" lon="2.66459">
        <ele>726.894043</ele>
        <time>2014-08-10T09:00:42Z</time>
      </trkpt>
      <trkpt lat="44.33237" lon="2.66453">
        <ele>729.2971191</ele>
        <time>2014-08-10T09:00:47Z</time>
      </trkpt>
      <trkpt lat="44.33249" lon="2.66448">
        <ele>725.9326172</ele>
        <time>2014-08-10T09:00:51Z</time>
      </trkpt>
      <trkpt lat="44.33258" lon="2.6645">
        <ele>726.894043</ele>
        <time>2014-08-10T09:00:55Z</time>
      </trkpt>
      <trkpt lat="44.33275" lon="2.66455">
        <ele>726.4133301</ele>
        <time>2014-08-10T09:01:02Z</time>
      </trkpt>
      <trkpt lat="44.33279" lon="2.66457">
        <ele>725.9326172</ele>
        <time>2014-08-10T09:01:03Z</time>
      </trkpt>
      <trkpt lat="44.33291" lon="2.66465">
        <ele>722.0874023</ele>
        <time>2014-08-10T09:01:08Z</time>
      </trkpt>
      <trkpt lat="44.33304" lon="2.66468">
        <ele>719.2036133</ele>
        <time>2014-08-10T09:01:14Z</time>
      </trkpt>
      <trkpt lat="44.33306" lon="2.66468">
        <ele>717.7614746</ele>
        <time>2014-08-10T09:01:16Z</time>
      </trkpt>
      <trkpt lat="44.33315" lon="2.66466">
        <ele>714.8774414</ele>
        <time>2014-08-10T09:01:24Z</time>
      </trkpt>
      <trkpt lat="44.33321" lon="2.66464">
        <ele>715.3581543</ele>
        <time>2014-08-10T09:01:31Z</time>
      </trkpt>
      <trkpt lat="44.33325" lon="2.66458">
        <ele>722.5681152</ele>
        <time>2014-08-10T09:01:37Z</time>
      </trkpt>
      <trkpt lat="44.33328" lon="2.66454">
        <ele>725.9326172</ele>
        <time>2014-08-10T09:01:42Z</time>
      </trkpt>
      <trkpt lat="44.33333" lon="2.66452">
        <ele>726.894043</ele>
        <time>2014-08-10T09:01:47Z</time>
      </trkpt>
      <trkpt lat="44.33343" lon="2.66448">
        <ele>724.0100098</ele>
        <time>2014-08-10T09:01:53Z</time>
      </trkpt>
      <trkpt lat="44.33346" lon="2.66447">
        <ele>724.0100098</ele>
        <time>2014-08-10T09:01:55Z</time>
      </trkpt>
      <trkpt lat="44.33357" lon="2.66443">
        <ele>726.4133301</ele>
        <time>2014-08-10T09:02:01Z</time>
      </trkpt>
      <trkpt lat="44.33369" lon="2.66439">
        <ele>727.8552246</ele>
        <time>2014-08-10T09:02:06Z</time>
      </trkpt>
      <trkpt lat="44.33374" lon="2.66435">
        <ele>732.1813965</ele>
        <time>2014-08-10T09:02:09Z</time>
      </trkpt>
      <trkpt lat="44.33386" lon="2.66431">
        <ele>735.0654297</ele>
        <time>2014-08-10T09:02:15Z</time>
      </trkpt>
      <trkpt lat="44.33399" lon="2.66431">
        <ele>731.2199707</ele>
        <time>2014-08-10T09:02:20Z</time>
      </trkpt>
      <trkpt lat="44.33412" lon="2.66433">
        <ele>728.3359375</ele>
        <time>2014-08-10T09:02:26Z</time>
      </trkpt>
      <trkpt lat="44.33423" lon="2.66432">
        <ele>725.4519043</ele>
        <time>2014-08-10T09:02:30Z</time>
      </trkpt>
      <trkpt lat="44.33435" lon="2.66436">
        <ele>728.3359375</ele>
        <time>2014-08-10T09:02:35Z</time>
      </trkpt>
      <trkpt lat="44.33445" lon="2.66439">
        <ele>731.2199707</ele>
        <time>2014-08-10T09:02:40Z</time>
      </trkpt>
      <trkpt lat="44.3346" lon="2.66446">
        <ele>728.3359375</ele>
        <time>2014-08-10T09:02:46Z</time>
      </trkpt>
      <trkpt lat="44.3347" lon="2.66455">
        <ele>721.6066895</ele>
        <time>2014-08-10T09:02:51Z</time>
      </trkpt>
      <trkpt lat="44.33473" lon="2.66459">
        <ele>720.6455078</ele>
        <time>2014-08-10T09:02:53Z</time>
      </trkpt>
      <trkpt lat="44.33477" lon="2.66465">
        <ele>720.6455078</ele>
        <time>2014-08-10T09:02:56Z</time>
      </trkpt>
      <trkpt lat="44.3348" lon="2.66458">
        <ele>720.1647949</ele>
        <time>2014-08-10T09:03:00Z</time>
      </trkpt>
      <trkpt lat="44.33482" lon="2.66445">
        <ele>716.3195801</ele>
        <time>2014-08-10T09:03:04Z</time>
      </trkpt>
      <trkpt lat="44.33481" lon="2.66438">
        <ele>714.8774414</ele>
        <time>2014-08-10T09:03:06Z</time>
      </trkpt>
      <trkpt lat="44.33483" lon="2.66422">
        <ele>711.9936523</ele>
        <time>2014-08-10T09:03:11Z</time>
      </trkpt>
      <trkpt lat="44.33483" lon="2.66412">
        <ele>710.5515137</ele>
        <time>2014-08-10T09:03:15Z</time>
      </trkpt>
      <trkpt lat="44.33481" lon="2.66407">
        <ele>710.5515137</ele>
        <time>2014-08-10T09:03:17Z</time>
      </trkpt>
      <trkpt lat="44.33477" lon="2.66391">
        <ele>712.4741211</ele>
        <time>2014-08-10T09:03:22Z</time>
      </trkpt>
      <trkpt lat="44.33475" lon="2.66377">
        <ele>718.7229004</ele>
        <time>2014-08-10T09:03:26Z</time>
      </trkpt>
      <trkpt lat="44.33483" lon="2.66378">
        <ele>726.4133301</ele>
        <time>2014-08-10T09:03:30Z</time>
      </trkpt>
      <trkpt lat="44.33492" lon="2.66386">
        <ele>729.777832</ele>
        <time>2014-08-10T09:03:34Z</time>
      </trkpt>
      <trkpt lat="44.33494" lon="2.66388">
        <ele>729.2971191</ele>
        <time>2014-08-10T09:03:35Z</time>
      </trkpt>
      <trkpt lat="44.33509" lon="2.66395">
        <ele>724.4907227</ele>
        <time>2014-08-10T09:03:40Z</time>
      </trkpt>
      <trkpt lat="44.33516" lon="2.66396">
        <ele>725.4519043</ele>
        <time>2014-08-10T09:03:43Z</time>
      </trkpt>
      <trkpt lat="44.33525" lon="2.66403">
        <ele>720.1647949</ele>
        <time>2014-08-10T09:03:46Z</time>
      </trkpt>
      <trkpt lat="44.33533" lon="2.66407">
        <ele>714.8774414</ele>
        <time>2014-08-10T09:03:48Z</time>
      </trkpt>
      <trkpt lat="44.33552" lon="2.66419">
        <ele>702.3803711</ele>
        <time>2014-08-10T09:03:54Z</time>
      </trkpt>
      <trkpt lat="44.33555" lon="2.66421">
        <ele>701.4191895</ele>
        <time>2014-08-10T09:03:55Z</time>
      </trkpt>
      <trkpt lat="44.33564" lon="2.66435">
        <ele>695.1704102</ele>
        <time>2014-08-10T09:03:59Z</time>
      </trkpt>
      <trkpt lat="44.33576" lon="2.66457">
        <ele>690.3640137</ele>
        <time>2014-08-10T09:04:05Z</time>
      </trkpt>
      <trkpt lat="44.33575" lon="2.66475">
        <ele>690.8444824</ele>
        <time>2014-08-10T09:04:09Z</time>
      </trkpt>
      <trkpt lat="44.33566" lon="2.66496">
        <ele>691.8059082</ele>
        <time>2014-08-10T09:04:14Z</time>
      </trkpt>
      <trkpt lat="44.33557" lon="2.66516">
        <ele>694.2092285</ele>
        <time>2014-08-10T09:04:19Z</time>
      </trkpt>
      <trkpt lat="44.33547" lon="2.66534">
        <ele>696.6125488</ele>
        <time>2014-08-10T09:04:24Z</time>
      </trkpt>
      <trkpt lat="44.33539" lon="2.66554">
        <ele>697.5737305</ele>
        <time>2014-08-10T09:04:29Z</time>
      </trkpt>
      <trkpt lat="44.33532" lon="2.66572">
        <ele>695.651123</ele>
        <time>2014-08-10T09:04:34Z</time>
      </trkpt>
      <trkpt lat="44.33525" lon="2.6659">
        <ele>697.0930176</ele>
        <time>2014-08-10T09:04:39Z</time>
      </trkpt>
      <trkpt lat="44.33516" lon="2.66619">
        <ele>698.0544434</ele>
        <time>2014-08-10T09:04:46Z</time>
      </trkpt>
      <trkpt lat="44.3351" lon="2.66634">
        <ele>698.0544434</ele>
        <time>2014-08-10T09:04:50Z</time>
      </trkpt>
      <trkpt lat="44.33509" lon="2.66638">
        <ele>698.5349121</ele>
        <time>2014-08-10T09:04:51Z</time>
      </trkpt>
      <trkpt lat="44.33498" lon="2.66664">
        <ele>694.6896973</ele>
        <time>2014-08-10T09:04:58Z</time>
      </trkpt>
      <trkpt lat="44.3349" lon="2.66682">
        <ele>690.3640137</ele>
        <time>2014-08-10T09:05:03Z</time>
      </trkpt>
      <trkpt lat="44.33485" lon="2.66701">
        <ele>687.4799805</ele>
        <time>2014-08-10T09:05:08Z</time>
      </trkpt>
      <trkpt lat="44.33477" lon="2.66717">
        <ele>683.6345215</ele>
        <time>2014-08-10T09:05:13Z</time>
      </trkpt>
      <trkpt lat="44.33468" lon="2.66729">
        <ele>682.192627</ele>
        <time>2014-08-10T09:05:17Z</time>
      </trkpt>
      <trkpt lat="44.33461" lon="2.66743">
        <ele>683.6345215</ele>
        <time>2014-08-10T09:05:21Z</time>
      </trkpt>
      <trkpt lat="44.33462" lon="2.66757">
        <ele>674.9829102</ele>
        <time>2014-08-10T09:05:26Z</time>
      </trkpt>
      <trkpt lat="44.33464" lon="2.66768">
        <ele>672.098877</ele>
        <time>2014-08-10T09:05:29Z</time>
      </trkpt>
      <trkpt lat="44.33462" lon="2.66782">
        <ele>670.6569824</ele>
        <time>2014-08-10T09:05:33Z</time>
      </trkpt>
      <trkpt lat="44.33468" lon="2.66784">
        <ele>669.6958008</ele>
        <time>2014-08-10T09:05:38Z</time>
      </trkpt>
      <trkpt lat="44.33468" lon="2.66776">
        <ele>668.2536621</ele>
        <time>2014-08-10T09:05:40Z</time>
      </trkpt>
      <trkpt lat="44.33469" lon="2.66759">
        <ele>666.8115234</ele>
        <time>2014-08-10T09:05:45Z</time>
      </trkpt>
      <trkpt lat="44.33473" lon="2.66746">
        <ele>666.3308105</ele>
        <time>2014-08-10T09:05:49Z</time>
      </trkpt>
      <trkpt lat="44.33482" lon="2.66735">
        <ele>672.098877</ele>
        <time>2014-08-10T09:05:54Z</time>
      </trkpt>
      <trkpt lat="44.33487" lon="2.66729">
        <ele>677.3862305</ele>
        <time>2014-08-10T09:05:57Z</time>
      </trkpt>
      <trkpt lat="44.33496" lon="2.66714">
        <ele>682.192627</ele>
        <time>2014-08-10T09:06:02Z</time>
      </trkpt>
      <trkpt lat="44.33502" lon="2.66702">
        <ele>685.557373</ele>
        <time>2014-08-10T09:06:06Z</time>
      </trkpt>
      <trkpt lat="44.33507" lon="2.6669">
        <ele>693.2478027</ele>
        <time>2014-08-10T09:06:10Z</time>
      </trkpt>
      <trkpt lat="44.33516" lon="2.66675">
        <ele>699.015625</ele>
        <time>2014-08-10T09:06:15Z</time>
      </trkpt>
      <trkpt lat="44.33525" lon="2.6666">
        <ele>702.861084</ele>
        <time>2014-08-10T09:06:20Z</time>
      </trkpt>
      <trkpt lat="44.33536" lon="2.66645">
        <ele>708.6289063</ele>
        <time>2014-08-10T09:06:25Z</time>
      </trkpt>
      <trkpt lat="44.33546" lon="2.66633">
        <ele>705.7451172</ele>
        <time>2014-08-10T09:06:30Z</time>
      </trkpt>
      <trkpt lat="44.33557" lon="2.66623">
        <ele>703.8225098</ele>
        <time>2014-08-10T09:06:34Z</time>
      </trkpt>
      <trkpt lat="44.33573" lon="2.6661">
        <ele>694.2092285</ele>
        <time>2014-08-10T09:06:39Z</time>
      </trkpt>
      <trkpt lat="44.33587" lon="2.66595">
        <ele>685.0769043</ele>
        <time>2014-08-10T09:06:44Z</time>
      </trkpt>
      <trkpt lat="44.33595" lon="2.66581">
        <ele>672.5795898</ele>
        <time>2014-08-10T09:06:48Z</time>
      </trkpt>
      <trkpt lat="44.33602" lon="2.66565">
        <ele>662.9663086</ele>
        <time>2014-08-10T09:06:52Z</time>
      </trkpt>
      <trkpt lat="44.33607" lon="2.6655">
        <ele>655.2758789</ele>
        <time>2014-08-10T09:06:56Z</time>
      </trkpt>
      <trkpt lat="44.33617" lon="2.66533">
        <ele>652.3918457</ele>
        <time>2014-08-10T09:07:01Z</time>
      </trkpt>
      <trkpt lat="44.33627" lon="2.66523">
        <ele>653.8339844</ele>
        <time>2014-08-10T09:07:05Z</time>
      </trkpt>
      <trkpt lat="44.33638" lon="2.66516">
        <ele>654.3146973</ele>
        <time>2014-08-10T09:07:09Z</time>
      </trkpt>
      <trkpt lat="44.33653" lon="2.6651">
        <ele>651.4304199</ele>
        <time>2014-08-10T09:07:14Z</time>
      </trkpt>
      <trkpt lat="44.33667" lon="2.66504">
        <ele>651.9111328</ele>
        <time>2014-08-10T09:07:19Z</time>
      </trkpt>
      <trkpt lat="44.33676" lon="2.66499">
        <ele>653.8339844</ele>
        <time>2014-08-10T09:07:23Z</time>
      </trkpt>
      <trkpt lat="44.33686" lon="2.66491">
        <ele>656.2370605</ele>
        <time>2014-08-10T09:07:27Z</time>
      </trkpt>
      <trkpt lat="44.33698" lon="2.66483">
        <ele>657.1984863</ele>
        <time>2014-08-10T09:07:32Z</time>
      </trkpt>
      <trkpt lat="44.33706" lon="2.66468">
        <ele>656.2370605</ele>
        <time>2014-08-10T09:07:37Z</time>
      </trkpt>
      <trkpt lat="44.33708" lon="2.66465">
        <ele>655.2758789</ele>
        <time>2014-08-10T09:07:38Z</time>
      </trkpt>
      <trkpt lat="44.33704" lon="2.66447">
        <ele>644.7011719</ele>
        <time>2014-08-10T09:07:43Z</time>
      </trkpt>
      <trkpt lat="44.337" lon="2.66442">
        <ele>641.3366699</ele>
        <time>2014-08-10T09:07:45Z</time>
      </trkpt>
      <trkpt lat="44.33693" lon="2.66429">
        <ele>637.972168</ele>
        <time>2014-08-10T09:07:50Z</time>
      </trkpt>
      <trkpt lat="44.33681" lon="2.66415">
        <ele>639.8947754</ele>
        <time>2014-08-10T09:07:55Z</time>
      </trkpt>
      <trkpt lat="44.33669" lon="2.66402">
        <ele>640.855957</ele>
        <time>2014-08-10T09:08:00Z</time>
      </trkpt>
      <trkpt lat="44.33657" lon="2.66394">
        <ele>648.5463867</ele>
        <time>2014-08-10T09:08:06Z</time>
      </trkpt>
      <trkpt lat="44.33654" lon="2.66386">
        <ele>653.3532715</ele>
        <time>2014-08-10T09:08:11Z</time>
      </trkpt>
      <trkpt lat="44.33647" lon="2.6637">
        <ele>654.795166</ele>
        <time>2014-08-10T09:08:16Z</time>
      </trkpt>
      <trkpt lat="44.33646" lon="2.66353">
        <ele>650.4692383</ele>
        <time>2014-08-10T09:08:20Z</time>
      </trkpt>
      <trkpt lat="44.33644" lon="2.66341">
        <ele>647.5852051</ele>
        <time>2014-08-10T09:08:23Z</time>
      </trkpt>
      <trkpt lat="44.33634" lon="2.66323">
        <ele>639.8947754</ele>
        <time>2014-08-10T09:08:28Z</time>
      </trkpt>
      <trkpt lat="44.33629" lon="2.66309">
        <ele>637.0107422</ele>
        <time>2014-08-10T09:08:32Z</time>
      </trkpt>
      <trkpt lat="44.33634" lon="2.66306">
        <ele>631.2429199</ele>
        <time>2014-08-10T09:08:35Z</time>
      </trkpt>
      <trkpt lat="44.33647" lon="2.66316">
        <ele>623.5524902</ele>
        <time>2014-08-10T09:08:39Z</time>
      </trkpt>
      <trkpt lat="44.3366" lon="2.66324">
        <ele>618.2648926</ele>
        <time>2014-08-10T09:08:42Z</time>
      </trkpt>
      <trkpt lat="44.33674" lon="2.66334">
        <ele>619.7070313</ele>
        <time>2014-08-10T09:08:46Z</time>
      </trkpt>
      <trkpt lat="44.33682" lon="2.66345">
        <ele>624.9943848</ele>
        <time>2014-08-10T09:08:51Z</time>
      </trkpt>
      <trkpt lat="44.33687" lon="2.66354">
        <ele>630.762207</ele>
        <time>2014-08-10T09:08:55Z</time>
      </trkpt>
      <trkpt lat="44.33691" lon="2.66356">
        <ele>633.1652832</ele>
        <time>2014-08-10T09:08:57Z</time>
      </trkpt>
      <trkpt lat="44.33699" lon="2.66366">
        <ele>637.972168</ele>
        <time>2014-08-10T09:09:02Z</time>
      </trkpt>
      <trkpt lat="44.33717" lon="2.66372">
        <ele>635.0881348</ele>
        <time>2014-08-10T09:09:08Z</time>
      </trkpt>
      <trkpt lat="44.33729" lon="2.66377">
        <ele>635.0881348</ele>
        <time>2014-08-10T09:09:12Z</time>
      </trkpt>
      <trkpt lat="44.33739" lon="2.66388">
        <ele>639.8947754</ele>
        <time>2014-08-10T09:09:17Z</time>
      </trkpt>
      <trkpt lat="44.3375" lon="2.66397">
        <ele>640.855957</ele>
        <time>2014-08-10T09:09:22Z</time>
      </trkpt>
      <trkpt lat="44.3376" lon="2.6641">
        <ele>638.9335938</ele>
        <time>2014-08-10T09:09:27Z</time>
      </trkpt>
      <trkpt lat="44.33761" lon="2.66412">
        <ele>637.972168</ele>
        <time>2014-08-10T09:09:28Z</time>
      </trkpt>
      <trkpt lat="44.33778" lon="2.66421">
        <ele>630.2814941</ele>
        <time>2014-08-10T09:09:34Z</time>
      </trkpt>
      <trkpt lat="44.3379" lon="2.66428">
        <ele>630.2814941</ele>
        <time>2014-08-10T09:09:38Z</time>
      </trkpt>
      <trkpt lat="44.33793" lon="2.66429">
        <ele>632.2041016</ele>
        <time>2014-08-10T09:09:40Z</time>
      </trkpt>
      <trkpt lat="44.33801" lon="2.66426">
        <ele>639.4140625</ele>
        <time>2014-08-10T09:09:45Z</time>
      </trkpt>
      <trkpt lat="44.33809" lon="2.66425">
        <ele>644.2207031</ele>
        <time>2014-08-10T09:09:49Z</time>
      </trkpt>
      <trkpt lat="44.3382" lon="2.6643">
        <ele>653.8339844</ele>
        <time>2014-08-10T09:09:55Z</time>
      </trkpt>
      <trkpt lat="44.33822" lon="2.66431">
        <ele>656.7177734</ele>
        <time>2014-08-10T09:09:56Z</time>
      </trkpt>
      <trkpt lat="44.3383" lon="2.66428">
        <ele>672.098877</ele>
        <time>2014-08-10T09:10:01Z</time>
      </trkpt>
      <trkpt lat="44.33837" lon="2.66426">
        <ele>682.192627</ele>
        <time>2014-08-10T09:10:05Z</time>
      </trkpt>
      <trkpt lat="44.33858" lon="2.66419">
        <ele>684.1154785</ele>
        <time>2014-08-10T09:10:12Z</time>
      </trkpt>
      <trkpt lat="44.33866" lon="2.66417">
        <ele>687.4799805</ele>
        <time>2014-08-10T09:10:16Z</time>
      </trkpt>
      <trkpt lat="44.33882" lon="2.66409">
        <ele>687.4799805</ele>
        <time>2014-08-10T09:10:21Z</time>
      </trkpt>
      <trkpt lat="44.3389" lon="2.66406">
        <ele>689.8833008</ele>
        <time>2014-08-10T09:10:25Z</time>
      </trkpt>
      <trkpt lat="44.33902" lon="2.66399">
        <ele>686.9992676</ele>
        <time>2014-08-10T09:10:30Z</time>
      </trkpt>
      <trkpt lat="44.33919" lon="2.66395">
        <ele>688.4414063</ele>
        <time>2014-08-10T09:10:35Z</time>
      </trkpt>
      <trkpt lat="44.3393" lon="2.66392">
        <ele>694.2092285</ele>
        <time>2014-08-10T09:10:41Z</time>
      </trkpt>
      <trkpt lat="44.33948" lon="2.66387">
        <ele>693.7285156</ele>
        <time>2014-08-10T09:10:47Z</time>
      </trkpt>
      <trkpt lat="44.33959" lon="2.66387">
        <ele>691.8059082</ele>
        <time>2014-08-10T09:10:50Z</time>
      </trkpt>
      <trkpt lat="44.33972" lon="2.66387">
        <ele>683.1538086</ele>
        <time>2014-08-10T09:10:56Z</time>
      </trkpt>
      <trkpt lat="44.33978" lon="2.66386">
        <ele>678.828125</ele>
        <time>2014-08-10T09:10:58Z</time>
      </trkpt>
      <trkpt lat="44.33992" lon="2.6639">
        <ele>672.5795898</ele>
        <time>2014-08-10T09:11:03Z</time>
      </trkpt>
      <trkpt lat="44.34004" lon="2.6639">
        <ele>664.888916</ele>
        <time>2014-08-10T09:11:07Z</time>
      </trkpt>
      <trkpt lat="44.34009" lon="2.66388">
        <ele>665.3696289</ele>
        <time>2014-08-10T09:11:10Z</time>
      </trkpt>
      <trkpt lat="44.34023" lon="2.66384">
        <ele>660.0822754</ele>
        <time>2014-08-10T09:11:16Z</time>
      </trkpt>
      <trkpt lat="44.34035" lon="2.6638">
        <ele>652.8725586</ele>
        <time>2014-08-10T09:11:21Z</time>
      </trkpt>
      <trkpt lat="44.34043" lon="2.66378">
        <ele>644.7011719</ele>
        <time>2014-08-10T09:11:26Z</time>
      </trkpt>
      <trkpt lat="44.34058" lon="2.66377">
        <ele>638.4528809</ele>
        <time>2014-08-10T09:11:33Z</time>
      </trkpt>
      <trkpt lat="44.34061" lon="2.66376">
        <ele>636.0495605</ele>
        <time>2014-08-10T09:11:34Z</time>
      </trkpt>
      <trkpt lat="44.34071" lon="2.66376">
        <ele>625.9555664</ele>
        <time>2014-08-10T09:11:40Z</time>
      </trkpt>
      <trkpt lat="44.34081" lon="2.66371">
        <ele>617.3037109</ele>
        <time>2014-08-10T09:11:45Z</time>
      </trkpt>
      <trkpt lat="44.34088" lon="2.66367">
        <ele>615.8618164</ele>
        <time>2014-08-10T09:11:51Z</time>
      </trkpt>
      <trkpt lat="44.34091" lon="2.66364">
        <ele>620.1877441</ele>
        <time>2014-08-10T09:11:55Z</time>
      </trkpt>
      <trkpt lat="44.34096" lon="2.66359">
        <ele>619.7070313</ele>
        <time>2014-08-10T09:11:59Z</time>
      </trkpt>
      <trkpt lat="44.34103" lon="2.6635">
        <ele>619.2263184</ele>
        <time>2014-08-10T09:12:06Z</time>
      </trkpt>
      <trkpt lat="44.34109" lon="2.66341">
        <ele>615.8618164</ele>
        <time>2014-08-10T09:12:14Z</time>
      </trkpt>
      <trkpt lat="44.34111" lon="2.66335">
        <ele>619.7070313</ele>
        <time>2014-08-10T09:12:20Z</time>
      </trkpt>
      <trkpt lat="44.34115" lon="2.66329">
        <ele>624.5136719</ele>
        <time>2014-08-10T09:12:26Z</time>
      </trkpt>
      <trkpt lat="44.34121" lon="2.66321">
        <ele>627.8781738</ele>
        <time>2014-08-10T09:12:32Z</time>
      </trkpt>
      <trkpt lat="44.34124" lon="2.66314">
        <ele>628.3588867</ele>
        <time>2014-08-10T09:12:37Z</time>
      </trkpt>
      <trkpt lat="44.34127" lon="2.66308">
        <ele>625.9555664</ele>
        <time>2014-08-10T09:12:43Z</time>
      </trkpt>
      <trkpt lat="44.34132" lon="2.66302">
        <ele>624.9943848</ele>
        <time>2014-08-10T09:12:49Z</time>
      </trkpt>
      <trkpt lat="44.34138" lon="2.66296">
        <ele>625.4748535</ele>
        <time>2014-08-10T09:12:55Z</time>
      </trkpt>
      <trkpt lat="44.34141" lon="2.66291">
        <ele>623.0717773</ele>
        <time>2014-08-10T09:13:00Z</time>
      </trkpt>
      <trkpt lat="44.34144" lon="2.66287">
        <ele>621.1491699</ele>
        <time>2014-08-10T09:13:04Z</time>
      </trkpt>
      <trkpt lat="44.34149" lon="2.66281">
        <ele>623.0717773</ele>
        <time>2014-08-10T09:13:10Z</time>
      </trkpt>
      <trkpt lat="44.34153" lon="2.66278">
        <ele>623.0717773</ele>
        <time>2014-08-10T09:13:13Z</time>
      </trkpt>
      <trkpt lat="44.34159" lon="2.66272">
        <ele>625.9555664</ele>
        <time>2014-08-10T09:13:19Z</time>
      </trkpt>
      <trkpt lat="44.34165" lon="2.66264">
        <ele>624.5136719</ele>
        <time>2014-08-10T09:13:26Z</time>
      </trkpt>
      <trkpt lat="44.34169" lon="2.6626">
        <ele>625.9555664</ele>
        <time>2014-08-10T09:13:30Z</time>
      </trkpt>
      <trkpt lat="44.34171" lon="2.66259">
        <ele>626.9169922</ele>
        <time>2014-08-10T09:13:32Z</time>
      </trkpt>
      <trkpt lat="44.34175" lon="2.66255">
        <ele>631.7233887</ele>
        <time>2014-08-10T09:13:38Z</time>
      </trkpt>
      <trkpt lat="44.34179" lon="2.66252">
        <ele>628.3588867</ele>
        <time>2014-08-10T09:13:59Z</time>
      </trkpt>
      <trkpt lat="44.34178" lon="2.66257">
        <ele>633.6459961</ele>
        <time>2014-08-10T09:14:11Z</time>
      </trkpt>
      <trkpt lat="44.34181" lon="2.66251">
        <ele>635.0881348</ele>
        <time>2014-08-10T09:14:20Z</time>
      </trkpt>
      <trkpt lat="44.34185" lon="2.66247">
        <ele>634.126709</ele>
        <time>2014-08-10T09:14:25Z</time>
      </trkpt>
      <trkpt lat="44.34188" lon="2.66244">
        <ele>631.7233887</ele>
        <time>2014-08-10T09:14:27Z</time>
      </trkpt>
      <trkpt lat="44.34191" lon="2.66242">
        <ele>632.6848145</ele>
        <time>2014-08-10T09:14:30Z</time>
      </trkpt>
      <trkpt lat="44.34198" lon="2.66236">
        <ele>634.126709</ele>
        <time>2014-08-10T09:14:37Z</time>
      </trkpt>
      <trkpt lat="44.342" lon="2.66234">
        <ele>633.6459961</ele>
        <time>2014-08-10T09:14:39Z</time>
      </trkpt>
      <trkpt lat="44.34204" lon="2.66231">
        <ele>635.0881348</ele>
        <time>2014-08-10T09:14:43Z</time>
      </trkpt>
      <trkpt lat="44.3421" lon="2.66225">
        <ele>636.5302734</ele>
        <time>2014-08-10T09:14:48Z</time>
      </trkpt>
      <trkpt lat="44.34215" lon="2.66221">
        <ele>637.4914551</ele>
        <time>2014-08-10T09:14:52Z</time>
      </trkpt>
      <trkpt lat="44.34222" lon="2.66214">
        <ele>640.3754883</ele>
        <time>2014-08-10T09:14:59Z</time>
      </trkpt>
      <trkpt lat="44.34229" lon="2.66202">
        <ele>640.3754883</ele>
        <time>2014-08-10T09:15:07Z</time>
      </trkpt>
      <trkpt lat="44.34234" lon="2.66193">
        <ele>639.8947754</ele>
        <time>2014-08-10T09:15:12Z</time>
      </trkpt>
      <trkpt lat="44.34239" lon="2.66187">
        <ele>640.855957</ele>
        <time>2014-08-10T09:15:17Z</time>
      </trkpt>
      <trkpt lat="44.34244" lon="2.6618">
        <ele>644.2207031</ele>
        <time>2014-08-10T09:15:22Z</time>
      </trkpt>
      <trkpt lat="44.34245" lon="2.66181">
        <ele>641.8173828</ele>
        <time>2014-08-10T09:15:29Z</time>
      </trkpt>
      <trkpt lat="44.34248" lon="2.66175">
        <ele>643.7399902</ele>
        <time>2014-08-10T09:15:42Z</time>
      </trkpt>
      <trkpt lat="44.34251" lon="2.66173">
        <ele>643.7399902</ele>
        <time>2014-08-10T09:15:50Z</time>
      </trkpt>
      <trkpt lat="44.3425" lon="2.66172">
        <ele>643.2592773</ele>
        <time>2014-08-10T09:16:02Z</time>
      </trkpt>
      <trkpt lat="44.34246" lon="2.66182">
        <ele>647.1044922</ele>
        <time>2014-08-10T09:16:08Z</time>
      </trkpt>
      <trkpt lat="44.34238" lon="2.66198">
        <ele>649.0270996</ele>
        <time>2014-08-10T09:16:13Z</time>
      </trkpt>
      <trkpt lat="44.34228" lon="2.66214">
        <ele>651.4304199</ele>
        <time>2014-08-10T09:16:18Z</time>
      </trkpt>
      <trkpt lat="44.34216" lon="2.66232">
        <ele>651.4304199</ele>
        <time>2014-08-10T09:16:24Z</time>
      </trkpt>
      <trkpt lat="44.34215" lon="2.66235">
        <ele>651.4304199</ele>
        <time>2014-08-10T09:16:25Z</time>
      </trkpt>
      <trkpt lat="44.34203" lon="2.66241">
        <ele>648.065918</ele>
        <time>2014-08-10T09:16:30Z</time>
      </trkpt>
      <trkpt lat="44.34201" lon="2.66242">
        <ele>647.5852051</ele>
        <time>2014-08-10T09:16:31Z</time>
      </trkpt>
      <trkpt lat="44.34189" lon="2.66252">
        <ele>644.2207031</ele>
        <time>2014-08-10T09:16:36Z</time>
      </trkpt>
      <trkpt lat="44.34177" lon="2.66262">
        <ele>642.2980957</ele>
        <time>2014-08-10T09:16:41Z</time>
      </trkpt>
      <trkpt lat="44.34171" lon="2.66264">
        <ele>640.3754883</ele>
        <time>2014-08-10T09:16:44Z</time>
      </trkpt>
      <trkpt lat="44.34165" lon="2.66271">
        <ele>637.972168</ele>
        <time>2014-08-10T09:16:48Z</time>
      </trkpt>
      <trkpt lat="44.34157" lon="2.66283">
        <ele>636.5302734</ele>
        <time>2014-08-10T09:16:54Z</time>
      </trkpt>
      <trkpt lat="44.34148" lon="2.66295">
        <ele>636.5302734</ele>
        <time>2014-08-10T09:16:59Z</time>
      </trkpt>
      <trkpt lat="44.34142" lon="2.66303">
        <ele>634.6074219</ele>
        <time>2014-08-10T09:17:03Z</time>
      </trkpt>
      <trkpt lat="44.34139" lon="2.66306">
        <ele>632.2041016</ele>
        <time>2014-08-10T09:17:14Z</time>
      </trkpt>
      <trkpt lat="44.34136" lon="2.66309">
        <ele>629.8007813</ele>
        <time>2014-08-10T09:17:19Z</time>
      </trkpt>
      <trkpt lat="44.34137" lon="2.66308">
        <ele>627.3977051</ele>
        <time>2014-08-10T09:17:29Z</time>
      </trkpt>
      <trkpt lat="44.34138" lon="2.66302">
        <ele>627.8781738</ele>
        <time>2014-08-10T09:17:37Z</time>
      </trkpt>
      <trkpt lat="44.34142" lon="2.66292">
        <ele>629.8007813</ele>
        <time>2014-08-10T09:17:43Z</time>
      </trkpt>
      <trkpt lat="44.34143" lon="2.6629">
        <ele>630.762207</ele>
        <time>2014-08-10T09:17:44Z</time>
      </trkpt>
      <trkpt lat="44.34144" lon="2.66287">
        <ele>631.7233887</ele>
        <time>2014-08-10T09:17:46Z</time>
      </trkpt>
      <trkpt lat="44.34145" lon="2.66283">
        <ele>631.7233887</ele>
        <time>2014-08-10T09:17:48Z</time>
      </trkpt>
      <trkpt lat="44.34151" lon="2.66273">
        <ele>633.6459961</ele>
        <time>2014-08-10T09:17:54Z</time>
      </trkpt>
      <trkpt lat="44.34156" lon="2.66268">
        <ele>636.0495605</ele>
        <time>2014-08-10T09:17:58Z</time>
      </trkpt>
      <trkpt lat="44.3416" lon="2.66264">
        <ele>636.5302734</ele>
        <time>2014-08-10T09:18:01Z</time>
      </trkpt>
      <trkpt lat="44.34166" lon="2.6626">
        <ele>633.6459961</ele>
        <time>2014-08-10T09:18:05Z</time>
      </trkpt>
      <trkpt lat="44.34173" lon="2.66255">
        <ele>632.2041016</ele>
        <time>2014-08-10T09:18:10Z</time>
      </trkpt>
      <trkpt lat="44.34178" lon="2.66255">
        <ele>631.7233887</ele>
        <time>2014-08-10T09:18:16Z</time>
      </trkpt>
      <trkpt lat="44.34186" lon="2.66259">
        <ele>629.3200684</ele>
        <time>2014-08-10T09:18:41Z</time>
      </trkpt>
      <trkpt lat="44.34187" lon="2.66254">
        <ele>630.762207</ele>
        <time>2014-08-10T09:18:49Z</time>
      </trkpt>
      <trkpt lat="44.34188" lon="2.6625">
        <ele>630.762207</ele>
        <time>2014-08-10T09:18:53Z</time>
      </trkpt>
      <trkpt lat="44.34188" lon="2.66248">
        <ele>632.2041016</ele>
        <time>2014-08-10T09:18:58Z</time>
      </trkpt>
      <trkpt lat="44.34188" lon="2.66245">
        <ele>633.1652832</ele>
        <time>2014-08-10T09:19:03Z</time>
      </trkpt>
      <trkpt lat="44.34192" lon="2.66241">
        <ele>635.0881348</ele>
        <time>2014-08-10T09:19:07Z</time>
      </trkpt>
      <trkpt lat="44.34199" lon="2.66236">
        <ele>638.4528809</ele>
        <time>2014-08-10T09:19:12Z</time>
      </trkpt>
      <trkpt lat="44.34201" lon="2.66234">
        <ele>638.4528809</ele>
        <time>2014-08-10T09:19:13Z</time>
      </trkpt>
      <trkpt lat="44.34208" lon="2.66227">
        <ele>640.855957</ele>
        <time>2014-08-10T09:19:18Z</time>
      </trkpt>
      <trkpt lat="44.34215" lon="2.66219">
        <ele>639.8947754</ele>
        <time>2014-08-10T09:19:23Z</time>
      </trkpt>
      <trkpt lat="44.34222" lon="2.66214">
        <ele>643.7399902</ele>
        <time>2014-08-10T09:19:28Z</time>
      </trkpt>
      <trkpt lat="44.34225" lon="2.66208">
        <ele>643.2592773</ele>
        <time>2014-08-10T09:19:31Z</time>
      </trkpt>
      <trkpt lat="44.34231" lon="2.66202">
        <ele>645.6625977</ele>
        <time>2014-08-10T09:19:37Z</time>
      </trkpt>
      <trkpt lat="44.34236" lon="2.66193">
        <ele>644.2207031</ele>
        <time>2014-08-10T09:19:42Z</time>
      </trkpt>
      <trkpt lat="44.34242" lon="2.66184">
        <ele>643.2592773</ele>
        <time>2014-08-10T09:19:48Z</time>
      </trkpt>
      <trkpt lat="44.34245" lon="2.6618">
        <ele>639.8947754</ele>
        <time>2014-08-10T09:19:55Z</time>
      </trkpt>
      <trkpt lat="44.34251" lon="2.66173">
        <ele>636.5302734</ele>
        <time>2014-08-10T09:20:05Z</time>
      </trkpt>
      <trkpt lat="44.34251" lon="2.66167">
        <ele>632.2041016</ele>
        <time>2014-08-10T09:20:11Z</time>
      </trkpt>
      <trkpt lat="44.34249" lon="2.66165">
        <ele>636.5302734</ele>
        <time>2014-08-10T09:20:24Z</time>
      </trkpt>
      <trkpt lat="44.34249" lon="2.66172">
        <ele>637.972168</ele>
        <time>2014-08-10T09:20:34Z</time>
      </trkpt>
      <trkpt lat="44.34246" lon="2.66178">
        <ele>641.3366699</ele>
        <time>2014-08-10T09:20:40Z</time>
      </trkpt>
      <trkpt lat="44.34252" lon="2.66174">
        <ele>643.2592773</ele>
        <time>2014-08-10T09:21:02Z</time>
      </trkpt>
      <trkpt lat="44.34255" lon="2.6618">
        <ele>652.3918457</ele>
        <time>2014-08-10T09:21:14Z</time>
      </trkpt>
      <trkpt lat="44.34252" lon="2.66178">
        <ele>650.949707</ele>
        <time>2014-08-10T09:21:21Z</time>
      </trkpt>
      <trkpt lat="44.3425" lon="2.66175">
        <ele>651.4304199</ele>
        <time>2014-08-10T09:21:32Z</time>
      </trkpt>
      <trkpt lat="44.34251" lon="2.66172">
        <ele>650.949707</ele>
        <time>2014-08-10T09:21:37Z</time>
      </trkpt>
      <trkpt lat="44.3425" lon="2.6617">
        <ele>646.1433105</ele>
        <time>2014-08-10T09:21:43Z</time>
      </trkpt>
      <trkpt lat="44.34249" lon="2.66171">
        <ele>643.7399902</ele>
        <time>2014-08-10T09:21:49Z</time>
      </trkpt>
      <trkpt lat="44.34251" lon="2.66173">
        <ele>645.6625977</ele>
        <time>2014-08-10T09:22:02Z</time>
      </trkpt>
      <trkpt lat="44.34252" lon="2.66171">
        <ele>640.855957</ele>
        <time>2014-08-10T09:22:11Z</time>
      </trkpt>
      <trkpt lat="44.34253" lon="2.66171">
        <ele>642.2980957</ele>
        <time>2014-08-10T09:22:36Z</time>
      </trkpt>
      <trkpt lat="44.34251" lon="2.66173">
        <ele>649.5078125</ele>
        <time>2014-08-10T09:22:48Z</time>
      </trkpt>
      <trkpt lat="44.34251" lon="2.66174">
        <ele>651.4304199</ele>
        <time>2014-08-10T09:23:18Z</time>
      </trkpt>
      <trkpt lat="44.34252" lon="2.66173">
        <ele>653.3532715</ele>
        <time>2014-08-10T09:23:31Z</time>
      </trkpt>
      <trkpt lat="44.34253" lon="2.66172">
        <ele>651.4304199</ele>
        <time>2014-08-10T09:23:39Z</time>
      </trkpt>
      <trkpt lat="44.34254" lon="2.66173">
        <ele>644.2207031</ele>
        <time>2014-08-10T09:23:52Z</time>
      </trkpt>
      <trkpt lat="44.34252" lon="2.66173">
        <ele>643.7399902</ele>
        <time>2014-08-10T09:23:57Z</time>
      </trkpt>
      <trkpt lat="44.34252" lon="2.66176">
        <ele>644.2207031</ele>
        <time>2014-08-10T09:24:05Z</time>
      </trkpt>
      <trkpt lat="44.34253" lon="2.6617">
        <ele>644.2207031</ele>
        <time>2014-08-10T09:24:17Z</time>
      </trkpt>
      <trkpt lat="44.34252" lon="2.66168">
        <ele>643.7399902</ele>
        <time>2014-08-10T09:24:23Z</time>
      </trkpt>
      <trkpt lat="44.34253" lon="2.66163">
        <ele>643.7399902</ele>
        <time>2014-08-10T09:24:28Z</time>
      </trkpt>
      <trkpt lat="44.34255" lon="2.66157">
        <ele>649.0270996</ele>
        <time>2014-08-10T09:24:35Z</time>
      </trkpt>
      <trkpt lat="44.34257" lon="2.66148">
        <ele>646.1433105</ele>
        <time>2014-08-10T09:24:41Z</time>
      </trkpt>
      <trkpt lat="44.34257" lon="2.66146">
        <ele>645.1818848</ele>
        <time>2014-08-10T09:24:42Z</time>
      </trkpt>
      <trkpt lat="44.34261" lon="2.66135">
        <ele>643.7399902</ele>
        <time>2014-08-10T09:24:48Z</time>
      </trkpt>
      <trkpt lat="44.34263" lon="2.66123">
        <ele>644.2207031</ele>
        <time>2014-08-10T09:24:54Z</time>
      </trkpt>
      <trkpt lat="44.34259" lon="2.66106">
        <ele>648.065918</ele>
        <time>2014-08-10T09:25:00Z</time>
      </trkpt>
      <trkpt lat="44.34256" lon="2.66098">
        <ele>648.5463867</ele>
        <time>2014-08-10T09:25:05Z</time>
      </trkpt>
      <trkpt lat="44.34252" lon="2.66087">
        <ele>648.065918</ele>
        <time>2014-08-10T09:25:10Z</time>
      </trkpt>
      <trkpt lat="44.34249" lon="2.66078">
        <ele>651.4304199</ele>
        <time>2014-08-10T09:25:15Z</time>
      </trkpt>
      <trkpt lat="44.34244" lon="2.66062">
        <ele>655.2758789</ele>
        <time>2014-08-10T09:25:21Z</time>
      </trkpt>
      <trkpt lat="44.34242" lon="2.66046">
        <ele>658.1599121</ele>
        <time>2014-08-10T09:25:26Z</time>
      </trkpt>
      <trkpt lat="44.34242" lon="2.66042">
        <ele>658.6403809</ele>
        <time>2014-08-10T09:25:28Z</time>
      </trkpt>
      <trkpt lat="44.34243" lon="2.66029">
        <ele>658.6403809</ele>
        <time>2014-08-10T09:25:35Z</time>
      </trkpt>
      <trkpt lat="44.34243" lon="2.66019">
        <ele>659.6018066</ele>
        <time>2014-08-10T09:25:40Z</time>
      </trkpt>
      <trkpt lat="44.34244" lon="2.6601">
        <ele>659.1210938</ele>
        <time>2014-08-10T09:25:45Z</time>
      </trkpt>
      <trkpt lat="44.34243" lon="2.65999">
        <ele>661.5244141</ele>
        <time>2014-08-10T09:25:50Z</time>
      </trkpt>
      <trkpt lat="44.34241" lon="2.65986">
        <ele>663.9274902</ele>
        <time>2014-08-10T09:25:57Z</time>
      </trkpt>
      <trkpt lat="44.34238" lon="2.65976">
        <ele>659.6018066</ele>
        <time>2014-08-10T09:26:05Z</time>
      </trkpt>
      <trkpt lat="44.34237" lon="2.65967">
        <ele>658.1599121</ele>
        <time>2014-08-10T09:26:10Z</time>
      </trkpt>
      <trkpt lat="44.34236" lon="2.65954">
        <ele>655.2758789</ele>
        <time>2014-08-10T09:26:17Z</time>
      </trkpt>
      <trkpt lat="44.34235" lon="2.65943">
        <ele>653.8339844</ele>
        <time>2014-08-10T09:26:23Z</time>
      </trkpt>
      <trkpt lat="44.34233" lon="2.65938">
        <ele>654.3146973</ele>
        <time>2014-08-10T09:26:26Z</time>
      </trkpt>
      <trkpt lat="44.34231" lon="2.65935">
        <ele>653.8339844</ele>
        <time>2014-08-10T09:26:29Z</time>
      </trkpt>
      <trkpt lat="44.34223" lon="2.65921">
        <ele>654.795166</ele>
        <time>2014-08-10T09:26:39Z</time>
      </trkpt>
      <trkpt lat="44.34221" lon="2.65919">
        <ele>654.795166</ele>
        <time>2014-08-10T09:26:41Z</time>
      </trkpt>
      <trkpt lat="44.34219" lon="2.65916">
        <ele>654.3146973</ele>
        <time>2014-08-10T09:26:43Z</time>
      </trkpt>
      <trkpt lat="44.34218" lon="2.65914">
        <ele>655.7565918</ele>
        <time>2014-08-10T09:26:46Z</time>
      </trkpt>
      <trkpt lat="44.34213" lon="2.6591">
        <ele>659.1210938</ele>
        <time>2014-08-10T09:26:50Z</time>
      </trkpt>
      <trkpt lat="44.34206" lon="2.65907">
        <ele>659.6018066</ele>
        <time>2014-08-10T09:26:54Z</time>
      </trkpt>
      <trkpt lat="44.34198" lon="2.659">
        <ele>660.5629883</ele>
        <time>2014-08-10T09:27:00Z</time>
      </trkpt>
      <trkpt lat="44.34191" lon="2.65895">
        <ele>660.0822754</ele>
        <time>2014-08-10T09:27:05Z</time>
      </trkpt>
      <trkpt lat="44.34189" lon="2.65893">
        <ele>659.6018066</ele>
        <time>2014-08-10T09:27:07Z</time>
      </trkpt>
      <trkpt lat="44.34179" lon="2.65885">
        <ele>661.0437012</ele>
        <time>2014-08-10T09:27:14Z</time>
      </trkpt>
      <trkpt lat="44.34171" lon="2.65881">
        <ele>660.5629883</ele>
        <time>2014-08-10T09:27:20Z</time>
      </trkpt>
      <trkpt lat="44.34167" lon="2.65879">
        <ele>661.0437012</ele>
        <time>2014-08-10T09:27:23Z</time>
      </trkpt>
      <trkpt lat="44.34162" lon="2.65877">
        <ele>662.9663086</ele>
        <time>2014-08-10T09:27:27Z</time>
      </trkpt>
      <trkpt lat="44.3416" lon="2.65876">
        <ele>663.9274902</ele>
        <time>2014-08-10T09:27:29Z</time>
      </trkpt>
      <trkpt lat="44.3415" lon="2.65872">
        <ele>667.2922363</ele>
        <time>2014-08-10T09:27:37Z</time>
      </trkpt>
      <trkpt lat="44.34141" lon="2.65869">
        <ele>667.2922363</ele>
        <time>2014-08-10T09:27:44Z</time>
      </trkpt>
      <trkpt lat="44.34137" lon="2.65867">
        <ele>669.6958008</ele>
        <time>2014-08-10T09:27:48Z</time>
      </trkpt>
      <trkpt lat="44.34129" lon="2.65864">
        <ele>674.9829102</ele>
        <time>2014-08-10T09:27:55Z</time>
      </trkpt>
      <trkpt lat="44.34123" lon="2.65861">
        <ele>673.0603027</ele>
        <time>2014-08-10T09:28:01Z</time>
      </trkpt>
      <trkpt lat="44.34114" lon="2.65854">
        <ele>674.5021973</ele>
        <time>2014-08-10T09:28:08Z</time>
      </trkpt>
      <trkpt lat="44.34106" lon="2.65851">
        <ele>672.098877</ele>
        <time>2014-08-10T09:28:14Z</time>
      </trkpt>
      <trkpt lat="44.34102" lon="2.6585">
        <ele>673.0603027</ele>
        <time>2014-08-10T09:28:17Z</time>
      </trkpt>
      <trkpt lat="44.34091" lon="2.65848">
        <ele>674.0214844</ele>
        <time>2014-08-10T09:28:24Z</time>
      </trkpt>
      <trkpt lat="44.34083" lon="2.65846">
        <ele>674.9829102</ele>
        <time>2014-08-10T09:28:28Z</time>
      </trkpt>
      <trkpt lat="44.34079" lon="2.65847">
        <ele>676.4248047</ele>
        <time>2014-08-10T09:28:30Z</time>
      </trkpt>
      <trkpt lat="44.34064" lon="2.65849">
        <ele>680.7507324</ele>
        <time>2014-08-10T09:28:36Z</time>
      </trkpt>
      <trkpt lat="44.3405" lon="2.65853">
        <ele>686.0380859</ele>
        <time>2014-08-10T09:28:43Z</time>
      </trkpt>
      <trkpt lat="44.34044" lon="2.65854">
        <ele>688.9221191</ele>
        <time>2014-08-10T09:28:48Z</time>
      </trkpt>
      <trkpt lat="44.34036" lon="2.65854">
        <ele>691.3251953</ele>
        <time>2014-08-10T09:28:54Z</time>
      </trkpt>
      <trkpt lat="44.34032" lon="2.65854">
        <ele>691.8059082</ele>
        <time>2014-08-10T09:28:57Z</time>
      </trkpt>
      <trkpt lat="44.34024" lon="2.65855">
        <ele>692.2866211</ele>
        <time>2014-08-10T09:29:03Z</time>
      </trkpt>
      <trkpt lat="44.34018" lon="2.65857">
        <ele>690.3640137</ele>
        <time>2014-08-10T09:29:08Z</time>
      </trkpt>
      <trkpt lat="44.34009" lon="2.6586">
        <ele>688.9221191</ele>
        <time>2014-08-10T09:29:15Z</time>
      </trkpt>
      <trkpt lat="44.33998" lon="2.65864">
        <ele>689.4025879</ele>
        <time>2014-08-10T09:29:21Z</time>
      </trkpt>
      <trkpt lat="44.33993" lon="2.65866">
        <ele>689.8833008</ele>
        <time>2014-08-10T09:29:24Z</time>
      </trkpt>
      <trkpt lat="44.33988" lon="2.65868">
        <ele>690.3640137</ele>
        <time>2014-08-10T09:29:28Z</time>
      </trkpt>
      <trkpt lat="44.33982" lon="2.65872">
        <ele>688.4414063</ele>
        <time>2014-08-10T09:29:34Z</time>
      </trkpt>
      <trkpt lat="44.33973" lon="2.6588">
        <ele>687.9606934</ele>
        <time>2014-08-10T09:29:40Z</time>
      </trkpt>
      <trkpt lat="44.33968" lon="2.65883">
        <ele>688.4414063</ele>
        <time>2014-08-10T09:29:43Z</time>
      </trkpt>
      <trkpt lat="44.33952" lon="2.65885">
        <ele>687.9606934</ele>
        <time>2014-08-10T09:29:49Z</time>
      </trkpt>
      <trkpt lat="44.3394" lon="2.65885">
        <ele>686.9992676</ele>
        <time>2014-08-10T09:29:54Z</time>
      </trkpt>
      <trkpt lat="44.33929" lon="2.65886">
        <ele>687.9606934</ele>
        <time>2014-08-10T09:29:59Z</time>
      </trkpt>
      <trkpt lat="44.33919" lon="2.65877">
        <ele>686.5187988</ele>
        <time>2014-08-10T09:30:04Z</time>
      </trkpt>
      <trkpt lat="44.33914" lon="2.65861">
        <ele>685.557373</ele>
        <time>2014-08-10T09:30:09Z</time>
      </trkpt>
      <trkpt lat="44.33908" lon="2.65843">
        <ele>686.5187988</ele>
        <time>2014-08-10T09:30:14Z</time>
      </trkpt>
      <trkpt lat="44.33904" lon="2.65833">
        <ele>686.0380859</ele>
        <time>2014-08-10T09:30:17Z</time>
      </trkpt>
      <trkpt lat="44.33901" lon="2.65817">
        <ele>685.0769043</ele>
        <time>2014-08-10T09:30:22Z</time>
      </trkpt>
      <trkpt lat="44.33901" lon="2.65799">
        <ele>685.557373</ele>
        <time>2014-08-10T09:30:27Z</time>
      </trkpt>
      <trkpt lat="44.33901" lon="2.65795">
        <ele>686.0380859</ele>
        <time>2014-08-10T09:30:28Z</time>
      </trkpt>
      <trkpt lat="44.33906" lon="2.65768">
        <ele>686.0380859</ele>
        <time>2014-08-10T09:30:36Z</time>
      </trkpt>
      <trkpt lat="44.3391" lon="2.65745">
        <ele>686.9992676</ele>
        <time>2014-08-10T09:30:43Z</time>
      </trkpt>
      <trkpt lat="44.33915" lon="2.65724">
        <ele>686.5187988</ele>
        <time>2014-08-10T09:30:49Z</time>
      </trkpt>
      <trkpt lat="44.3392" lon="2.65706">
        <ele>685.0769043</ele>
        <time>2014-08-10T09:30:54Z</time>
      </trkpt>
      <trkpt lat="44.33923" lon="2.65689">
        <ele>684.1154785</ele>
        <time>2014-08-10T09:30:59Z</time>
      </trkpt>
      <trkpt lat="44.33925" lon="2.65678">
        <ele>686.5187988</ele>
        <time>2014-08-10T09:31:05Z</time>
      </trkpt>
      <trkpt lat="44.33928" lon="2.65664">
        <ele>687.4799805</ele>
        <time>2014-08-10T09:31:09Z</time>
      </trkpt>
      <trkpt lat="44.33933" lon="2.65641">
        <ele>687.9606934</ele>
        <time>2014-08-10T09:31:16Z</time>
      </trkpt>
      <trkpt lat="44.33938" lon="2.6562">
        <ele>687.4799805</ele>
        <time>2014-08-10T09:31:22Z</time>
      </trkpt>
      <trkpt lat="44.33948" lon="2.656">
        <ele>689.8833008</ele>
        <time>2014-08-10T09:31:29Z</time>
      </trkpt>
      <trkpt lat="44.33954" lon="2.65586">
        <ele>691.8059082</ele>
        <time>2014-08-10T09:31:33Z</time>
      </trkpt>
      <trkpt lat="44.33961" lon="2.6557">
        <ele>693.2478027</ele>
        <time>2014-08-10T09:31:38Z</time>
      </trkpt>
      <trkpt lat="44.33965" lon="2.65555">
        <ele>694.2092285</ele>
        <time>2014-08-10T09:31:42Z</time>
      </trkpt>
      <trkpt lat="44.33972" lon="2.65532">
        <ele>693.2478027</ele>
        <time>2014-08-10T09:31:48Z</time>
      </trkpt>
      <trkpt lat="44.33979" lon="2.65509">
        <ele>693.7285156</ele>
        <time>2014-08-10T09:31:54Z</time>
      </trkpt>
      <trkpt lat="44.33985" lon="2.65489">
        <ele>692.767334</ele>
        <time>2014-08-10T09:31:59Z</time>
      </trkpt>
      <trkpt lat="44.33992" lon="2.65469">
        <ele>691.3251953</ele>
        <time>2014-08-10T09:32:04Z</time>
      </trkpt>
      <trkpt lat="44.34" lon="2.65445">
        <ele>688.4414063</ele>
        <time>2014-08-10T09:32:10Z</time>
      </trkpt>
      <trkpt lat="44.34008" lon="2.65426">
        <ele>686.9992676</ele>
        <time>2014-08-10T09:32:15Z</time>
      </trkpt>
      <trkpt lat="44.34016" lon="2.65407">
        <ele>686.5187988</ele>
        <time>2014-08-10T09:32:20Z</time>
      </trkpt>
      <trkpt lat="44.34025" lon="2.65386">
        <ele>685.557373</ele>
        <time>2014-08-10T09:32:26Z</time>
      </trkpt>
      <trkpt lat="44.34031" lon="2.6537">
        <ele>686.0380859</ele>
        <time>2014-08-10T09:32:30Z</time>
      </trkpt>
      <trkpt lat="44.34039" lon="2.65354">
        <ele>685.557373</ele>
        <time>2014-08-10T09:32:34Z</time>
      </trkpt>
      <trkpt lat="44.34049" lon="2.65334">
        <ele>686.0380859</ele>
        <time>2014-08-10T09:32:40Z</time>
      </trkpt>
      <trkpt lat="44.34061" lon="2.65315">
        <ele>684.1154785</ele>
        <time>2014-08-10T09:32:46Z</time>
      </trkpt>
      <trkpt lat="44.34072" lon="2.653">
        <ele>682.6733398</ele>
        <time>2014-08-10T09:32:51Z</time>
      </trkpt>
      <trkpt lat="44.34085" lon="2.65277">
        <ele>679.3085938</ele>
        <time>2014-08-10T09:32:58Z</time>
      </trkpt>
      <trkpt lat="44.34095" lon="2.65262">
        <ele>676.9055176</ele>
        <time>2014-08-10T09:33:03Z</time>
      </trkpt>
      <trkpt lat="44.34105" lon="2.65248">
        <ele>675.4633789</ele>
        <time>2014-08-10T09:33:08Z</time>
      </trkpt>
      <trkpt lat="44.34117" lon="2.65231">
        <ele>674.5021973</ele>
        <time>2014-08-10T09:33:14Z</time>
      </trkpt>
      <trkpt lat="44.3413" lon="2.65213">
        <ele>673.0603027</ele>
        <time>2014-08-10T09:33:20Z</time>
      </trkpt>
      <trkpt lat="44.34141" lon="2.65196">
        <ele>674.0214844</ele>
        <time>2014-08-10T09:33:26Z</time>
      </trkpt>
      <trkpt lat="44.34152" lon="2.65178">
        <ele>674.0214844</ele>
        <time>2014-08-10T09:33:32Z</time>
      </trkpt>
      <trkpt lat="44.34163" lon="2.65161">
        <ele>674.5021973</ele>
        <time>2014-08-10T09:33:38Z</time>
      </trkpt>
      <trkpt lat="44.34171" lon="2.65151">
        <ele>674.9829102</ele>
        <time>2014-08-10T09:33:42Z</time>
      </trkpt>
      <trkpt lat="44.34173" lon="2.65131">
        <ele>675.4633789</ele>
        <time>2014-08-10T09:33:48Z</time>
      </trkpt>
      <trkpt lat="44.34171" lon="2.65121">
        <ele>675.9440918</ele>
        <time>2014-08-10T09:33:51Z</time>
      </trkpt>
      <trkpt lat="44.34168" lon="2.65099">
        <ele>675.9440918</ele>
        <time>2014-08-10T09:33:57Z</time>
      </trkpt>
      <trkpt lat="44.34167" lon="2.65081">
        <ele>675.4633789</ele>
        <time>2014-08-10T09:34:02Z</time>
      </trkpt>
      <trkpt lat="44.34162" lon="2.65061">
        <ele>674.9829102</ele>
        <time>2014-08-10T09:34:08Z</time>
      </trkpt>
      <trkpt lat="44.34159" lon="2.65042">
        <ele>674.0214844</ele>
        <time>2014-08-10T09:34:13Z</time>
      </trkpt>
      <trkpt lat="44.34155" lon="2.65025">
        <ele>673.0603027</ele>
        <time>2014-08-10T09:34:18Z</time>
      </trkpt>
      <trkpt lat="44.3415" lon="2.65002">
        <ele>671.6181641</ele>
        <time>2014-08-10T09:34:24Z</time>
      </trkpt>
      <trkpt lat="44.34147" lon="2.64983">
        <ele>670.6569824</ele>
        <time>2014-08-10T09:34:29Z</time>
      </trkpt>
      <trkpt lat="44.34146" lon="2.64968">
        <ele>669.2150879</ele>
        <time>2014-08-10T09:34:33Z</time>
      </trkpt>
      <trkpt lat="44.34143" lon="2.64949">
        <ele>669.2150879</ele>
        <time>2014-08-10T09:34:38Z</time>
      </trkpt>
      <trkpt lat="44.34141" lon="2.64927">
        <ele>669.2150879</ele>
        <time>2014-08-10T09:34:44Z</time>
      </trkpt>
      <trkpt lat="44.34139" lon="2.64908">
        <ele>670.6569824</ele>
        <time>2014-08-10T09:34:49Z</time>
      </trkpt>
      <trkpt lat="44.34139" lon="2.64888">
        <ele>670.6569824</ele>
        <time>2014-08-10T09:34:54Z</time>
      </trkpt>
      <trkpt lat="44.34138" lon="2.64868">
        <ele>670.1762695</ele>
        <time>2014-08-10T09:34:59Z</time>
      </trkpt>
      <trkpt lat="44.34136" lon="2.64849">
        <ele>669.2150879</ele>
        <time>2014-08-10T09:35:04Z</time>
      </trkpt>
      <trkpt lat="44.34134" lon="2.64831">
        <ele>667.7727051</ele>
        <time>2014-08-10T09:35:09Z</time>
      </trkpt>
      <trkpt lat="44.34134" lon="2.64828">
        <ele>667.2922363</ele>
        <time>2014-08-10T09:35:12Z</time>
      </trkpt>
      <trkpt lat="44.34133" lon="2.64821">
        <ele>666.3308105</ele>
        <time>2014-08-10T09:35:17Z</time>
      </trkpt>
      <trkpt lat="44.34133" lon="2.6481">
        <ele>664.888916</ele>
        <time>2014-08-10T09:35:23Z</time>
      </trkpt>
      <trkpt lat="44.34133" lon="2.64797">
        <ele>664.4082031</ele>
        <time>2014-08-10T09:35:28Z</time>
      </trkpt>
      <trkpt lat="44.34132" lon="2.64779">
        <ele>662.4855957</ele>
        <time>2014-08-10T09:35:34Z</time>
      </trkpt>
      <trkpt lat="44.34131" lon="2.6477">
        <ele>662.005127</ele>
        <time>2014-08-10T09:35:37Z</time>
      </trkpt>
      <trkpt lat="44.3413" lon="2.64757">
        <ele>662.005127</ele>
        <time>2014-08-10T09:35:42Z</time>
      </trkpt>
      <trkpt lat="44.34129" lon="2.64743">
        <ele>660.0822754</ele>
        <time>2014-08-10T09:35:47Z</time>
      </trkpt>
      <trkpt lat="44.34125" lon="2.6473">
        <ele>658.1599121</ele>
        <time>2014-08-10T09:35:53Z</time>
      </trkpt>
      <trkpt lat="44.34119" lon="2.64716">
        <ele>656.2370605</ele>
        <time>2014-08-10T09:35:59Z</time>
      </trkpt>
      <trkpt lat="44.34113" lon="2.64699">
        <ele>655.7565918</ele>
        <time>2014-08-10T09:36:05Z</time>
      </trkpt>
      <trkpt lat="44.34112" lon="2.64696">
        <ele>655.7565918</ele>
        <time>2014-08-10T09:36:06Z</time>
      </trkpt>
      <trkpt lat="44.34107" lon="2.64685">
        <ele>656.7177734</ele>
        <time>2014-08-10T09:36:10Z</time>
      </trkpt>
      <trkpt lat="44.34103" lon="2.64672">
        <ele>656.2370605</ele>
        <time>2014-08-10T09:36:14Z</time>
      </trkpt>
      <trkpt lat="44.34099" lon="2.64655">
        <ele>655.7565918</ele>
        <time>2014-08-10T09:36:19Z</time>
      </trkpt>
      <trkpt lat="44.34098" lon="2.64652">
        <ele>656.2370605</ele>
        <time>2014-08-10T09:36:20Z</time>
      </trkpt>
      <trkpt lat="44.34094" lon="2.64632">
        <ele>656.7177734</ele>
        <time>2014-08-10T09:36:26Z</time>
      </trkpt>
      <trkpt lat="44.34094" lon="2.64623">
        <ele>656.7177734</ele>
        <time>2014-08-10T09:36:29Z</time>
      </trkpt>
      <trkpt lat="44.34089" lon="2.64609">
        <ele>658.6403809</ele>
        <time>2014-08-10T09:36:34Z</time>
      </trkpt>
      <trkpt lat="44.34087" lon="2.64596">
        <ele>658.6403809</ele>
        <time>2014-08-10T09:36:38Z</time>
      </trkpt>
      <trkpt lat="44.34087" lon="2.64593">
        <ele>658.6403809</ele>
        <time>2014-08-10T09:36:39Z</time>
      </trkpt>
      <trkpt lat="44.34082" lon="2.64569">
        <ele>659.6018066</ele>
        <time>2014-08-10T09:36:46Z</time>
      </trkpt>
      <trkpt lat="44.34078" lon="2.64554">
        <ele>661.0437012</ele>
        <time>2014-08-10T09:36:51Z</time>
      </trkpt>
      <trkpt lat="44.34076" lon="2.64543">
        <ele>662.005127</ele>
        <time>2014-08-10T09:36:55Z</time>
      </trkpt>
      <trkpt lat="44.34074" lon="2.64529">
        <ele>662.4855957</ele>
        <time>2014-08-10T09:36:59Z</time>
      </trkpt>
      <trkpt lat="44.3407" lon="2.64513">
        <ele>663.9274902</ele>
        <time>2014-08-10T09:37:04Z</time>
      </trkpt>
      <trkpt lat="44.3407" lon="2.64506">
        <ele>663.4470215</ele>
        <time>2014-08-10T09:37:06Z</time>
      </trkpt>
      <trkpt lat="44.34067" lon="2.64484">
        <ele>662.9663086</ele>
        <time>2014-08-10T09:37:12Z</time>
      </trkpt>
      <trkpt lat="44.34068" lon="2.64465">
        <ele>660.5629883</ele>
        <time>2014-08-10T09:37:17Z</time>
      </trkpt>
      <trkpt lat="44.3407" lon="2.64448">
        <ele>660.5629883</ele>
        <time>2014-08-10T09:37:22Z</time>
      </trkpt>
      <trkpt lat="44.34072" lon="2.64422">
        <ele>659.1210938</ele>
        <time>2014-08-10T09:37:29Z</time>
      </trkpt>
      <trkpt lat="44.34068" lon="2.64397">
        <ele>659.1210938</ele>
        <time>2014-08-10T09:37:36Z</time>
      </trkpt>
      <trkpt lat="44.34063" lon="2.64378">
        <ele>660.0822754</ele>
        <time>2014-08-10T09:37:42Z</time>
      </trkpt>
      <trkpt lat="44.34059" lon="2.64355">
        <ele>661.0437012</ele>
        <time>2014-08-10T09:37:48Z</time>
      </trkpt>
      <trkpt lat="44.34058" lon="2.64331">
        <ele>659.6018066</ele>
        <time>2014-08-10T09:37:55Z</time>
      </trkpt>
      <trkpt lat="44.34058" lon="2.64315">
        <ele>659.6018066</ele>
        <time>2014-08-10T09:38:00Z</time>
      </trkpt>
      <trkpt lat="44.34056" lon="2.64299">
        <ele>660.0822754</ele>
        <time>2014-08-10T09:38:05Z</time>
      </trkpt>
      <trkpt lat="44.34057" lon="2.64292">
        <ele>659.6018066</ele>
        <time>2014-08-10T09:38:07Z</time>
      </trkpt>
      <trkpt lat="44.34053" lon="2.64272">
        <ele>660.5629883</ele>
        <time>2014-08-10T09:38:13Z</time>
      </trkpt>
      <trkpt lat="44.34048" lon="2.64256">
        <ele>662.4855957</ele>
        <time>2014-08-10T09:38:18Z</time>
      </trkpt>
      <trkpt lat="44.34046" lon="2.64246">
        <ele>663.4470215</ele>
        <time>2014-08-10T09:38:21Z</time>
      </trkpt>
      <trkpt lat="44.34038" lon="2.64225">
        <ele>666.3308105</ele>
        <time>2014-08-10T09:38:28Z</time>
      </trkpt>
      <trkpt lat="44.3403" lon="2.64211">
        <ele>668.734375</ele>
        <time>2014-08-10T09:38:33Z</time>
      </trkpt>
      <trkpt lat="44.34024" lon="2.64198">
        <ele>670.6569824</ele>
        <time>2014-08-10T09:38:38Z</time>
      </trkpt>
      <trkpt lat="44.34016" lon="2.64182">
        <ele>672.5795898</ele>
        <time>2014-08-10T09:38:43Z</time>
      </trkpt>
      <trkpt lat="44.34012" lon="2.64169">
        <ele>671.6181641</ele>
        <time>2014-08-10T09:38:47Z</time>
      </trkpt>
      <trkpt lat="44.3401" lon="2.64166">
        <ele>671.1376953</ele>
        <time>2014-08-10T09:38:48Z</time>
      </trkpt>
      <trkpt lat="44.34006" lon="2.64152">
        <ele>669.6958008</ele>
        <time>2014-08-10T09:38:52Z</time>
      </trkpt>
      <trkpt lat="44.34005" lon="2.64149">
        <ele>669.6958008</ele>
        <time>2014-08-10T09:38:53Z</time>
      </trkpt>
      <trkpt lat="44.33998" lon="2.64131">
        <ele>668.2536621</ele>
        <time>2014-08-10T09:38:58Z</time>
      </trkpt>
      <trkpt lat="44.33993" lon="2.64116">
        <ele>667.2922363</ele>
        <time>2014-08-10T09:39:02Z</time>
      </trkpt>
      <trkpt lat="44.33989" lon="2.64102">
        <ele>667.2922363</ele>
        <time>2014-08-10T09:39:06Z</time>
      </trkpt>
      <trkpt lat="44.33989" lon="2.64099">
        <ele>666.8115234</ele>
        <time>2014-08-10T09:39:07Z</time>
      </trkpt>
      <trkpt lat="44.33988" lon="2.64095">
        <ele>666.8115234</ele>
        <time>2014-08-10T09:39:10Z</time>
      </trkpt>
      <trkpt lat="44.33988" lon="2.64095">
        <ele>667.2922363</ele>
        <time>2014-08-10T09:39:25Z</time>
      </trkpt>
      <trkpt lat="44.33989" lon="2.64095">
        <ele>668.2536621</ele>
        <time>2014-08-10T09:39:30Z</time>
      </trkpt>
      <trkpt lat="44.33988" lon="2.64095">
        <ele>668.734375</ele>
        <time>2014-08-10T09:39:36Z</time>
      </trkpt>
      <trkpt lat="44.33988" lon="2.64095">
        <ele>668.2536621</ele>
        <time>2014-08-10T09:39:45Z</time>
      </trkpt>
      <trkpt lat="44.33987" lon="2.64094">
        <ele>668.2536621</ele>
        <time>2014-08-10T09:39:47Z</time>
      </trkpt>
      <trkpt lat="44.33979" lon="2.64071">
        <ele>668.734375</ele>
        <time>2014-08-10T09:39:54Z</time>
      </trkpt>
      <trkpt lat="44.33972" lon="2.64054">
        <ele>670.1762695</ele>
        <time>2014-08-10T09:39:59Z</time>
      </trkpt>
      <trkpt lat="44.33964" lon="2.64034">
        <ele>670.6569824</ele>
        <time>2014-08-10T09:40:04Z</time>
      </trkpt>
      <trkpt lat="44.33956" lon="2.64011">
        <ele>669.6958008</ele>
        <time>2014-08-10T09:40:10Z</time>
      </trkpt>
      <trkpt lat="44.33954" lon="2.64003">
        <ele>669.6958008</ele>
        <time>2014-08-10T09:40:12Z</time>
      </trkpt>
      <trkpt lat="44.33946" lon="2.63982">
        <ele>668.734375</ele>
        <time>2014-08-10T09:40:18Z</time>
      </trkpt>
      <trkpt lat="44.33945" lon="2.63978">
        <ele>669.2150879</ele>
        <time>2014-08-10T09:40:19Z</time>
      </trkpt>
      <trkpt lat="44.33937" lon="2.63958">
        <ele>669.2150879</ele>
        <time>2014-08-10T09:40:25Z</time>
      </trkpt>
      <trkpt lat="44.33932" lon="2.63944">
        <ele>669.6958008</ele>
        <time>2014-08-10T09:40:29Z</time>
      </trkpt>
      <trkpt lat="44.33927" lon="2.63927">
        <ele>669.6958008</ele>
        <time>2014-08-10T09:40:34Z</time>
      </trkpt>
      <trkpt lat="44.33919" lon="2.6391">
        <ele>668.2536621</ele>
        <time>2014-08-10T09:40:40Z</time>
      </trkpt>
      <trkpt lat="44.33917" lon="2.63908">
        <ele>668.2536621</ele>
        <time>2014-08-10T09:40:41Z</time>
      </trkpt>
      <trkpt lat="44.33903" lon="2.63912">
        <ele>669.2150879</ele>
        <time>2014-08-10T09:40:47Z</time>
      </trkpt>
      <trkpt lat="44.33891" lon="2.63917">
        <ele>668.2536621</ele>
        <time>2014-08-10T09:40:52Z</time>
      </trkpt>
      <trkpt lat="44.33878" lon="2.63918">
        <ele>667.7727051</ele>
        <time>2014-08-10T09:40:57Z</time>
      </trkpt>
      <trkpt lat="44.33863" lon="2.63916">
        <ele>668.2536621</ele>
        <time>2014-08-10T09:41:03Z</time>
      </trkpt>
      <trkpt lat="44.33853" lon="2.63904">
        <ele>668.2536621</ele>
        <time>2014-08-10T09:41:08Z</time>
      </trkpt>
      <trkpt lat="44.3385" lon="2.63889">
        <ele>667.2922363</ele>
        <time>2014-08-10T09:41:12Z</time>
      </trkpt>
      <trkpt lat="44.33849" lon="2.6387">
        <ele>667.7727051</ele>
        <time>2014-08-10T09:41:17Z</time>
      </trkpt>
      <trkpt lat="44.33848" lon="2.6385">
        <ele>668.734375</ele>
        <time>2014-08-10T09:41:22Z</time>
      </trkpt>
      <trkpt lat="44.33849" lon="2.63838">
        <ele>668.734375</ele>
        <time>2014-08-10T09:41:27Z</time>
      </trkpt>
      <trkpt lat="44.33848" lon="2.63831">
        <ele>668.734375</ele>
        <time>2014-08-10T09:41:32Z</time>
      </trkpt>
      <trkpt lat="44.33848" lon="2.63807">
        <ele>668.734375</ele>
        <time>2014-08-10T09:41:38Z</time>
      </trkpt>
      <trkpt lat="44.33848" lon="2.63783">
        <ele>668.734375</ele>
        <time>2014-08-10T09:41:44Z</time>
      </trkpt>
      <trkpt lat="44.33848" lon="2.63763">
        <ele>668.2536621</ele>
        <time>2014-08-10T09:41:49Z</time>
      </trkpt>
      <trkpt lat="44.33849" lon="2.63739">
        <ele>667.7727051</ele>
        <time>2014-08-10T09:41:55Z</time>
      </trkpt>
      <trkpt lat="44.3385" lon="2.63719">
        <ele>667.2922363</ele>
        <time>2014-08-10T09:42:00Z</time>
      </trkpt>
      <trkpt lat="44.33849" lon="2.63699">
        <ele>667.7727051</ele>
        <time>2014-08-10T09:42:05Z</time>
      </trkpt>
      <trkpt lat="44.33848" lon="2.63675">
        <ele>667.7727051</ele>
        <time>2014-08-10T09:42:11Z</time>
      </trkpt>
      <trkpt lat="44.33842" lon="2.63649">
        <ele>670.1762695</ele>
        <time>2014-08-10T09:42:18Z</time>
      </trkpt>
      <trkpt lat="44.33839" lon="2.63631">
        <ele>670.6569824</ele>
        <time>2014-08-10T09:42:23Z</time>
      </trkpt>
      <trkpt lat="44.33835" lon="2.63611">
        <ele>670.6569824</ele>
        <time>2014-08-10T09:42:29Z</time>
      </trkpt>
      <trkpt lat="44.33832" lon="2.63593">
        <ele>670.1762695</ele>
        <time>2014-08-10T09:42:34Z</time>
      </trkpt>
      <trkpt lat="44.3383" lon="2.6357">
        <ele>669.6958008</ele>
        <time>2014-08-10T09:42:40Z</time>
      </trkpt>
      <trkpt lat="44.33827" lon="2.63552">
        <ele>669.6958008</ele>
        <time>2014-08-10T09:42:45Z</time>
      </trkpt>
      <trkpt lat="44.33825" lon="2.63533">
        <ele>669.6958008</ele>
        <time>2014-08-10T09:42:50Z</time>
      </trkpt>
      <trkpt lat="44.33823" lon="2.63509">
        <ele>668.734375</ele>
        <time>2014-08-10T09:42:56Z</time>
      </trkpt>
      <trkpt lat="44.33822" lon="2.6349">
        <ele>667.2922363</ele>
        <time>2014-08-10T09:43:01Z</time>
      </trkpt>
      <trkpt lat="44.3382" lon="2.6347">
        <ele>667.2922363</ele>
        <time>2014-08-10T09:43:06Z</time>
      </trkpt>
      <trkpt lat="44.33819" lon="2.6345">
        <ele>666.8115234</ele>
        <time>2014-08-10T09:43:11Z</time>
      </trkpt>
      <trkpt lat="44.33818" lon="2.63425">
        <ele>666.8115234</ele>
        <time>2014-08-10T09:43:17Z</time>
      </trkpt>
      <trkpt lat="44.33819" lon="2.63403">
        <ele>666.3308105</ele>
        <time>2014-08-10T09:43:22Z</time>
      </trkpt>
      <trkpt lat="44.33819" lon="2.63383">
        <ele>665.8503418</ele>
        <time>2014-08-10T09:43:27Z</time>
      </trkpt>
      <trkpt lat="44.3382" lon="2.63369">
        <ele>666.3308105</ele>
        <time>2014-08-10T09:43:31Z</time>
      </trkpt>
      <trkpt lat="44.33819" lon="2.63366">
        <ele>666.3308105</ele>
        <time>2014-08-10T09:43:32Z</time>
      </trkpt>
      <trkpt lat="44.33819" lon="2.63339">
        <ele>665.8503418</ele>
        <time>2014-08-10T09:43:39Z</time>
      </trkpt>
      <trkpt lat="44.33817" lon="2.6332">
        <ele>665.3696289</ele>
        <time>2014-08-10T09:43:44Z</time>
      </trkpt>
      <trkpt lat="44.33808" lon="2.63307">
        <ele>665.8503418</ele>
        <time>2014-08-10T09:43:49Z</time>
      </trkpt>
      <trkpt lat="44.33799" lon="2.63296">
        <ele>665.8503418</ele>
        <time>2014-08-10T09:43:54Z</time>
      </trkpt>
      <trkpt lat="44.33793" lon="2.63283">
        <ele>664.888916</ele>
        <time>2014-08-10T09:43:58Z</time>
      </trkpt>
      <trkpt lat="44.33784" lon="2.63266">
        <ele>663.4470215</ele>
        <time>2014-08-10T09:44:03Z</time>
      </trkpt>
      <trkpt lat="44.33775" lon="2.63251">
        <ele>662.9663086</ele>
        <time>2014-08-10T09:44:08Z</time>
      </trkpt>
      <trkpt lat="44.33764" lon="2.63233">
        <ele>663.4470215</ele>
        <time>2014-08-10T09:44:14Z</time>
      </trkpt>
      <trkpt lat="44.33754" lon="2.63214">
        <ele>662.9663086</ele>
        <time>2014-08-10T09:44:20Z</time>
      </trkpt>
      <trkpt lat="44.33745" lon="2.63192">
        <ele>658.6403809</ele>
        <time>2014-08-10T09:44:26Z</time>
      </trkpt>
      <trkpt lat="44.33744" lon="2.63166">
        <ele>655.2758789</ele>
        <time>2014-08-10T09:44:32Z</time>
      </trkpt>
      <trkpt lat="44.33745" lon="2.63149">
        <ele>653.3532715</ele>
        <time>2014-08-10T09:44:36Z</time>
      </trkpt>
      <trkpt lat="44.33744" lon="2.63129">
        <ele>651.9111328</ele>
        <time>2014-08-10T09:44:41Z</time>
      </trkpt>
      <trkpt lat="44.33746" lon="2.6311">
        <ele>651.9111328</ele>
        <time>2014-08-10T09:44:46Z</time>
      </trkpt>
      <trkpt lat="44.33739" lon="2.63099">
        <ele>651.9111328</ele>
        <time>2014-08-10T09:44:50Z</time>
      </trkpt>
      <trkpt lat="44.33723" lon="2.63089">
        <ele>650.949707</ele>
        <time>2014-08-10T09:44:56Z</time>
      </trkpt>
      <trkpt lat="44.33708" lon="2.63083">
        <ele>649.0270996</ele>
        <time>2014-08-10T09:45:01Z</time>
      </trkpt>
      <trkpt lat="44.33694" lon="2.6308">
        <ele>648.065918</ele>
        <time>2014-08-10T09:45:06Z</time>
      </trkpt>
      <trkpt lat="44.33675" lon="2.63078">
        <ele>646.1433105</ele>
        <time>2014-08-10T09:45:12Z</time>
      </trkpt>
      <trkpt lat="44.3366" lon="2.63077">
        <ele>645.6625977</ele>
        <time>2014-08-10T09:45:17Z</time>
      </trkpt>
      <trkpt lat="44.33643" lon="2.63075">
        <ele>647.1044922</ele>
        <time>2014-08-10T09:45:23Z</time>
      </trkpt>
      <trkpt lat="44.33631" lon="2.63073">
        <ele>648.065918</ele>
        <time>2014-08-10T09:45:27Z</time>
      </trkpt>
      <trkpt lat="44.33613" lon="2.63069">
        <ele>648.065918</ele>
        <time>2014-08-10T09:45:33Z</time>
      </trkpt>
      <trkpt lat="44.33603" lon="2.63064">
        <ele>648.065918</ele>
        <time>2014-08-10T09:45:37Z</time>
      </trkpt>
      <trkpt lat="44.33588" lon="2.63056">
        <ele>648.5463867</ele>
        <time>2014-08-10T09:45:43Z</time>
      </trkpt>
      <trkpt lat="44.33583" lon="2.63041">
        <ele>648.5463867</ele>
        <time>2014-08-10T09:45:47Z</time>
      </trkpt>
      <trkpt lat="44.33578" lon="2.63024">
        <ele>648.065918</ele>
        <time>2014-08-10T09:45:52Z</time>
      </trkpt>
      <trkpt lat="44.33576" lon="2.63006">
        <ele>647.5852051</ele>
        <time>2014-08-10T09:45:57Z</time>
      </trkpt>
      <trkpt lat="44.33576" lon="2.62985">
        <ele>646.6240234</ele>
        <time>2014-08-10T09:46:03Z</time>
      </trkpt>
      <trkpt lat="44.33573" lon="2.62965">
        <ele>645.6625977</ele>
        <time>2014-08-10T09:46:09Z</time>
      </trkpt>
      <trkpt lat="44.3357" lon="2.62946">
        <ele>645.1818848</ele>
        <time>2014-08-10T09:46:15Z</time>
      </trkpt>
      <trkpt lat="44.3357" lon="2.62943">
        <ele>645.1818848</ele>
        <time>2014-08-10T09:46:16Z</time>
      </trkpt>
      <trkpt lat="44.3357" lon="2.62927">
        <ele>645.6625977</ele>
        <time>2014-08-10T09:46:22Z</time>
      </trkpt>
      <trkpt lat="44.33575" lon="2.62922">
        <ele>647.1044922</ele>
        <time>2014-08-10T09:46:25Z</time>
      </trkpt>
      <trkpt lat="44.33579" lon="2.62921">
        <ele>647.1044922</ele>
        <time>2014-08-10T09:46:28Z</time>
      </trkpt>
      <trkpt lat="44.33585" lon="2.62915">
        <ele>629.3200684</ele>
        <time>2014-08-10T09:47:12Z</time>
      </trkpt>
      <trkpt lat="44.33585" lon="2.62916">
        <ele>628.3588867</ele>
        <time>2014-08-10T09:47:13Z</time>
      </trkpt>
      <trkpt lat="44.33586" lon="2.62918">
        <ele>629.8007813</ele>
        <time>2014-08-10T09:47:14Z</time>
      </trkpt>
      <trkpt lat="44.33587" lon="2.62922">
        <ele>631.2429199</ele>
        <time>2014-08-10T09:47:16Z</time>
      </trkpt>
      <trkpt lat="44.33588" lon="2.62924">
        <ele>630.2814941</ele>
        <time>2014-08-10T09:47:19Z</time>
      </trkpt>
      <trkpt lat="44.33591" lon="2.62923">
        <ele>631.2429199</ele>
        <time>2014-08-10T09:47:24Z</time>
      </trkpt>
      <trkpt lat="44.33585" lon="2.62923">
        <ele>621.1491699</ele>
        <time>2014-08-10T09:47:33Z</time>
      </trkpt>
      <trkpt lat="44.33581" lon="2.62928">
        <ele>612.9777832</ele>
        <time>2014-08-10T09:47:40Z</time>
      </trkpt>
      <trkpt lat="44.33581" lon="2.62933">
        <ele>621.1491699</ele>
        <time>2014-08-10T09:47:46Z</time>
      </trkpt>
      <trkpt lat="44.33586" lon="2.62936">
        <ele>624.032959</ele>
        <time>2014-08-10T09:47:53Z</time>
      </trkpt>
      <trkpt lat="44.33585" lon="2.62934">
        <ele>644.2207031</ele>
        <time>2014-08-10T09:48:04Z</time>
      </trkpt>
      <trkpt lat="44.33588" lon="2.62934">
        <ele>645.1818848</ele>
        <time>2014-08-10T09:48:09Z</time>
      </trkpt>
      <trkpt lat="44.3359" lon="2.62931">
        <ele>642.7788086</ele>
        <time>2014-08-10T09:48:11Z</time>
      </trkpt>
      <trkpt lat="44.33588" lon="2.62937">
        <ele>634.126709</ele>
        <time>2014-08-10T09:48:17Z</time>
      </trkpt>
      <trkpt lat="44.3358" lon="2.62931">
        <ele>607.6906738</ele>
        <time>2014-08-10T09:48:26Z</time>
      </trkpt>
      <trkpt lat="44.33584" lon="2.62921">
        <ele>603.8452148</ele>
        <time>2014-08-10T09:48:32Z</time>
      </trkpt>
      <trkpt lat="44.33585" lon="2.6292">
        <ele>602.4030762</ele>
        <time>2014-08-10T09:48:37Z</time>
      </trkpt>
      <trkpt lat="44.33584" lon="2.62923">
        <ele>598.5578613</ele>
        <time>2014-08-10T09:48:43Z</time>
      </trkpt>
      <trkpt lat="44.33584" lon="2.62922">
        <ele>593.270752</ele>
        <time>2014-08-10T09:48:46Z</time>
      </trkpt>
      <trkpt lat="44.33577" lon="2.62916">
        <ele>581.7348633</ele>
        <time>2014-08-10T09:48:50Z</time>
      </trkpt>
      <trkpt lat="44.33578" lon="2.62909">
        <ele>571.1604004</ele>
        <time>2014-08-10T09:48:56Z</time>
      </trkpt>
      <trkpt lat="44.33577" lon="2.62909">
        <ele>570.6796875</ele>
        <time>2014-08-10T09:48:58Z</time>
      </trkpt>
      <trkpt lat="44.33579" lon="2.62918">
        <ele>565.873291</ele>
        <time>2014-08-10T09:49:14Z</time>
      </trkpt>
      <trkpt lat="44.33579" lon="2.62915">
        <ele>551.934082</ele>
        <time>2014-08-10T09:49:22Z</time>
      </trkpt>
      <trkpt lat="44.33573" lon="2.62905">
        <ele>553.8566895</ele>
        <time>2014-08-10T09:49:28Z</time>
      </trkpt>
      <trkpt lat="44.33565" lon="2.62892">
        <ele>551.934082</ele>
        <time>2014-08-10T09:49:35Z</time>
      </trkpt>
      <trkpt lat="44.33509" lon="2.62907">
        <ele>584.6188965</ele>
        <time>2014-08-10T09:49:57Z</time>
      </trkpt>
      <trkpt lat="44.33576" lon="2.62876">
        <ele>607.2099609</ele>
        <time>2014-08-10T09:50:02Z</time>
      </trkpt>
      <trkpt lat="44.33614" lon="2.62901">
        <ele>624.032959</ele>
        <time>2014-08-10T09:50:09Z</time>
      </trkpt>
      <trkpt lat="44.33611" lon="2.62912">
        <ele>638.4528809</ele>
        <time>2014-08-10T09:50:14Z</time>
      </trkpt>
      <trkpt lat="44.33603" lon="2.62925">
        <ele>643.7399902</ele>
        <time>2014-08-10T09:50:22Z</time>
      </trkpt>
      <trkpt lat="44.33605" lon="2.62926">
        <ele>644.7011719</ele>
        <time>2014-08-10T09:50:24Z</time>
      </trkpt>
      <trkpt lat="44.33603" lon="2.62929">
        <ele>647.5852051</ele>
        <time>2014-08-10T09:50:35Z</time>
      </trkpt>
      <trkpt lat="44.33598" lon="2.62928">
        <ele>638.4528809</ele>
        <time>2014-08-10T09:50:42Z</time>
      </trkpt>
      <trkpt lat="44.33599" lon="2.6293">
        <ele>637.4914551</ele>
        <time>2014-08-10T09:50:47Z</time>
      </trkpt>
      <trkpt lat="44.33598" lon="2.62923">
        <ele>621.6296387</ele>
        <time>2014-08-10T09:50:54Z</time>
      </trkpt>
      <trkpt lat="44.336" lon="2.62923">
        <ele>619.7070313</ele>
        <time>2014-08-10T09:50:57Z</time>
      </trkpt>
      <trkpt lat="44.33603" lon="2.62923">
        <ele>625.4748535</ele>
        <time>2014-08-10T09:51:04Z</time>
      </trkpt>
      <trkpt lat="44.33602" lon="2.6292">
        <ele>632.6848145</ele>
        <time>2014-08-10T09:51:08Z</time>
      </trkpt>
      <trkpt lat="44.336" lon="2.62921">
        <ele>638.9335938</ele>
        <time>2014-08-10T09:51:15Z</time>
      </trkpt>
      <trkpt lat="44.336" lon="2.62923">
        <ele>640.855957</ele>
        <time>2014-08-10T09:51:16Z</time>
      </trkpt>
      <trkpt lat="44.33598" lon="2.62947">
        <ele>642.2980957</ele>
        <time>2014-08-10T09:51:22Z</time>
      </trkpt>
      <trkpt lat="44.33597" lon="2.62965">
        <ele>645.1818848</ele>
        <time>2014-08-10T09:51:29Z</time>
      </trkpt>
      <trkpt lat="44.33595" lon="2.62945">
        <ele>647.5852051</ele>
        <time>2014-08-10T09:51:34Z</time>
      </trkpt>
      <trkpt lat="44.33597" lon="2.62932">
        <ele>655.2758789</ele>
        <time>2014-08-10T09:51:40Z</time>
      </trkpt>
      <trkpt lat="44.336" lon="2.62935">
        <ele>668.2536621</ele>
        <time>2014-08-10T09:51:47Z</time>
      </trkpt>
      <trkpt lat="44.33601" lon="2.62935">
        <ele>681.2314453</ele>
        <time>2014-08-10T09:51:54Z</time>
      </trkpt>
      <trkpt lat="44.336" lon="2.6293">
        <ele>676.9055176</ele>
        <time>2014-08-10T09:52:01Z</time>
      </trkpt>
      <trkpt lat="44.33597" lon="2.62932">
        <ele>662.005127</ele>
        <time>2014-08-10T09:52:10Z</time>
      </trkpt>
      <trkpt lat="44.33593" lon="2.62931">
        <ele>648.065918</ele>
        <time>2014-08-10T09:52:15Z</time>
      </trkpt>
      <trkpt lat="44.33592" lon="2.62923">
        <ele>640.3754883</ele>
        <time>2014-08-10T09:52:17Z</time>
      </trkpt>
      <trkpt lat="44.33591" lon="2.62923">
        <ele>631.7233887</ele>
        <time>2014-08-10T09:52:24Z</time>
      </trkpt>
      <trkpt lat="44.33591" lon="2.62923">
        <ele>630.762207</ele>
        <time>2014-08-10T09:52:26Z</time>
      </trkpt>
    </trkseg>
  </trk>
</gpx>